<?xml version="1.0" encoding="UTF-8" standalone="no" ?>
<gpx xmlns="http://www.topografix.com/GPX/1/1" xmlns:xsi="http://www.w3.org/2001/XMLSchema-instance" xsi:schemaLocation="http://www.topografix.com/GPX/1/1 http://www.topografix.com/GPX/1/1/gpx.xsd" version="1.1" creator="VisuGPX - https://www.visugpx.com">
  <metadata>
    <name>Etang, petits sentiers, quelques passages délicats...</name>
    <desc><![CDATA[Une balade que j\'aime beaucoup, par ses paysages et ses petites difficultés ^^
un joli sentier étroit dans les bois....]]></desc>
  </metadata>
  <trk>
    <name><![CDATA[Untitled]]></name>
    <trkseg>
      <trkpt lat="48.71451" lon="1.77756">
        <ele>173.19999694824</ele>
        <time>2011-08-02T10:15:05.000Z</time>
      </trkpt>
      <trkpt lat="48.7146" lon="1.77748">
        <ele>173.39999389648</ele>
        <time>2011-08-02T10:15:13.000Z</time>
      </trkpt>
      <trkpt lat="48.71466" lon="1.77744">
        <ele>173.60000610352</ele>
        <time>2011-08-02T10:15:19.000Z</time>
      </trkpt>
      <trkpt lat="48.7147" lon="1.77743">
        <ele>173.60000610352</ele>
        <time>2011-08-02T10:15:22.000Z</time>
      </trkpt>
      <trkpt lat="48.71475" lon="1.77741">
        <ele>173.80000305176</ele>
        <time>2011-08-02T10:15:26.000Z</time>
      </trkpt>
      <trkpt lat="48.71481" lon="1.77736">
        <ele>174</ele>
        <time>2011-08-02T10:15:33.000Z</time>
      </trkpt>
      <trkpt lat="48.71487" lon="1.77731">
        <ele>174</ele>
        <time>2011-08-02T10:15:39.000Z</time>
      </trkpt>
      <trkpt lat="48.71491" lon="1.77728">
        <ele>174</ele>
        <time>2011-08-02T10:15:43.000Z</time>
      </trkpt>
      <trkpt lat="48.71493" lon="1.77725">
        <ele>174</ele>
        <time>2011-08-02T10:15:45.000Z</time>
      </trkpt>
      <trkpt lat="48.71496" lon="1.77723">
        <ele>174.19999694824</ele>
        <time>2011-08-02T10:15:48.000Z</time>
      </trkpt>
      <trkpt lat="48.71504" lon="1.77722">
        <ele>174.39999389648</ele>
        <time>2011-08-02T10:15:53.000Z</time>
      </trkpt>
      <trkpt lat="48.71511" lon="1.77716">
        <ele>174.80000305176</ele>
        <time>2011-08-02T10:15:59.000Z</time>
      </trkpt>
      <trkpt lat="48.71518" lon="1.77713">
        <ele>175.19999694824</ele>
        <time>2011-08-02T10:16:05.000Z</time>
      </trkpt>
      <trkpt lat="48.71523" lon="1.7771">
        <ele>175.39999389648</ele>
        <time>2011-08-02T10:16:10.000Z</time>
      </trkpt>
      <trkpt lat="48.71531" lon="1.77705">
        <ele>176</ele>
        <time>2011-08-02T10:16:17.000Z</time>
      </trkpt>
      <trkpt lat="48.71539" lon="1.77701">
        <ele>176.39999389648</ele>
        <time>2011-08-02T10:16:24.000Z</time>
      </trkpt>
      <trkpt lat="48.71546" lon="1.77701">
        <ele>177</ele>
        <time>2011-08-02T10:16:30.000Z</time>
      </trkpt>
      <trkpt lat="48.71556" lon="1.77703">
        <ele>177.60000610352</ele>
        <time>2011-08-02T10:16:37.000Z</time>
      </trkpt>
      <trkpt lat="48.7156" lon="1.77703">
        <ele>177.80000305176</ele>
        <time>2011-08-02T10:16:41.000Z</time>
      </trkpt>
      <trkpt lat="48.71569" lon="1.77705">
        <ele>178.39999389648</ele>
        <time>2011-08-02T10:16:48.000Z</time>
      </trkpt>
      <trkpt lat="48.7157" lon="1.77705">
        <ele>178.60000610352</ele>
        <time>2011-08-02T10:16:49.000Z</time>
      </trkpt>
      <trkpt lat="48.71575" lon="1.77706">
        <ele>178.80000305176</ele>
        <time>2011-08-02T10:16:54.000Z</time>
      </trkpt>
      <trkpt lat="48.71584" lon="1.77709">
        <ele>179.39999389648</ele>
        <time>2011-08-02T10:17:01.000Z</time>
      </trkpt>
      <trkpt lat="48.71584" lon="1.77708">
        <ele>179.39999389648</ele>
        <time>2011-08-02T10:17:02.000Z</time>
      </trkpt>
      <trkpt lat="48.71594" lon="1.77715">
        <ele>179.39999389648</ele>
        <time>2011-08-02T10:17:11.000Z</time>
      </trkpt>
      <trkpt lat="48.71595" lon="1.77716">
        <ele>179.39999389648</ele>
        <time>2011-08-02T10:17:12.000Z</time>
      </trkpt>
      <trkpt lat="48.71602" lon="1.77719">
        <ele>179.39999389648</ele>
        <time>2011-08-02T10:17:18.000Z</time>
      </trkpt>
      <trkpt lat="48.71604" lon="1.7772">
        <ele>179.39999389648</ele>
        <time>2011-08-02T10:17:19.000Z</time>
      </trkpt>
      <trkpt lat="48.71611" lon="1.77728">
        <ele>179.39999389648</ele>
        <time>2011-08-02T10:17:26.000Z</time>
      </trkpt>
      <trkpt lat="48.71618" lon="1.77732">
        <ele>179.39999389648</ele>
        <time>2011-08-02T10:17:32.000Z</time>
      </trkpt>
      <trkpt lat="48.71625" lon="1.77735">
        <ele>179.39999389648</ele>
        <time>2011-08-02T10:17:38.000Z</time>
      </trkpt>
      <trkpt lat="48.71631" lon="1.77739">
        <ele>179.39999389648</ele>
        <time>2011-08-02T10:17:44.000Z</time>
      </trkpt>
      <trkpt lat="48.71639" lon="1.77743">
        <ele>179.60000610352</ele>
        <time>2011-08-02T10:17:51.000Z</time>
      </trkpt>
      <trkpt lat="48.7164" lon="1.77744">
        <ele>179.60000610352</ele>
        <time>2011-08-02T10:17:52.000Z</time>
      </trkpt>
      <trkpt lat="48.71646" lon="1.77748">
        <ele>179.60000610352</ele>
        <time>2011-08-02T10:17:58.000Z</time>
      </trkpt>
      <trkpt lat="48.71651" lon="1.77751">
        <ele>179.80000305176</ele>
        <time>2011-08-02T10:18:02.000Z</time>
      </trkpt>
      <trkpt lat="48.71658" lon="1.77754">
        <ele>179.80000305176</ele>
        <time>2011-08-02T10:18:07.000Z</time>
      </trkpt>
      <trkpt lat="48.71659" lon="1.77754">
        <ele>179.80000305176</ele>
        <time>2011-08-02T10:18:08.000Z</time>
      </trkpt>
      <trkpt lat="48.71668" lon="1.77759">
        <ele>179.80000305176</ele>
        <time>2011-08-02T10:18:16.000Z</time>
      </trkpt>
      <trkpt lat="48.71676" lon="1.77761">
        <ele>179.80000305176</ele>
        <time>2011-08-02T10:18:22.000Z</time>
      </trkpt>
      <trkpt lat="48.71686" lon="1.77767">
        <ele>179.60000610352</ele>
        <time>2011-08-02T10:18:30.000Z</time>
      </trkpt>
      <trkpt lat="48.71696" lon="1.7777">
        <ele>179.60000610352</ele>
        <time>2011-08-02T10:18:38.000Z</time>
      </trkpt>
      <trkpt lat="48.717" lon="1.7777">
        <ele>179.60000610352</ele>
        <time>2011-08-02T10:18:42.000Z</time>
      </trkpt>
      <trkpt lat="48.71704" lon="1.77768">
        <ele>179.60000610352</ele>
        <time>2011-08-02T10:18:46.000Z</time>
      </trkpt>
      <trkpt lat="48.71706" lon="1.77767">
        <ele>179.39999389648</ele>
        <time>2011-08-02T10:18:48.000Z</time>
      </trkpt>
      <trkpt lat="48.71715" lon="1.77765">
        <ele>179.19999694824</ele>
        <time>2011-08-02T10:18:57.000Z</time>
      </trkpt>
      <trkpt lat="48.71722" lon="1.77761">
        <ele>179</ele>
        <time>2011-08-02T10:19:03.000Z</time>
      </trkpt>
      <trkpt lat="48.71724" lon="1.77759">
        <ele>179</ele>
        <time>2011-08-02T10:19:05.000Z</time>
      </trkpt>
      <trkpt lat="48.71733" lon="1.77754">
        <ele>178.60000610352</ele>
        <time>2011-08-02T10:19:12.000Z</time>
      </trkpt>
      <trkpt lat="48.7174" lon="1.7775">
        <ele>178.19999694824</ele>
        <time>2011-08-02T10:19:19.000Z</time>
      </trkpt>
      <trkpt lat="48.71748" lon="1.77745">
        <ele>177.39999389648</ele>
        <time>2011-08-02T10:19:26.000Z</time>
      </trkpt>
      <trkpt lat="48.71751" lon="1.77743">
        <ele>177.19999694824</ele>
        <time>2011-08-02T10:19:29.000Z</time>
      </trkpt>
      <trkpt lat="48.71757" lon="1.77739">
        <ele>177.19999694824</ele>
        <time>2011-08-02T10:19:37.000Z</time>
      </trkpt>
      <trkpt lat="48.71762" lon="1.77736">
        <ele>177.19999694824</ele>
        <time>2011-08-02T10:19:43.000Z</time>
      </trkpt>
      <trkpt lat="48.71767" lon="1.7773">
        <ele>177</ele>
        <time>2011-08-02T10:19:50.000Z</time>
      </trkpt>
      <trkpt lat="48.71772" lon="1.77726">
        <ele>177.19999694824</ele>
        <time>2011-08-02T10:19:55.000Z</time>
      </trkpt>
      <trkpt lat="48.71781" lon="1.77722">
        <ele>177.60000610352</ele>
        <time>2011-08-02T10:20:03.000Z</time>
      </trkpt>
      <trkpt lat="48.71789" lon="1.77712">
        <ele>177.39999389648</ele>
        <time>2011-08-02T10:20:11.000Z</time>
      </trkpt>
      <trkpt lat="48.71797" lon="1.77698">
        <ele>177.19999694824</ele>
        <time>2011-08-02T10:20:21.000Z</time>
      </trkpt>
      <trkpt lat="48.71804" lon="1.77689">
        <ele>177.39999389648</ele>
        <time>2011-08-02T10:20:28.000Z</time>
      </trkpt>
      <trkpt lat="48.71814" lon="1.77678">
        <ele>177.80000305176</ele>
        <time>2011-08-02T10:20:38.000Z</time>
      </trkpt>
      <trkpt lat="48.71821" lon="1.77672">
        <ele>178.39999389648</ele>
        <time>2011-08-02T10:20:45.000Z</time>
      </trkpt>
      <trkpt lat="48.71829" lon="1.77666">
        <ele>179.19999694824</ele>
        <time>2011-08-02T10:20:53.000Z</time>
      </trkpt>
      <trkpt lat="48.71839" lon="1.77657">
        <ele>179.39999389648</ele>
        <time>2011-08-02T10:21:02.000Z</time>
      </trkpt>
      <trkpt lat="48.71846" lon="1.77649">
        <ele>179</ele>
        <time>2011-08-02T10:21:10.000Z</time>
      </trkpt>
      <trkpt lat="48.71855" lon="1.77643">
        <ele>178.80000305176</ele>
        <time>2011-08-02T10:21:18.000Z</time>
      </trkpt>
      <trkpt lat="48.71862" lon="1.7764">
        <ele>178.60000610352</ele>
        <time>2011-08-02T10:21:24.000Z</time>
      </trkpt>
      <trkpt lat="48.71871" lon="1.77639">
        <ele>178.60000610352</ele>
        <time>2011-08-02T10:21:31.000Z</time>
      </trkpt>
      <trkpt lat="48.71879" lon="1.77641">
        <ele>178.80000305176</ele>
        <time>2011-08-02T10:21:38.000Z</time>
      </trkpt>
      <trkpt lat="48.71882" lon="1.77644">
        <ele>179.19999694824</ele>
        <time>2011-08-02T10:21:42.000Z</time>
      </trkpt>
      <trkpt lat="48.71885" lon="1.77645">
        <ele>179.19999694824</ele>
        <time>2011-08-02T10:21:45.000Z</time>
      </trkpt>
      <trkpt lat="48.71891" lon="1.77653">
        <ele>179.80000305176</ele>
        <time>2011-08-02T10:21:51.000Z</time>
      </trkpt>
      <trkpt lat="48.71896" lon="1.77659">
        <ele>180.19999694824</ele>
        <time>2011-08-02T10:21:56.000Z</time>
      </trkpt>
      <trkpt lat="48.71899" lon="1.77662">
        <ele>180.39999389648</ele>
        <time>2011-08-02T10:22:00.000Z</time>
      </trkpt>
      <trkpt lat="48.71908" lon="1.77673">
        <ele>181</ele>
        <time>2011-08-02T10:22:09.000Z</time>
      </trkpt>
      <trkpt lat="48.71914" lon="1.77683">
        <ele>181.19999694824</ele>
        <time>2011-08-02T10:22:16.000Z</time>
      </trkpt>
      <trkpt lat="48.71919" lon="1.77696">
        <ele>181.39999389648</ele>
        <time>2011-08-02T10:22:24.000Z</time>
      </trkpt>
      <trkpt lat="48.71921" lon="1.77701">
        <ele>181.39999389648</ele>
        <time>2011-08-02T10:22:27.000Z</time>
      </trkpt>
      <trkpt lat="48.71926" lon="1.77711">
        <ele>181.19999694824</ele>
        <time>2011-08-02T10:22:34.000Z</time>
      </trkpt>
      <trkpt lat="48.7193" lon="1.77728">
        <ele>181.60000610352</ele>
        <time>2011-08-02T10:22:43.000Z</time>
      </trkpt>
      <trkpt lat="48.71933" lon="1.77739">
        <ele>181.80000305176</ele>
        <time>2011-08-02T10:22:49.000Z</time>
      </trkpt>
      <trkpt lat="48.71934" lon="1.77748">
        <ele>182</ele>
        <time>2011-08-02T10:22:54.000Z</time>
      </trkpt>
      <trkpt lat="48.71933" lon="1.77751">
        <ele>182.19999694824</ele>
        <time>2011-08-02T10:22:57.000Z</time>
      </trkpt>
      <trkpt lat="48.71937" lon="1.7776">
        <ele>182.19999694824</ele>
        <time>2011-08-02T10:23:04.000Z</time>
      </trkpt>
      <trkpt lat="48.71939" lon="1.77773">
        <ele>182.39999389648</ele>
        <time>2011-08-02T10:23:12.000Z</time>
      </trkpt>
      <trkpt lat="48.7194" lon="1.77785">
        <ele>182.80000305176</ele>
        <time>2011-08-02T10:23:19.000Z</time>
      </trkpt>
      <trkpt lat="48.71941" lon="1.77798">
        <ele>183</ele>
        <time>2011-08-02T10:23:25.000Z</time>
      </trkpt>
      <trkpt lat="48.71942" lon="1.77801">
        <ele>183.19999694824</ele>
        <time>2011-08-02T10:23:27.000Z</time>
      </trkpt>
      <trkpt lat="48.71942" lon="1.77806">
        <ele>183.19999694824</ele>
        <time>2011-08-02T10:23:29.000Z</time>
      </trkpt>
      <trkpt lat="48.71944" lon="1.77814">
        <ele>183.39999389648</ele>
        <time>2011-08-02T10:23:33.000Z</time>
      </trkpt>
      <trkpt lat="48.71949" lon="1.77828">
        <ele>183.60000610352</ele>
        <time>2011-08-02T10:23:40.000Z</time>
      </trkpt>
      <trkpt lat="48.71952" lon="1.77831">
        <ele>183.60000610352</ele>
        <time>2011-08-02T10:23:42.000Z</time>
      </trkpt>
      <trkpt lat="48.71953" lon="1.77838">
        <ele>183.80000305176</ele>
        <time>2011-08-02T10:23:46.000Z</time>
      </trkpt>
      <trkpt lat="48.71959" lon="1.77849">
        <ele>183.80000305176</ele>
        <time>2011-08-02T10:23:53.000Z</time>
      </trkpt>
      <trkpt lat="48.71962" lon="1.77857">
        <ele>184</ele>
        <time>2011-08-02T10:23:57.000Z</time>
      </trkpt>
      <trkpt lat="48.71966" lon="1.77867">
        <ele>184.19999694824</ele>
        <time>2011-08-02T10:24:03.000Z</time>
      </trkpt>
      <trkpt lat="48.7197" lon="1.77872">
        <ele>184.19999694824</ele>
        <time>2011-08-02T10:24:07.000Z</time>
      </trkpt>
      <trkpt lat="48.71978" lon="1.77872">
        <ele>184</ele>
        <time>2011-08-02T10:24:14.000Z</time>
      </trkpt>
      <trkpt lat="48.7198" lon="1.7787">
        <ele>183.80000305176</ele>
        <time>2011-08-02T10:24:16.000Z</time>
      </trkpt>
      <trkpt lat="48.71987" lon="1.77864">
        <ele>183.39999389648</ele>
        <time>2011-08-02T10:24:22.000Z</time>
      </trkpt>
      <trkpt lat="48.71995" lon="1.77854">
        <ele>182.80000305176</ele>
        <time>2011-08-02T10:24:30.000Z</time>
      </trkpt>
      <trkpt lat="48.72002" lon="1.77843">
        <ele>182.19999694824</ele>
        <time>2011-08-02T10:24:38.000Z</time>
      </trkpt>
      <trkpt lat="48.72005" lon="1.77836">
        <ele>181.80000305176</ele>
        <time>2011-08-02T10:24:42.000Z</time>
      </trkpt>
      <trkpt lat="48.72011" lon="1.77822">
        <ele>181</ele>
        <time>2011-08-02T10:24:50.000Z</time>
      </trkpt>
      <trkpt lat="48.72016" lon="1.7781">
        <ele>180.39999389648</ele>
        <time>2011-08-02T10:24:57.000Z</time>
      </trkpt>
      <trkpt lat="48.72023" lon="1.77798">
        <ele>179.39999389648</ele>
        <time>2011-08-02T10:25:05.000Z</time>
      </trkpt>
      <trkpt lat="48.72024" lon="1.77795">
        <ele>179.19999694824</ele>
        <time>2011-08-02T10:25:07.000Z</time>
      </trkpt>
      <trkpt lat="48.72029" lon="1.77786">
        <ele>178.60000610352</ele>
        <time>2011-08-02T10:25:13.000Z</time>
      </trkpt>
      <trkpt lat="48.72034" lon="1.77781">
        <ele>178</ele>
        <time>2011-08-02T10:25:17.000Z</time>
      </trkpt>
      <trkpt lat="48.72039" lon="1.77778">
        <ele>177.60000610352</ele>
        <time>2011-08-02T10:25:21.000Z</time>
      </trkpt>
      <trkpt lat="48.7205" lon="1.77775">
        <ele>176.80000305176</ele>
        <time>2011-08-02T10:25:28.000Z</time>
      </trkpt>
      <trkpt lat="48.72052" lon="1.77775">
        <ele>176.60000610352</ele>
        <time>2011-08-02T10:25:30.000Z</time>
      </trkpt>
      <trkpt lat="48.72061" lon="1.77778">
        <ele>176.19999694824</ele>
        <time>2011-08-02T10:25:38.000Z</time>
      </trkpt>
      <trkpt lat="48.72066" lon="1.77779">
        <ele>176</ele>
        <time>2011-08-02T10:25:41.000Z</time>
      </trkpt>
      <trkpt lat="48.72073" lon="1.7778">
        <ele>175.60000610352</ele>
        <time>2011-08-02T10:25:45.000Z</time>
      </trkpt>
      <trkpt lat="48.72083" lon="1.77782">
        <ele>175.19999694824</ele>
        <time>2011-08-02T10:25:51.000Z</time>
      </trkpt>
      <trkpt lat="48.72088" lon="1.77783">
        <ele>175</ele>
        <time>2011-08-02T10:25:55.000Z</time>
      </trkpt>
      <trkpt lat="48.72093" lon="1.77782">
        <ele>174.60000610352</ele>
        <time>2011-08-02T10:25:58.000Z</time>
      </trkpt>
      <trkpt lat="48.72102" lon="1.77786">
        <ele>174.19999694824</ele>
        <time>2011-08-02T10:26:06.000Z</time>
      </trkpt>
      <trkpt lat="48.72112" lon="1.77789">
        <ele>173.60000610352</ele>
        <time>2011-08-02T10:26:12.000Z</time>
      </trkpt>
      <trkpt lat="48.72117" lon="1.77792">
        <ele>173.60000610352</ele>
        <time>2011-08-02T10:26:16.000Z</time>
      </trkpt>
      <trkpt lat="48.72123" lon="1.77797">
        <ele>173.39999389648</ele>
        <time>2011-08-02T10:26:21.000Z</time>
      </trkpt>
      <trkpt lat="48.72129" lon="1.77803">
        <ele>173.60000610352</ele>
        <time>2011-08-02T10:26:26.000Z</time>
      </trkpt>
      <trkpt lat="48.72135" lon="1.77808">
        <ele>173.60000610352</ele>
        <time>2011-08-02T10:26:32.000Z</time>
      </trkpt>
      <trkpt lat="48.72138" lon="1.77812">
        <ele>173.80000305176</ele>
        <time>2011-08-02T10:26:35.000Z</time>
      </trkpt>
      <trkpt lat="48.72145" lon="1.77815">
        <ele>173.60000610352</ele>
        <time>2011-08-02T10:26:41.000Z</time>
      </trkpt>
      <trkpt lat="48.72148" lon="1.7782">
        <ele>173.80000305176</ele>
        <time>2011-08-02T10:26:45.000Z</time>
      </trkpt>
      <trkpt lat="48.72155" lon="1.77826">
        <ele>174</ele>
        <time>2011-08-02T10:26:51.000Z</time>
      </trkpt>
      <trkpt lat="48.72156" lon="1.77827">
        <ele>174</ele>
        <time>2011-08-02T10:26:52.000Z</time>
      </trkpt>
      <trkpt lat="48.72165" lon="1.77839">
        <ele>174.39999389648</ele>
        <time>2011-08-02T10:27:02.000Z</time>
      </trkpt>
      <trkpt lat="48.72169" lon="1.77843">
        <ele>174.19999694824</ele>
        <time>2011-08-02T10:27:06.000Z</time>
      </trkpt>
      <trkpt lat="48.72176" lon="1.77846">
        <ele>173.80000305176</ele>
        <time>2011-08-02T10:27:11.000Z</time>
      </trkpt>
      <trkpt lat="48.72182" lon="1.77849">
        <ele>173.39999389648</ele>
        <time>2011-08-02T10:27:15.000Z</time>
      </trkpt>
      <trkpt lat="48.72185" lon="1.77856">
        <ele>173.39999389648</ele>
        <time>2011-08-02T10:27:20.000Z</time>
      </trkpt>
      <trkpt lat="48.72188" lon="1.77858">
        <ele>173.39999389648</ele>
        <time>2011-08-02T10:27:22.000Z</time>
      </trkpt>
      <trkpt lat="48.72199" lon="1.77865">
        <ele>172.80000305176</ele>
        <time>2011-08-02T10:27:31.000Z</time>
      </trkpt>
      <trkpt lat="48.72201" lon="1.77866">
        <ele>172.80000305176</ele>
        <time>2011-08-02T10:27:32.000Z</time>
      </trkpt>
      <trkpt lat="48.72207" lon="1.77872">
        <ele>172.80000305176</ele>
        <time>2011-08-02T10:27:38.000Z</time>
      </trkpt>
      <trkpt lat="48.72207" lon="1.77873">
        <ele>172.80000305176</ele>
        <time>2011-08-02T10:27:39.000Z</time>
      </trkpt>
      <trkpt lat="48.72216" lon="1.7788">
        <ele>172.80000305176</ele>
        <time>2011-08-02T10:27:46.000Z</time>
      </trkpt>
      <trkpt lat="48.72221" lon="1.77883">
        <ele>172.60000610352</ele>
        <time>2011-08-02T10:27:50.000Z</time>
      </trkpt>
      <trkpt lat="48.72227" lon="1.77887">
        <ele>172.60000610352</ele>
        <time>2011-08-02T10:27:54.000Z</time>
      </trkpt>
      <trkpt lat="48.72237" lon="1.77895">
        <ele>172.60000610352</ele>
        <time>2011-08-02T10:28:01.000Z</time>
      </trkpt>
      <trkpt lat="48.72246" lon="1.77901">
        <ele>172.39999389648</ele>
        <time>2011-08-02T10:28:07.000Z</time>
      </trkpt>
      <trkpt lat="48.72251" lon="1.77906">
        <ele>172.60000610352</ele>
        <time>2011-08-02T10:28:11.000Z</time>
      </trkpt>
      <trkpt lat="48.72256" lon="1.77912">
        <ele>172.80000305176</ele>
        <time>2011-08-02T10:28:16.000Z</time>
      </trkpt>
      <trkpt lat="48.72259" lon="1.77917">
        <ele>172.80000305176</ele>
        <time>2011-08-02T10:28:19.000Z</time>
      </trkpt>
      <trkpt lat="48.72264" lon="1.77924">
        <ele>172.39999389648</ele>
        <time>2011-08-02T10:28:24.000Z</time>
      </trkpt>
      <trkpt lat="48.72264" lon="1.77925">
        <ele>172.39999389648</ele>
        <time>2011-08-02T10:28:25.000Z</time>
      </trkpt>
      <trkpt lat="48.72269" lon="1.77938">
        <ele>172.19999694824</ele>
        <time>2011-08-02T10:28:33.000Z</time>
      </trkpt>
      <trkpt lat="48.72272" lon="1.77955">
        <ele>172.19999694824</ele>
        <time>2011-08-02T10:28:41.000Z</time>
      </trkpt>
      <trkpt lat="48.72274" lon="1.77971">
        <ele>172.39999389648</ele>
        <time>2011-08-02T10:28:49.000Z</time>
      </trkpt>
      <trkpt lat="48.72274" lon="1.77974">
        <ele>172.39999389648</ele>
        <time>2011-08-02T10:28:51.000Z</time>
      </trkpt>
      <trkpt lat="48.72271" lon="1.77986">
        <ele>173</ele>
        <time>2011-08-02T10:28:58.000Z</time>
      </trkpt>
      <trkpt lat="48.72268" lon="1.77997">
        <ele>173.60000610352</ele>
        <time>2011-08-02T10:29:06.000Z</time>
      </trkpt>
      <trkpt lat="48.72262" lon="1.78002">
        <ele>174.39999389648</ele>
        <time>2011-08-02T10:29:12.000Z</time>
      </trkpt>
      <trkpt lat="48.72262" lon="1.78003">
        <ele>174.39999389648</ele>
        <time>2011-08-02T10:29:15.000Z</time>
      </trkpt>
      <trkpt lat="48.72256" lon="1.78006">
        <ele>175</ele>
        <time>2011-08-02T10:29:22.000Z</time>
      </trkpt>
      <trkpt lat="48.72252" lon="1.78007">
        <ele>175.60000610352</ele>
        <time>2011-08-02T10:29:25.000Z</time>
      </trkpt>
      <trkpt lat="48.72245" lon="1.78011">
        <ele>176</ele>
        <time>2011-08-02T10:29:31.000Z</time>
      </trkpt>
      <trkpt lat="48.72237" lon="1.78016">
        <ele>176.39999389648</ele>
        <time>2011-08-02T10:29:38.000Z</time>
      </trkpt>
      <trkpt lat="48.72235" lon="1.78017">
        <ele>176.39999389648</ele>
        <time>2011-08-02T10:29:41.000Z</time>
      </trkpt>
      <trkpt lat="48.72228" lon="1.78021">
        <ele>176.80000305176</ele>
        <time>2011-08-02T10:29:48.000Z</time>
      </trkpt>
      <trkpt lat="48.72223" lon="1.78025">
        <ele>177</ele>
        <time>2011-08-02T10:29:51.000Z</time>
      </trkpt>
      <trkpt lat="48.72216" lon="1.78036">
        <ele>177.39999389648</ele>
        <time>2011-08-02T10:29:57.000Z</time>
      </trkpt>
      <trkpt lat="48.72214" lon="1.78046">
        <ele>177.39999389648</ele>
        <time>2011-08-02T10:30:03.000Z</time>
      </trkpt>
      <trkpt lat="48.72214" lon="1.7806">
        <ele>177.19999694824</ele>
        <time>2011-08-02T10:30:10.000Z</time>
      </trkpt>
      <trkpt lat="48.72215" lon="1.78065">
        <ele>177.19999694824</ele>
        <time>2011-08-02T10:30:13.000Z</time>
      </trkpt>
      <trkpt lat="48.72215" lon="1.78075">
        <ele>177</ele>
        <time>2011-08-02T10:30:19.000Z</time>
      </trkpt>
      <trkpt lat="48.72214" lon="1.78088">
        <ele>177</ele>
        <time>2011-08-02T10:30:26.000Z</time>
      </trkpt>
      <trkpt lat="48.72213" lon="1.78102">
        <ele>177</ele>
        <time>2011-08-02T10:30:32.000Z</time>
      </trkpt>
      <trkpt lat="48.72213" lon="1.78104">
        <ele>177</ele>
        <time>2011-08-02T10:30:33.000Z</time>
      </trkpt>
      <trkpt lat="48.72211" lon="1.7811">
        <ele>177.19999694824</ele>
        <time>2011-08-02T10:30:38.000Z</time>
      </trkpt>
      <trkpt lat="48.7221" lon="1.78116">
        <ele>177.39999389648</ele>
        <time>2011-08-02T10:30:42.000Z</time>
      </trkpt>
      <trkpt lat="48.72206" lon="1.78127">
        <ele>177.60000610352</ele>
        <time>2011-08-02T10:30:48.000Z</time>
      </trkpt>
      <trkpt lat="48.72204" lon="1.78135">
        <ele>177.60000610352</ele>
        <time>2011-08-02T10:30:53.000Z</time>
      </trkpt>
      <trkpt lat="48.72203" lon="1.7814">
        <ele>177.80000305176</ele>
        <time>2011-08-02T10:30:56.000Z</time>
      </trkpt>
      <trkpt lat="48.722" lon="1.78152">
        <ele>178</ele>
        <time>2011-08-02T10:31:02.000Z</time>
      </trkpt>
      <trkpt lat="48.72198" lon="1.78157">
        <ele>178</ele>
        <time>2011-08-02T10:31:04.000Z</time>
      </trkpt>
      <trkpt lat="48.72194" lon="1.78168">
        <ele>178.19999694824</ele>
        <time>2011-08-02T10:31:12.000Z</time>
      </trkpt>
      <trkpt lat="48.72191" lon="1.78181">
        <ele>178.60000610352</ele>
        <time>2011-08-02T10:31:19.000Z</time>
      </trkpt>
      <trkpt lat="48.72186" lon="1.78191">
        <ele>178.80000305176</ele>
        <time>2011-08-02T10:31:25.000Z</time>
      </trkpt>
      <trkpt lat="48.72184" lon="1.78199">
        <ele>179</ele>
        <time>2011-08-02T10:31:30.000Z</time>
      </trkpt>
      <trkpt lat="48.72181" lon="1.78211">
        <ele>179.19999694824</ele>
        <time>2011-08-02T10:31:37.000Z</time>
      </trkpt>
      <trkpt lat="48.72179" lon="1.78219">
        <ele>179.39999389648</ele>
        <time>2011-08-02T10:31:41.000Z</time>
      </trkpt>
      <trkpt lat="48.72178" lon="1.78222">
        <ele>179.39999389648</ele>
        <time>2011-08-02T10:31:43.000Z</time>
      </trkpt>
      <trkpt lat="48.72175" lon="1.78232">
        <ele>179.60000610352</ele>
        <time>2011-08-02T10:31:48.000Z</time>
      </trkpt>
      <trkpt lat="48.7217" lon="1.78247">
        <ele>179.80000305176</ele>
        <time>2011-08-02T10:31:55.000Z</time>
      </trkpt>
      <trkpt lat="48.72165" lon="1.78257">
        <ele>179.80000305176</ele>
        <time>2011-08-02T10:32:02.000Z</time>
      </trkpt>
      <trkpt lat="48.72164" lon="1.7826">
        <ele>179.60000610352</ele>
        <time>2011-08-02T10:32:04.000Z</time>
      </trkpt>
      <trkpt lat="48.72161" lon="1.78271">
        <ele>179.39999389648</ele>
        <time>2011-08-02T10:32:11.000Z</time>
      </trkpt>
      <trkpt lat="48.72158" lon="1.78285">
        <ele>179.19999694824</ele>
        <time>2011-08-02T10:32:16.000Z</time>
      </trkpt>
      <trkpt lat="48.72155" lon="1.78299">
        <ele>178.80000305176</ele>
        <time>2011-08-02T10:32:23.000Z</time>
      </trkpt>
      <trkpt lat="48.72153" lon="1.7831">
        <ele>178.60000610352</ele>
        <time>2011-08-02T10:32:29.000Z</time>
      </trkpt>
      <trkpt lat="48.72152" lon="1.78312">
        <ele>178.60000610352</ele>
        <time>2011-08-02T10:32:30.000Z</time>
      </trkpt>
      <trkpt lat="48.72152" lon="1.78314">
        <ele>178.60000610352</ele>
        <time>2011-08-02T10:32:32.000Z</time>
      </trkpt>
      <trkpt lat="48.72151" lon="1.78322">
        <ele>178.39999389648</ele>
        <time>2011-08-02T10:32:37.000Z</time>
      </trkpt>
      <trkpt lat="48.72151" lon="1.78326">
        <ele>178.19999694824</ele>
        <time>2011-08-02T10:32:42.000Z</time>
      </trkpt>
      <trkpt lat="48.72151" lon="1.78333">
        <ele>178</ele>
        <time>2011-08-02T10:32:48.000Z</time>
      </trkpt>
      <trkpt lat="48.72149" lon="1.78336">
        <ele>177.80000305176</ele>
        <time>2011-08-02T10:32:49.000Z</time>
      </trkpt>
      <trkpt lat="48.72145" lon="1.78355">
        <ele>175.39999389648</ele>
        <time>2011-08-02T10:32:58.000Z</time>
      </trkpt>
      <trkpt lat="48.72145" lon="1.78358">
        <ele>174.80000305176</ele>
        <time>2011-08-02T10:33:00.000Z</time>
      </trkpt>
      <trkpt lat="48.72142" lon="1.78369">
        <ele>173.60000610352</ele>
        <time>2011-08-02T10:33:05.000Z</time>
      </trkpt>
      <trkpt lat="48.72142" lon="1.78376">
        <ele>172.80000305176</ele>
        <time>2011-08-02T10:33:08.000Z</time>
      </trkpt>
      <trkpt lat="48.72144" lon="1.78384">
        <ele>171.39999389648</ele>
        <time>2011-08-02T10:33:14.000Z</time>
      </trkpt>
      <trkpt lat="48.72144" lon="1.78394">
        <ele>170.19999694824</ele>
        <time>2011-08-02T10:33:19.000Z</time>
      </trkpt>
      <trkpt lat="48.72146" lon="1.78399">
        <ele>169.39999389648</ele>
        <time>2011-08-02T10:33:23.000Z</time>
      </trkpt>
      <trkpt lat="48.72147" lon="1.784">
        <ele>169.19999694824</ele>
        <time>2011-08-02T10:33:24.000Z</time>
      </trkpt>
      <trkpt lat="48.72151" lon="1.78408">
        <ele>168</ele>
        <time>2011-08-02T10:33:29.000Z</time>
      </trkpt>
      <trkpt lat="48.72157" lon="1.78423">
        <ele>166.19999694824</ele>
        <time>2011-08-02T10:33:37.000Z</time>
      </trkpt>
      <trkpt lat="48.72162" lon="1.78431">
        <ele>165.60000610352</ele>
        <time>2011-08-02T10:33:42.000Z</time>
      </trkpt>
      <trkpt lat="48.72165" lon="1.78438">
        <ele>165.19999694824</ele>
        <time>2011-08-02T10:33:47.000Z</time>
      </trkpt>
      <trkpt lat="48.7217" lon="1.78451">
        <ele>164.60000610352</ele>
        <time>2011-08-02T10:33:54.000Z</time>
      </trkpt>
      <trkpt lat="48.72172" lon="1.78465">
        <ele>164.19999694824</ele>
        <time>2011-08-02T10:34:00.000Z</time>
      </trkpt>
      <trkpt lat="48.72176" lon="1.78474">
        <ele>164</ele>
        <time>2011-08-02T10:34:05.000Z</time>
      </trkpt>
      <trkpt lat="48.72184" lon="1.78484">
        <ele>163.60000610352</ele>
        <time>2011-08-02T10:34:12.000Z</time>
      </trkpt>
      <trkpt lat="48.72186" lon="1.78486">
        <ele>163.39999389648</ele>
        <time>2011-08-02T10:34:14.000Z</time>
      </trkpt>
      <trkpt lat="48.72191" lon="1.78489">
        <ele>163.39999389648</ele>
        <time>2011-08-02T10:34:19.000Z</time>
      </trkpt>
      <trkpt lat="48.72198" lon="1.78491">
        <ele>163.39999389648</ele>
        <time>2011-08-02T10:34:24.000Z</time>
      </trkpt>
      <trkpt lat="48.722" lon="1.78493">
        <ele>163.19999694824</ele>
        <time>2011-08-02T10:34:27.000Z</time>
      </trkpt>
      <trkpt lat="48.72207" lon="1.78496">
        <ele>163</ele>
        <time>2011-08-02T10:34:34.000Z</time>
      </trkpt>
      <trkpt lat="48.72212" lon="1.78495">
        <ele>163.19999694824</ele>
        <time>2011-08-02T10:34:39.000Z</time>
      </trkpt>
      <trkpt lat="48.72217" lon="1.78495">
        <ele>163.19999694824</ele>
        <time>2011-08-02T10:34:44.000Z</time>
      </trkpt>
      <trkpt lat="48.72223" lon="1.78494">
        <ele>163.19999694824</ele>
        <time>2011-08-02T10:34:49.000Z</time>
      </trkpt>
      <trkpt lat="48.72224" lon="1.78494">
        <ele>163.19999694824</ele>
        <time>2011-08-02T10:34:50.000Z</time>
      </trkpt>
      <trkpt lat="48.72234" lon="1.78493">
        <ele>163.19999694824</ele>
        <time>2011-08-02T10:34:58.000Z</time>
      </trkpt>
      <trkpt lat="48.72241" lon="1.78494">
        <ele>163.19999694824</ele>
        <time>2011-08-02T10:35:03.000Z</time>
      </trkpt>
      <trkpt lat="48.72242" lon="1.78494">
        <ele>163.19999694824</ele>
        <time>2011-08-02T10:35:04.000Z</time>
      </trkpt>
      <trkpt lat="48.72247" lon="1.78495">
        <ele>163.19999694824</ele>
        <time>2011-08-02T10:35:08.000Z</time>
      </trkpt>
      <trkpt lat="48.72252" lon="1.78494">
        <ele>163.39999389648</ele>
        <time>2011-08-02T10:35:12.000Z</time>
      </trkpt>
      <trkpt lat="48.72258" lon="1.78498">
        <ele>163.39999389648</ele>
        <time>2011-08-02T10:35:19.000Z</time>
      </trkpt>
      <trkpt lat="48.72263" lon="1.78499">
        <ele>163.60000610352</ele>
        <time>2011-08-02T10:35:23.000Z</time>
      </trkpt>
      <trkpt lat="48.72267" lon="1.78501">
        <ele>163.80000305176</ele>
        <time>2011-08-02T10:35:27.000Z</time>
      </trkpt>
      <trkpt lat="48.72276" lon="1.78508">
        <ele>164.60000610352</ele>
        <time>2011-08-02T10:35:35.000Z</time>
      </trkpt>
      <trkpt lat="48.72279" lon="1.7851">
        <ele>165</ele>
        <time>2011-08-02T10:35:37.000Z</time>
      </trkpt>
      <trkpt lat="48.72284" lon="1.78518">
        <ele>165.60000610352</ele>
        <time>2011-08-02T10:35:43.000Z</time>
      </trkpt>
      <trkpt lat="48.72293" lon="1.78521">
        <ele>166.19999694824</ele>
        <time>2011-08-02T10:35:48.000Z</time>
      </trkpt>
      <trkpt lat="48.72297" lon="1.7853">
        <ele>166.80000305176</ele>
        <time>2011-08-02T10:35:54.000Z</time>
      </trkpt>
      <trkpt lat="48.72303" lon="1.78543">
        <ele>167.80000305176</ele>
        <time>2011-08-02T10:36:02.000Z</time>
      </trkpt>
      <trkpt lat="48.7231" lon="1.78554">
        <ele>168.39999389648</ele>
        <time>2011-08-02T10:36:09.000Z</time>
      </trkpt>
      <trkpt lat="48.72313" lon="1.7856">
        <ele>168.80000305176</ele>
        <time>2011-08-02T10:36:13.000Z</time>
      </trkpt>
      <trkpt lat="48.7232" lon="1.78569">
        <ele>169.19999694824</ele>
        <time>2011-08-02T10:36:21.000Z</time>
      </trkpt>
      <trkpt lat="48.72327" lon="1.78578">
        <ele>169.80000305176</ele>
        <time>2011-08-02T10:36:29.000Z</time>
      </trkpt>
      <trkpt lat="48.72331" lon="1.78584">
        <ele>170</ele>
        <time>2011-08-02T10:36:33.000Z</time>
      </trkpt>
      <trkpt lat="48.72336" lon="1.78595">
        <ele>170.80000305176</ele>
        <time>2011-08-02T10:36:40.000Z</time>
      </trkpt>
      <trkpt lat="48.72337" lon="1.78598">
        <ele>171</ele>
        <time>2011-08-02T10:36:42.000Z</time>
      </trkpt>
      <trkpt lat="48.72345" lon="1.78605">
        <ele>171.80000305176</ele>
        <time>2011-08-02T10:36:49.000Z</time>
      </trkpt>
      <trkpt lat="48.72352" lon="1.7861">
        <ele>172.60000610352</ele>
        <time>2011-08-02T10:36:55.000Z</time>
      </trkpt>
      <trkpt lat="48.72359" lon="1.78617">
        <ele>173.19999694824</ele>
        <time>2011-08-02T10:37:03.000Z</time>
      </trkpt>
      <trkpt lat="48.72366" lon="1.78625">
        <ele>173.80000305176</ele>
        <time>2011-08-02T10:37:10.000Z</time>
      </trkpt>
      <trkpt lat="48.72373" lon="1.78631">
        <ele>174.39999389648</ele>
        <time>2011-08-02T10:37:16.000Z</time>
      </trkpt>
      <trkpt lat="48.72377" lon="1.78635">
        <ele>174.60000610352</ele>
        <time>2011-08-02T10:37:20.000Z</time>
      </trkpt>
      <trkpt lat="48.72384" lon="1.78642">
        <ele>175</ele>
        <time>2011-08-02T10:37:27.000Z</time>
      </trkpt>
      <trkpt lat="48.72392" lon="1.78651">
        <ele>175.39999389648</ele>
        <time>2011-08-02T10:37:36.000Z</time>
      </trkpt>
      <trkpt lat="48.72401" lon="1.78662">
        <ele>175.60000610352</ele>
        <time>2011-08-02T10:37:44.000Z</time>
      </trkpt>
      <trkpt lat="48.72407" lon="1.78666">
        <ele>175.60000610352</ele>
        <time>2011-08-02T10:37:50.000Z</time>
      </trkpt>
      <trkpt lat="48.72417" lon="1.78671">
        <ele>176</ele>
        <time>2011-08-02T10:37:58.000Z</time>
      </trkpt>
      <trkpt lat="48.72424" lon="1.78676">
        <ele>176</ele>
        <time>2011-08-02T10:38:05.000Z</time>
      </trkpt>
      <trkpt lat="48.7243" lon="1.78678">
        <ele>176.19999694824</ele>
        <time>2011-08-02T10:38:11.000Z</time>
      </trkpt>
      <trkpt lat="48.72439" lon="1.78682">
        <ele>176.39999389648</ele>
        <time>2011-08-02T10:38:19.000Z</time>
      </trkpt>
      <trkpt lat="48.72445" lon="1.78687">
        <ele>176.39999389648</ele>
        <time>2011-08-02T10:38:26.000Z</time>
      </trkpt>
      <trkpt lat="48.72452" lon="1.7869">
        <ele>176.60000610352</ele>
        <time>2011-08-02T10:38:32.000Z</time>
      </trkpt>
      <trkpt lat="48.72464" lon="1.78693">
        <ele>176.80000305176</ele>
        <time>2011-08-02T10:38:42.000Z</time>
      </trkpt>
      <trkpt lat="48.72475" lon="1.78694">
        <ele>177</ele>
        <time>2011-08-02T10:38:51.000Z</time>
      </trkpt>
      <trkpt lat="48.72483" lon="1.78695">
        <ele>177.19999694824</ele>
        <time>2011-08-02T10:38:58.000Z</time>
      </trkpt>
      <trkpt lat="48.72486" lon="1.78695">
        <ele>177.19999694824</ele>
        <time>2011-08-02T10:39:03.000Z</time>
      </trkpt>
      <trkpt lat="48.72491" lon="1.78693">
        <ele>177.39999389648</ele>
        <time>2011-08-02T10:39:22.000Z</time>
      </trkpt>
      <trkpt lat="48.72496" lon="1.78694">
        <ele>177.39999389648</ele>
        <time>2011-08-02T10:39:27.000Z</time>
      </trkpt>
      <trkpt lat="48.72501" lon="1.78695">
        <ele>177.60000610352</ele>
        <time>2011-08-02T10:39:33.000Z</time>
      </trkpt>
      <trkpt lat="48.72512" lon="1.78695">
        <ele>177.80000305176</ele>
        <time>2011-08-02T10:39:39.000Z</time>
      </trkpt>
      <trkpt lat="48.72516" lon="1.78695">
        <ele>177.80000305176</ele>
        <time>2011-08-02T10:39:44.000Z</time>
      </trkpt>
      <trkpt lat="48.72536" lon="1.78695">
        <ele>178.19999694824</ele>
        <time>2011-08-02T10:40:03.000Z</time>
      </trkpt>
      <trkpt lat="48.72544" lon="1.78696">
        <ele>178.19999694824</ele>
        <time>2011-08-02T10:40:09.000Z</time>
      </trkpt>
      <trkpt lat="48.72553" lon="1.78696">
        <ele>178.39999389648</ele>
        <time>2011-08-02T10:40:17.000Z</time>
      </trkpt>
      <trkpt lat="48.72558" lon="1.78695">
        <ele>178.39999389648</ele>
        <time>2011-08-02T10:40:22.000Z</time>
      </trkpt>
      <trkpt lat="48.72568" lon="1.78694">
        <ele>178.60000610352</ele>
        <time>2011-08-02T10:40:30.000Z</time>
      </trkpt>
      <trkpt lat="48.72575" lon="1.78695">
        <ele>178.80000305176</ele>
        <time>2011-08-02T10:40:36.000Z</time>
      </trkpt>
      <trkpt lat="48.72583" lon="1.78696">
        <ele>178.80000305176</ele>
        <time>2011-08-02T10:40:43.000Z</time>
      </trkpt>
      <trkpt lat="48.7259" lon="1.78694">
        <ele>179.19999694824</ele>
        <time>2011-08-02T10:40:49.000Z</time>
      </trkpt>
      <trkpt lat="48.726" lon="1.78696">
        <ele>179.39999389648</ele>
        <time>2011-08-02T10:40:57.000Z</time>
      </trkpt>
      <trkpt lat="48.72607" lon="1.78698">
        <ele>179.60000610352</ele>
        <time>2011-08-02T10:41:03.000Z</time>
      </trkpt>
      <trkpt lat="48.72616" lon="1.78703">
        <ele>180</ele>
        <time>2011-08-02T10:41:11.000Z</time>
      </trkpt>
      <trkpt lat="48.72624" lon="1.78708">
        <ele>180.19999694824</ele>
        <time>2011-08-02T10:41:17.000Z</time>
      </trkpt>
      <trkpt lat="48.72629" lon="1.78712">
        <ele>180.19999694824</ele>
        <time>2011-08-02T10:41:23.000Z</time>
      </trkpt>
      <trkpt lat="48.72631" lon="1.78713">
        <ele>180.19999694824</ele>
        <time>2011-08-02T10:41:24.000Z</time>
      </trkpt>
      <trkpt lat="48.72638" lon="1.78718">
        <ele>180.39999389648</ele>
        <time>2011-08-02T10:41:30.000Z</time>
      </trkpt>
      <trkpt lat="48.72639" lon="1.7872">
        <ele>180.39999389648</ele>
        <time>2011-08-02T10:41:34.000Z</time>
      </trkpt>
      <trkpt lat="48.72654" lon="1.78729">
        <ele>180.80000305176</ele>
        <time>2011-08-02T10:41:50.000Z</time>
      </trkpt>
      <trkpt lat="48.72658" lon="1.78729">
        <ele>181</ele>
        <time>2011-08-02T10:41:54.000Z</time>
      </trkpt>
      <trkpt lat="48.72663" lon="1.78731">
        <ele>181</ele>
        <time>2011-08-02T10:41:58.000Z</time>
      </trkpt>
      <trkpt lat="48.72674" lon="1.7874">
        <ele>181.19999694824</ele>
        <time>2011-08-02T10:42:08.000Z</time>
      </trkpt>
      <trkpt lat="48.72681" lon="1.78746">
        <ele>181.19999694824</ele>
        <time>2011-08-02T10:42:15.000Z</time>
      </trkpt>
      <trkpt lat="48.72683" lon="1.78747">
        <ele>181.19999694824</ele>
        <time>2011-08-02T10:42:17.000Z</time>
      </trkpt>
      <trkpt lat="48.72696" lon="1.7875">
        <ele>181.19999694824</ele>
        <time>2011-08-02T10:42:27.000Z</time>
      </trkpt>
      <trkpt lat="48.72703" lon="1.78757">
        <ele>181.19999694824</ele>
        <time>2011-08-02T10:42:34.000Z</time>
      </trkpt>
      <trkpt lat="48.72712" lon="1.78761">
        <ele>181.39999389648</ele>
        <time>2011-08-02T10:42:41.000Z</time>
      </trkpt>
      <trkpt lat="48.72723" lon="1.78767">
        <ele>181.60000610352</ele>
        <time>2011-08-02T10:42:49.000Z</time>
      </trkpt>
      <trkpt lat="48.72731" lon="1.78775">
        <ele>181.60000610352</ele>
        <time>2011-08-02T10:42:58.000Z</time>
      </trkpt>
      <trkpt lat="48.72742" lon="1.78784">
        <ele>181.80000305176</ele>
        <time>2011-08-02T10:43:08.000Z</time>
      </trkpt>
      <trkpt lat="48.72744" lon="1.78785">
        <ele>181.80000305176</ele>
        <time>2011-08-02T10:43:12.000Z</time>
      </trkpt>
      <trkpt lat="48.72767" lon="1.78791">
        <ele>182.19999694824</ele>
        <time>2011-08-02T10:43:37.000Z</time>
      </trkpt>
      <trkpt lat="48.72775" lon="1.78794">
        <ele>182.19999694824</ele>
        <time>2011-08-02T10:43:42.000Z</time>
      </trkpt>
      <trkpt lat="48.72786" lon="1.78796">
        <ele>182.19999694824</ele>
        <time>2011-08-02T10:43:51.000Z</time>
      </trkpt>
      <trkpt lat="48.72795" lon="1.78797">
        <ele>182.39999389648</ele>
        <time>2011-08-02T10:43:58.000Z</time>
      </trkpt>
      <trkpt lat="48.72797" lon="1.78798">
        <ele>182.39999389648</ele>
        <time>2011-08-02T10:44:00.000Z</time>
      </trkpt>
      <trkpt lat="48.72811" lon="1.78799">
        <ele>182.60000610352</ele>
        <time>2011-08-02T10:44:10.000Z</time>
      </trkpt>
      <trkpt lat="48.72817" lon="1.78798">
        <ele>182.60000610352</ele>
        <time>2011-08-02T10:44:15.000Z</time>
      </trkpt>
      <trkpt lat="48.72826" lon="1.78798">
        <ele>182.60000610352</ele>
        <time>2011-08-02T10:44:22.000Z</time>
      </trkpt>
      <trkpt lat="48.72837" lon="1.78799">
        <ele>182.80000305176</ele>
        <time>2011-08-02T10:44:29.000Z</time>
      </trkpt>
      <trkpt lat="48.72844" lon="1.78798">
        <ele>182.80000305176</ele>
        <time>2011-08-02T10:44:35.000Z</time>
      </trkpt>
      <trkpt lat="48.72854" lon="1.78795">
        <ele>182.80000305176</ele>
        <time>2011-08-02T10:44:43.000Z</time>
      </trkpt>
      <trkpt lat="48.72862" lon="1.78793">
        <ele>182.80000305176</ele>
        <time>2011-08-02T10:44:50.000Z</time>
      </trkpt>
      <trkpt lat="48.7287" lon="1.7879">
        <ele>183</ele>
        <time>2011-08-02T10:44:57.000Z</time>
      </trkpt>
      <trkpt lat="48.72877" lon="1.78788">
        <ele>183</ele>
        <time>2011-08-02T10:45:04.000Z</time>
      </trkpt>
      <trkpt lat="48.72879" lon="1.78787">
        <ele>183</ele>
        <time>2011-08-02T10:45:06.000Z</time>
      </trkpt>
      <trkpt lat="48.72887" lon="1.78784">
        <ele>183</ele>
        <time>2011-08-02T10:45:13.000Z</time>
      </trkpt>
      <trkpt lat="48.72895" lon="1.78784">
        <ele>183</ele>
        <time>2011-08-02T10:45:20.000Z</time>
      </trkpt>
      <trkpt lat="48.72902" lon="1.78782">
        <ele>183.19999694824</ele>
        <time>2011-08-02T10:45:25.000Z</time>
      </trkpt>
      <trkpt lat="48.72909" lon="1.7878">
        <ele>183.19999694824</ele>
        <time>2011-08-02T10:45:32.000Z</time>
      </trkpt>
      <trkpt lat="48.7291" lon="1.7878">
        <ele>183.19999694824</ele>
        <time>2011-08-02T10:45:33.000Z</time>
      </trkpt>
      <trkpt lat="48.72921" lon="1.78777">
        <ele>183.19999694824</ele>
        <time>2011-08-02T10:45:41.000Z</time>
      </trkpt>
      <trkpt lat="48.72927" lon="1.78776">
        <ele>183.19999694824</ele>
        <time>2011-08-02T10:45:45.000Z</time>
      </trkpt>
      <trkpt lat="48.72931" lon="1.78775">
        <ele>183.19999694824</ele>
        <time>2011-08-02T10:45:50.000Z</time>
      </trkpt>
      <trkpt lat="48.72941" lon="1.78779">
        <ele>183</ele>
        <time>2011-08-02T10:45:59.000Z</time>
      </trkpt>
      <trkpt lat="48.72951" lon="1.7878">
        <ele>183</ele>
        <time>2011-08-02T10:46:07.000Z</time>
      </trkpt>
      <trkpt lat="48.72961" lon="1.78783">
        <ele>182.80000305176</ele>
        <time>2011-08-02T10:46:15.000Z</time>
      </trkpt>
      <trkpt lat="48.72965" lon="1.78784">
        <ele>182.80000305176</ele>
        <time>2011-08-02T10:46:19.000Z</time>
      </trkpt>
      <trkpt lat="48.72969" lon="1.78784">
        <ele>182.80000305176</ele>
        <time>2011-08-02T10:46:23.000Z</time>
      </trkpt>
      <trkpt lat="48.7297" lon="1.78784">
        <ele>182.80000305176</ele>
        <time>2011-08-02T10:46:26.000Z</time>
      </trkpt>
      <trkpt lat="48.72975" lon="1.78784">
        <ele>182.60000610352</ele>
        <time>2011-08-02T10:46:31.000Z</time>
      </trkpt>
      <trkpt lat="48.72987" lon="1.78788">
        <ele>182.60000610352</ele>
        <time>2011-08-02T10:46:38.000Z</time>
      </trkpt>
      <trkpt lat="48.73001" lon="1.78791">
        <ele>182.39999389648</ele>
        <time>2011-08-02T10:46:49.000Z</time>
      </trkpt>
      <trkpt lat="48.73012" lon="1.78794">
        <ele>182.60000610352</ele>
        <time>2011-08-02T10:46:58.000Z</time>
      </trkpt>
      <trkpt lat="48.73021" lon="1.78795">
        <ele>182.60000610352</ele>
        <time>2011-08-02T10:47:05.000Z</time>
      </trkpt>
      <trkpt lat="48.73032" lon="1.78797">
        <ele>182.60000610352</ele>
        <time>2011-08-02T10:47:13.000Z</time>
      </trkpt>
      <trkpt lat="48.73038" lon="1.78798">
        <ele>182.80000305176</ele>
        <time>2011-08-02T10:47:18.000Z</time>
      </trkpt>
      <trkpt lat="48.73043" lon="1.78799">
        <ele>182.80000305176</ele>
        <time>2011-08-02T10:47:22.000Z</time>
      </trkpt>
      <trkpt lat="48.73055" lon="1.788">
        <ele>182.80000305176</ele>
        <time>2011-08-02T10:47:31.000Z</time>
      </trkpt>
      <trkpt lat="48.73065" lon="1.78804">
        <ele>182.80000305176</ele>
        <time>2011-08-02T10:47:40.000Z</time>
      </trkpt>
      <trkpt lat="48.73076" lon="1.78804">
        <ele>182.80000305176</ele>
        <time>2011-08-02T10:47:47.000Z</time>
      </trkpt>
      <trkpt lat="48.73082" lon="1.78805">
        <ele>183</ele>
        <time>2011-08-02T10:47:51.000Z</time>
      </trkpt>
      <trkpt lat="48.73087" lon="1.78804">
        <ele>182.80000305176</ele>
        <time>2011-08-02T10:47:56.000Z</time>
      </trkpt>
      <trkpt lat="48.73088" lon="1.78802">
        <ele>183</ele>
        <time>2011-08-02T10:47:59.000Z</time>
      </trkpt>
      <trkpt lat="48.73097" lon="1.78801">
        <ele>182.80000305176</ele>
        <time>2011-08-02T10:48:11.000Z</time>
      </trkpt>
      <trkpt lat="48.73102" lon="1.78803">
        <ele>182.60000610352</ele>
        <time>2011-08-02T10:48:13.000Z</time>
      </trkpt>
      <trkpt lat="48.73109" lon="1.78805">
        <ele>182.39999389648</ele>
        <time>2011-08-02T10:48:19.000Z</time>
      </trkpt>
      <trkpt lat="48.73119" lon="1.78806">
        <ele>182.19999694824</ele>
        <time>2011-08-02T10:48:27.000Z</time>
      </trkpt>
      <trkpt lat="48.73127" lon="1.78809">
        <ele>182</ele>
        <time>2011-08-02T10:48:33.000Z</time>
      </trkpt>
      <trkpt lat="48.73135" lon="1.78812">
        <ele>181.80000305176</ele>
        <time>2011-08-02T10:48:39.000Z</time>
      </trkpt>
      <trkpt lat="48.73148" lon="1.78814">
        <ele>181.39999389648</ele>
        <time>2011-08-02T10:48:49.000Z</time>
      </trkpt>
      <trkpt lat="48.73158" lon="1.78817">
        <ele>181.19999694824</ele>
        <time>2011-08-02T10:48:57.000Z</time>
      </trkpt>
      <trkpt lat="48.73167" lon="1.78818">
        <ele>181</ele>
        <time>2011-08-02T10:49:05.000Z</time>
      </trkpt>
      <trkpt lat="48.73168" lon="1.78819">
        <ele>181</ele>
        <time>2011-08-02T10:49:06.000Z</time>
      </trkpt>
      <trkpt lat="48.73171" lon="1.78821">
        <ele>180.80000305176</ele>
        <time>2011-08-02T10:49:09.000Z</time>
      </trkpt>
      <trkpt lat="48.73182" lon="1.78826">
        <ele>180.19999694824</ele>
        <time>2011-08-02T10:49:19.000Z</time>
      </trkpt>
      <trkpt lat="48.73186" lon="1.78826">
        <ele>180</ele>
        <time>2011-08-02T10:49:21.000Z</time>
      </trkpt>
      <trkpt lat="48.73192" lon="1.78824">
        <ele>179.80000305176</ele>
        <time>2011-08-02T10:49:25.000Z</time>
      </trkpt>
      <trkpt lat="48.73199" lon="1.78822">
        <ele>179.39999389648</ele>
        <time>2011-08-02T10:49:30.000Z</time>
      </trkpt>
      <trkpt lat="48.73203" lon="1.78822">
        <ele>179.19999694824</ele>
        <time>2011-08-02T10:49:35.000Z</time>
      </trkpt>
      <trkpt lat="48.73207" lon="1.78826">
        <ele>179</ele>
        <time>2011-08-02T10:49:43.000Z</time>
      </trkpt>
      <trkpt lat="48.73212" lon="1.78834">
        <ele>178.80000305176</ele>
        <time>2011-08-02T10:49:49.000Z</time>
      </trkpt>
      <trkpt lat="48.73216" lon="1.78839">
        <ele>178.60000610352</ele>
        <time>2011-08-02T10:49:53.000Z</time>
      </trkpt>
      <trkpt lat="48.7322" lon="1.78845">
        <ele>178.39999389648</ele>
        <time>2011-08-02T10:49:58.000Z</time>
      </trkpt>
      <trkpt lat="48.73226" lon="1.78854">
        <ele>178.39999389648</ele>
        <time>2011-08-02T10:50:04.000Z</time>
      </trkpt>
      <trkpt lat="48.73227" lon="1.7886">
        <ele>178.39999389648</ele>
        <time>2011-08-02T10:50:07.000Z</time>
      </trkpt>
      <trkpt lat="48.73231" lon="1.78867">
        <ele>178.19999694824</ele>
        <time>2011-08-02T10:50:11.000Z</time>
      </trkpt>
      <trkpt lat="48.73235" lon="1.78874">
        <ele>178.19999694824</ele>
        <time>2011-08-02T10:50:16.000Z</time>
      </trkpt>
      <trkpt lat="48.73245" lon="1.7889">
        <ele>177.80000305176</ele>
        <time>2011-08-02T10:50:25.000Z</time>
      </trkpt>
      <trkpt lat="48.73253" lon="1.78907">
        <ele>177.60000610352</ele>
        <time>2011-08-02T10:50:34.000Z</time>
      </trkpt>
      <trkpt lat="48.7326" lon="1.78914">
        <ele>177.19999694824</ele>
        <time>2011-08-02T10:50:40.000Z</time>
      </trkpt>
      <trkpt lat="48.73269" lon="1.78924">
        <ele>176.19999694824</ele>
        <time>2011-08-02T10:50:47.000Z</time>
      </trkpt>
      <trkpt lat="48.73276" lon="1.78939">
        <ele>175.39999389648</ele>
        <time>2011-08-02T10:50:56.000Z</time>
      </trkpt>
      <trkpt lat="48.73277" lon="1.78943">
        <ele>175.19999694824</ele>
        <time>2011-08-02T10:50:58.000Z</time>
      </trkpt>
      <trkpt lat="48.73284" lon="1.78957">
        <ele>174.60000610352</ele>
        <time>2011-08-02T10:51:07.000Z</time>
      </trkpt>
      <trkpt lat="48.73288" lon="1.78967">
        <ele>174.19999694824</ele>
        <time>2011-08-02T10:51:14.000Z</time>
      </trkpt>
      <trkpt lat="48.73288" lon="1.78972">
        <ele>174</ele>
        <time>2011-08-02T10:51:20.000Z</time>
      </trkpt>
      <trkpt lat="48.7329" lon="1.7898">
        <ele>173.80000305176</ele>
        <time>2011-08-02T10:51:32.000Z</time>
      </trkpt>
      <trkpt lat="48.73294" lon="1.78987">
        <ele>173.60000610352</ele>
        <time>2011-08-02T10:51:36.000Z</time>
      </trkpt>
      <trkpt lat="48.73301" lon="1.79">
        <ele>173.19999694824</ele>
        <time>2011-08-02T10:51:45.000Z</time>
      </trkpt>
      <trkpt lat="48.73304" lon="1.79005">
        <ele>173.39999389648</ele>
        <time>2011-08-02T10:51:49.000Z</time>
      </trkpt>
      <trkpt lat="48.73308" lon="1.79016">
        <ele>173.60000610352</ele>
        <time>2011-08-02T10:51:56.000Z</time>
      </trkpt>
      <trkpt lat="48.73311" lon="1.7902">
        <ele>173.60000610352</ele>
        <time>2011-08-02T10:52:02.000Z</time>
      </trkpt>
      <trkpt lat="48.73313" lon="1.79028">
        <ele>173.80000305176</ele>
        <time>2011-08-02T10:52:10.000Z</time>
      </trkpt>
      <trkpt lat="48.73318" lon="1.7904">
        <ele>174.19999694824</ele>
        <time>2011-08-02T10:52:16.000Z</time>
      </trkpt>
      <trkpt lat="48.7332" lon="1.79052">
        <ele>174.60000610352</ele>
        <time>2011-08-02T10:52:23.000Z</time>
      </trkpt>
      <trkpt lat="48.73324" lon="1.79064">
        <ele>175</ele>
        <time>2011-08-02T10:52:30.000Z</time>
      </trkpt>
      <trkpt lat="48.7333" lon="1.79081">
        <ele>175.80000305176</ele>
        <time>2011-08-02T10:52:40.000Z</time>
      </trkpt>
      <trkpt lat="48.73335" lon="1.79095">
        <ele>176.60000610352</ele>
        <time>2011-08-02T10:52:48.000Z</time>
      </trkpt>
      <trkpt lat="48.73341" lon="1.79115">
        <ele>178</ele>
        <time>2011-08-02T10:52:59.000Z</time>
      </trkpt>
      <trkpt lat="48.73344" lon="1.7913">
        <ele>178.80000305176</ele>
        <time>2011-08-02T10:53:07.000Z</time>
      </trkpt>
      <trkpt lat="48.73349" lon="1.7914">
        <ele>179.39999389648</ele>
        <time>2011-08-02T10:53:13.000Z</time>
      </trkpt>
      <trkpt lat="48.73352" lon="1.79155">
        <ele>180.19999694824</ele>
        <time>2011-08-02T10:53:21.000Z</time>
      </trkpt>
      <trkpt lat="48.73357" lon="1.79168">
        <ele>181</ele>
        <time>2011-08-02T10:53:29.000Z</time>
      </trkpt>
      <trkpt lat="48.73361" lon="1.79183">
        <ele>181.80000305176</ele>
        <time>2011-08-02T10:53:38.000Z</time>
      </trkpt>
      <trkpt lat="48.73366" lon="1.79194">
        <ele>182.39999389648</ele>
        <time>2011-08-02T10:53:45.000Z</time>
      </trkpt>
      <trkpt lat="48.73369" lon="1.79204">
        <ele>183</ele>
        <time>2011-08-02T10:53:51.000Z</time>
      </trkpt>
      <trkpt lat="48.73374" lon="1.79218">
        <ele>183.60000610352</ele>
        <time>2011-08-02T10:54:00.000Z</time>
      </trkpt>
      <trkpt lat="48.73377" lon="1.79231">
        <ele>184.39999389648</ele>
        <time>2011-08-02T10:54:08.000Z</time>
      </trkpt>
      <trkpt lat="48.73381" lon="1.79243">
        <ele>185</ele>
        <time>2011-08-02T10:54:16.000Z</time>
      </trkpt>
      <trkpt lat="48.73385" lon="1.79251">
        <ele>185.39999389648</ele>
        <time>2011-08-02T10:54:21.000Z</time>
      </trkpt>
      <trkpt lat="48.7339" lon="1.79262">
        <ele>185.60000610352</ele>
        <time>2011-08-02T10:54:25.000Z</time>
      </trkpt>
      <trkpt lat="48.73397" lon="1.79277">
        <ele>186.19999694824</ele>
        <time>2011-08-02T10:54:30.000Z</time>
      </trkpt>
      <trkpt lat="48.73404" lon="1.7929">
        <ele>186.60000610352</ele>
        <time>2011-08-02T10:54:38.000Z</time>
      </trkpt>
      <trkpt lat="48.7341" lon="1.79299">
        <ele>187.19999694824</ele>
        <time>2011-08-02T10:54:45.000Z</time>
      </trkpt>
      <trkpt lat="48.73416" lon="1.79307">
        <ele>187.60000610352</ele>
        <time>2011-08-02T10:54:51.000Z</time>
      </trkpt>
      <trkpt lat="48.73423" lon="1.79318">
        <ele>188.19999694824</ele>
        <time>2011-08-02T10:54:59.000Z</time>
      </trkpt>
      <trkpt lat="48.73431" lon="1.79328">
        <ele>188.60000610352</ele>
        <time>2011-08-02T10:55:07.000Z</time>
      </trkpt>
      <trkpt lat="48.73436" lon="1.79332">
        <ele>188.80000305176</ele>
        <time>2011-08-02T10:55:11.000Z</time>
      </trkpt>
      <trkpt lat="48.73439" lon="1.79334">
        <ele>189</ele>
        <time>2011-08-02T10:55:14.000Z</time>
      </trkpt>
      <trkpt lat="48.73447" lon="1.7934">
        <ele>189.19999694824</ele>
        <time>2011-08-02T10:55:21.000Z</time>
      </trkpt>
      <trkpt lat="48.73457" lon="1.79344">
        <ele>189.39999389648</ele>
        <time>2011-08-02T10:55:28.000Z</time>
      </trkpt>
      <trkpt lat="48.73471" lon="1.79352">
        <ele>189.80000305176</ele>
        <time>2011-08-02T10:55:39.000Z</time>
      </trkpt>
      <trkpt lat="48.73482" lon="1.79359">
        <ele>190</ele>
        <time>2011-08-02T10:55:48.000Z</time>
      </trkpt>
      <trkpt lat="48.73491" lon="1.79366">
        <ele>190.39999389648</ele>
        <time>2011-08-02T10:55:55.000Z</time>
      </trkpt>
      <trkpt lat="48.735" lon="1.7937">
        <ele>190.60000610352</ele>
        <time>2011-08-02T10:56:02.000Z</time>
      </trkpt>
      <trkpt lat="48.73506" lon="1.79378">
        <ele>191</ele>
        <time>2011-08-02T10:56:08.000Z</time>
      </trkpt>
      <trkpt lat="48.73512" lon="1.7939">
        <ele>191.60000610352</ele>
        <time>2011-08-02T10:56:16.000Z</time>
      </trkpt>
      <trkpt lat="48.73519" lon="1.79399">
        <ele>192</ele>
        <time>2011-08-02T10:56:24.000Z</time>
      </trkpt>
      <trkpt lat="48.73529" lon="1.79404">
        <ele>192.19999694824</ele>
        <time>2011-08-02T10:56:32.000Z</time>
      </trkpt>
      <trkpt lat="48.73534" lon="1.79404">
        <ele>192</ele>
        <time>2011-08-02T10:56:38.000Z</time>
      </trkpt>
      <trkpt lat="48.73545" lon="1.79417">
        <ele>192.39999389648</ele>
        <time>2011-08-02T10:57:12.000Z</time>
      </trkpt>
      <trkpt lat="48.7355" lon="1.79427">
        <ele>192.19999694824</ele>
        <time>2011-08-02T10:57:18.000Z</time>
      </trkpt>
      <trkpt lat="48.73558" lon="1.79435">
        <ele>192</ele>
        <time>2011-08-02T10:57:25.000Z</time>
      </trkpt>
      <trkpt lat="48.73563" lon="1.79443">
        <ele>192</ele>
        <time>2011-08-02T10:57:31.000Z</time>
      </trkpt>
      <trkpt lat="48.73572" lon="1.79451">
        <ele>191.60000610352</ele>
        <time>2011-08-02T10:57:39.000Z</time>
      </trkpt>
      <trkpt lat="48.73573" lon="1.79452">
        <ele>191.60000610352</ele>
        <time>2011-08-02T10:57:40.000Z</time>
      </trkpt>
      <trkpt lat="48.7358" lon="1.79459">
        <ele>191.39999389648</ele>
        <time>2011-08-02T10:57:47.000Z</time>
      </trkpt>
      <trkpt lat="48.73583" lon="1.79464">
        <ele>191.39999389648</ele>
        <time>2011-08-02T10:57:50.000Z</time>
      </trkpt>
      <trkpt lat="48.73589" lon="1.79474">
        <ele>191.19999694824</ele>
        <time>2011-08-02T10:57:57.000Z</time>
      </trkpt>
      <trkpt lat="48.73595" lon="1.79484">
        <ele>191</ele>
        <time>2011-08-02T10:58:05.000Z</time>
      </trkpt>
      <trkpt lat="48.73601" lon="1.79496">
        <ele>190.80000305176</ele>
        <time>2011-08-02T10:58:14.000Z</time>
      </trkpt>
      <trkpt lat="48.73605" lon="1.79502">
        <ele>190.60000610352</ele>
        <time>2011-08-02T10:58:18.000Z</time>
      </trkpt>
      <trkpt lat="48.73617" lon="1.79506">
        <ele>190.39999389648</ele>
        <time>2011-08-02T10:58:25.000Z</time>
      </trkpt>
      <trkpt lat="48.73617" lon="1.79508">
        <ele>190.39999389648</ele>
        <time>2011-08-02T10:58:26.000Z</time>
      </trkpt>
      <trkpt lat="48.73626" lon="1.79518">
        <ele>190.39999389648</ele>
        <time>2011-08-02T10:58:34.000Z</time>
      </trkpt>
      <trkpt lat="48.73633" lon="1.79525">
        <ele>190.39999389648</ele>
        <time>2011-08-02T10:58:40.000Z</time>
      </trkpt>
      <trkpt lat="48.73636" lon="1.79528">
        <ele>190.19999694824</ele>
        <time>2011-08-02T10:58:43.000Z</time>
      </trkpt>
      <trkpt lat="48.73645" lon="1.79537">
        <ele>190.19999694824</ele>
        <time>2011-08-02T10:58:52.000Z</time>
      </trkpt>
      <trkpt lat="48.73651" lon="1.79544">
        <ele>190</ele>
        <time>2011-08-02T10:58:59.000Z</time>
      </trkpt>
      <trkpt lat="48.73653" lon="1.79549">
        <ele>190</ele>
        <time>2011-08-02T10:59:02.000Z</time>
      </trkpt>
      <trkpt lat="48.73653" lon="1.79555">
        <ele>190</ele>
        <time>2011-08-02T10:59:05.000Z</time>
      </trkpt>
      <trkpt lat="48.7366" lon="1.79566">
        <ele>190</ele>
        <time>2011-08-02T10:59:12.000Z</time>
      </trkpt>
      <trkpt lat="48.73665" lon="1.79572">
        <ele>190</ele>
        <time>2011-08-02T10:59:17.000Z</time>
      </trkpt>
      <trkpt lat="48.73674" lon="1.79583">
        <ele>190.19999694824</ele>
        <time>2011-08-02T10:59:26.000Z</time>
      </trkpt>
      <trkpt lat="48.73675" lon="1.79584">
        <ele>190.19999694824</ele>
        <time>2011-08-02T10:59:27.000Z</time>
      </trkpt>
      <trkpt lat="48.73686" lon="1.79594">
        <ele>190.60000610352</ele>
        <time>2011-08-02T10:59:36.000Z</time>
      </trkpt>
      <trkpt lat="48.73687" lon="1.79595">
        <ele>190.60000610352</ele>
        <time>2011-08-02T10:59:37.000Z</time>
      </trkpt>
      <trkpt lat="48.73692" lon="1.79602">
        <ele>190.80000305176</ele>
        <time>2011-08-02T10:59:42.000Z</time>
      </trkpt>
      <trkpt lat="48.73703" lon="1.79608">
        <ele>191</ele>
        <time>2011-08-02T10:59:50.000Z</time>
      </trkpt>
      <trkpt lat="48.73712" lon="1.79616">
        <ele>191.39999389648</ele>
        <time>2011-08-02T10:59:57.000Z</time>
      </trkpt>
      <trkpt lat="48.73717" lon="1.79628">
        <ele>191.39999389648</ele>
        <time>2011-08-02T11:00:03.000Z</time>
      </trkpt>
      <trkpt lat="48.73727" lon="1.79634">
        <ele>191.60000610352</ele>
        <time>2011-08-02T11:00:10.000Z</time>
      </trkpt>
      <trkpt lat="48.73728" lon="1.79639">
        <ele>191.60000610352</ele>
        <time>2011-08-02T11:00:13.000Z</time>
      </trkpt>
      <trkpt lat="48.73735" lon="1.79649">
        <ele>191.80000305176</ele>
        <time>2011-08-02T11:00:21.000Z</time>
      </trkpt>
      <trkpt lat="48.73738" lon="1.7965">
        <ele>191.80000305176</ele>
        <time>2011-08-02T11:00:23.000Z</time>
      </trkpt>
      <trkpt lat="48.7374" lon="1.79653">
        <ele>191.80000305176</ele>
        <time>2011-08-02T11:00:25.000Z</time>
      </trkpt>
      <trkpt lat="48.73746" lon="1.79663">
        <ele>191.80000305176</ele>
        <time>2011-08-02T11:00:32.000Z</time>
      </trkpt>
      <trkpt lat="48.73746" lon="1.79668">
        <ele>191.80000305176</ele>
        <time>2011-08-02T11:00:34.000Z</time>
      </trkpt>
      <trkpt lat="48.73749" lon="1.79679">
        <ele>191.80000305176</ele>
        <time>2011-08-02T11:00:41.000Z</time>
      </trkpt>
      <trkpt lat="48.73752" lon="1.79686">
        <ele>191.80000305176</ele>
        <time>2011-08-02T11:00:46.000Z</time>
      </trkpt>
      <trkpt lat="48.73753" lon="1.79689">
        <ele>191.80000305176</ele>
        <time>2011-08-02T11:00:49.000Z</time>
      </trkpt>
      <trkpt lat="48.73758" lon="1.79698">
        <ele>191.80000305176</ele>
        <time>2011-08-02T11:00:57.000Z</time>
      </trkpt>
      <trkpt lat="48.73759" lon="1.79699">
        <ele>191.80000305176</ele>
        <time>2011-08-02T11:00:58.000Z</time>
      </trkpt>
      <trkpt lat="48.73762" lon="1.79705">
        <ele>192</ele>
        <time>2011-08-02T11:01:02.000Z</time>
      </trkpt>
      <trkpt lat="48.73765" lon="1.79709">
        <ele>192</ele>
        <time>2011-08-02T11:01:06.000Z</time>
      </trkpt>
      <trkpt lat="48.73775" lon="1.7971">
        <ele>192.39999389648</ele>
        <time>2011-08-02T11:01:12.000Z</time>
      </trkpt>
      <trkpt lat="48.7378" lon="1.79715">
        <ele>192.60000610352</ele>
        <time>2011-08-02T11:01:15.000Z</time>
      </trkpt>
      <trkpt lat="48.73783" lon="1.79719">
        <ele>192.60000610352</ele>
        <time>2011-08-02T11:01:17.000Z</time>
      </trkpt>
      <trkpt lat="48.73788" lon="1.79727">
        <ele>192.60000610352</ele>
        <time>2011-08-02T11:01:22.000Z</time>
      </trkpt>
      <trkpt lat="48.73794" lon="1.79737">
        <ele>192.80000305176</ele>
        <time>2011-08-02T11:01:29.000Z</time>
      </trkpt>
      <trkpt lat="48.738" lon="1.79744">
        <ele>192.80000305176</ele>
        <time>2011-08-02T11:01:35.000Z</time>
      </trkpt>
      <trkpt lat="48.73806" lon="1.79753">
        <ele>192.80000305176</ele>
        <time>2011-08-02T11:01:42.000Z</time>
      </trkpt>
      <trkpt lat="48.73807" lon="1.79756">
        <ele>192.80000305176</ele>
        <time>2011-08-02T11:01:46.000Z</time>
      </trkpt>
      <trkpt lat="48.73813" lon="1.79769">
        <ele>192.60000610352</ele>
        <time>2011-08-02T11:02:02.000Z</time>
      </trkpt>
      <trkpt lat="48.73821" lon="1.79772">
        <ele>192.60000610352</ele>
        <time>2011-08-02T11:02:06.000Z</time>
      </trkpt>
      <trkpt lat="48.73825" lon="1.79773">
        <ele>192.80000305176</ele>
        <time>2011-08-02T11:02:08.000Z</time>
      </trkpt>
      <trkpt lat="48.7383" lon="1.79782">
        <ele>192.60000610352</ele>
        <time>2011-08-02T11:02:14.000Z</time>
      </trkpt>
      <trkpt lat="48.73832" lon="1.79788">
        <ele>192.39999389648</ele>
        <time>2011-08-02T11:02:18.000Z</time>
      </trkpt>
      <trkpt lat="48.73835" lon="1.79795">
        <ele>192.39999389648</ele>
        <time>2011-08-02T11:02:23.000Z</time>
      </trkpt>
      <trkpt lat="48.7384" lon="1.79802">
        <ele>192.19999694824</ele>
        <time>2011-08-02T11:02:29.000Z</time>
      </trkpt>
      <trkpt lat="48.73846" lon="1.79807">
        <ele>192.19999694824</ele>
        <time>2011-08-02T11:02:34.000Z</time>
      </trkpt>
      <trkpt lat="48.73852" lon="1.79809">
        <ele>192.19999694824</ele>
        <time>2011-08-02T11:02:38.000Z</time>
      </trkpt>
      <trkpt lat="48.73854" lon="1.79817">
        <ele>192</ele>
        <time>2011-08-02T11:02:42.000Z</time>
      </trkpt>
      <trkpt lat="48.73858" lon="1.79825">
        <ele>191.80000305176</ele>
        <time>2011-08-02T11:02:47.000Z</time>
      </trkpt>
      <trkpt lat="48.73869" lon="1.79834">
        <ele>191.80000305176</ele>
        <time>2011-08-02T11:02:56.000Z</time>
      </trkpt>
      <trkpt lat="48.73875" lon="1.79843">
        <ele>191.80000305176</ele>
        <time>2011-08-02T11:03:04.000Z</time>
      </trkpt>
      <trkpt lat="48.73876" lon="1.79844">
        <ele>191.80000305176</ele>
        <time>2011-08-02T11:03:05.000Z</time>
      </trkpt>
      <trkpt lat="48.73882" lon="1.79855">
        <ele>191.80000305176</ele>
        <time>2011-08-02T11:03:12.000Z</time>
      </trkpt>
      <trkpt lat="48.73889" lon="1.79867">
        <ele>191.80000305176</ele>
        <time>2011-08-02T11:03:20.000Z</time>
      </trkpt>
      <trkpt lat="48.7389" lon="1.79871">
        <ele>191.80000305176</ele>
        <time>2011-08-02T11:03:22.000Z</time>
      </trkpt>
      <trkpt lat="48.73893" lon="1.79878">
        <ele>191.80000305176</ele>
        <time>2011-08-02T11:03:28.000Z</time>
      </trkpt>
      <trkpt lat="48.73895" lon="1.7988">
        <ele>191.80000305176</ele>
        <time>2011-08-02T11:03:30.000Z</time>
      </trkpt>
      <trkpt lat="48.73902" lon="1.79891">
        <ele>191.80000305176</ele>
        <time>2011-08-02T11:03:38.000Z</time>
      </trkpt>
      <trkpt lat="48.73907" lon="1.79896">
        <ele>192</ele>
        <time>2011-08-02T11:03:43.000Z</time>
      </trkpt>
      <trkpt lat="48.73917" lon="1.79905">
        <ele>192</ele>
        <time>2011-08-02T11:03:51.000Z</time>
      </trkpt>
      <trkpt lat="48.73922" lon="1.7991">
        <ele>192.19999694824</ele>
        <time>2011-08-02T11:03:56.000Z</time>
      </trkpt>
      <trkpt lat="48.73923" lon="1.79913">
        <ele>192.19999694824</ele>
        <time>2011-08-02T11:03:59.000Z</time>
      </trkpt>
      <trkpt lat="48.73929" lon="1.79921">
        <ele>192.19999694824</ele>
        <time>2011-08-02T11:04:06.000Z</time>
      </trkpt>
      <trkpt lat="48.7393" lon="1.79923">
        <ele>192.39999389648</ele>
        <time>2011-08-02T11:04:07.000Z</time>
      </trkpt>
      <trkpt lat="48.73934" lon="1.79927">
        <ele>192.39999389648</ele>
        <time>2011-08-02T11:04:11.000Z</time>
      </trkpt>
      <trkpt lat="48.73941" lon="1.79935">
        <ele>192.39999389648</ele>
        <time>2011-08-02T11:04:17.000Z</time>
      </trkpt>
      <trkpt lat="48.73946" lon="1.79945">
        <ele>192.60000610352</ele>
        <time>2011-08-02T11:04:23.000Z</time>
      </trkpt>
      <trkpt lat="48.73949" lon="1.7995">
        <ele>192.60000610352</ele>
        <time>2011-08-02T11:04:27.000Z</time>
      </trkpt>
      <trkpt lat="48.73957" lon="1.79957">
        <ele>192.60000610352</ele>
        <time>2011-08-02T11:04:35.000Z</time>
      </trkpt>
      <trkpt lat="48.73964" lon="1.79964">
        <ele>192.80000305176</ele>
        <time>2011-08-02T11:04:41.000Z</time>
      </trkpt>
      <trkpt lat="48.73967" lon="1.79967">
        <ele>192.80000305176</ele>
        <time>2011-08-02T11:04:44.000Z</time>
      </trkpt>
      <trkpt lat="48.73975" lon="1.79983">
        <ele>192.60000610352</ele>
        <time>2011-08-02T11:04:54.000Z</time>
      </trkpt>
      <trkpt lat="48.73981" lon="1.79993">
        <ele>192.60000610352</ele>
        <time>2011-08-02T11:05:01.000Z</time>
      </trkpt>
      <trkpt lat="48.73987" lon="1.80001">
        <ele>192.60000610352</ele>
        <time>2011-08-02T11:05:07.000Z</time>
      </trkpt>
      <trkpt lat="48.73988" lon="1.80002">
        <ele>192.60000610352</ele>
        <time>2011-08-02T11:05:08.000Z</time>
      </trkpt>
      <trkpt lat="48.73991" lon="1.80009">
        <ele>192.39999389648</ele>
        <time>2011-08-02T11:05:12.000Z</time>
      </trkpt>
      <trkpt lat="48.73996" lon="1.80015">
        <ele>192.19999694824</ele>
        <time>2011-08-02T11:05:17.000Z</time>
      </trkpt>
      <trkpt lat="48.74" lon="1.8002">
        <ele>192.19999694824</ele>
        <time>2011-08-02T11:05:21.000Z</time>
      </trkpt>
      <trkpt lat="48.74005" lon="1.8003">
        <ele>192</ele>
        <time>2011-08-02T11:05:26.000Z</time>
      </trkpt>
      <trkpt lat="48.74015" lon="1.80038">
        <ele>192</ele>
        <time>2011-08-02T11:05:33.000Z</time>
      </trkpt>
      <trkpt lat="48.7402" lon="1.8004">
        <ele>192</ele>
        <time>2011-08-02T11:05:39.000Z</time>
      </trkpt>
      <trkpt lat="48.74023" lon="1.80045">
        <ele>192</ele>
        <time>2011-08-02T11:05:44.000Z</time>
      </trkpt>
      <trkpt lat="48.74024" lon="1.80047">
        <ele>192</ele>
        <time>2011-08-02T11:05:48.000Z</time>
      </trkpt>
      <trkpt lat="48.74027" lon="1.80056">
        <ele>191.80000305176</ele>
        <time>2011-08-02T11:05:56.000Z</time>
      </trkpt>
      <trkpt lat="48.74033" lon="1.80064">
        <ele>191.80000305176</ele>
        <time>2011-08-02T11:06:02.000Z</time>
      </trkpt>
      <trkpt lat="48.74041" lon="1.80068">
        <ele>191.80000305176</ele>
        <time>2011-08-02T11:06:09.000Z</time>
      </trkpt>
      <trkpt lat="48.74049" lon="1.80067">
        <ele>192.19999694824</ele>
        <time>2011-08-02T11:06:14.000Z</time>
      </trkpt>
      <trkpt lat="48.74055" lon="1.80065">
        <ele>192.39999389648</ele>
        <time>2011-08-02T11:06:18.000Z</time>
      </trkpt>
      <trkpt lat="48.74065" lon="1.80068">
        <ele>192.60000610352</ele>
        <time>2011-08-02T11:06:24.000Z</time>
      </trkpt>
      <trkpt lat="48.74067" lon="1.8007">
        <ele>192.60000610352</ele>
        <time>2011-08-02T11:06:25.000Z</time>
      </trkpt>
      <trkpt lat="48.74072" lon="1.8008">
        <ele>192.60000610352</ele>
        <time>2011-08-02T11:06:31.000Z</time>
      </trkpt>
      <trkpt lat="48.74075" lon="1.8009">
        <ele>192.39999389648</ele>
        <time>2011-08-02T11:06:37.000Z</time>
      </trkpt>
      <trkpt lat="48.74081" lon="1.801">
        <ele>192.39999389648</ele>
        <time>2011-08-02T11:06:44.000Z</time>
      </trkpt>
      <trkpt lat="48.74087" lon="1.80107">
        <ele>192.39999389648</ele>
        <time>2011-08-02T11:06:51.000Z</time>
      </trkpt>
      <trkpt lat="48.74094" lon="1.80115">
        <ele>192.39999389648</ele>
        <time>2011-08-02T11:06:57.000Z</time>
      </trkpt>
      <trkpt lat="48.74102" lon="1.80122">
        <ele>192.60000610352</ele>
        <time>2011-08-02T11:07:03.000Z</time>
      </trkpt>
      <trkpt lat="48.74104" lon="1.80126">
        <ele>192.60000610352</ele>
        <time>2011-08-02T11:07:06.000Z</time>
      </trkpt>
      <trkpt lat="48.74107" lon="1.80128">
        <ele>192.60000610352</ele>
        <time>2011-08-02T11:07:08.000Z</time>
      </trkpt>
      <trkpt lat="48.7411" lon="1.80136">
        <ele>192.39999389648</ele>
        <time>2011-08-02T11:07:12.000Z</time>
      </trkpt>
      <trkpt lat="48.74119" lon="1.80148">
        <ele>192.60000610352</ele>
        <time>2011-08-02T11:07:20.000Z</time>
      </trkpt>
      <trkpt lat="48.74126" lon="1.80157">
        <ele>192.60000610352</ele>
        <time>2011-08-02T11:07:26.000Z</time>
      </trkpt>
      <trkpt lat="48.74135" lon="1.80166">
        <ele>192.80000305176</ele>
        <time>2011-08-02T11:07:33.000Z</time>
      </trkpt>
      <trkpt lat="48.74139" lon="1.80172">
        <ele>192.80000305176</ele>
        <time>2011-08-02T11:07:37.000Z</time>
      </trkpt>
      <trkpt lat="48.74146" lon="1.80176">
        <ele>193</ele>
        <time>2011-08-02T11:07:43.000Z</time>
      </trkpt>
      <trkpt lat="48.74155" lon="1.80182">
        <ele>193.39999389648</ele>
        <time>2011-08-02T11:07:50.000Z</time>
      </trkpt>
      <trkpt lat="48.74158" lon="1.80183">
        <ele>193.60000610352</ele>
        <time>2011-08-02T11:07:52.000Z</time>
      </trkpt>
      <trkpt lat="48.74166" lon="1.80191">
        <ele>193.80000305176</ele>
        <time>2011-08-02T11:07:58.000Z</time>
      </trkpt>
      <trkpt lat="48.74171" lon="1.80203">
        <ele>194</ele>
        <time>2011-08-02T11:08:04.000Z</time>
      </trkpt>
      <trkpt lat="48.74174" lon="1.80207">
        <ele>194</ele>
        <time>2011-08-02T11:08:07.000Z</time>
      </trkpt>
      <trkpt lat="48.74181" lon="1.80217">
        <ele>194</ele>
        <time>2011-08-02T11:08:15.000Z</time>
      </trkpt>
      <trkpt lat="48.74187" lon="1.80221">
        <ele>194</ele>
        <time>2011-08-02T11:08:20.000Z</time>
      </trkpt>
      <trkpt lat="48.74199" lon="1.80226">
        <ele>194</ele>
        <time>2011-08-02T11:08:28.000Z</time>
      </trkpt>
      <trkpt lat="48.74211" lon="1.80227">
        <ele>194</ele>
        <time>2011-08-02T11:08:33.000Z</time>
      </trkpt>
      <trkpt lat="48.74212" lon="1.80227">
        <ele>194</ele>
        <time>2011-08-02T11:08:34.000Z</time>
      </trkpt>
      <trkpt lat="48.74216" lon="1.80231">
        <ele>194</ele>
        <time>2011-08-02T11:08:38.000Z</time>
      </trkpt>
      <trkpt lat="48.74222" lon="1.80242">
        <ele>194</ele>
        <time>2011-08-02T11:08:45.000Z</time>
      </trkpt>
      <trkpt lat="48.74227" lon="1.80245">
        <ele>194</ele>
        <time>2011-08-02T11:08:48.000Z</time>
      </trkpt>
      <trkpt lat="48.7423" lon="1.80252">
        <ele>193.80000305176</ele>
        <time>2011-08-02T11:08:52.000Z</time>
      </trkpt>
      <trkpt lat="48.74243" lon="1.80266">
        <ele>193.39999389648</ele>
        <time>2011-08-02T11:09:02.000Z</time>
      </trkpt>
      <trkpt lat="48.74247" lon="1.80269">
        <ele>193.39999389648</ele>
        <time>2011-08-02T11:09:05.000Z</time>
      </trkpt>
      <trkpt lat="48.74253" lon="1.80277">
        <ele>193.19999694824</ele>
        <time>2011-08-02T11:09:12.000Z</time>
      </trkpt>
      <trkpt lat="48.74257" lon="1.80282">
        <ele>193</ele>
        <time>2011-08-02T11:09:16.000Z</time>
      </trkpt>
      <trkpt lat="48.74265" lon="1.80292">
        <ele>192.80000305176</ele>
        <time>2011-08-02T11:09:22.000Z</time>
      </trkpt>
      <trkpt lat="48.7428" lon="1.80307">
        <ele>192.60000610352</ele>
        <time>2011-08-02T11:09:27.000Z</time>
      </trkpt>
      <trkpt lat="48.74292" lon="1.80318">
        <ele>192.39999389648</ele>
        <time>2011-08-02T11:09:32.000Z</time>
      </trkpt>
      <trkpt lat="48.74301" lon="1.80326">
        <ele>192.60000610352</ele>
        <time>2011-08-02T11:09:38.000Z</time>
      </trkpt>
      <trkpt lat="48.7431" lon="1.80335">
        <ele>192.60000610352</ele>
        <time>2011-08-02T11:09:44.000Z</time>
      </trkpt>
      <trkpt lat="48.74313" lon="1.80339">
        <ele>192.60000610352</ele>
        <time>2011-08-02T11:09:48.000Z</time>
      </trkpt>
      <trkpt lat="48.74319" lon="1.80345">
        <ele>192.60000610352</ele>
        <time>2011-08-02T11:09:54.000Z</time>
      </trkpt>
      <trkpt lat="48.74328" lon="1.80349">
        <ele>192.80000305176</ele>
        <time>2011-08-02T11:10:02.000Z</time>
      </trkpt>
      <trkpt lat="48.7433" lon="1.80351">
        <ele>192.80000305176</ele>
        <time>2011-08-02T11:10:04.000Z</time>
      </trkpt>
      <trkpt lat="48.74334" lon="1.80356">
        <ele>192.80000305176</ele>
        <time>2011-08-02T11:10:09.000Z</time>
      </trkpt>
      <trkpt lat="48.74338" lon="1.80359">
        <ele>192.80000305176</ele>
        <time>2011-08-02T11:10:13.000Z</time>
      </trkpt>
      <trkpt lat="48.74346" lon="1.80362">
        <ele>192.80000305176</ele>
        <time>2011-08-02T11:10:20.000Z</time>
      </trkpt>
      <trkpt lat="48.74353" lon="1.80367">
        <ele>192.80000305176</ele>
        <time>2011-08-02T11:10:25.000Z</time>
      </trkpt>
      <trkpt lat="48.74361" lon="1.80373">
        <ele>192.80000305176</ele>
        <time>2011-08-02T11:10:32.000Z</time>
      </trkpt>
      <trkpt lat="48.74365" lon="1.80379">
        <ele>192.80000305176</ele>
        <time>2011-08-02T11:10:35.000Z</time>
      </trkpt>
      <trkpt lat="48.74377" lon="1.80386">
        <ele>192.80000305176</ele>
        <time>2011-08-02T11:10:41.000Z</time>
      </trkpt>
      <trkpt lat="48.74387" lon="1.80395">
        <ele>192.80000305176</ele>
        <time>2011-08-02T11:10:48.000Z</time>
      </trkpt>
      <trkpt lat="48.74398" lon="1.80407">
        <ele>192.80000305176</ele>
        <time>2011-08-02T11:10:56.000Z</time>
      </trkpt>
      <trkpt lat="48.74403" lon="1.80418">
        <ele>192.80000305176</ele>
        <time>2011-08-02T11:11:02.000Z</time>
      </trkpt>
      <trkpt lat="48.74404" lon="1.80431">
        <ele>192.80000305176</ele>
        <time>2011-08-02T11:11:09.000Z</time>
      </trkpt>
      <trkpt lat="48.74406" lon="1.80442">
        <ele>192.80000305176</ele>
        <time>2011-08-02T11:11:15.000Z</time>
      </trkpt>
      <trkpt lat="48.74409" lon="1.80451">
        <ele>192.80000305176</ele>
        <time>2011-08-02T11:11:20.000Z</time>
      </trkpt>
      <trkpt lat="48.74415" lon="1.80458">
        <ele>192.80000305176</ele>
        <time>2011-08-02T11:11:25.000Z</time>
      </trkpt>
      <trkpt lat="48.74426" lon="1.80471">
        <ele>193</ele>
        <time>2011-08-02T11:11:32.000Z</time>
      </trkpt>
      <trkpt lat="48.74435" lon="1.80479">
        <ele>193.19999694824</ele>
        <time>2011-08-02T11:11:38.000Z</time>
      </trkpt>
      <trkpt lat="48.74437" lon="1.80482">
        <ele>193.19999694824</ele>
        <time>2011-08-02T11:11:40.000Z</time>
      </trkpt>
      <trkpt lat="48.74444" lon="1.80491">
        <ele>193.19999694824</ele>
        <time>2011-08-02T11:11:47.000Z</time>
      </trkpt>
      <trkpt lat="48.74448" lon="1.80502">
        <ele>193.19999694824</ele>
        <time>2011-08-02T11:11:53.000Z</time>
      </trkpt>
      <trkpt lat="48.74453" lon="1.80512">
        <ele>193.19999694824</ele>
        <time>2011-08-02T11:11:59.000Z</time>
      </trkpt>
      <trkpt lat="48.74456" lon="1.80524">
        <ele>193</ele>
        <time>2011-08-02T11:12:05.000Z</time>
      </trkpt>
      <trkpt lat="48.74457" lon="1.80534">
        <ele>192.80000305176</ele>
        <time>2011-08-02T11:12:10.000Z</time>
      </trkpt>
      <trkpt lat="48.74458" lon="1.80536">
        <ele>192.80000305176</ele>
        <time>2011-08-02T11:12:11.000Z</time>
      </trkpt>
      <trkpt lat="48.74464" lon="1.80553">
        <ele>192.60000610352</ele>
        <time>2011-08-02T11:12:20.000Z</time>
      </trkpt>
      <trkpt lat="48.74467" lon="1.80563">
        <ele>192.39999389648</ele>
        <time>2011-08-02T11:12:24.000Z</time>
      </trkpt>
      <trkpt lat="48.74468" lon="1.80567">
        <ele>192.39999389648</ele>
        <time>2011-08-02T11:12:26.000Z</time>
      </trkpt>
      <trkpt lat="48.74473" lon="1.80578">
        <ele>192.39999389648</ele>
        <time>2011-08-02T11:12:32.000Z</time>
      </trkpt>
      <trkpt lat="48.7448" lon="1.8059">
        <ele>192.39999389648</ele>
        <time>2011-08-02T11:12:39.000Z</time>
      </trkpt>
      <trkpt lat="48.74484" lon="1.80595">
        <ele>192.39999389648</ele>
        <time>2011-08-02T11:12:43.000Z</time>
      </trkpt>
      <trkpt lat="48.7449" lon="1.80603">
        <ele>192.39999389648</ele>
        <time>2011-08-02T11:12:49.000Z</time>
      </trkpt>
      <trkpt lat="48.74493" lon="1.80608">
        <ele>192.39999389648</ele>
        <time>2011-08-02T11:12:52.000Z</time>
      </trkpt>
      <trkpt lat="48.74494" lon="1.80613">
        <ele>192.39999389648</ele>
        <time>2011-08-02T11:12:54.000Z</time>
      </trkpt>
      <trkpt lat="48.74495" lon="1.80626">
        <ele>192.19999694824</ele>
        <time>2011-08-02T11:13:00.000Z</time>
      </trkpt>
      <trkpt lat="48.74495" lon="1.80645">
        <ele>192</ele>
        <time>2011-08-02T11:13:09.000Z</time>
      </trkpt>
      <trkpt lat="48.74498" lon="1.80658">
        <ele>192</ele>
        <time>2011-08-02T11:13:17.000Z</time>
      </trkpt>
      <trkpt lat="48.74499" lon="1.80662">
        <ele>192</ele>
        <time>2011-08-02T11:13:22.000Z</time>
      </trkpt>
      <trkpt lat="48.745" lon="1.80662">
        <ele>192</ele>
        <time>2011-08-02T11:13:24.000Z</time>
      </trkpt>
      <trkpt lat="48.74502" lon="1.80666">
        <ele>191.80000305176</ele>
        <time>2011-08-02T11:13:30.000Z</time>
      </trkpt>
      <trkpt lat="48.74505" lon="1.80671">
        <ele>191.80000305176</ele>
        <time>2011-08-02T11:13:33.000Z</time>
      </trkpt>
      <trkpt lat="48.74506" lon="1.8068">
        <ele>191.80000305176</ele>
        <time>2011-08-02T11:13:40.000Z</time>
      </trkpt>
      <trkpt lat="48.74508" lon="1.80685">
        <ele>191.60000610352</ele>
        <time>2011-08-02T11:13:45.000Z</time>
      </trkpt>
      <trkpt lat="48.74509" lon="1.80687">
        <ele>191.60000610352</ele>
        <time>2011-08-02T11:13:49.000Z</time>
      </trkpt>
      <trkpt lat="48.74514" lon="1.80694">
        <ele>191.60000610352</ele>
        <time>2011-08-02T11:13:56.000Z</time>
      </trkpt>
      <trkpt lat="48.74516" lon="1.80696">
        <ele>191.39999389648</ele>
        <time>2011-08-02T11:13:57.000Z</time>
      </trkpt>
      <trkpt lat="48.7452" lon="1.80707">
        <ele>191.39999389648</ele>
        <time>2011-08-02T11:14:04.000Z</time>
      </trkpt>
      <trkpt lat="48.74523" lon="1.8071">
        <ele>191.39999389648</ele>
        <time>2011-08-02T11:14:07.000Z</time>
      </trkpt>
      <trkpt lat="48.74533" lon="1.80715">
        <ele>191.19999694824</ele>
        <time>2011-08-02T11:14:16.000Z</time>
      </trkpt>
      <trkpt lat="48.7454" lon="1.80722">
        <ele>191</ele>
        <time>2011-08-02T11:14:22.000Z</time>
      </trkpt>
      <trkpt lat="48.74544" lon="1.80727">
        <ele>191</ele>
        <time>2011-08-02T11:14:26.000Z</time>
      </trkpt>
      <trkpt lat="48.74545" lon="1.80737">
        <ele>191.19999694824</ele>
        <time>2011-08-02T11:14:32.000Z</time>
      </trkpt>
      <trkpt lat="48.74549" lon="1.80743">
        <ele>191.19999694824</ele>
        <time>2011-08-02T11:14:36.000Z</time>
      </trkpt>
      <trkpt lat="48.74555" lon="1.80751">
        <ele>191.19999694824</ele>
        <time>2011-08-02T11:14:43.000Z</time>
      </trkpt>
      <trkpt lat="48.74558" lon="1.8075">
        <ele>191.19999694824</ele>
        <time>2011-08-02T11:14:48.000Z</time>
      </trkpt>
      <trkpt lat="48.74569" lon="1.80755">
        <ele>191.19999694824</ele>
        <time>2011-08-02T11:15:00.000Z</time>
      </trkpt>
      <trkpt lat="48.74574" lon="1.80762">
        <ele>191.39999389648</ele>
        <time>2011-08-02T11:15:04.000Z</time>
      </trkpt>
      <trkpt lat="48.74579" lon="1.80774">
        <ele>191.80000305176</ele>
        <time>2011-08-02T11:15:11.000Z</time>
      </trkpt>
      <trkpt lat="48.74584" lon="1.80785">
        <ele>192.19999694824</ele>
        <time>2011-08-02T11:15:19.000Z</time>
      </trkpt>
      <trkpt lat="48.74588" lon="1.80789">
        <ele>192</ele>
        <time>2011-08-02T11:15:23.000Z</time>
      </trkpt>
      <trkpt lat="48.74591" lon="1.80793">
        <ele>192</ele>
        <time>2011-08-02T11:15:26.000Z</time>
      </trkpt>
      <trkpt lat="48.74596" lon="1.80799">
        <ele>191.80000305176</ele>
        <time>2011-08-02T11:15:31.000Z</time>
      </trkpt>
      <trkpt lat="48.74601" lon="1.80809">
        <ele>191.80000305176</ele>
        <time>2011-08-02T11:15:38.000Z</time>
      </trkpt>
      <trkpt lat="48.74609" lon="1.80819">
        <ele>191.60000610352</ele>
        <time>2011-08-02T11:15:46.000Z</time>
      </trkpt>
      <trkpt lat="48.74615" lon="1.80827">
        <ele>191.39999389648</ele>
        <time>2011-08-02T11:15:53.000Z</time>
      </trkpt>
      <trkpt lat="48.74621" lon="1.80832">
        <ele>191.19999694824</ele>
        <time>2011-08-02T11:15:58.000Z</time>
      </trkpt>
      <trkpt lat="48.74628" lon="1.80838">
        <ele>190.80000305176</ele>
        <time>2011-08-02T11:16:04.000Z</time>
      </trkpt>
      <trkpt lat="48.74636" lon="1.80853">
        <ele>190.19999694824</ele>
        <time>2011-08-02T11:16:12.000Z</time>
      </trkpt>
      <trkpt lat="48.74644" lon="1.80865">
        <ele>189.60000610352</ele>
        <time>2011-08-02T11:16:20.000Z</time>
      </trkpt>
      <trkpt lat="48.74648" lon="1.80869">
        <ele>189.19999694824</ele>
        <time>2011-08-02T11:16:24.000Z</time>
      </trkpt>
      <trkpt lat="48.74652" lon="1.80875">
        <ele>189</ele>
        <time>2011-08-02T11:16:29.000Z</time>
      </trkpt>
      <trkpt lat="48.74659" lon="1.80884">
        <ele>188.39999389648</ele>
        <time>2011-08-02T11:16:35.000Z</time>
      </trkpt>
      <trkpt lat="48.74664" lon="1.80889">
        <ele>188.19999694824</ele>
        <time>2011-08-02T11:16:39.000Z</time>
      </trkpt>
      <trkpt lat="48.74672" lon="1.80904">
        <ele>187.39999389648</ele>
        <time>2011-08-02T11:16:48.000Z</time>
      </trkpt>
      <trkpt lat="48.74679" lon="1.80915">
        <ele>186.80000305176</ele>
        <time>2011-08-02T11:16:55.000Z</time>
      </trkpt>
      <trkpt lat="48.74684" lon="1.80927">
        <ele>186</ele>
        <time>2011-08-02T11:17:01.000Z</time>
      </trkpt>
      <trkpt lat="48.74688" lon="1.80937">
        <ele>185.39999389648</ele>
        <time>2011-08-02T11:17:07.000Z</time>
      </trkpt>
      <trkpt lat="48.74693" lon="1.80947">
        <ele>184.80000305176</ele>
        <time>2011-08-02T11:17:14.000Z</time>
      </trkpt>
      <trkpt lat="48.74697" lon="1.80954">
        <ele>184.39999389648</ele>
        <time>2011-08-02T11:17:21.000Z</time>
      </trkpt>
      <trkpt lat="48.74699" lon="1.80959">
        <ele>184.19999694824</ele>
        <time>2011-08-02T11:17:24.000Z</time>
      </trkpt>
      <trkpt lat="48.74704" lon="1.80968">
        <ele>183.80000305176</ele>
        <time>2011-08-02T11:17:30.000Z</time>
      </trkpt>
      <trkpt lat="48.74709" lon="1.80982">
        <ele>183.39999389648</ele>
        <time>2011-08-02T11:17:38.000Z</time>
      </trkpt>
      <trkpt lat="48.74712" lon="1.80992">
        <ele>183.19999694824</ele>
        <time>2011-08-02T11:17:45.000Z</time>
      </trkpt>
      <trkpt lat="48.74715" lon="1.80997">
        <ele>183.19999694824</ele>
        <time>2011-08-02T11:17:49.000Z</time>
      </trkpt>
      <trkpt lat="48.74721" lon="1.81007">
        <ele>183.19999694824</ele>
        <time>2011-08-02T11:17:57.000Z</time>
      </trkpt>
      <trkpt lat="48.74726" lon="1.81015">
        <ele>183.39999389648</ele>
        <time>2011-08-02T11:18:03.000Z</time>
      </trkpt>
      <trkpt lat="48.74732" lon="1.81026">
        <ele>183.60000610352</ele>
        <time>2011-08-02T11:18:11.000Z</time>
      </trkpt>
      <trkpt lat="48.74737" lon="1.81034">
        <ele>183.80000305176</ele>
        <time>2011-08-02T11:18:17.000Z</time>
      </trkpt>
      <trkpt lat="48.74741" lon="1.81039">
        <ele>184</ele>
        <time>2011-08-02T11:18:21.000Z</time>
      </trkpt>
      <trkpt lat="48.74745" lon="1.81045">
        <ele>184.19999694824</ele>
        <time>2011-08-02T11:18:26.000Z</time>
      </trkpt>
      <trkpt lat="48.74748" lon="1.81051">
        <ele>184.39999389648</ele>
        <time>2011-08-02T11:18:30.000Z</time>
      </trkpt>
      <trkpt lat="48.74753" lon="1.81058">
        <ele>184.39999389648</ele>
        <time>2011-08-02T11:18:35.000Z</time>
      </trkpt>
      <trkpt lat="48.74762" lon="1.81071">
        <ele>184.39999389648</ele>
        <time>2011-08-02T11:18:44.000Z</time>
      </trkpt>
      <trkpt lat="48.74769" lon="1.81081">
        <ele>184.19999694824</ele>
        <time>2011-08-02T11:18:50.000Z</time>
      </trkpt>
      <trkpt lat="48.7477" lon="1.81082">
        <ele>184.19999694824</ele>
        <time>2011-08-02T11:18:51.000Z</time>
      </trkpt>
      <trkpt lat="48.74775" lon="1.8109">
        <ele>184</ele>
        <time>2011-08-02T11:18:56.000Z</time>
      </trkpt>
      <trkpt lat="48.74781" lon="1.811">
        <ele>183.80000305176</ele>
        <time>2011-08-02T11:19:03.000Z</time>
      </trkpt>
      <trkpt lat="48.7479" lon="1.81106">
        <ele>183.19999694824</ele>
        <time>2011-08-02T11:19:10.000Z</time>
      </trkpt>
      <trkpt lat="48.74796" lon="1.81112">
        <ele>183</ele>
        <time>2011-08-02T11:19:15.000Z</time>
      </trkpt>
      <trkpt lat="48.74803" lon="1.81116">
        <ele>182.39999389648</ele>
        <time>2011-08-02T11:19:21.000Z</time>
      </trkpt>
      <trkpt lat="48.74804" lon="1.81117">
        <ele>182.39999389648</ele>
        <time>2011-08-02T11:19:23.000Z</time>
      </trkpt>
      <trkpt lat="48.74809" lon="1.81126">
        <ele>182</ele>
        <time>2011-08-02T11:19:29.000Z</time>
      </trkpt>
      <trkpt lat="48.74813" lon="1.8113">
        <ele>181.80000305176</ele>
        <time>2011-08-02T11:19:33.000Z</time>
      </trkpt>
      <trkpt lat="48.74822" lon="1.81144">
        <ele>181.39999389648</ele>
        <time>2011-08-02T11:19:42.000Z</time>
      </trkpt>
      <trkpt lat="48.74823" lon="1.81145">
        <ele>181.39999389648</ele>
        <time>2011-08-02T11:19:43.000Z</time>
      </trkpt>
      <trkpt lat="48.74828" lon="1.81151">
        <ele>181</ele>
        <time>2011-08-02T11:19:48.000Z</time>
      </trkpt>
      <trkpt lat="48.74837" lon="1.8116">
        <ele>180.60000610352</ele>
        <time>2011-08-02T11:19:55.000Z</time>
      </trkpt>
      <trkpt lat="48.74838" lon="1.81161">
        <ele>180.60000610352</ele>
        <time>2011-08-02T11:19:56.000Z</time>
      </trkpt>
      <trkpt lat="48.74842" lon="1.81165">
        <ele>180.60000610352</ele>
        <time>2011-08-02T11:20:00.000Z</time>
      </trkpt>
      <trkpt lat="48.74847" lon="1.81169">
        <ele>180.39999389648</ele>
        <time>2011-08-02T11:20:05.000Z</time>
      </trkpt>
      <trkpt lat="48.74851" lon="1.81172">
        <ele>180.39999389648</ele>
        <time>2011-08-02T11:20:09.000Z</time>
      </trkpt>
      <trkpt lat="48.74857" lon="1.8118">
        <ele>180.39999389648</ele>
        <time>2011-08-02T11:20:15.000Z</time>
      </trkpt>
      <trkpt lat="48.74861" lon="1.81184">
        <ele>180.19999694824</ele>
        <time>2011-08-02T11:20:19.000Z</time>
      </trkpt>
      <trkpt lat="48.74864" lon="1.81187">
        <ele>180.19999694824</ele>
        <time>2011-08-02T11:20:22.000Z</time>
      </trkpt>
      <trkpt lat="48.74872" lon="1.81197">
        <ele>180</ele>
        <time>2011-08-02T11:20:30.000Z</time>
      </trkpt>
      <trkpt lat="48.74875" lon="1.81199">
        <ele>180</ele>
        <time>2011-08-02T11:20:32.000Z</time>
      </trkpt>
      <trkpt lat="48.7488" lon="1.81205">
        <ele>179.80000305176</ele>
        <time>2011-08-02T11:20:37.000Z</time>
      </trkpt>
      <trkpt lat="48.74883" lon="1.81209">
        <ele>179.80000305176</ele>
        <time>2011-08-02T11:20:40.000Z</time>
      </trkpt>
      <trkpt lat="48.74887" lon="1.81213">
        <ele>179.80000305176</ele>
        <time>2011-08-02T11:20:44.000Z</time>
      </trkpt>
      <trkpt lat="48.74891" lon="1.8122">
        <ele>179.60000610352</ele>
        <time>2011-08-02T11:20:50.000Z</time>
      </trkpt>
      <trkpt lat="48.74892" lon="1.8122">
        <ele>179.60000610352</ele>
        <time>2011-08-02T11:20:51.000Z</time>
      </trkpt>
      <trkpt lat="48.74894" lon="1.81218">
        <ele>179.39999389648</ele>
        <time>2011-08-02T11:20:57.000Z</time>
      </trkpt>
      <trkpt lat="48.74901" lon="1.81219">
        <ele>179.19999694824</ele>
        <time>2011-08-02T11:21:27.000Z</time>
      </trkpt>
      <trkpt lat="48.74902" lon="1.81221">
        <ele>179.19999694824</ele>
        <time>2011-08-02T11:21:29.000Z</time>
      </trkpt>
      <trkpt lat="48.74942" lon="1.81253">
        <ele>178.60000610352</ele>
        <time>2011-08-02T11:23:03.000Z</time>
      </trkpt>
      <trkpt lat="48.74946" lon="1.81258">
        <ele>178.60000610352</ele>
        <time>2011-08-02T11:23:06.000Z</time>
      </trkpt>
      <trkpt lat="48.74953" lon="1.81261">
        <ele>178.39999389648</ele>
        <time>2011-08-02T11:23:12.000Z</time>
      </trkpt>
      <trkpt lat="48.74954" lon="1.81263">
        <ele>178.39999389648</ele>
        <time>2011-08-02T11:23:14.000Z</time>
      </trkpt>
      <trkpt lat="48.74959" lon="1.81268">
        <ele>178.39999389648</ele>
        <time>2011-08-02T11:23:20.000Z</time>
      </trkpt>
      <trkpt lat="48.74967" lon="1.81272">
        <ele>178.19999694824</ele>
        <time>2011-08-02T11:23:26.000Z</time>
      </trkpt>
      <trkpt lat="48.74973" lon="1.81275">
        <ele>178.19999694824</ele>
        <time>2011-08-02T11:23:30.000Z</time>
      </trkpt>
      <trkpt lat="48.74981" lon="1.81275">
        <ele>178</ele>
        <time>2011-08-02T11:23:37.000Z</time>
      </trkpt>
      <trkpt lat="48.74982" lon="1.81275">
        <ele>178</ele>
        <time>2011-08-02T11:23:38.000Z</time>
      </trkpt>
      <trkpt lat="48.74982" lon="1.81275">
        <ele>178</ele>
        <time>2011-08-02T11:23:41.000Z</time>
      </trkpt>
      <trkpt lat="48.7499" lon="1.81284">
        <ele>177.80000305176</ele>
        <time>2011-08-02T11:23:57.000Z</time>
      </trkpt>
      <trkpt lat="48.74999" lon="1.8129">
        <ele>177.39999389648</ele>
        <time>2011-08-02T11:24:03.000Z</time>
      </trkpt>
      <trkpt lat="48.75006" lon="1.81295">
        <ele>177.19999694824</ele>
        <time>2011-08-02T11:24:09.000Z</time>
      </trkpt>
      <trkpt lat="48.75014" lon="1.81302">
        <ele>176.80000305176</ele>
        <time>2011-08-02T11:24:16.000Z</time>
      </trkpt>
      <trkpt lat="48.75019" lon="1.81307">
        <ele>176.60000610352</ele>
        <time>2011-08-02T11:24:21.000Z</time>
      </trkpt>
      <trkpt lat="48.75028" lon="1.81316">
        <ele>176.19999694824</ele>
        <time>2011-08-02T11:24:29.000Z</time>
      </trkpt>
      <trkpt lat="48.75029" lon="1.81317">
        <ele>176.19999694824</ele>
        <time>2011-08-02T11:24:30.000Z</time>
      </trkpt>
      <trkpt lat="48.75034" lon="1.81325">
        <ele>175.80000305176</ele>
        <time>2011-08-02T11:24:35.000Z</time>
      </trkpt>
      <trkpt lat="48.75039" lon="1.8133">
        <ele>175.60000610352</ele>
        <time>2011-08-02T11:24:39.000Z</time>
      </trkpt>
      <trkpt lat="48.75046" lon="1.81337">
        <ele>175</ele>
        <time>2011-08-02T11:24:45.000Z</time>
      </trkpt>
      <trkpt lat="48.75049" lon="1.8134">
        <ele>174.60000610352</ele>
        <time>2011-08-02T11:24:47.000Z</time>
      </trkpt>
      <trkpt lat="48.75058" lon="1.81349">
        <ele>173.60000610352</ele>
        <time>2011-08-02T11:24:54.000Z</time>
      </trkpt>
      <trkpt lat="48.75064" lon="1.81355">
        <ele>172.80000305176</ele>
        <time>2011-08-02T11:24:59.000Z</time>
      </trkpt>
      <trkpt lat="48.75069" lon="1.81361">
        <ele>172.19999694824</ele>
        <time>2011-08-02T11:25:04.000Z</time>
      </trkpt>
      <trkpt lat="48.75078" lon="1.81363">
        <ele>171.60000610352</ele>
        <time>2011-08-02T11:25:10.000Z</time>
      </trkpt>
      <trkpt lat="48.75091" lon="1.81367">
        <ele>170.39999389648</ele>
        <time>2011-08-02T11:25:18.000Z</time>
      </trkpt>
      <trkpt lat="48.75096" lon="1.81372">
        <ele>169.39999389648</ele>
        <time>2011-08-02T11:25:23.000Z</time>
      </trkpt>
      <trkpt lat="48.75106" lon="1.81375">
        <ele>168.39999389648</ele>
        <time>2011-08-02T11:25:29.000Z</time>
      </trkpt>
      <trkpt lat="48.75113" lon="1.81376">
        <ele>167.60000610352</ele>
        <time>2011-08-02T11:25:34.000Z</time>
      </trkpt>
      <trkpt lat="48.75119" lon="1.81378">
        <ele>167</ele>
        <time>2011-08-02T11:25:38.000Z</time>
      </trkpt>
      <trkpt lat="48.7512" lon="1.81378">
        <ele>167</ele>
        <time>2011-08-02T11:25:39.000Z</time>
      </trkpt>
      <trkpt lat="48.75129" lon="1.81383">
        <ele>165.80000305176</ele>
        <time>2011-08-02T11:25:46.000Z</time>
      </trkpt>
      <trkpt lat="48.75134" lon="1.81384">
        <ele>165.39999389648</ele>
        <time>2011-08-02T11:25:48.000Z</time>
      </trkpt>
      <trkpt lat="48.75136" lon="1.81386">
        <ele>165</ele>
        <time>2011-08-02T11:25:50.000Z</time>
      </trkpt>
      <trkpt lat="48.7514" lon="1.81393">
        <ele>164.19999694824</ele>
        <time>2011-08-02T11:25:56.000Z</time>
      </trkpt>
      <trkpt lat="48.75147" lon="1.814">
        <ele>163.19999694824</ele>
        <time>2011-08-02T11:26:02.000Z</time>
      </trkpt>
      <trkpt lat="48.75151" lon="1.81407">
        <ele>162.60000610352</ele>
        <time>2011-08-02T11:26:07.000Z</time>
      </trkpt>
      <trkpt lat="48.75161" lon="1.81418">
        <ele>161.19999694824</ele>
        <time>2011-08-02T11:26:16.000Z</time>
      </trkpt>
      <trkpt lat="48.75162" lon="1.81422">
        <ele>160.80000305176</ele>
        <time>2011-08-02T11:26:19.000Z</time>
      </trkpt>
      <trkpt lat="48.75171" lon="1.81433">
        <ele>159.19999694824</ele>
        <time>2011-08-02T11:26:25.000Z</time>
      </trkpt>
      <trkpt lat="48.7518" lon="1.81445">
        <ele>157.19999694824</ele>
        <time>2011-08-02T11:26:30.000Z</time>
      </trkpt>
      <trkpt lat="48.75188" lon="1.81456">
        <ele>155.80000305176</ele>
        <time>2011-08-02T11:26:37.000Z</time>
      </trkpt>
      <trkpt lat="48.75194" lon="1.81466">
        <ele>154.60000610352</ele>
        <time>2011-08-02T11:26:42.000Z</time>
      </trkpt>
      <trkpt lat="48.75197" lon="1.81475">
        <ele>153.80000305176</ele>
        <time>2011-08-02T11:26:46.000Z</time>
      </trkpt>
      <trkpt lat="48.752" lon="1.81487">
        <ele>152.80000305176</ele>
        <time>2011-08-02T11:26:52.000Z</time>
      </trkpt>
      <trkpt lat="48.75204" lon="1.81497">
        <ele>151.80000305176</ele>
        <time>2011-08-02T11:26:56.000Z</time>
      </trkpt>
      <trkpt lat="48.75212" lon="1.81508">
        <ele>150.80000305176</ele>
        <time>2011-08-02T11:27:04.000Z</time>
      </trkpt>
      <trkpt lat="48.75214" lon="1.81509">
        <ele>150.60000610352</ele>
        <time>2011-08-02T11:27:05.000Z</time>
      </trkpt>
      <trkpt lat="48.75217" lon="1.81518">
        <ele>150</ele>
        <time>2011-08-02T11:27:11.000Z</time>
      </trkpt>
      <trkpt lat="48.75218" lon="1.81524">
        <ele>149.80000305176</ele>
        <time>2011-08-02T11:27:13.000Z</time>
      </trkpt>
      <trkpt lat="48.75225" lon="1.81536">
        <ele>148.80000305176</ele>
        <time>2011-08-02T11:27:21.000Z</time>
      </trkpt>
      <trkpt lat="48.7523" lon="1.81543">
        <ele>148.39999389648</ele>
        <time>2011-08-02T11:27:26.000Z</time>
      </trkpt>
      <trkpt lat="48.75237" lon="1.81551">
        <ele>147.60000610352</ele>
        <time>2011-08-02T11:27:33.000Z</time>
      </trkpt>
      <trkpt lat="48.75242" lon="1.81559">
        <ele>147.19999694824</ele>
        <time>2011-08-02T11:27:38.000Z</time>
      </trkpt>
      <trkpt lat="48.75245" lon="1.81564">
        <ele>146.80000305176</ele>
        <time>2011-08-02T11:27:41.000Z</time>
      </trkpt>
      <trkpt lat="48.75251" lon="1.81576">
        <ele>146.19999694824</ele>
        <time>2011-08-02T11:27:48.000Z</time>
      </trkpt>
      <trkpt lat="48.75252" lon="1.81578">
        <ele>146</ele>
        <time>2011-08-02T11:27:49.000Z</time>
      </trkpt>
      <trkpt lat="48.75255" lon="1.81581">
        <ele>145.80000305176</ele>
        <time>2011-08-02T11:27:51.000Z</time>
      </trkpt>
      <trkpt lat="48.75259" lon="1.81586">
        <ele>145.39999389648</ele>
        <time>2011-08-02T11:27:55.000Z</time>
      </trkpt>
      <trkpt lat="48.75264" lon="1.81593">
        <ele>145</ele>
        <time>2011-08-02T11:28:00.000Z</time>
      </trkpt>
      <trkpt lat="48.75271" lon="1.81601">
        <ele>144.39999389648</ele>
        <time>2011-08-02T11:28:06.000Z</time>
      </trkpt>
      <trkpt lat="48.75272" lon="1.81602">
        <ele>144.19999694824</ele>
        <time>2011-08-02T11:28:07.000Z</time>
      </trkpt>
      <trkpt lat="48.75278" lon="1.81613">
        <ele>143.60000610352</ele>
        <time>2011-08-02T11:28:13.000Z</time>
      </trkpt>
      <trkpt lat="48.75283" lon="1.81622">
        <ele>143</ele>
        <time>2011-08-02T11:28:18.000Z</time>
      </trkpt>
      <trkpt lat="48.75286" lon="1.81626">
        <ele>142.80000305176</ele>
        <time>2011-08-02T11:28:21.000Z</time>
      </trkpt>
      <trkpt lat="48.75291" lon="1.81637">
        <ele>142.19999694824</ele>
        <time>2011-08-02T11:28:27.000Z</time>
      </trkpt>
      <trkpt lat="48.75292" lon="1.81638">
        <ele>142</ele>
        <time>2011-08-02T11:28:28.000Z</time>
      </trkpt>
      <trkpt lat="48.753" lon="1.81648">
        <ele>141.39999389648</ele>
        <time>2011-08-02T11:28:35.000Z</time>
      </trkpt>
      <trkpt lat="48.75308" lon="1.81652">
        <ele>141</ele>
        <time>2011-08-02T11:28:41.000Z</time>
      </trkpt>
      <trkpt lat="48.75317" lon="1.81658">
        <ele>140.60000610352</ele>
        <time>2011-08-02T11:28:47.000Z</time>
      </trkpt>
      <trkpt lat="48.75319" lon="1.81662">
        <ele>140.39999389648</ele>
        <time>2011-08-02T11:28:49.000Z</time>
      </trkpt>
      <trkpt lat="48.75327" lon="1.81669">
        <ele>139.80000305176</ele>
        <time>2011-08-02T11:28:54.000Z</time>
      </trkpt>
      <trkpt lat="48.7533" lon="1.8168">
        <ele>139</ele>
        <time>2011-08-02T11:29:00.000Z</time>
      </trkpt>
      <trkpt lat="48.75336" lon="1.81693">
        <ele>138</ele>
        <time>2011-08-02T11:29:07.000Z</time>
      </trkpt>
      <trkpt lat="48.75342" lon="1.81702">
        <ele>137.39999389648</ele>
        <time>2011-08-02T11:29:13.000Z</time>
      </trkpt>
      <trkpt lat="48.75346" lon="1.81715">
        <ele>136.60000610352</ele>
        <time>2011-08-02T11:29:19.000Z</time>
      </trkpt>
      <trkpt lat="48.75352" lon="1.81727">
        <ele>136</ele>
        <time>2011-08-02T11:29:26.000Z</time>
      </trkpt>
      <trkpt lat="48.75359" lon="1.81734">
        <ele>135.80000305176</ele>
        <time>2011-08-02T11:29:33.000Z</time>
      </trkpt>
      <trkpt lat="48.7536" lon="1.81733">
        <ele>135.80000305176</ele>
        <time>2011-08-02T11:29:35.000Z</time>
      </trkpt>
      <trkpt lat="48.75368" lon="1.81737">
        <ele>135.80000305176</ele>
        <time>2011-08-02T11:29:41.000Z</time>
      </trkpt>
      <trkpt lat="48.75371" lon="1.81742">
        <ele>135.60000610352</ele>
        <time>2011-08-02T11:29:47.000Z</time>
      </trkpt>
      <trkpt lat="48.75373" lon="1.81745">
        <ele>135.60000610352</ele>
        <time>2011-08-02T11:29:49.000Z</time>
      </trkpt>
      <trkpt lat="48.75381" lon="1.81753">
        <ele>135.39999389648</ele>
        <time>2011-08-02T11:29:55.000Z</time>
      </trkpt>
      <trkpt lat="48.75385" lon="1.81756">
        <ele>135.39999389648</ele>
        <time>2011-08-02T11:29:58.000Z</time>
      </trkpt>
      <trkpt lat="48.75391" lon="1.81767">
        <ele>135</ele>
        <time>2011-08-02T11:30:06.000Z</time>
      </trkpt>
      <trkpt lat="48.75396" lon="1.81773">
        <ele>134.80000305176</ele>
        <time>2011-08-02T11:30:10.000Z</time>
      </trkpt>
      <trkpt lat="48.75401" lon="1.8178">
        <ele>134.39999389648</ele>
        <time>2011-08-02T11:30:14.000Z</time>
      </trkpt>
      <trkpt lat="48.75408" lon="1.81789">
        <ele>134</ele>
        <time>2011-08-02T11:30:19.000Z</time>
      </trkpt>
      <trkpt lat="48.75412" lon="1.81799">
        <ele>133.19999694824</ele>
        <time>2011-08-02T11:30:26.000Z</time>
      </trkpt>
      <trkpt lat="48.75416" lon="1.81804">
        <ele>133</ele>
        <time>2011-08-02T11:30:30.000Z</time>
      </trkpt>
      <trkpt lat="48.75417" lon="1.81805">
        <ele>133</ele>
        <time>2011-08-02T11:30:31.000Z</time>
      </trkpt>
      <trkpt lat="48.7542" lon="1.8181">
        <ele>133.19999694824</ele>
        <time>2011-08-02T11:30:34.000Z</time>
      </trkpt>
      <trkpt lat="48.75421" lon="1.81812">
        <ele>133.39999389648</ele>
        <time>2011-08-02T11:30:36.000Z</time>
      </trkpt>
      <trkpt lat="48.75421" lon="1.81815">
        <ele>133.19999694824</ele>
        <time>2011-08-02T11:30:39.000Z</time>
      </trkpt>
      <trkpt lat="48.75421" lon="1.81804">
        <ele>134.19999694824</ele>
        <time>2011-08-02T11:30:46.000Z</time>
      </trkpt>
      <trkpt lat="48.75421" lon="1.81798">
        <ele>134.39999389648</ele>
        <time>2011-08-02T11:30:49.000Z</time>
      </trkpt>
      <trkpt lat="48.75423" lon="1.81783">
        <ele>136</ele>
        <time>2011-08-02T11:30:57.000Z</time>
      </trkpt>
      <trkpt lat="48.75422" lon="1.81768">
        <ele>136.80000305176</ele>
        <time>2011-08-02T11:31:05.000Z</time>
      </trkpt>
      <trkpt lat="48.75423" lon="1.81755">
        <ele>138.19999694824</ele>
        <time>2011-08-02T11:31:12.000Z</time>
      </trkpt>
      <trkpt lat="48.75423" lon="1.81745">
        <ele>138.60000610352</ele>
        <time>2011-08-02T11:31:17.000Z</time>
      </trkpt>
      <trkpt lat="48.75423" lon="1.81733">
        <ele>139</ele>
        <time>2011-08-02T11:31:23.000Z</time>
      </trkpt>
      <trkpt lat="48.75421" lon="1.81722">
        <ele>138.80000305176</ele>
        <time>2011-08-02T11:31:28.000Z</time>
      </trkpt>
      <trkpt lat="48.7542" lon="1.81718">
        <ele>138.60000610352</ele>
        <time>2011-08-02T11:31:30.000Z</time>
      </trkpt>
      <trkpt lat="48.75419" lon="1.81709">
        <ele>138.39999389648</ele>
        <time>2011-08-02T11:31:36.000Z</time>
      </trkpt>
      <trkpt lat="48.75413" lon="1.81697">
        <ele>138.19999694824</ele>
        <time>2011-08-02T11:31:42.000Z</time>
      </trkpt>
      <trkpt lat="48.75413" lon="1.81681">
        <ele>138.60000610352</ele>
        <time>2011-08-02T11:31:49.000Z</time>
      </trkpt>
      <trkpt lat="48.75413" lon="1.81672">
        <ele>138.80000305176</ele>
        <time>2011-08-02T11:31:54.000Z</time>
      </trkpt>
      <trkpt lat="48.75413" lon="1.81658">
        <ele>139</ele>
        <time>2011-08-02T11:32:01.000Z</time>
      </trkpt>
      <trkpt lat="48.75413" lon="1.81656">
        <ele>139</ele>
        <time>2011-08-02T11:32:02.000Z</time>
      </trkpt>
      <trkpt lat="48.75414" lon="1.81646">
        <ele>139.19999694824</ele>
        <time>2011-08-02T11:32:08.000Z</time>
      </trkpt>
      <trkpt lat="48.75415" lon="1.8164">
        <ele>139.19999694824</ele>
        <time>2011-08-02T11:32:11.000Z</time>
      </trkpt>
      <trkpt lat="48.75416" lon="1.81636">
        <ele>139.19999694824</ele>
        <time>2011-08-02T11:32:13.000Z</time>
      </trkpt>
      <trkpt lat="48.75417" lon="1.81624">
        <ele>139.39999389648</ele>
        <time>2011-08-02T11:32:19.000Z</time>
      </trkpt>
      <trkpt lat="48.75417" lon="1.81622">
        <ele>139.60000610352</ele>
        <time>2011-08-02T11:32:20.000Z</time>
      </trkpt>
      <trkpt lat="48.75419" lon="1.81614">
        <ele>140</ele>
        <time>2011-08-02T11:32:24.000Z</time>
      </trkpt>
      <trkpt lat="48.75423" lon="1.81601">
        <ele>141</ele>
        <time>2011-08-02T11:32:30.000Z</time>
      </trkpt>
      <trkpt lat="48.75425" lon="1.81595">
        <ele>141.60000610352</ele>
        <time>2011-08-02T11:32:34.000Z</time>
      </trkpt>
      <trkpt lat="48.75428" lon="1.8159">
        <ele>142.19999694824</ele>
        <time>2011-08-02T11:32:37.000Z</time>
      </trkpt>
      <trkpt lat="48.7543" lon="1.81585">
        <ele>142.60000610352</ele>
        <time>2011-08-02T11:32:41.000Z</time>
      </trkpt>
      <trkpt lat="48.75435" lon="1.81571">
        <ele>143.80000305176</ele>
        <time>2011-08-02T11:32:49.000Z</time>
      </trkpt>
      <trkpt lat="48.75436" lon="1.8157">
        <ele>143.80000305176</ele>
        <time>2011-08-02T11:32:50.000Z</time>
      </trkpt>
      <trkpt lat="48.75439" lon="1.81563">
        <ele>144.39999389648</ele>
        <time>2011-08-02T11:32:54.000Z</time>
      </trkpt>
      <trkpt lat="48.75442" lon="1.81551">
        <ele>145</ele>
        <time>2011-08-02T11:33:01.000Z</time>
      </trkpt>
      <trkpt lat="48.75443" lon="1.81548">
        <ele>145</ele>
        <time>2011-08-02T11:33:02.000Z</time>
      </trkpt>
      <trkpt lat="48.75447" lon="1.81537">
        <ele>145.60000610352</ele>
        <time>2011-08-02T11:33:09.000Z</time>
      </trkpt>
      <trkpt lat="48.75451" lon="1.81531">
        <ele>146.19999694824</ele>
        <time>2011-08-02T11:33:13.000Z</time>
      </trkpt>
      <trkpt lat="48.75452" lon="1.81521">
        <ele>146</ele>
        <time>2011-08-02T11:33:18.000Z</time>
      </trkpt>
      <trkpt lat="48.75456" lon="1.81507">
        <ele>146.39999389648</ele>
        <time>2011-08-02T11:33:25.000Z</time>
      </trkpt>
      <trkpt lat="48.75458" lon="1.81496">
        <ele>146.39999389648</ele>
        <time>2011-08-02T11:33:32.000Z</time>
      </trkpt>
      <trkpt lat="48.75459" lon="1.81489">
        <ele>146.60000610352</ele>
        <time>2011-08-02T11:33:35.000Z</time>
      </trkpt>
      <trkpt lat="48.75463" lon="1.81477">
        <ele>147</ele>
        <time>2011-08-02T11:33:41.000Z</time>
      </trkpt>
      <trkpt lat="48.75467" lon="1.81467">
        <ele>147.39999389648</ele>
        <time>2011-08-02T11:33:47.000Z</time>
      </trkpt>
      <trkpt lat="48.75467" lon="1.81465">
        <ele>147.39999389648</ele>
        <time>2011-08-02T11:33:48.000Z</time>
      </trkpt>
      <trkpt lat="48.75465" lon="1.8146">
        <ele>147.19999694824</ele>
        <time>2011-08-02T11:33:51.000Z</time>
      </trkpt>
      <trkpt lat="48.75466" lon="1.81451">
        <ele>147.39999389648</ele>
        <time>2011-08-02T11:33:55.000Z</time>
      </trkpt>
      <trkpt lat="48.75467" lon="1.81448">
        <ele>147.39999389648</ele>
        <time>2011-08-02T11:33:57.000Z</time>
      </trkpt>
      <trkpt lat="48.75474" lon="1.81436">
        <ele>147.80000305176</ele>
        <time>2011-08-02T11:34:05.000Z</time>
      </trkpt>
      <trkpt lat="48.75475" lon="1.81433">
        <ele>147.80000305176</ele>
        <time>2011-08-02T11:34:08.000Z</time>
      </trkpt>
      <trkpt lat="48.75479" lon="1.81422">
        <ele>147.80000305176</ele>
        <time>2011-08-02T11:34:15.000Z</time>
      </trkpt>
      <trkpt lat="48.75484" lon="1.81414">
        <ele>147.60000610352</ele>
        <time>2011-08-02T11:34:20.000Z</time>
      </trkpt>
      <trkpt lat="48.75493" lon="1.81406">
        <ele>147.80000305176</ele>
        <time>2011-08-02T11:34:26.000Z</time>
      </trkpt>
      <trkpt lat="48.75497" lon="1.81401">
        <ele>147.60000610352</ele>
        <time>2011-08-02T11:34:32.000Z</time>
      </trkpt>
      <trkpt lat="48.75498" lon="1.81399">
        <ele>147.60000610352</ele>
        <time>2011-08-02T11:34:36.000Z</time>
      </trkpt>
      <trkpt lat="48.75505" lon="1.81384">
        <ele>148.39999389648</ele>
        <time>2011-08-02T11:34:55.000Z</time>
      </trkpt>
      <trkpt lat="48.75509" lon="1.8138">
        <ele>149</ele>
        <time>2011-08-02T11:34:58.000Z</time>
      </trkpt>
      <trkpt lat="48.75511" lon="1.81377">
        <ele>149.19999694824</ele>
        <time>2011-08-02T11:35:00.000Z</time>
      </trkpt>
      <trkpt lat="48.75521" lon="1.81366">
        <ele>150.39999389648</ele>
        <time>2011-08-02T11:35:09.000Z</time>
      </trkpt>
      <trkpt lat="48.75522" lon="1.81364">
        <ele>150.60000610352</ele>
        <time>2011-08-02T11:35:11.000Z</time>
      </trkpt>
      <trkpt lat="48.75525" lon="1.81359">
        <ele>150.60000610352</ele>
        <time>2011-08-02T11:35:15.000Z</time>
      </trkpt>
      <trkpt lat="48.75529" lon="1.81355">
        <ele>151</ele>
        <time>2011-08-02T11:35:20.000Z</time>
      </trkpt>
      <trkpt lat="48.75531" lon="1.81351">
        <ele>151</ele>
        <time>2011-08-02T11:35:23.000Z</time>
      </trkpt>
      <trkpt lat="48.75536" lon="1.81338">
        <ele>150.80000305176</ele>
        <time>2011-08-02T11:35:31.000Z</time>
      </trkpt>
      <trkpt lat="48.75541" lon="1.81327">
        <ele>150.80000305176</ele>
        <time>2011-08-02T11:35:37.000Z</time>
      </trkpt>
      <trkpt lat="48.75545" lon="1.81317">
        <ele>151</ele>
        <time>2011-08-02T11:35:43.000Z</time>
      </trkpt>
      <trkpt lat="48.75547" lon="1.81308">
        <ele>151</ele>
        <time>2011-08-02T11:35:50.000Z</time>
      </trkpt>
      <trkpt lat="48.7555" lon="1.81303">
        <ele>151</ele>
        <time>2011-08-02T11:35:54.000Z</time>
      </trkpt>
      <trkpt lat="48.75553" lon="1.81295">
        <ele>151</ele>
        <time>2011-08-02T11:36:00.000Z</time>
      </trkpt>
      <trkpt lat="48.75557" lon="1.81289">
        <ele>150.80000305176</ele>
        <time>2011-08-02T11:36:06.000Z</time>
      </trkpt>
      <trkpt lat="48.75562" lon="1.8128">
        <ele>150.60000610352</ele>
        <time>2011-08-02T11:36:13.000Z</time>
      </trkpt>
      <trkpt lat="48.75563" lon="1.8128">
        <ele>150.39999389648</ele>
        <time>2011-08-02T11:36:14.000Z</time>
      </trkpt>
      <trkpt lat="48.75554" lon="1.81273">
        <ele>150.39999389648</ele>
        <time>2011-08-02T11:37:20.000Z</time>
      </trkpt>
      <trkpt lat="48.75555" lon="1.81273">
        <ele>150.39999389648</ele>
        <time>2011-08-02T11:37:22.000Z</time>
      </trkpt>
      <trkpt lat="48.75556" lon="1.81272">
        <ele>150.19999694824</ele>
        <time>2011-08-02T11:37:29.000Z</time>
      </trkpt>
      <trkpt lat="48.75555" lon="1.81272">
        <ele>150.19999694824</ele>
        <time>2011-08-02T11:37:32.000Z</time>
      </trkpt>
      <trkpt lat="48.75558" lon="1.81272">
        <ele>150.19999694824</ele>
        <time>2011-08-02T11:37:49.000Z</time>
      </trkpt>
      <trkpt lat="48.75562" lon="1.81274">
        <ele>150.19999694824</ele>
        <time>2011-08-02T11:37:55.000Z</time>
      </trkpt>
      <trkpt lat="48.7557" lon="1.81269">
        <ele>149.80000305176</ele>
        <time>2011-08-02T11:38:28.000Z</time>
      </trkpt>
      <trkpt lat="48.75569" lon="1.8127">
        <ele>149.80000305176</ele>
        <time>2011-08-02T11:38:30.000Z</time>
      </trkpt>
      <trkpt lat="48.75567" lon="1.81267">
        <ele>149.80000305176</ele>
        <time>2011-08-02T11:38:41.000Z</time>
      </trkpt>
      <trkpt lat="48.75565" lon="1.81266">
        <ele>149.80000305176</ele>
        <time>2011-08-02T11:38:44.000Z</time>
      </trkpt>
      <trkpt lat="48.75575" lon="1.81261">
        <ele>149.19999694824</ele>
        <time>2011-08-02T11:38:54.000Z</time>
      </trkpt>
      <trkpt lat="48.75581" lon="1.81256">
        <ele>148.60000610352</ele>
        <time>2011-08-02T11:38:58.000Z</time>
      </trkpt>
      <trkpt lat="48.75586" lon="1.8125">
        <ele>148.60000610352</ele>
        <time>2011-08-02T11:39:03.000Z</time>
      </trkpt>
      <trkpt lat="48.75594" lon="1.81241">
        <ele>150.80000305176</ele>
        <time>2011-08-02T11:39:09.000Z</time>
      </trkpt>
      <trkpt lat="48.75596" lon="1.81238">
        <ele>151.60000610352</ele>
        <time>2011-08-02T11:39:11.000Z</time>
      </trkpt>
      <trkpt lat="48.75602" lon="1.81237">
        <ele>153</ele>
        <time>2011-08-02T11:39:14.000Z</time>
      </trkpt>
      <trkpt lat="48.75609" lon="1.81227">
        <ele>154.60000610352</ele>
        <time>2011-08-02T11:39:20.000Z</time>
      </trkpt>
      <trkpt lat="48.75616" lon="1.81217">
        <ele>156.19999694824</ele>
        <time>2011-08-02T11:39:26.000Z</time>
      </trkpt>
      <trkpt lat="48.75614" lon="1.81203">
        <ele>156</ele>
        <time>2011-08-02T11:39:31.000Z</time>
      </trkpt>
      <trkpt lat="48.75615" lon="1.812">
        <ele>156.19999694824</ele>
        <time>2011-08-02T11:39:33.000Z</time>
      </trkpt>
      <trkpt lat="48.75617" lon="1.81196">
        <ele>156.60000610352</ele>
        <time>2011-08-02T11:39:38.000Z</time>
      </trkpt>
      <trkpt lat="48.75622" lon="1.81184">
        <ele>157.19999694824</ele>
        <time>2011-08-02T11:39:46.000Z</time>
      </trkpt>
      <trkpt lat="48.75632" lon="1.81173">
        <ele>158</ele>
        <time>2011-08-02T11:39:54.000Z</time>
      </trkpt>
      <trkpt lat="48.75632" lon="1.81169">
        <ele>158</ele>
        <time>2011-08-02T11:39:56.000Z</time>
      </trkpt>
      <trkpt lat="48.75636" lon="1.81165">
        <ele>158.19999694824</ele>
        <time>2011-08-02T11:39:59.000Z</time>
      </trkpt>
      <trkpt lat="48.75641" lon="1.81157">
        <ele>158.60000610352</ele>
        <time>2011-08-02T11:40:05.000Z</time>
      </trkpt>
      <trkpt lat="48.75643" lon="1.81154">
        <ele>158.80000305176</ele>
        <time>2011-08-02T11:40:07.000Z</time>
      </trkpt>
      <trkpt lat="48.75646" lon="1.8115">
        <ele>159</ele>
        <time>2011-08-02T11:40:10.000Z</time>
      </trkpt>
      <trkpt lat="48.75652" lon="1.81142">
        <ele>159.19999694824</ele>
        <time>2011-08-02T11:40:15.000Z</time>
      </trkpt>
      <trkpt lat="48.75656" lon="1.81133">
        <ele>159.19999694824</ele>
        <time>2011-08-02T11:40:21.000Z</time>
      </trkpt>
      <trkpt lat="48.75663" lon="1.81119">
        <ele>159</ele>
        <time>2011-08-02T11:40:27.000Z</time>
      </trkpt>
      <trkpt lat="48.75666" lon="1.81107">
        <ele>158.80000305176</ele>
        <time>2011-08-02T11:40:33.000Z</time>
      </trkpt>
      <trkpt lat="48.75669" lon="1.81101">
        <ele>159.19999694824</ele>
        <time>2011-08-02T11:40:37.000Z</time>
      </trkpt>
      <trkpt lat="48.75669" lon="1.81095">
        <ele>159</ele>
        <time>2011-08-02T11:40:41.000Z</time>
      </trkpt>
      <trkpt lat="48.75666" lon="1.81085">
        <ele>158</ele>
        <time>2011-08-02T11:40:45.000Z</time>
      </trkpt>
      <trkpt lat="48.75672" lon="1.81078">
        <ele>159.19999694824</ele>
        <time>2011-08-02T11:40:49.000Z</time>
      </trkpt>
      <trkpt lat="48.75676" lon="1.81073">
        <ele>160</ele>
        <time>2011-08-02T11:40:53.000Z</time>
      </trkpt>
      <trkpt lat="48.75677" lon="1.81069">
        <ele>160</ele>
        <time>2011-08-02T11:40:55.000Z</time>
      </trkpt>
      <trkpt lat="48.75676" lon="1.81053">
        <ele>159.39999389648</ele>
        <time>2011-08-02T11:41:02.000Z</time>
      </trkpt>
      <trkpt lat="48.75678" lon="1.81048">
        <ele>159.80000305176</ele>
        <time>2011-08-02T11:41:05.000Z</time>
      </trkpt>
      <trkpt lat="48.75685" lon="1.81038">
        <ele>160.80000305176</ele>
        <time>2011-08-02T11:41:12.000Z</time>
      </trkpt>
      <trkpt lat="48.75688" lon="1.81029">
        <ele>160.80000305176</ele>
        <time>2011-08-02T11:41:17.000Z</time>
      </trkpt>
      <trkpt lat="48.75689" lon="1.81027">
        <ele>160.80000305176</ele>
        <time>2011-08-02T11:41:18.000Z</time>
      </trkpt>
      <trkpt lat="48.75696" lon="1.81016">
        <ele>161.39999389648</ele>
        <time>2011-08-02T11:41:25.000Z</time>
      </trkpt>
      <trkpt lat="48.75699" lon="1.81007">
        <ele>161.39999389648</ele>
        <time>2011-08-02T11:41:30.000Z</time>
      </trkpt>
      <trkpt lat="48.75711" lon="1.81001">
        <ele>162.39999389648</ele>
        <time>2011-08-02T11:41:37.000Z</time>
      </trkpt>
      <trkpt lat="48.75717" lon="1.80989">
        <ele>162.60000610352</ele>
        <time>2011-08-02T11:41:44.000Z</time>
      </trkpt>
      <trkpt lat="48.7572" lon="1.80983">
        <ele>162.60000610352</ele>
        <time>2011-08-02T11:41:48.000Z</time>
      </trkpt>
      <trkpt lat="48.75722" lon="1.80979">
        <ele>162.60000610352</ele>
        <time>2011-08-02T11:41:50.000Z</time>
      </trkpt>
      <trkpt lat="48.75727" lon="1.80969">
        <ele>162.80000305176</ele>
        <time>2011-08-02T11:41:56.000Z</time>
      </trkpt>
      <trkpt lat="48.75728" lon="1.80966">
        <ele>162.60000610352</ele>
        <time>2011-08-02T11:42:00.000Z</time>
      </trkpt>
      <trkpt lat="48.75729" lon="1.80966">
        <ele>162.80000305176</ele>
        <time>2011-08-02T11:42:39.000Z</time>
      </trkpt>
      <trkpt lat="48.75726" lon="1.80966">
        <ele>162.60000610352</ele>
        <time>2011-08-02T11:42:43.000Z</time>
      </trkpt>
      <trkpt lat="48.7573" lon="1.80955">
        <ele>162.39999389648</ele>
        <time>2011-08-02T11:44:03.000Z</time>
      </trkpt>
      <trkpt lat="48.75736" lon="1.80953">
        <ele>162.60000610352</ele>
        <time>2011-08-02T11:44:07.000Z</time>
      </trkpt>
      <trkpt lat="48.75739" lon="1.80957">
        <ele>163</ele>
        <time>2011-08-02T11:44:12.000Z</time>
      </trkpt>
      <trkpt lat="48.7574" lon="1.80958">
        <ele>163.19999694824</ele>
        <time>2011-08-02T11:44:15.000Z</time>
      </trkpt>
      <trkpt lat="48.75746" lon="1.8093">
        <ele>161.80000305176</ele>
        <time>2011-08-02T11:45:03.000Z</time>
      </trkpt>
      <trkpt lat="48.75747" lon="1.8092">
        <ele>161</ele>
        <time>2011-08-02T11:45:09.000Z</time>
      </trkpt>
      <trkpt lat="48.75749" lon="1.80914">
        <ele>160.80000305176</ele>
        <time>2011-08-02T11:45:13.000Z</time>
      </trkpt>
      <trkpt lat="48.7575" lon="1.80913">
        <ele>160.80000305176</ele>
        <time>2011-08-02T11:45:14.000Z</time>
      </trkpt>
      <trkpt lat="48.75755" lon="1.8091">
        <ele>161.80000305176</ele>
        <time>2011-08-02T11:45:19.000Z</time>
      </trkpt>
      <trkpt lat="48.75759" lon="1.80906">
        <ele>162.60000610352</ele>
        <time>2011-08-02T11:45:24.000Z</time>
      </trkpt>
      <trkpt lat="48.75761" lon="1.80903">
        <ele>162.80000305176</ele>
        <time>2011-08-02T11:45:26.000Z</time>
      </trkpt>
      <trkpt lat="48.75762" lon="1.80893">
        <ele>162.80000305176</ele>
        <time>2011-08-02T11:45:31.000Z</time>
      </trkpt>
      <trkpt lat="48.75761" lon="1.80891">
        <ele>162.60000610352</ele>
        <time>2011-08-02T11:45:33.000Z</time>
      </trkpt>
      <trkpt lat="48.7577" lon="1.80883">
        <ele>164</ele>
        <time>2011-08-02T11:45:39.000Z</time>
      </trkpt>
      <trkpt lat="48.75774" lon="1.80877">
        <ele>164.39999389648</ele>
        <time>2011-08-02T11:45:43.000Z</time>
      </trkpt>
      <trkpt lat="48.75776" lon="1.8087">
        <ele>164.60000610352</ele>
        <time>2011-08-02T11:45:47.000Z</time>
      </trkpt>
      <trkpt lat="48.75778" lon="1.80868">
        <ele>164.80000305176</ele>
        <time>2011-08-02T11:45:49.000Z</time>
      </trkpt>
      <trkpt lat="48.75777" lon="1.8085">
        <ele>164</ele>
        <time>2011-08-02T11:45:57.000Z</time>
      </trkpt>
      <trkpt lat="48.75777" lon="1.80845">
        <ele>163.80000305176</ele>
        <time>2011-08-02T11:45:59.000Z</time>
      </trkpt>
      <trkpt lat="48.75776" lon="1.80842">
        <ele>163.60000610352</ele>
        <time>2011-08-02T11:46:01.000Z</time>
      </trkpt>
      <trkpt lat="48.75777" lon="1.8083">
        <ele>163.39999389648</ele>
        <time>2011-08-02T11:46:06.000Z</time>
      </trkpt>
      <trkpt lat="48.75781" lon="1.80825">
        <ele>163.80000305176</ele>
        <time>2011-08-02T11:46:09.000Z</time>
      </trkpt>
      <trkpt lat="48.75788" lon="1.80814">
        <ele>164.60000610352</ele>
        <time>2011-08-02T11:46:16.000Z</time>
      </trkpt>
      <trkpt lat="48.75796" lon="1.80814">
        <ele>165.60000610352</ele>
        <time>2011-08-02T11:46:21.000Z</time>
      </trkpt>
      <trkpt lat="48.75797" lon="1.80813">
        <ele>165.60000610352</ele>
        <time>2011-08-02T11:46:22.000Z</time>
      </trkpt>
      <trkpt lat="48.75804" lon="1.80799">
        <ele>166.19999694824</ele>
        <time>2011-08-02T11:46:31.000Z</time>
      </trkpt>
      <trkpt lat="48.75807" lon="1.80794">
        <ele>166.39999389648</ele>
        <time>2011-08-02T11:46:34.000Z</time>
      </trkpt>
      <trkpt lat="48.75808" lon="1.80791">
        <ele>166.60000610352</ele>
        <time>2011-08-02T11:46:36.000Z</time>
      </trkpt>
      <trkpt lat="48.7581" lon="1.80784">
        <ele>166.60000610352</ele>
        <time>2011-08-02T11:46:40.000Z</time>
      </trkpt>
      <trkpt lat="48.75813" lon="1.80775">
        <ele>166.60000610352</ele>
        <time>2011-08-02T11:46:47.000Z</time>
      </trkpt>
      <trkpt lat="48.75815" lon="1.80771">
        <ele>166.80000305176</ele>
        <time>2011-08-02T11:46:49.000Z</time>
      </trkpt>
      <trkpt lat="48.75818" lon="1.80764">
        <ele>166.80000305176</ele>
        <time>2011-08-02T11:46:54.000Z</time>
      </trkpt>
      <trkpt lat="48.75821" lon="1.80754">
        <ele>166.80000305176</ele>
        <time>2011-08-02T11:47:00.000Z</time>
      </trkpt>
      <trkpt lat="48.75825" lon="1.80738">
        <ele>167</ele>
        <time>2011-08-02T11:47:09.000Z</time>
      </trkpt>
      <trkpt lat="48.75825" lon="1.80727">
        <ele>167</ele>
        <time>2011-08-02T11:47:15.000Z</time>
      </trkpt>
      <trkpt lat="48.75826" lon="1.80723">
        <ele>167</ele>
        <time>2011-08-02T11:47:17.000Z</time>
      </trkpt>
      <trkpt lat="48.7583" lon="1.80712">
        <ele>167.19999694824</ele>
        <time>2011-08-02T11:47:22.000Z</time>
      </trkpt>
      <trkpt lat="48.75831" lon="1.80701">
        <ele>167.19999694824</ele>
        <time>2011-08-02T11:47:27.000Z</time>
      </trkpt>
      <trkpt lat="48.75833" lon="1.80693">
        <ele>167.19999694824</ele>
        <time>2011-08-02T11:47:30.000Z</time>
      </trkpt>
      <trkpt lat="48.75841" lon="1.80681">
        <ele>168.60000610352</ele>
        <time>2011-08-02T11:47:37.000Z</time>
      </trkpt>
      <trkpt lat="48.75844" lon="1.80673">
        <ele>169</ele>
        <time>2011-08-02T11:47:42.000Z</time>
      </trkpt>
      <trkpt lat="48.75847" lon="1.80669">
        <ele>169.39999389648</ele>
        <time>2011-08-02T11:47:44.000Z</time>
      </trkpt>
      <trkpt lat="48.75848" lon="1.80664">
        <ele>169.60000610352</ele>
        <time>2011-08-02T11:47:46.000Z</time>
      </trkpt>
      <trkpt lat="48.7584" lon="1.80663">
        <ele>168.19999694824</ele>
        <time>2011-08-02T11:47:52.000Z</time>
      </trkpt>
      <trkpt lat="48.75831" lon="1.80657">
        <ele>166.60000610352</ele>
        <time>2011-08-02T11:47:58.000Z</time>
      </trkpt>
      <trkpt lat="48.75824" lon="1.80645">
        <ele>166</ele>
        <time>2011-08-02T11:48:06.000Z</time>
      </trkpt>
      <trkpt lat="48.75821" lon="1.80627">
        <ele>165.80000305176</ele>
        <time>2011-08-02T11:48:16.000Z</time>
      </trkpt>
      <trkpt lat="48.75821" lon="1.80622">
        <ele>165.80000305176</ele>
        <time>2011-08-02T11:48:19.000Z</time>
      </trkpt>
      <trkpt lat="48.75823" lon="1.80613">
        <ele>165.80000305176</ele>
        <time>2011-08-02T11:48:23.000Z</time>
      </trkpt>
      <trkpt lat="48.75826" lon="1.80601">
        <ele>165.80000305176</ele>
        <time>2011-08-02T11:48:29.000Z</time>
      </trkpt>
      <trkpt lat="48.75822" lon="1.80584">
        <ele>165.60000610352</ele>
        <time>2011-08-02T11:48:38.000Z</time>
      </trkpt>
      <trkpt lat="48.75821" lon="1.80579">
        <ele>165.39999389648</ele>
        <time>2011-08-02T11:48:43.000Z</time>
      </trkpt>
      <trkpt lat="48.75818" lon="1.80559">
        <ele>164.80000305176</ele>
        <time>2011-08-02T11:49:04.000Z</time>
      </trkpt>
      <trkpt lat="48.75816" lon="1.80555">
        <ele>164.60000610352</ele>
        <time>2011-08-02T11:49:08.000Z</time>
      </trkpt>
      <trkpt lat="48.75815" lon="1.8055">
        <ele>164.60000610352</ele>
        <time>2011-08-02T11:49:14.000Z</time>
      </trkpt>
      <trkpt lat="48.75812" lon="1.8054">
        <ele>164.19999694824</ele>
        <time>2011-08-02T11:49:19.000Z</time>
      </trkpt>
      <trkpt lat="48.7581" lon="1.80539">
        <ele>164.19999694824</ele>
        <time>2011-08-02T11:49:26.000Z</time>
      </trkpt>
      <trkpt lat="48.75817" lon="1.80549">
        <ele>164.60000610352</ele>
        <time>2011-08-02T11:52:25.000Z</time>
      </trkpt>
      <trkpt lat="48.75818" lon="1.80554">
        <ele>164.80000305176</ele>
        <time>2011-08-02T11:52:27.000Z</time>
      </trkpt>
      <trkpt lat="48.75817" lon="1.8057">
        <ele>165</ele>
        <time>2011-08-02T11:52:33.000Z</time>
      </trkpt>
      <trkpt lat="48.75816" lon="1.80572">
        <ele>165</ele>
        <time>2011-08-02T11:52:34.000Z</time>
      </trkpt>
      <trkpt lat="48.75807" lon="1.80576">
        <ele>164.80000305176</ele>
        <time>2011-08-02T11:52:41.000Z</time>
      </trkpt>
      <trkpt lat="48.75798" lon="1.80576">
        <ele>164.39999389648</ele>
        <time>2011-08-02T11:52:48.000Z</time>
      </trkpt>
      <trkpt lat="48.75788" lon="1.80573">
        <ele>164</ele>
        <time>2011-08-02T11:52:57.000Z</time>
      </trkpt>
      <trkpt lat="48.75778" lon="1.80571">
        <ele>163.60000610352</ele>
        <time>2011-08-02T11:53:04.000Z</time>
      </trkpt>
      <trkpt lat="48.75768" lon="1.80569">
        <ele>163.39999389648</ele>
        <time>2011-08-02T11:53:11.000Z</time>
      </trkpt>
      <trkpt lat="48.75757" lon="1.80564">
        <ele>163</ele>
        <time>2011-08-02T11:53:18.000Z</time>
      </trkpt>
      <trkpt lat="48.75753" lon="1.80557">
        <ele>162.60000610352</ele>
        <time>2011-08-02T11:53:23.000Z</time>
      </trkpt>
      <trkpt lat="48.7575" lon="1.8054">
        <ele>162.39999389648</ele>
        <time>2011-08-02T11:53:31.000Z</time>
      </trkpt>
      <trkpt lat="48.75749" lon="1.80534">
        <ele>162.60000610352</ele>
        <time>2011-08-02T11:53:34.000Z</time>
      </trkpt>
      <trkpt lat="48.75747" lon="1.80517">
        <ele>162.60000610352</ele>
        <time>2011-08-02T11:53:43.000Z</time>
      </trkpt>
      <trkpt lat="48.75746" lon="1.8051">
        <ele>162.80000305176</ele>
        <time>2011-08-02T11:53:48.000Z</time>
      </trkpt>
      <trkpt lat="48.75745" lon="1.80496">
        <ele>162.80000305176</ele>
        <time>2011-08-02T11:53:54.000Z</time>
      </trkpt>
      <trkpt lat="48.75745" lon="1.80485">
        <ele>163</ele>
        <time>2011-08-02T11:53:59.000Z</time>
      </trkpt>
      <trkpt lat="48.75745" lon="1.80475">
        <ele>163</ele>
        <time>2011-08-02T11:54:05.000Z</time>
      </trkpt>
      <trkpt lat="48.75745" lon="1.80473">
        <ele>163</ele>
        <time>2011-08-02T11:54:06.000Z</time>
      </trkpt>
      <trkpt lat="48.75745" lon="1.80458">
        <ele>163.39999389648</ele>
        <time>2011-08-02T11:54:13.000Z</time>
      </trkpt>
      <trkpt lat="48.75745" lon="1.80456">
        <ele>163.19999694824</ele>
        <time>2011-08-02T11:54:14.000Z</time>
      </trkpt>
      <trkpt lat="48.75743" lon="1.80436">
        <ele>163.80000305176</ele>
        <time>2011-08-02T11:54:24.000Z</time>
      </trkpt>
      <trkpt lat="48.75742" lon="1.80421">
        <ele>164.19999694824</ele>
        <time>2011-08-02T11:54:30.000Z</time>
      </trkpt>
      <trkpt lat="48.75742" lon="1.80404">
        <ele>164.39999389648</ele>
        <time>2011-08-02T11:54:37.000Z</time>
      </trkpt>
      <trkpt lat="48.75742" lon="1.80392">
        <ele>164.60000610352</ele>
        <time>2011-08-02T11:54:43.000Z</time>
      </trkpt>
      <trkpt lat="48.75742" lon="1.80388">
        <ele>164.60000610352</ele>
        <time>2011-08-02T11:54:45.000Z</time>
      </trkpt>
      <trkpt lat="48.75743" lon="1.80376">
        <ele>164.80000305176</ele>
        <time>2011-08-02T11:54:51.000Z</time>
      </trkpt>
      <trkpt lat="48.75741" lon="1.80367">
        <ele>165</ele>
        <time>2011-08-02T11:54:56.000Z</time>
      </trkpt>
      <trkpt lat="48.7574" lon="1.80357">
        <ele>165.39999389648</ele>
        <time>2011-08-02T11:55:00.000Z</time>
      </trkpt>
      <trkpt lat="48.75739" lon="1.80351">
        <ele>165.39999389648</ele>
        <time>2011-08-02T11:55:03.000Z</time>
      </trkpt>
      <trkpt lat="48.75732" lon="1.80335">
        <ele>166.19999694824</ele>
        <time>2011-08-02T11:55:10.000Z</time>
      </trkpt>
      <trkpt lat="48.7573" lon="1.8033">
        <ele>166.39999389648</ele>
        <time>2011-08-02T11:55:12.000Z</time>
      </trkpt>
      <trkpt lat="48.75726" lon="1.8031">
        <ele>166.39999389648</ele>
        <time>2011-08-02T11:55:21.000Z</time>
      </trkpt>
      <trkpt lat="48.75726" lon="1.80309">
        <ele>166.39999389648</ele>
        <time>2011-08-02T11:55:22.000Z</time>
      </trkpt>
      <trkpt lat="48.75725" lon="1.80307">
        <ele>166.39999389648</ele>
        <time>2011-08-02T11:55:25.000Z</time>
      </trkpt>
      <trkpt lat="48.75729" lon="1.80299">
        <ele>166.19999694824</ele>
        <time>2011-08-02T11:55:41.000Z</time>
      </trkpt>
      <trkpt lat="48.75737" lon="1.80291">
        <ele>165.80000305176</ele>
        <time>2011-08-02T11:55:44.000Z</time>
      </trkpt>
      <trkpt lat="48.75744" lon="1.8029">
        <ele>165.60000610352</ele>
        <time>2011-08-02T11:55:49.000Z</time>
      </trkpt>
      <trkpt lat="48.75749" lon="1.80293">
        <ele>165.39999389648</ele>
        <time>2011-08-02T11:55:53.000Z</time>
      </trkpt>
      <trkpt lat="48.75753" lon="1.80297">
        <ele>165.60000610352</ele>
        <time>2011-08-02T11:55:59.000Z</time>
      </trkpt>
      <trkpt lat="48.75754" lon="1.80297">
        <ele>165.60000610352</ele>
        <time>2011-08-02T11:56:00.000Z</time>
      </trkpt>
      <trkpt lat="48.75757" lon="1.803">
        <ele>166</ele>
        <time>2011-08-02T11:56:05.000Z</time>
      </trkpt>
      <trkpt lat="48.75757" lon="1.80302">
        <ele>166</ele>
        <time>2011-08-02T11:56:06.000Z</time>
      </trkpt>
      <trkpt lat="48.75762" lon="1.80311">
        <ele>166.19999694824</ele>
        <time>2011-08-02T11:56:12.000Z</time>
      </trkpt>
      <trkpt lat="48.75762" lon="1.80311">
        <ele>166.19999694824</ele>
        <time>2011-08-02T11:56:13.000Z</time>
      </trkpt>
      <trkpt lat="48.7577" lon="1.80322">
        <ele>166.80000305176</ele>
        <time>2011-08-02T11:56:34.000Z</time>
      </trkpt>
      <trkpt lat="48.75773" lon="1.80329">
        <ele>167</ele>
        <time>2011-08-02T11:56:37.000Z</time>
      </trkpt>
      <trkpt lat="48.75774" lon="1.80333">
        <ele>167</ele>
        <time>2011-08-02T11:56:40.000Z</time>
      </trkpt>
      <trkpt lat="48.75776" lon="1.80339">
        <ele>166.80000305176</ele>
        <time>2011-08-02T11:56:44.000Z</time>
      </trkpt>
      <trkpt lat="48.75779" lon="1.8035">
        <ele>166.60000610352</ele>
        <time>2011-08-02T11:56:50.000Z</time>
      </trkpt>
      <trkpt lat="48.75783" lon="1.80362">
        <ele>166.39999389648</ele>
        <time>2011-08-02T11:56:56.000Z</time>
      </trkpt>
      <trkpt lat="48.75787" lon="1.80376">
        <ele>166</ele>
        <time>2011-08-02T11:57:03.000Z</time>
      </trkpt>
      <trkpt lat="48.75788" lon="1.8038">
        <ele>166</ele>
        <time>2011-08-02T11:57:05.000Z</time>
      </trkpt>
      <trkpt lat="48.75794" lon="1.80394">
        <ele>165.60000610352</ele>
        <time>2011-08-02T11:57:12.000Z</time>
      </trkpt>
      <trkpt lat="48.75797" lon="1.80402">
        <ele>165.39999389648</ele>
        <time>2011-08-02T11:57:16.000Z</time>
      </trkpt>
      <trkpt lat="48.75802" lon="1.80413">
        <ele>165</ele>
        <time>2011-08-02T11:57:22.000Z</time>
      </trkpt>
      <trkpt lat="48.75815" lon="1.80421">
        <ele>165.19999694824</ele>
        <time>2011-08-02T11:57:30.000Z</time>
      </trkpt>
      <trkpt lat="48.75818" lon="1.80422">
        <ele>165.19999694824</ele>
        <time>2011-08-02T11:57:32.000Z</time>
      </trkpt>
      <trkpt lat="48.75826" lon="1.80419">
        <ele>165.60000610352</ele>
        <time>2011-08-02T11:57:38.000Z</time>
      </trkpt>
      <trkpt lat="48.75831" lon="1.80412">
        <ele>166.19999694824</ele>
        <time>2011-08-02T11:57:45.000Z</time>
      </trkpt>
      <trkpt lat="48.75836" lon="1.80399">
        <ele>167.39999389648</ele>
        <time>2011-08-02T11:57:53.000Z</time>
      </trkpt>
      <trkpt lat="48.75837" lon="1.80395">
        <ele>167.80000305176</ele>
        <time>2011-08-02T11:57:56.000Z</time>
      </trkpt>
      <trkpt lat="48.75838" lon="1.80384">
        <ele>168.60000610352</ele>
        <time>2011-08-02T11:58:02.000Z</time>
      </trkpt>
      <trkpt lat="48.75838" lon="1.8038">
        <ele>168.80000305176</ele>
        <time>2011-08-02T11:58:04.000Z</time>
      </trkpt>
      <trkpt lat="48.7584" lon="1.80367">
        <ele>169.80000305176</ele>
        <time>2011-08-02T11:58:11.000Z</time>
      </trkpt>
      <trkpt lat="48.75842" lon="1.80356">
        <ele>170.39999389648</ele>
        <time>2011-08-02T11:58:17.000Z</time>
      </trkpt>
      <trkpt lat="48.75841" lon="1.80347">
        <ele>171</ele>
        <time>2011-08-02T11:58:22.000Z</time>
      </trkpt>
      <trkpt lat="48.75843" lon="1.80337">
        <ele>171.60000610352</ele>
        <time>2011-08-02T11:58:27.000Z</time>
      </trkpt>
      <trkpt lat="48.75845" lon="1.80323">
        <ele>172.19999694824</ele>
        <time>2011-08-02T11:58:35.000Z</time>
      </trkpt>
      <trkpt lat="48.75848" lon="1.80313">
        <ele>172.60000610352</ele>
        <time>2011-08-02T11:58:41.000Z</time>
      </trkpt>
      <trkpt lat="48.7585" lon="1.80306">
        <ele>172.80000305176</ele>
        <time>2011-08-02T11:58:45.000Z</time>
      </trkpt>
      <trkpt lat="48.75852" lon="1.803">
        <ele>173</ele>
        <time>2011-08-02T11:58:49.000Z</time>
      </trkpt>
      <trkpt lat="48.75852" lon="1.8029">
        <ele>173.39999389648</ele>
        <time>2011-08-02T11:58:54.000Z</time>
      </trkpt>
      <trkpt lat="48.75855" lon="1.80275">
        <ele>173.80000305176</ele>
        <time>2011-08-02T11:59:03.000Z</time>
      </trkpt>
      <trkpt lat="48.75856" lon="1.80272">
        <ele>174</ele>
        <time>2011-08-02T11:59:05.000Z</time>
      </trkpt>
      <trkpt lat="48.75858" lon="1.80262">
        <ele>174.19999694824</ele>
        <time>2011-08-02T11:59:10.000Z</time>
      </trkpt>
      <trkpt lat="48.75862" lon="1.80248">
        <ele>174.60000610352</ele>
        <time>2011-08-02T11:59:18.000Z</time>
      </trkpt>
      <trkpt lat="48.75863" lon="1.80245">
        <ele>174.60000610352</ele>
        <time>2011-08-02T11:59:22.000Z</time>
      </trkpt>
      <trkpt lat="48.75864" lon="1.80234">
        <ele>174.60000610352</ele>
        <time>2011-08-02T11:59:34.000Z</time>
      </trkpt>
      <trkpt lat="48.75866" lon="1.80222">
        <ele>174.60000610352</ele>
        <time>2011-08-02T11:59:40.000Z</time>
      </trkpt>
      <trkpt lat="48.75866" lon="1.80209">
        <ele>174.80000305176</ele>
        <time>2011-08-02T11:59:47.000Z</time>
      </trkpt>
      <trkpt lat="48.75868" lon="1.80198">
        <ele>174.80000305176</ele>
        <time>2011-08-02T11:59:53.000Z</time>
      </trkpt>
      <trkpt lat="48.75868" lon="1.80191">
        <ele>175</ele>
        <time>2011-08-02T11:59:58.000Z</time>
      </trkpt>
      <trkpt lat="48.75868" lon="1.80187">
        <ele>175</ele>
        <time>2011-08-02T12:00:01.000Z</time>
      </trkpt>
      <trkpt lat="48.75868" lon="1.80183">
        <ele>175</ele>
        <time>2011-08-02T12:00:05.000Z</time>
      </trkpt>
      <trkpt lat="48.75872" lon="1.80165">
        <ele>175.39999389648</ele>
        <time>2011-08-02T12:00:19.000Z</time>
      </trkpt>
      <trkpt lat="48.75872" lon="1.80159">
        <ele>175.60000610352</ele>
        <time>2011-08-02T12:00:22.000Z</time>
      </trkpt>
      <trkpt lat="48.75873" lon="1.80145">
        <ele>176</ele>
        <time>2011-08-02T12:00:30.000Z</time>
      </trkpt>
      <trkpt lat="48.75876" lon="1.80135">
        <ele>176.39999389648</ele>
        <time>2011-08-02T12:00:36.000Z</time>
      </trkpt>
      <trkpt lat="48.75877" lon="1.8013">
        <ele>176.60000610352</ele>
        <time>2011-08-02T12:00:39.000Z</time>
      </trkpt>
      <trkpt lat="48.75878" lon="1.80118">
        <ele>176.80000305176</ele>
        <time>2011-08-02T12:00:45.000Z</time>
      </trkpt>
      <trkpt lat="48.75878" lon="1.80105">
        <ele>177.19999694824</ele>
        <time>2011-08-02T12:00:52.000Z</time>
      </trkpt>
      <trkpt lat="48.7588" lon="1.8009">
        <ele>177.80000305176</ele>
        <time>2011-08-02T12:00:59.000Z</time>
      </trkpt>
      <trkpt lat="48.7588" lon="1.8008">
        <ele>178</ele>
        <time>2011-08-02T12:01:04.000Z</time>
      </trkpt>
      <trkpt lat="48.75881" lon="1.80072">
        <ele>178.19999694824</ele>
        <time>2011-08-02T12:01:09.000Z</time>
      </trkpt>
      <trkpt lat="48.75882" lon="1.8006">
        <ele>178.60000610352</ele>
        <time>2011-08-02T12:01:15.000Z</time>
      </trkpt>
      <trkpt lat="48.75884" lon="1.80054">
        <ele>178.80000305176</ele>
        <time>2011-08-02T12:01:18.000Z</time>
      </trkpt>
      <trkpt lat="48.75887" lon="1.80039">
        <ele>179.19999694824</ele>
        <time>2011-08-02T12:01:25.000Z</time>
      </trkpt>
      <trkpt lat="48.75887" lon="1.80037">
        <ele>179.39999389648</ele>
        <time>2011-08-02T12:01:26.000Z</time>
      </trkpt>
      <trkpt lat="48.7589" lon="1.80026">
        <ele>179.80000305176</ele>
        <time>2011-08-02T12:01:32.000Z</time>
      </trkpt>
      <trkpt lat="48.75893" lon="1.8002">
        <ele>180</ele>
        <time>2011-08-02T12:01:35.000Z</time>
      </trkpt>
      <trkpt lat="48.75896" lon="1.80004">
        <ele>180.60000610352</ele>
        <time>2011-08-02T12:01:43.000Z</time>
      </trkpt>
      <trkpt lat="48.75896" lon="1.8">
        <ele>180.60000610352</ele>
        <time>2011-08-02T12:01:45.000Z</time>
      </trkpt>
      <trkpt lat="48.75893" lon="1.79994">
        <ele>180.80000305176</ele>
        <time>2011-08-02T12:01:51.000Z</time>
      </trkpt>
      <trkpt lat="48.75898" lon="1.79973">
        <ele>181.19999694824</ele>
        <time>2011-08-02T12:02:09.000Z</time>
      </trkpt>
      <trkpt lat="48.75898" lon="1.79965">
        <ele>181.39999389648</ele>
        <time>2011-08-02T12:02:11.000Z</time>
      </trkpt>
      <trkpt lat="48.759" lon="1.79937">
        <ele>182</ele>
        <time>2011-08-02T12:02:18.000Z</time>
      </trkpt>
      <trkpt lat="48.75906" lon="1.79908">
        <ele>182.60000610352</ele>
        <time>2011-08-02T12:02:24.000Z</time>
      </trkpt>
      <trkpt lat="48.75909" lon="1.79878">
        <ele>182.60000610352</ele>
        <time>2011-08-02T12:02:30.000Z</time>
      </trkpt>
      <trkpt lat="48.75912" lon="1.79854">
        <ele>182.80000305176</ele>
        <time>2011-08-02T12:02:35.000Z</time>
      </trkpt>
      <trkpt lat="48.75917" lon="1.79829">
        <ele>183</ele>
        <time>2011-08-02T12:02:40.000Z</time>
      </trkpt>
      <trkpt lat="48.75918" lon="1.79795">
        <ele>183.80000305176</ele>
        <time>2011-08-02T12:02:46.000Z</time>
      </trkpt>
      <trkpt lat="48.75919" lon="1.7978">
        <ele>184.19999694824</ele>
        <time>2011-08-02T12:02:49.000Z</time>
      </trkpt>
      <trkpt lat="48.75924" lon="1.79749">
        <ele>185</ele>
        <time>2011-08-02T12:02:55.000Z</time>
      </trkpt>
      <trkpt lat="48.75928" lon="1.79726">
        <ele>185.39999389648</ele>
        <time>2011-08-02T12:02:59.000Z</time>
      </trkpt>
      <trkpt lat="48.75932" lon="1.79696">
        <ele>186</ele>
        <time>2011-08-02T12:03:04.000Z</time>
      </trkpt>
      <trkpt lat="48.75936" lon="1.79678">
        <ele>186.39999389648</ele>
        <time>2011-08-02T12:03:07.000Z</time>
      </trkpt>
      <trkpt lat="48.7594" lon="1.79649">
        <ele>186.80000305176</ele>
        <time>2011-08-02T12:03:12.000Z</time>
      </trkpt>
      <trkpt lat="48.75942" lon="1.79623">
        <ele>186.80000305176</ele>
        <time>2011-08-02T12:03:17.000Z</time>
      </trkpt>
      <trkpt lat="48.75945" lon="1.79593">
        <ele>187</ele>
        <time>2011-08-02T12:03:22.000Z</time>
      </trkpt>
      <trkpt lat="48.75954" lon="1.79558">
        <ele>187.39999389648</ele>
        <time>2011-08-02T12:03:28.000Z</time>
      </trkpt>
      <trkpt lat="48.75956" lon="1.79543">
        <ele>187.60000610352</ele>
        <time>2011-08-02T12:03:31.000Z</time>
      </trkpt>
      <trkpt lat="48.75958" lon="1.79531">
        <ele>187.80000305176</ele>
        <time>2011-08-02T12:03:34.000Z</time>
      </trkpt>
      <trkpt lat="48.75955" lon="1.7951">
        <ele>187.80000305176</ele>
        <time>2011-08-02T12:03:38.000Z</time>
      </trkpt>
      <trkpt lat="48.75952" lon="1.79482">
        <ele>188</ele>
        <time>2011-08-02T12:03:43.000Z</time>
      </trkpt>
      <trkpt lat="48.75951" lon="1.79446">
        <ele>188.39999389648</ele>
        <time>2011-08-02T12:03:48.000Z</time>
      </trkpt>
      <trkpt lat="48.75949" lon="1.79423">
        <ele>188.60000610352</ele>
        <time>2011-08-02T12:03:51.000Z</time>
      </trkpt>
      <trkpt lat="48.75947" lon="1.7936">
        <ele>188.39999389648</ele>
        <time>2011-08-02T12:03:58.000Z</time>
      </trkpt>
      <trkpt lat="48.75943" lon="1.79314">
        <ele>188.60000610352</ele>
        <time>2011-08-02T12:04:03.000Z</time>
      </trkpt>
      <trkpt lat="48.75942" lon="1.79286">
        <ele>189</ele>
        <time>2011-08-02T12:04:06.000Z</time>
      </trkpt>
      <trkpt lat="48.75939" lon="1.79246">
        <ele>189.60000610352</ele>
        <time>2011-08-02T12:04:10.000Z</time>
      </trkpt>
      <trkpt lat="48.75936" lon="1.79217">
        <ele>190</ele>
        <time>2011-08-02T12:04:13.000Z</time>
      </trkpt>
      <trkpt lat="48.75935" lon="1.79171">
        <ele>191</ele>
        <time>2011-08-02T12:04:17.000Z</time>
      </trkpt>
      <trkpt lat="48.75934" lon="1.79131">
        <ele>191.19999694824</ele>
        <time>2011-08-02T12:04:21.000Z</time>
      </trkpt>
      <trkpt lat="48.7593" lon="1.79097">
        <ele>191.19999694824</ele>
        <time>2011-08-02T12:04:25.000Z</time>
      </trkpt>
      <trkpt lat="48.75929" lon="1.79053">
        <ele>191.19999694824</ele>
        <time>2011-08-02T12:04:30.000Z</time>
      </trkpt>
      <trkpt lat="48.75928" lon="1.7903">
        <ele>191.19999694824</ele>
        <time>2011-08-02T12:04:33.000Z</time>
      </trkpt>
      <trkpt lat="48.7593" lon="1.79001">
        <ele>191.39999389648</ele>
        <time>2011-08-02T12:04:37.000Z</time>
      </trkpt>
      <trkpt lat="48.75929" lon="1.78972">
        <ele>191.80000305176</ele>
        <time>2011-08-02T12:04:43.000Z</time>
      </trkpt>
      <trkpt lat="48.75929" lon="1.78964">
        <ele>192</ele>
        <time>2011-08-02T12:04:47.000Z</time>
      </trkpt>
      <trkpt lat="48.75926" lon="1.78962">
        <ele>192</ele>
        <time>2011-08-02T12:04:52.000Z</time>
      </trkpt>
      <trkpt lat="48.75924" lon="1.78952">
        <ele>192.19999694824</ele>
        <time>2011-08-02T12:04:57.000Z</time>
      </trkpt>
      <trkpt lat="48.75924" lon="1.78949">
        <ele>192.19999694824</ele>
        <time>2011-08-02T12:04:58.000Z</time>
      </trkpt>
      <trkpt lat="48.75922" lon="1.78932">
        <ele>192.60000610352</ele>
        <time>2011-08-02T12:05:05.000Z</time>
      </trkpt>
      <trkpt lat="48.75921" lon="1.7892">
        <ele>192.80000305176</ele>
        <time>2011-08-02T12:05:10.000Z</time>
      </trkpt>
      <trkpt lat="48.75921" lon="1.78916">
        <ele>193</ele>
        <time>2011-08-02T12:05:13.000Z</time>
      </trkpt>
      <trkpt lat="48.75922" lon="1.78903">
        <ele>193</ele>
        <time>2011-08-02T12:05:18.000Z</time>
      </trkpt>
      <trkpt lat="48.75923" lon="1.78895">
        <ele>193.19999694824</ele>
        <time>2011-08-02T12:05:21.000Z</time>
      </trkpt>
      <trkpt lat="48.7592" lon="1.78887">
        <ele>193.19999694824</ele>
        <time>2011-08-02T12:05:27.000Z</time>
      </trkpt>
      <trkpt lat="48.75919" lon="1.7888">
        <ele>193.39999389648</ele>
        <time>2011-08-02T12:05:29.000Z</time>
      </trkpt>
      <trkpt lat="48.75921" lon="1.78867">
        <ele>193.39999389648</ele>
        <time>2011-08-02T12:05:34.000Z</time>
      </trkpt>
      <trkpt lat="48.75922" lon="1.78843">
        <ele>193.80000305176</ele>
        <time>2011-08-02T12:05:40.000Z</time>
      </trkpt>
      <trkpt lat="48.75923" lon="1.78815">
        <ele>193.80000305176</ele>
        <time>2011-08-02T12:05:46.000Z</time>
      </trkpt>
      <trkpt lat="48.75922" lon="1.78789">
        <ele>193.80000305176</ele>
        <time>2011-08-02T12:05:51.000Z</time>
      </trkpt>
      <trkpt lat="48.75922" lon="1.78761">
        <ele>193.80000305176</ele>
        <time>2011-08-02T12:05:56.000Z</time>
      </trkpt>
      <trkpt lat="48.75921" lon="1.78739">
        <ele>193.60000610352</ele>
        <time>2011-08-02T12:06:00.000Z</time>
      </trkpt>
      <trkpt lat="48.7592" lon="1.78713">
        <ele>192.60000610352</ele>
        <time>2011-08-02T12:06:05.000Z</time>
      </trkpt>
      <trkpt lat="48.75918" lon="1.78684">
        <ele>191.60000610352</ele>
        <time>2011-08-02T12:06:10.000Z</time>
      </trkpt>
      <trkpt lat="48.75917" lon="1.78667">
        <ele>191</ele>
        <time>2011-08-02T12:06:13.000Z</time>
      </trkpt>
      <trkpt lat="48.75917" lon="1.78662">
        <ele>191</ele>
        <time>2011-08-02T12:06:15.000Z</time>
      </trkpt>
      <trkpt lat="48.75915" lon="1.7865">
        <ele>191.39999389648</ele>
        <time>2011-08-02T12:06:21.000Z</time>
      </trkpt>
      <trkpt lat="48.75915" lon="1.78633">
        <ele>191.80000305176</ele>
        <time>2011-08-02T12:06:26.000Z</time>
      </trkpt>
      <trkpt lat="48.75914" lon="1.78625">
        <ele>192</ele>
        <time>2011-08-02T12:06:28.000Z</time>
      </trkpt>
      <trkpt lat="48.75911" lon="1.786">
        <ele>192.39999389648</ele>
        <time>2011-08-02T12:06:33.000Z</time>
      </trkpt>
      <trkpt lat="48.75913" lon="1.78576">
        <ele>193</ele>
        <time>2011-08-02T12:06:38.000Z</time>
      </trkpt>
      <trkpt lat="48.75911" lon="1.78558">
        <ele>193.39999389648</ele>
        <time>2011-08-02T12:06:42.000Z</time>
      </trkpt>
      <trkpt lat="48.7591" lon="1.78543">
        <ele>193.80000305176</ele>
        <time>2011-08-02T12:06:45.000Z</time>
      </trkpt>
      <trkpt lat="48.75905" lon="1.78513">
        <ele>194.39999389648</ele>
        <time>2011-08-02T12:06:51.000Z</time>
      </trkpt>
      <trkpt lat="48.75906" lon="1.78508">
        <ele>194.60000610352</ele>
        <time>2011-08-02T12:06:52.000Z</time>
      </trkpt>
      <trkpt lat="48.75906" lon="1.78474">
        <ele>194.80000305176</ele>
        <time>2011-08-02T12:06:59.000Z</time>
      </trkpt>
      <trkpt lat="48.75904" lon="1.78452">
        <ele>194.80000305176</ele>
        <time>2011-08-02T12:07:03.000Z</time>
      </trkpt>
      <trkpt lat="48.75903" lon="1.78431">
        <ele>194.80000305176</ele>
        <time>2011-08-02T12:07:07.000Z</time>
      </trkpt>
      <trkpt lat="48.75902" lon="1.78402">
        <ele>195</ele>
        <time>2011-08-02T12:07:12.000Z</time>
      </trkpt>
      <trkpt lat="48.75902" lon="1.78382">
        <ele>195</ele>
        <time>2011-08-02T12:07:16.000Z</time>
      </trkpt>
      <trkpt lat="48.75901" lon="1.78378">
        <ele>195</ele>
        <time>2011-08-02T12:07:17.000Z</time>
      </trkpt>
      <trkpt lat="48.75897" lon="1.78356">
        <ele>195</ele>
        <time>2011-08-02T12:07:21.000Z</time>
      </trkpt>
      <trkpt lat="48.75899" lon="1.78327">
        <ele>195</ele>
        <time>2011-08-02T12:07:27.000Z</time>
      </trkpt>
      <trkpt lat="48.75896" lon="1.78307">
        <ele>195</ele>
        <time>2011-08-02T12:07:31.000Z</time>
      </trkpt>
      <trkpt lat="48.75894" lon="1.78284">
        <ele>195.19999694824</ele>
        <time>2011-08-02T12:07:35.000Z</time>
      </trkpt>
      <trkpt lat="48.75893" lon="1.78261">
        <ele>195.19999694824</ele>
        <time>2011-08-02T12:07:39.000Z</time>
      </trkpt>
      <trkpt lat="48.75892" lon="1.78255">
        <ele>195.19999694824</ele>
        <time>2011-08-02T12:07:40.000Z</time>
      </trkpt>
      <trkpt lat="48.75892" lon="1.78229">
        <ele>195.39999389648</ele>
        <time>2011-08-02T12:07:45.000Z</time>
      </trkpt>
      <trkpt lat="48.75893" lon="1.78222">
        <ele>195.39999389648</ele>
        <time>2011-08-02T12:07:47.000Z</time>
      </trkpt>
      <trkpt lat="48.75891" lon="1.78193">
        <ele>195.39999389648</ele>
        <time>2011-08-02T12:07:53.000Z</time>
      </trkpt>
      <trkpt lat="48.75887" lon="1.78165">
        <ele>195.60000610352</ele>
        <time>2011-08-02T12:07:58.000Z</time>
      </trkpt>
      <trkpt lat="48.75885" lon="1.78131">
        <ele>195.19999694824</ele>
        <time>2011-08-02T12:08:04.000Z</time>
      </trkpt>
      <trkpt lat="48.75882" lon="1.7811">
        <ele>195</ele>
        <time>2011-08-02T12:08:08.000Z</time>
      </trkpt>
      <trkpt lat="48.75882" lon="1.78085">
        <ele>194.80000305176</ele>
        <time>2011-08-02T12:08:12.000Z</time>
      </trkpt>
      <trkpt lat="48.75881" lon="1.78061">
        <ele>195</ele>
        <time>2011-08-02T12:08:16.000Z</time>
      </trkpt>
      <trkpt lat="48.75882" lon="1.7802">
        <ele>195.39999389648</ele>
        <time>2011-08-02T12:08:22.000Z</time>
      </trkpt>
      <trkpt lat="48.75882" lon="1.77981">
        <ele>195.19999694824</ele>
        <time>2011-08-02T12:08:27.000Z</time>
      </trkpt>
      <trkpt lat="48.75876" lon="1.7794">
        <ele>194.60000610352</ele>
        <time>2011-08-02T12:08:31.000Z</time>
      </trkpt>
      <trkpt lat="48.75878" lon="1.77922">
        <ele>194.39999389648</ele>
        <time>2011-08-02T12:08:33.000Z</time>
      </trkpt>
      <trkpt lat="48.75879" lon="1.77896">
        <ele>194.39999389648</ele>
        <time>2011-08-02T12:08:36.000Z</time>
      </trkpt>
      <trkpt lat="48.75878" lon="1.77864">
        <ele>194.60000610352</ele>
        <time>2011-08-02T12:08:40.000Z</time>
      </trkpt>
      <trkpt lat="48.75873" lon="1.77822">
        <ele>194.80000305176</ele>
        <time>2011-08-02T12:08:47.000Z</time>
      </trkpt>
      <trkpt lat="48.75872" lon="1.77807">
        <ele>194.80000305176</ele>
        <time>2011-08-02T12:08:52.000Z</time>
      </trkpt>
      <trkpt lat="48.75872" lon="1.77804">
        <ele>194.80000305176</ele>
        <time>2011-08-02T12:08:54.000Z</time>
      </trkpt>
      <trkpt lat="48.75871" lon="1.77792">
        <ele>194.60000610352</ele>
        <time>2011-08-02T12:09:00.000Z</time>
      </trkpt>
      <trkpt lat="48.75871" lon="1.77784">
        <ele>194.60000610352</ele>
        <time>2011-08-02T12:09:04.000Z</time>
      </trkpt>
      <trkpt lat="48.75872" lon="1.77772">
        <ele>194.60000610352</ele>
        <time>2011-08-02T12:09:11.000Z</time>
      </trkpt>
      <trkpt lat="48.75871" lon="1.77764">
        <ele>194.39999389648</ele>
        <time>2011-08-02T12:09:15.000Z</time>
      </trkpt>
      <trkpt lat="48.75871" lon="1.77753">
        <ele>194.39999389648</ele>
        <time>2011-08-02T12:09:22.000Z</time>
      </trkpt>
      <trkpt lat="48.7587" lon="1.77752">
        <ele>194.39999389648</ele>
        <time>2011-08-02T12:09:24.000Z</time>
      </trkpt>
      <trkpt lat="48.75869" lon="1.77746">
        <ele>194.19999694824</ele>
        <time>2011-08-02T12:09:28.000Z</time>
      </trkpt>
      <trkpt lat="48.75869" lon="1.7774">
        <ele>194</ele>
        <time>2011-08-02T12:09:31.000Z</time>
      </trkpt>
      <trkpt lat="48.75867" lon="1.77732">
        <ele>193.80000305176</ele>
        <time>2011-08-02T12:09:37.000Z</time>
      </trkpt>
      <trkpt lat="48.75869" lon="1.77729">
        <ele>193.80000305176</ele>
        <time>2011-08-02T12:09:39.000Z</time>
      </trkpt>
      <trkpt lat="48.75868" lon="1.77714">
        <ele>193.39999389648</ele>
        <time>2011-08-02T12:09:47.000Z</time>
      </trkpt>
      <trkpt lat="48.75867" lon="1.77702">
        <ele>193.19999694824</ele>
        <time>2011-08-02T12:09:54.000Z</time>
      </trkpt>
      <trkpt lat="48.75866" lon="1.77696">
        <ele>193</ele>
        <time>2011-08-02T12:09:57.000Z</time>
      </trkpt>
      <trkpt lat="48.75866" lon="1.7768">
        <ele>192.60000610352</ele>
        <time>2011-08-02T12:10:05.000Z</time>
      </trkpt>
      <trkpt lat="48.75866" lon="1.77678">
        <ele>192.60000610352</ele>
        <time>2011-08-02T12:10:06.000Z</time>
      </trkpt>
      <trkpt lat="48.75866" lon="1.77669">
        <ele>192.39999389648</ele>
        <time>2011-08-02T12:10:14.000Z</time>
      </trkpt>
      <trkpt lat="48.75865" lon="1.77665">
        <ele>192.19999694824</ele>
        <time>2011-08-02T12:10:19.000Z</time>
      </trkpt>
      <trkpt lat="48.75867" lon="1.77665">
        <ele>192.39999389648</ele>
        <time>2011-08-02T12:10:24.000Z</time>
      </trkpt>
      <trkpt lat="48.75874" lon="1.77659">
        <ele>192.39999389648</ele>
        <time>2011-08-02T12:10:29.000Z</time>
      </trkpt>
      <trkpt lat="48.75879" lon="1.77653">
        <ele>192.60000610352</ele>
        <time>2011-08-02T12:10:34.000Z</time>
      </trkpt>
      <trkpt lat="48.75885" lon="1.7764">
        <ele>192.80000305176</ele>
        <time>2011-08-02T12:10:42.000Z</time>
      </trkpt>
      <trkpt lat="48.75889" lon="1.77634">
        <ele>192.80000305176</ele>
        <time>2011-08-02T12:10:46.000Z</time>
      </trkpt>
      <trkpt lat="48.75895" lon="1.77628">
        <ele>193</ele>
        <time>2011-08-02T12:10:52.000Z</time>
      </trkpt>
      <trkpt lat="48.75897" lon="1.77624">
        <ele>193</ele>
        <time>2011-08-02T12:10:56.000Z</time>
      </trkpt>
      <trkpt lat="48.75896" lon="1.7763">
        <ele>193</ele>
        <time>2011-08-02T12:11:01.000Z</time>
      </trkpt>
      <trkpt lat="48.75891" lon="1.77638">
        <ele>192.80000305176</ele>
        <time>2011-08-02T12:11:06.000Z</time>
      </trkpt>
      <trkpt lat="48.75891" lon="1.77639">
        <ele>192.80000305176</ele>
        <time>2011-08-02T12:11:09.000Z</time>
      </trkpt>
      <trkpt lat="48.75878" lon="1.77642">
        <ele>192.60000610352</ele>
        <time>2011-08-02T12:11:30.000Z</time>
      </trkpt>
      <trkpt lat="48.75871" lon="1.7764">
        <ele>192.39999389648</ele>
        <time>2011-08-02T12:11:34.000Z</time>
      </trkpt>
      <trkpt lat="48.75863" lon="1.7764">
        <ele>192.39999389648</ele>
        <time>2011-08-02T12:11:40.000Z</time>
      </trkpt>
      <trkpt lat="48.75859" lon="1.77643">
        <ele>192.19999694824</ele>
        <time>2011-08-02T12:11:44.000Z</time>
      </trkpt>
      <trkpt lat="48.75856" lon="1.77634">
        <ele>192.19999694824</ele>
        <time>2011-08-02T12:11:50.000Z</time>
      </trkpt>
      <trkpt lat="48.75854" lon="1.77626">
        <ele>192.19999694824</ele>
        <time>2011-08-02T12:11:54.000Z</time>
      </trkpt>
      <trkpt lat="48.75855" lon="1.77611">
        <ele>192.39999389648</ele>
        <time>2011-08-02T12:12:01.000Z</time>
      </trkpt>
      <trkpt lat="48.75854" lon="1.77594">
        <ele>192.39999389648</ele>
        <time>2011-08-02T12:12:10.000Z</time>
      </trkpt>
      <trkpt lat="48.75853" lon="1.77587">
        <ele>192.39999389648</ele>
        <time>2011-08-02T12:12:13.000Z</time>
      </trkpt>
      <trkpt lat="48.75853" lon="1.77583">
        <ele>192.39999389648</ele>
        <time>2011-08-02T12:12:15.000Z</time>
      </trkpt>
      <trkpt lat="48.75857" lon="1.77564">
        <ele>192</ele>
        <time>2011-08-02T12:12:25.000Z</time>
      </trkpt>
      <trkpt lat="48.75858" lon="1.77557">
        <ele>191.80000305176</ele>
        <time>2011-08-02T12:12:32.000Z</time>
      </trkpt>
      <trkpt lat="48.75855" lon="1.77556">
        <ele>191.80000305176</ele>
        <time>2011-08-02T12:12:42.000Z</time>
      </trkpt>
      <trkpt lat="48.75854" lon="1.77545">
        <ele>191.60000610352</ele>
        <time>2011-08-02T12:12:59.000Z</time>
      </trkpt>
      <trkpt lat="48.75862" lon="1.77537">
        <ele>191.39999389648</ele>
        <time>2011-08-02T12:13:04.000Z</time>
      </trkpt>
      <trkpt lat="48.75865" lon="1.77526">
        <ele>191.19999694824</ele>
        <time>2011-08-02T12:13:10.000Z</time>
      </trkpt>
      <trkpt lat="48.75867" lon="1.77524">
        <ele>191.19999694824</ele>
        <time>2011-08-02T12:13:12.000Z</time>
      </trkpt>
      <trkpt lat="48.75876" lon="1.77508">
        <ele>190.60000610352</ele>
        <time>2011-08-02T12:13:21.000Z</time>
      </trkpt>
      <trkpt lat="48.75881" lon="1.77496">
        <ele>190.39999389648</ele>
        <time>2011-08-02T12:13:28.000Z</time>
      </trkpt>
      <trkpt lat="48.75883" lon="1.77492">
        <ele>190.19999694824</ele>
        <time>2011-08-02T12:13:32.000Z</time>
      </trkpt>
      <trkpt lat="48.75884" lon="1.77492">
        <ele>190.19999694824</ele>
        <time>2011-08-02T12:13:33.000Z</time>
      </trkpt>
      <trkpt lat="48.75891" lon="1.77482">
        <ele>190.19999694824</ele>
        <time>2011-08-02T12:13:40.000Z</time>
      </trkpt>
      <trkpt lat="48.75893" lon="1.7748">
        <ele>190.19999694824</ele>
        <time>2011-08-02T12:13:42.000Z</time>
      </trkpt>
      <trkpt lat="48.75895" lon="1.77477">
        <ele>190</ele>
        <time>2011-08-02T12:13:44.000Z</time>
      </trkpt>
      <trkpt lat="48.75899" lon="1.77469">
        <ele>190</ele>
        <time>2011-08-02T12:13:49.000Z</time>
      </trkpt>
      <trkpt lat="48.75901" lon="1.77464">
        <ele>190</ele>
        <time>2011-08-02T12:13:53.000Z</time>
      </trkpt>
      <trkpt lat="48.759" lon="1.77449">
        <ele>190</ele>
        <time>2011-08-02T12:14:00.000Z</time>
      </trkpt>
      <trkpt lat="48.75903" lon="1.77439">
        <ele>190</ele>
        <time>2011-08-02T12:14:06.000Z</time>
      </trkpt>
      <trkpt lat="48.7591" lon="1.77428">
        <ele>190</ele>
        <time>2011-08-02T12:14:14.000Z</time>
      </trkpt>
      <trkpt lat="48.75915" lon="1.77419">
        <ele>190</ele>
        <time>2011-08-02T12:14:20.000Z</time>
      </trkpt>
      <trkpt lat="48.75915" lon="1.77418">
        <ele>190</ele>
        <time>2011-08-02T12:14:23.000Z</time>
      </trkpt>
      <trkpt lat="48.75926" lon="1.77392">
        <ele>190.39999389648</ele>
        <time>2011-08-02T12:14:54.000Z</time>
      </trkpt>
      <trkpt lat="48.75928" lon="1.77382">
        <ele>190.80000305176</ele>
        <time>2011-08-02T12:14:59.000Z</time>
      </trkpt>
      <trkpt lat="48.7593" lon="1.77376">
        <ele>190.80000305176</ele>
        <time>2011-08-02T12:15:03.000Z</time>
      </trkpt>
      <trkpt lat="48.75937" lon="1.77363">
        <ele>191</ele>
        <time>2011-08-02T12:15:11.000Z</time>
      </trkpt>
      <trkpt lat="48.7594" lon="1.77358">
        <ele>191</ele>
        <time>2011-08-02T12:15:14.000Z</time>
      </trkpt>
      <trkpt lat="48.75945" lon="1.77349">
        <ele>191</ele>
        <time>2011-08-02T12:15:20.000Z</time>
      </trkpt>
      <trkpt lat="48.75944" lon="1.77341">
        <ele>191.39999389648</ele>
        <time>2011-08-02T12:15:24.000Z</time>
      </trkpt>
      <trkpt lat="48.75945" lon="1.77332">
        <ele>191.60000610352</ele>
        <time>2011-08-02T12:15:30.000Z</time>
      </trkpt>
      <trkpt lat="48.75952" lon="1.77322">
        <ele>191.39999389648</ele>
        <time>2011-08-02T12:15:38.000Z</time>
      </trkpt>
      <trkpt lat="48.75952" lon="1.77319">
        <ele>191.60000610352</ele>
        <time>2011-08-02T12:15:40.000Z</time>
      </trkpt>
      <trkpt lat="48.75956" lon="1.77312">
        <ele>191.60000610352</ele>
        <time>2011-08-02T12:15:44.000Z</time>
      </trkpt>
      <trkpt lat="48.75962" lon="1.77299">
        <ele>191.60000610352</ele>
        <time>2011-08-02T12:15:51.000Z</time>
      </trkpt>
      <trkpt lat="48.75966" lon="1.77293">
        <ele>191.60000610352</ele>
        <time>2011-08-02T12:15:55.000Z</time>
      </trkpt>
      <trkpt lat="48.7597" lon="1.77283">
        <ele>191.60000610352</ele>
        <time>2011-08-02T12:16:00.000Z</time>
      </trkpt>
      <trkpt lat="48.75972" lon="1.77272">
        <ele>191.80000305176</ele>
        <time>2011-08-02T12:16:07.000Z</time>
      </trkpt>
      <trkpt lat="48.75972" lon="1.77271">
        <ele>191.80000305176</ele>
        <time>2011-08-02T12:16:08.000Z</time>
      </trkpt>
      <trkpt lat="48.75977" lon="1.77264">
        <ele>191.60000610352</ele>
        <time>2011-08-02T12:16:12.000Z</time>
      </trkpt>
      <trkpt lat="48.75979" lon="1.77259">
        <ele>191.60000610352</ele>
        <time>2011-08-02T12:16:15.000Z</time>
      </trkpt>
      <trkpt lat="48.75983" lon="1.77247">
        <ele>191.80000305176</ele>
        <time>2011-08-02T12:16:21.000Z</time>
      </trkpt>
      <trkpt lat="48.75985" lon="1.77243">
        <ele>192</ele>
        <time>2011-08-02T12:16:24.000Z</time>
      </trkpt>
      <trkpt lat="48.7599" lon="1.7723">
        <ele>192.19999694824</ele>
        <time>2011-08-02T12:16:31.000Z</time>
      </trkpt>
      <trkpt lat="48.75997" lon="1.7722">
        <ele>192.39999389648</ele>
        <time>2011-08-02T12:16:37.000Z</time>
      </trkpt>
      <trkpt lat="48.76003" lon="1.7721">
        <ele>192.60000610352</ele>
        <time>2011-08-02T12:16:43.000Z</time>
      </trkpt>
      <trkpt lat="48.76006" lon="1.77204">
        <ele>192.80000305176</ele>
        <time>2011-08-02T12:16:48.000Z</time>
      </trkpt>
      <trkpt lat="48.76011" lon="1.77197">
        <ele>192.80000305176</ele>
        <time>2011-08-02T12:16:53.000Z</time>
      </trkpt>
      <trkpt lat="48.76015" lon="1.77191">
        <ele>192.80000305176</ele>
        <time>2011-08-02T12:16:58.000Z</time>
      </trkpt>
      <trkpt lat="48.76019" lon="1.77183">
        <ele>193</ele>
        <time>2011-08-02T12:17:04.000Z</time>
      </trkpt>
      <trkpt lat="48.7602" lon="1.7718">
        <ele>193</ele>
        <time>2011-08-02T12:17:06.000Z</time>
      </trkpt>
      <trkpt lat="48.76024" lon="1.77169">
        <ele>193</ele>
        <time>2011-08-02T12:17:12.000Z</time>
      </trkpt>
      <trkpt lat="48.76027" lon="1.77165">
        <ele>193</ele>
        <time>2011-08-02T12:17:15.000Z</time>
      </trkpt>
      <trkpt lat="48.76027" lon="1.77162">
        <ele>193</ele>
        <time>2011-08-02T12:17:17.000Z</time>
      </trkpt>
      <trkpt lat="48.76033" lon="1.77151">
        <ele>192.80000305176</ele>
        <time>2011-08-02T12:17:23.000Z</time>
      </trkpt>
      <trkpt lat="48.76039" lon="1.77141">
        <ele>192.60000610352</ele>
        <time>2011-08-02T12:17:30.000Z</time>
      </trkpt>
      <trkpt lat="48.76039" lon="1.7714">
        <ele>192.60000610352</ele>
        <time>2011-08-02T12:17:31.000Z</time>
      </trkpt>
      <trkpt lat="48.76042" lon="1.77132">
        <ele>192.39999389648</ele>
        <time>2011-08-02T12:17:37.000Z</time>
      </trkpt>
      <trkpt lat="48.76043" lon="1.7713">
        <ele>192.39999389648</ele>
        <time>2011-08-02T12:17:38.000Z</time>
      </trkpt>
      <trkpt lat="48.76049" lon="1.77119">
        <ele>192.19999694824</ele>
        <time>2011-08-02T12:17:45.000Z</time>
      </trkpt>
      <trkpt lat="48.76054" lon="1.77112">
        <ele>192.19999694824</ele>
        <time>2011-08-02T12:17:50.000Z</time>
      </trkpt>
      <trkpt lat="48.76054" lon="1.7711">
        <ele>192.19999694824</ele>
        <time>2011-08-02T12:17:51.000Z</time>
      </trkpt>
      <trkpt lat="48.76061" lon="1.77096">
        <ele>192</ele>
        <time>2011-08-02T12:18:00.000Z</time>
      </trkpt>
      <trkpt lat="48.76066" lon="1.77086">
        <ele>191.80000305176</ele>
        <time>2011-08-02T12:18:06.000Z</time>
      </trkpt>
      <trkpt lat="48.76073" lon="1.77075">
        <ele>191.60000610352</ele>
        <time>2011-08-02T12:18:13.000Z</time>
      </trkpt>
      <trkpt lat="48.76078" lon="1.77067">
        <ele>191.39999389648</ele>
        <time>2011-08-02T12:18:18.000Z</time>
      </trkpt>
      <trkpt lat="48.76082" lon="1.77061">
        <ele>191.19999694824</ele>
        <time>2011-08-02T12:18:22.000Z</time>
      </trkpt>
      <trkpt lat="48.76088" lon="1.7705">
        <ele>191.19999694824</ele>
        <time>2011-08-02T12:18:29.000Z</time>
      </trkpt>
      <trkpt lat="48.76095" lon="1.77039">
        <ele>191.19999694824</ele>
        <time>2011-08-02T12:18:37.000Z</time>
      </trkpt>
      <trkpt lat="48.761" lon="1.77031">
        <ele>191.19999694824</ele>
        <time>2011-08-02T12:18:42.000Z</time>
      </trkpt>
      <trkpt lat="48.76108" lon="1.77015">
        <ele>191.19999694824</ele>
        <time>2011-08-02T12:18:52.000Z</time>
      </trkpt>
      <trkpt lat="48.76114" lon="1.77007">
        <ele>191.19999694824</ele>
        <time>2011-08-02T12:18:57.000Z</time>
      </trkpt>
      <trkpt lat="48.76123" lon="1.76997">
        <ele>191</ele>
        <time>2011-08-02T12:19:03.000Z</time>
      </trkpt>
      <trkpt lat="48.7613" lon="1.76985">
        <ele>191.19999694824</ele>
        <time>2011-08-02T12:19:10.000Z</time>
      </trkpt>
      <trkpt lat="48.76136" lon="1.76977">
        <ele>191.19999694824</ele>
        <time>2011-08-02T12:19:16.000Z</time>
      </trkpt>
      <trkpt lat="48.76137" lon="1.76969">
        <ele>191.39999389648</ele>
        <time>2011-08-02T12:19:20.000Z</time>
      </trkpt>
      <trkpt lat="48.76141" lon="1.76959">
        <ele>191.60000610352</ele>
        <time>2011-08-02T12:19:26.000Z</time>
      </trkpt>
      <trkpt lat="48.76145" lon="1.76952">
        <ele>191.60000610352</ele>
        <time>2011-08-02T12:19:31.000Z</time>
      </trkpt>
      <trkpt lat="48.76148" lon="1.7694">
        <ele>191.80000305176</ele>
        <time>2011-08-02T12:19:38.000Z</time>
      </trkpt>
      <trkpt lat="48.76155" lon="1.76929">
        <ele>191.80000305176</ele>
        <time>2011-08-02T12:19:45.000Z</time>
      </trkpt>
      <trkpt lat="48.76159" lon="1.76921">
        <ele>192</ele>
        <time>2011-08-02T12:19:50.000Z</time>
      </trkpt>
      <trkpt lat="48.76164" lon="1.76913">
        <ele>192</ele>
        <time>2011-08-02T12:19:55.000Z</time>
      </trkpt>
      <trkpt lat="48.7617" lon="1.76904">
        <ele>192</ele>
        <time>2011-08-02T12:20:01.000Z</time>
      </trkpt>
      <trkpt lat="48.76174" lon="1.76899">
        <ele>192</ele>
        <time>2011-08-02T12:20:06.000Z</time>
      </trkpt>
      <trkpt lat="48.76176" lon="1.76896">
        <ele>192</ele>
        <time>2011-08-02T12:20:10.000Z</time>
      </trkpt>
      <trkpt lat="48.76177" lon="1.76892">
        <ele>192</ele>
        <time>2011-08-02T12:20:17.000Z</time>
      </trkpt>
      <trkpt lat="48.76177" lon="1.76892">
        <ele>192</ele>
        <time>2011-08-02T12:20:18.000Z</time>
      </trkpt>
      <trkpt lat="48.7618" lon="1.76885">
        <ele>192</ele>
        <time>2011-08-02T12:20:24.000Z</time>
      </trkpt>
      <trkpt lat="48.76184" lon="1.76878">
        <ele>192.19999694824</ele>
        <time>2011-08-02T12:20:28.000Z</time>
      </trkpt>
      <trkpt lat="48.76187" lon="1.76866">
        <ele>192.19999694824</ele>
        <time>2011-08-02T12:20:34.000Z</time>
      </trkpt>
      <trkpt lat="48.76191" lon="1.76857">
        <ele>192.39999389648</ele>
        <time>2011-08-02T12:20:40.000Z</time>
      </trkpt>
      <trkpt lat="48.76197" lon="1.76849">
        <ele>192.39999389648</ele>
        <time>2011-08-02T12:20:47.000Z</time>
      </trkpt>
      <trkpt lat="48.76198" lon="1.76846">
        <ele>192.39999389648</ele>
        <time>2011-08-02T12:20:49.000Z</time>
      </trkpt>
      <trkpt lat="48.76201" lon="1.76833">
        <ele>192.60000610352</ele>
        <time>2011-08-02T12:20:57.000Z</time>
      </trkpt>
      <trkpt lat="48.76203" lon="1.76827">
        <ele>192.80000305176</ele>
        <time>2011-08-02T12:21:01.000Z</time>
      </trkpt>
      <trkpt lat="48.76206" lon="1.76815">
        <ele>193</ele>
        <time>2011-08-02T12:21:08.000Z</time>
      </trkpt>
      <trkpt lat="48.76205" lon="1.76813">
        <ele>193.19999694824</ele>
        <time>2011-08-02T12:21:14.000Z</time>
      </trkpt>
      <trkpt lat="48.76205" lon="1.7681">
        <ele>193.19999694824</ele>
        <time>2011-08-02T12:21:17.000Z</time>
      </trkpt>
      <trkpt lat="48.76211" lon="1.76801">
        <ele>193.39999389648</ele>
        <time>2011-08-02T12:21:24.000Z</time>
      </trkpt>
      <trkpt lat="48.76213" lon="1.76796">
        <ele>193.39999389648</ele>
        <time>2011-08-02T12:21:30.000Z</time>
      </trkpt>
      <trkpt lat="48.76225" lon="1.76775">
        <ele>194</ele>
        <time>2011-08-02T12:22:44.000Z</time>
      </trkpt>
      <trkpt lat="48.76229" lon="1.76763">
        <ele>194.39999389648</ele>
        <time>2011-08-02T12:22:50.000Z</time>
      </trkpt>
      <trkpt lat="48.76234" lon="1.76757">
        <ele>194.60000610352</ele>
        <time>2011-08-02T12:22:54.000Z</time>
      </trkpt>
      <trkpt lat="48.76239" lon="1.76746">
        <ele>194.80000305176</ele>
        <time>2011-08-02T12:23:00.000Z</time>
      </trkpt>
      <trkpt lat="48.76242" lon="1.76739">
        <ele>194.80000305176</ele>
        <time>2011-08-02T12:23:05.000Z</time>
      </trkpt>
      <trkpt lat="48.76243" lon="1.76738">
        <ele>194.80000305176</ele>
        <time>2011-08-02T12:23:06.000Z</time>
      </trkpt>
      <trkpt lat="48.76249" lon="1.76726">
        <ele>194.60000610352</ele>
        <time>2011-08-02T12:23:13.000Z</time>
      </trkpt>
      <trkpt lat="48.76253" lon="1.76717">
        <ele>194.39999389648</ele>
        <time>2011-08-02T12:23:18.000Z</time>
      </trkpt>
      <trkpt lat="48.76255" lon="1.76714">
        <ele>194.39999389648</ele>
        <time>2011-08-02T12:23:20.000Z</time>
      </trkpt>
      <trkpt lat="48.7626" lon="1.76704">
        <ele>194.39999389648</ele>
        <time>2011-08-02T12:23:27.000Z</time>
      </trkpt>
      <trkpt lat="48.76262" lon="1.76701">
        <ele>194.39999389648</ele>
        <time>2011-08-02T12:23:29.000Z</time>
      </trkpt>
      <trkpt lat="48.76265" lon="1.76694">
        <ele>194.19999694824</ele>
        <time>2011-08-02T12:23:35.000Z</time>
      </trkpt>
      <trkpt lat="48.7627" lon="1.76687">
        <ele>194.19999694824</ele>
        <time>2011-08-02T12:23:40.000Z</time>
      </trkpt>
      <trkpt lat="48.76274" lon="1.76675">
        <ele>194.19999694824</ele>
        <time>2011-08-02T12:23:46.000Z</time>
      </trkpt>
      <trkpt lat="48.76282" lon="1.76661">
        <ele>194.19999694824</ele>
        <time>2011-08-02T12:23:54.000Z</time>
      </trkpt>
      <trkpt lat="48.76282" lon="1.76652">
        <ele>194.19999694824</ele>
        <time>2011-08-02T12:23:59.000Z</time>
      </trkpt>
      <trkpt lat="48.76288" lon="1.76642">
        <ele>194.39999389648</ele>
        <time>2011-08-02T12:24:05.000Z</time>
      </trkpt>
      <trkpt lat="48.7629" lon="1.76635">
        <ele>194.39999389648</ele>
        <time>2011-08-02T12:24:12.000Z</time>
      </trkpt>
      <trkpt lat="48.76297" lon="1.76624">
        <ele>194.39999389648</ele>
        <time>2011-08-02T12:24:18.000Z</time>
      </trkpt>
      <trkpt lat="48.76303" lon="1.76611">
        <ele>194.60000610352</ele>
        <time>2011-08-02T12:24:25.000Z</time>
      </trkpt>
      <trkpt lat="48.76306" lon="1.766">
        <ele>194.60000610352</ele>
        <time>2011-08-02T12:24:32.000Z</time>
      </trkpt>
      <trkpt lat="48.76314" lon="1.76588">
        <ele>194.60000610352</ele>
        <time>2011-08-02T12:24:39.000Z</time>
      </trkpt>
      <trkpt lat="48.76318" lon="1.7658">
        <ele>194.80000305176</ele>
        <time>2011-08-02T12:24:45.000Z</time>
      </trkpt>
      <trkpt lat="48.76319" lon="1.76578">
        <ele>194.80000305176</ele>
        <time>2011-08-02T12:24:46.000Z</time>
      </trkpt>
      <trkpt lat="48.76326" lon="1.76568">
        <ele>194.80000305176</ele>
        <time>2011-08-02T12:24:52.000Z</time>
      </trkpt>
      <trkpt lat="48.76329" lon="1.76564">
        <ele>194.80000305176</ele>
        <time>2011-08-02T12:24:54.000Z</time>
      </trkpt>
      <trkpt lat="48.76338" lon="1.76553">
        <ele>194.80000305176</ele>
        <time>2011-08-02T12:25:03.000Z</time>
      </trkpt>
      <trkpt lat="48.76339" lon="1.76552">
        <ele>194.80000305176</ele>
        <time>2011-08-02T12:25:04.000Z</time>
      </trkpt>
      <trkpt lat="48.76344" lon="1.7654">
        <ele>194.39999389648</ele>
        <time>2011-08-02T12:25:10.000Z</time>
      </trkpt>
      <trkpt lat="48.76348" lon="1.76529">
        <ele>194.19999694824</ele>
        <time>2011-08-02T12:25:17.000Z</time>
      </trkpt>
      <trkpt lat="48.76353" lon="1.76521">
        <ele>193.80000305176</ele>
        <time>2011-08-02T12:25:24.000Z</time>
      </trkpt>
      <trkpt lat="48.7636" lon="1.76511">
        <ele>193.39999389648</ele>
        <time>2011-08-02T12:25:30.000Z</time>
      </trkpt>
      <trkpt lat="48.7636" lon="1.76509">
        <ele>193.39999389648</ele>
        <time>2011-08-02T12:25:31.000Z</time>
      </trkpt>
      <trkpt lat="48.76358" lon="1.76494">
        <ele>193.39999389648</ele>
        <time>2011-08-02T12:25:39.000Z</time>
      </trkpt>
      <trkpt lat="48.76363" lon="1.76485">
        <ele>193</ele>
        <time>2011-08-02T12:25:45.000Z</time>
      </trkpt>
      <trkpt lat="48.76365" lon="1.76483">
        <ele>192.80000305176</ele>
        <time>2011-08-02T12:25:47.000Z</time>
      </trkpt>
      <trkpt lat="48.76371" lon="1.76469">
        <ele>192.39999389648</ele>
        <time>2011-08-02T12:25:53.000Z</time>
      </trkpt>
      <trkpt lat="48.76373" lon="1.76458">
        <ele>192.19999694824</ele>
        <time>2011-08-02T12:25:59.000Z</time>
      </trkpt>
      <trkpt lat="48.76375" lon="1.76452">
        <ele>192</ele>
        <time>2011-08-02T12:26:03.000Z</time>
      </trkpt>
      <trkpt lat="48.76381" lon="1.7644">
        <ele>191.80000305176</ele>
        <time>2011-08-02T12:26:11.000Z</time>
      </trkpt>
      <trkpt lat="48.76383" lon="1.76433">
        <ele>191.80000305176</ele>
        <time>2011-08-02T12:26:15.000Z</time>
      </trkpt>
      <trkpt lat="48.76386" lon="1.76419">
        <ele>191.60000610352</ele>
        <time>2011-08-02T12:26:22.000Z</time>
      </trkpt>
      <trkpt lat="48.76391" lon="1.76404">
        <ele>191.60000610352</ele>
        <time>2011-08-02T12:26:30.000Z</time>
      </trkpt>
      <trkpt lat="48.76396" lon="1.76393">
        <ele>191.60000610352</ele>
        <time>2011-08-02T12:26:36.000Z</time>
      </trkpt>
      <trkpt lat="48.76398" lon="1.76387">
        <ele>191.60000610352</ele>
        <time>2011-08-02T12:26:40.000Z</time>
      </trkpt>
      <trkpt lat="48.76402" lon="1.76378">
        <ele>191.60000610352</ele>
        <time>2011-08-02T12:26:46.000Z</time>
      </trkpt>
      <trkpt lat="48.76403" lon="1.76369">
        <ele>191.80000305176</ele>
        <time>2011-08-02T12:26:53.000Z</time>
      </trkpt>
      <trkpt lat="48.76402" lon="1.76368">
        <ele>191.80000305176</ele>
        <time>2011-08-02T12:26:57.000Z</time>
      </trkpt>
      <trkpt lat="48.76391" lon="1.76346">
        <ele>192.19999694824</ele>
        <time>2011-08-02T12:27:15.000Z</time>
      </trkpt>
      <trkpt lat="48.76384" lon="1.76334">
        <ele>192.19999694824</ele>
        <time>2011-08-02T12:27:22.000Z</time>
      </trkpt>
      <trkpt lat="48.76381" lon="1.76327">
        <ele>192.19999694824</ele>
        <time>2011-08-02T12:27:28.000Z</time>
      </trkpt>
      <trkpt lat="48.76377" lon="1.76314">
        <ele>192.19999694824</ele>
        <time>2011-08-02T12:27:36.000Z</time>
      </trkpt>
      <trkpt lat="48.76371" lon="1.76305">
        <ele>192.19999694824</ele>
        <time>2011-08-02T12:27:42.000Z</time>
      </trkpt>
      <trkpt lat="48.76368" lon="1.76298">
        <ele>192.39999389648</ele>
        <time>2011-08-02T12:27:46.000Z</time>
      </trkpt>
      <trkpt lat="48.76365" lon="1.76291">
        <ele>192.39999389648</ele>
        <time>2011-08-02T12:27:51.000Z</time>
      </trkpt>
      <trkpt lat="48.7636" lon="1.76277">
        <ele>192.39999389648</ele>
        <time>2011-08-02T12:27:58.000Z</time>
      </trkpt>
      <trkpt lat="48.76353" lon="1.76263">
        <ele>192.39999389648</ele>
        <time>2011-08-02T12:28:05.000Z</time>
      </trkpt>
      <trkpt lat="48.76353" lon="1.7626">
        <ele>192.39999389648</ele>
        <time>2011-08-02T12:28:07.000Z</time>
      </trkpt>
      <trkpt lat="48.76351" lon="1.76243">
        <ele>192.19999694824</ele>
        <time>2011-08-02T12:28:15.000Z</time>
      </trkpt>
      <trkpt lat="48.76344" lon="1.76233">
        <ele>192</ele>
        <time>2011-08-02T12:28:21.000Z</time>
      </trkpt>
      <trkpt lat="48.76341" lon="1.76217">
        <ele>191.60000610352</ele>
        <time>2011-08-02T12:28:28.000Z</time>
      </trkpt>
      <trkpt lat="48.76341" lon="1.76215">
        <ele>191.39999389648</ele>
        <time>2011-08-02T12:28:29.000Z</time>
      </trkpt>
      <trkpt lat="48.76343" lon="1.76203">
        <ele>190.80000305176</ele>
        <time>2011-08-02T12:28:35.000Z</time>
      </trkpt>
      <trkpt lat="48.76338" lon="1.76189">
        <ele>190.60000610352</ele>
        <time>2011-08-02T12:28:41.000Z</time>
      </trkpt>
      <trkpt lat="48.76334" lon="1.76181">
        <ele>190.39999389648</ele>
        <time>2011-08-02T12:28:45.000Z</time>
      </trkpt>
      <trkpt lat="48.76328" lon="1.76169">
        <ele>190</ele>
        <time>2011-08-02T12:28:51.000Z</time>
      </trkpt>
      <trkpt lat="48.76326" lon="1.76165">
        <ele>190</ele>
        <time>2011-08-02T12:28:53.000Z</time>
      </trkpt>
      <trkpt lat="48.7632" lon="1.76154">
        <ele>190</ele>
        <time>2011-08-02T12:29:01.000Z</time>
      </trkpt>
      <trkpt lat="48.76319" lon="1.76148">
        <ele>190</ele>
        <time>2011-08-02T12:29:04.000Z</time>
      </trkpt>
      <trkpt lat="48.76317" lon="1.76137">
        <ele>190</ele>
        <time>2011-08-02T12:29:10.000Z</time>
      </trkpt>
      <trkpt lat="48.76317" lon="1.76135">
        <ele>190</ele>
        <time>2011-08-02T12:29:11.000Z</time>
      </trkpt>
      <trkpt lat="48.76314" lon="1.76122">
        <ele>189.80000305176</ele>
        <time>2011-08-02T12:29:17.000Z</time>
      </trkpt>
      <trkpt lat="48.76311" lon="1.76115">
        <ele>189.80000305176</ele>
        <time>2011-08-02T12:29:21.000Z</time>
      </trkpt>
      <trkpt lat="48.76305" lon="1.76103">
        <ele>189.80000305176</ele>
        <time>2011-08-02T12:29:27.000Z</time>
      </trkpt>
      <trkpt lat="48.76303" lon="1.76094">
        <ele>189.60000610352</ele>
        <time>2011-08-02T12:29:31.000Z</time>
      </trkpt>
      <trkpt lat="48.76302" lon="1.76088">
        <ele>189.60000610352</ele>
        <time>2011-08-02T12:29:34.000Z</time>
      </trkpt>
      <trkpt lat="48.763" lon="1.76077">
        <ele>189.39999389648</ele>
        <time>2011-08-02T12:29:39.000Z</time>
      </trkpt>
      <trkpt lat="48.76299" lon="1.76073">
        <ele>189.19999694824</ele>
        <time>2011-08-02T12:29:41.000Z</time>
      </trkpt>
      <trkpt lat="48.76298" lon="1.76069">
        <ele>189.19999694824</ele>
        <time>2011-08-02T12:29:43.000Z</time>
      </trkpt>
      <trkpt lat="48.76297" lon="1.76059">
        <ele>189</ele>
        <time>2011-08-02T12:29:48.000Z</time>
      </trkpt>
      <trkpt lat="48.76296" lon="1.7605">
        <ele>188.80000305176</ele>
        <time>2011-08-02T12:29:52.000Z</time>
      </trkpt>
      <trkpt lat="48.76294" lon="1.76039">
        <ele>188.60000610352</ele>
        <time>2011-08-02T12:29:58.000Z</time>
      </trkpt>
      <trkpt lat="48.76293" lon="1.76028">
        <ele>188.39999389648</ele>
        <time>2011-08-02T12:30:03.000Z</time>
      </trkpt>
      <trkpt lat="48.76293" lon="1.76024">
        <ele>188.39999389648</ele>
        <time>2011-08-02T12:30:06.000Z</time>
      </trkpt>
      <trkpt lat="48.76292" lon="1.7601">
        <ele>188</ele>
        <time>2011-08-02T12:30:12.000Z</time>
      </trkpt>
      <trkpt lat="48.76292" lon="1.75995">
        <ele>187.80000305176</ele>
        <time>2011-08-02T12:30:19.000Z</time>
      </trkpt>
      <trkpt lat="48.76292" lon="1.7598">
        <ele>187.39999389648</ele>
        <time>2011-08-02T12:30:26.000Z</time>
      </trkpt>
      <trkpt lat="48.7629" lon="1.75971">
        <ele>187</ele>
        <time>2011-08-02T12:30:31.000Z</time>
      </trkpt>
      <trkpt lat="48.76286" lon="1.75959">
        <ele>186.60000610352</ele>
        <time>2011-08-02T12:30:37.000Z</time>
      </trkpt>
      <trkpt lat="48.76284" lon="1.75951">
        <ele>186.19999694824</ele>
        <time>2011-08-02T12:30:41.000Z</time>
      </trkpt>
      <trkpt lat="48.76282" lon="1.75941">
        <ele>185.80000305176</ele>
        <time>2011-08-02T12:30:45.000Z</time>
      </trkpt>
      <trkpt lat="48.76283" lon="1.75933">
        <ele>185.60000610352</ele>
        <time>2011-08-02T12:30:49.000Z</time>
      </trkpt>
      <trkpt lat="48.7628" lon="1.75916">
        <ele>185</ele>
        <time>2011-08-02T12:30:57.000Z</time>
      </trkpt>
      <trkpt lat="48.76279" lon="1.75901">
        <ele>185</ele>
        <time>2011-08-02T12:31:04.000Z</time>
      </trkpt>
      <trkpt lat="48.76279" lon="1.75892">
        <ele>185</ele>
        <time>2011-08-02T12:31:09.000Z</time>
      </trkpt>
      <trkpt lat="48.76278" lon="1.75886">
        <ele>184.80000305176</ele>
        <time>2011-08-02T12:31:12.000Z</time>
      </trkpt>
      <trkpt lat="48.76275" lon="1.75872">
        <ele>184.80000305176</ele>
        <time>2011-08-02T12:31:19.000Z</time>
      </trkpt>
      <trkpt lat="48.76269" lon="1.75861">
        <ele>184.60000610352</ele>
        <time>2011-08-02T12:31:24.000Z</time>
      </trkpt>
      <trkpt lat="48.76266" lon="1.7585">
        <ele>184.39999389648</ele>
        <time>2011-08-02T12:31:30.000Z</time>
      </trkpt>
      <trkpt lat="48.76262" lon="1.75841">
        <ele>184.39999389648</ele>
        <time>2011-08-02T12:31:37.000Z</time>
      </trkpt>
      <trkpt lat="48.76263" lon="1.75837">
        <ele>184.39999389648</ele>
        <time>2011-08-02T12:31:43.000Z</time>
      </trkpt>
      <trkpt lat="48.76264" lon="1.75836">
        <ele>184.39999389648</ele>
        <time>2011-08-02T12:31:45.000Z</time>
      </trkpt>
      <trkpt lat="48.76264" lon="1.75835">
        <ele>184.39999389648</ele>
        <time>2011-08-02T12:31:48.000Z</time>
      </trkpt>
      <trkpt lat="48.76261" lon="1.75831">
        <ele>184.39999389648</ele>
        <time>2011-08-02T12:31:52.000Z</time>
      </trkpt>
      <trkpt lat="48.76255" lon="1.75816">
        <ele>184.19999694824</ele>
        <time>2011-08-02T12:32:02.000Z</time>
      </trkpt>
      <trkpt lat="48.76254" lon="1.75803">
        <ele>184.39999389648</ele>
        <time>2011-08-02T12:32:09.000Z</time>
      </trkpt>
      <trkpt lat="48.76254" lon="1.75793">
        <ele>184.60000610352</ele>
        <time>2011-08-02T12:32:14.000Z</time>
      </trkpt>
      <trkpt lat="48.76254" lon="1.75784">
        <ele>184.60000610352</ele>
        <time>2011-08-02T12:32:19.000Z</time>
      </trkpt>
      <trkpt lat="48.76252" lon="1.75777">
        <ele>184.60000610352</ele>
        <time>2011-08-02T12:32:23.000Z</time>
      </trkpt>
      <trkpt lat="48.76251" lon="1.75776">
        <ele>184.60000610352</ele>
        <time>2011-08-02T12:32:28.000Z</time>
      </trkpt>
      <trkpt lat="48.7624" lon="1.75772">
        <ele>184.19999694824</ele>
        <time>2011-08-02T12:32:47.000Z</time>
      </trkpt>
      <trkpt lat="48.76234" lon="1.75771">
        <ele>183.80000305176</ele>
        <time>2011-08-02T12:32:49.000Z</time>
      </trkpt>
      <trkpt lat="48.76231" lon="1.75771">
        <ele>183.80000305176</ele>
        <time>2011-08-02T12:32:51.000Z</time>
      </trkpt>
      <trkpt lat="48.76222" lon="1.75768">
        <ele>183.39999389648</ele>
        <time>2011-08-02T12:32:57.000Z</time>
      </trkpt>
      <trkpt lat="48.76211" lon="1.75764">
        <ele>182.80000305176</ele>
        <time>2011-08-02T12:33:04.000Z</time>
      </trkpt>
      <trkpt lat="48.76195" lon="1.75759">
        <ele>182.19999694824</ele>
        <time>2011-08-02T12:33:15.000Z</time>
      </trkpt>
      <trkpt lat="48.76186" lon="1.75755">
        <ele>181.80000305176</ele>
        <time>2011-08-02T12:33:22.000Z</time>
      </trkpt>
      <trkpt lat="48.7618" lon="1.75752">
        <ele>181.60000610352</ele>
        <time>2011-08-02T12:33:27.000Z</time>
      </trkpt>
      <trkpt lat="48.76171" lon="1.7575">
        <ele>181.19999694824</ele>
        <time>2011-08-02T12:33:33.000Z</time>
      </trkpt>
      <trkpt lat="48.7617" lon="1.7575">
        <ele>181</ele>
        <time>2011-08-02T12:33:34.000Z</time>
      </trkpt>
      <trkpt lat="48.76158" lon="1.75746">
        <ele>181</ele>
        <time>2011-08-02T12:33:42.000Z</time>
      </trkpt>
      <trkpt lat="48.76151" lon="1.75743">
        <ele>181</ele>
        <time>2011-08-02T12:33:46.000Z</time>
      </trkpt>
      <trkpt lat="48.7614" lon="1.75736">
        <ele>181</ele>
        <time>2011-08-02T12:33:53.000Z</time>
      </trkpt>
      <trkpt lat="48.76123" lon="1.75732">
        <ele>181</ele>
        <time>2011-08-02T12:33:58.000Z</time>
      </trkpt>
      <trkpt lat="48.76097" lon="1.75722">
        <ele>181</ele>
        <time>2011-08-02T12:34:05.000Z</time>
      </trkpt>
      <trkpt lat="48.76064" lon="1.7571">
        <ele>181.60000610352</ele>
        <time>2011-08-02T12:34:14.000Z</time>
      </trkpt>
      <trkpt lat="48.76027" lon="1.75698">
        <ele>182.39999389648</ele>
        <time>2011-08-02T12:34:23.000Z</time>
      </trkpt>
      <trkpt lat="48.76012" lon="1.75693">
        <ele>182.60000610352</ele>
        <time>2011-08-02T12:34:27.000Z</time>
      </trkpt>
      <trkpt lat="48.76" lon="1.75689">
        <ele>182.80000305176</ele>
        <time>2011-08-02T12:34:30.000Z</time>
      </trkpt>
      <trkpt lat="48.75992" lon="1.75685">
        <ele>182.80000305176</ele>
        <time>2011-08-02T12:34:32.000Z</time>
      </trkpt>
      <trkpt lat="48.75966" lon="1.75677">
        <ele>183.39999389648</ele>
        <time>2011-08-02T12:34:39.000Z</time>
      </trkpt>
      <trkpt lat="48.75948" lon="1.75671">
        <ele>184</ele>
        <time>2011-08-02T12:34:44.000Z</time>
      </trkpt>
      <trkpt lat="48.75926" lon="1.75662">
        <ele>184.39999389648</ele>
        <time>2011-08-02T12:34:50.000Z</time>
      </trkpt>
      <trkpt lat="48.75909" lon="1.75655">
        <ele>185</ele>
        <time>2011-08-02T12:34:54.000Z</time>
      </trkpt>
      <trkpt lat="48.759" lon="1.75651">
        <ele>185.39999389648</ele>
        <time>2011-08-02T12:34:56.000Z</time>
      </trkpt>
      <trkpt lat="48.75884" lon="1.75643">
        <ele>186.19999694824</ele>
        <time>2011-08-02T12:35:00.000Z</time>
      </trkpt>
      <trkpt lat="48.7587" lon="1.7564">
        <ele>186.80000305176</ele>
        <time>2011-08-02T12:35:03.000Z</time>
      </trkpt>
      <trkpt lat="48.75835" lon="1.75627">
        <ele>188.80000305176</ele>
        <time>2011-08-02T12:35:11.000Z</time>
      </trkpt>
      <trkpt lat="48.75799" lon="1.75615">
        <ele>189.39999389648</ele>
        <time>2011-08-02T12:35:19.000Z</time>
      </trkpt>
      <trkpt lat="48.75764" lon="1.75602">
        <ele>190</ele>
        <time>2011-08-02T12:35:27.000Z</time>
      </trkpt>
      <trkpt lat="48.75726" lon="1.75588">
        <ele>190</ele>
        <time>2011-08-02T12:35:36.000Z</time>
      </trkpt>
      <trkpt lat="48.75711" lon="1.75583">
        <ele>189.80000305176</ele>
        <time>2011-08-02T12:35:40.000Z</time>
      </trkpt>
      <trkpt lat="48.75698" lon="1.75579">
        <ele>189.80000305176</ele>
        <time>2011-08-02T12:35:43.000Z</time>
      </trkpt>
      <trkpt lat="48.75666" lon="1.75566">
        <ele>190</ele>
        <time>2011-08-02T12:35:51.000Z</time>
      </trkpt>
      <trkpt lat="48.75646" lon="1.75557">
        <ele>190.39999389648</ele>
        <time>2011-08-02T12:35:56.000Z</time>
      </trkpt>
      <trkpt lat="48.75618" lon="1.75547">
        <ele>190.60000610352</ele>
        <time>2011-08-02T12:36:03.000Z</time>
      </trkpt>
      <trkpt lat="48.75595" lon="1.75539">
        <ele>190.60000610352</ele>
        <time>2011-08-02T12:36:08.000Z</time>
      </trkpt>
      <trkpt lat="48.75575" lon="1.75532">
        <ele>190.60000610352</ele>
        <time>2011-08-02T12:36:13.000Z</time>
      </trkpt>
      <trkpt lat="48.75563" lon="1.75526">
        <ele>190.80000305176</ele>
        <time>2011-08-02T12:36:16.000Z</time>
      </trkpt>
      <trkpt lat="48.7555" lon="1.75521">
        <ele>190.80000305176</ele>
        <time>2011-08-02T12:36:20.000Z</time>
      </trkpt>
      <trkpt lat="48.75534" lon="1.75517">
        <ele>191.19999694824</ele>
        <time>2011-08-02T12:36:26.000Z</time>
      </trkpt>
      <trkpt lat="48.75532" lon="1.75516">
        <ele>191.19999694824</ele>
        <time>2011-08-02T12:36:27.000Z</time>
      </trkpt>
      <trkpt lat="48.75535" lon="1.75515">
        <ele>191.19999694824</ele>
        <time>2011-08-02T12:36:33.000Z</time>
      </trkpt>
      <trkpt lat="48.75538" lon="1.75511">
        <ele>191</ele>
        <time>2011-08-02T12:36:40.000Z</time>
      </trkpt>
      <trkpt lat="48.75543" lon="1.75514">
        <ele>190.80000305176</ele>
        <time>2011-08-02T12:36:46.000Z</time>
      </trkpt>
      <trkpt lat="48.75544" lon="1.75515">
        <ele>190.80000305176</ele>
        <time>2011-08-02T12:36:47.000Z</time>
      </trkpt>
      <trkpt lat="48.75549" lon="1.75519">
        <ele>190.80000305176</ele>
        <time>2011-08-02T12:36:51.000Z</time>
      </trkpt>
      <trkpt lat="48.75552" lon="1.75528">
        <ele>191</ele>
        <time>2011-08-02T12:36:57.000Z</time>
      </trkpt>
      <trkpt lat="48.75547" lon="1.75545">
        <ele>192</ele>
        <time>2011-08-02T12:37:03.000Z</time>
      </trkpt>
      <trkpt lat="48.75543" lon="1.75559">
        <ele>192.39999389648</ele>
        <time>2011-08-02T12:37:08.000Z</time>
      </trkpt>
      <trkpt lat="48.75541" lon="1.7557">
        <ele>193</ele>
        <time>2011-08-02T12:37:13.000Z</time>
      </trkpt>
      <trkpt lat="48.7554" lon="1.75573">
        <ele>193</ele>
        <time>2011-08-02T12:37:15.000Z</time>
      </trkpt>
      <trkpt lat="48.75537" lon="1.75587">
        <ele>193.60000610352</ele>
        <time>2011-08-02T12:37:21.000Z</time>
      </trkpt>
      <trkpt lat="48.75532" lon="1.75599">
        <ele>193.80000305176</ele>
        <time>2011-08-02T12:37:25.000Z</time>
      </trkpt>
      <trkpt lat="48.75525" lon="1.7562">
        <ele>194.19999694824</ele>
        <time>2011-08-02T12:37:30.000Z</time>
      </trkpt>
      <trkpt lat="48.75514" lon="1.75649">
        <ele>194.60000610352</ele>
        <time>2011-08-02T12:37:36.000Z</time>
      </trkpt>
      <trkpt lat="48.75505" lon="1.75675">
        <ele>194.80000305176</ele>
        <time>2011-08-02T12:37:41.000Z</time>
      </trkpt>
      <trkpt lat="48.75493" lon="1.75705">
        <ele>195</ele>
        <time>2011-08-02T12:37:46.000Z</time>
      </trkpt>
      <trkpt lat="48.75485" lon="1.75731">
        <ele>195</ele>
        <time>2011-08-02T12:37:50.000Z</time>
      </trkpt>
      <trkpt lat="48.75475" lon="1.7577">
        <ele>194.80000305176</ele>
        <time>2011-08-02T12:37:56.000Z</time>
      </trkpt>
      <trkpt lat="48.75467" lon="1.75799">
        <ele>194.60000610352</ele>
        <time>2011-08-02T12:38:00.000Z</time>
      </trkpt>
      <trkpt lat="48.75462" lon="1.75813">
        <ele>194.60000610352</ele>
        <time>2011-08-02T12:38:02.000Z</time>
      </trkpt>
      <trkpt lat="48.7545" lon="1.75839">
        <ele>194.19999694824</ele>
        <time>2011-08-02T12:38:06.000Z</time>
      </trkpt>
      <trkpt lat="48.75447" lon="1.75852">
        <ele>194.19999694824</ele>
        <time>2011-08-02T12:38:08.000Z</time>
      </trkpt>
      <trkpt lat="48.75436" lon="1.75882">
        <ele>194</ele>
        <time>2011-08-02T12:38:13.000Z</time>
      </trkpt>
      <trkpt lat="48.75432" lon="1.75895">
        <ele>194</ele>
        <time>2011-08-02T12:38:15.000Z</time>
      </trkpt>
      <trkpt lat="48.75423" lon="1.75922">
        <ele>194</ele>
        <time>2011-08-02T12:38:20.000Z</time>
      </trkpt>
      <trkpt lat="48.75419" lon="1.7594">
        <ele>194.19999694824</ele>
        <time>2011-08-02T12:38:24.000Z</time>
      </trkpt>
      <trkpt lat="48.75417" lon="1.75958">
        <ele>194.39999389648</ele>
        <time>2011-08-02T12:38:29.000Z</time>
      </trkpt>
      <trkpt lat="48.75406" lon="1.75993">
        <ele>195</ele>
        <time>2011-08-02T12:38:35.000Z</time>
      </trkpt>
      <trkpt lat="48.75399" lon="1.7602">
        <ele>195</ele>
        <time>2011-08-02T12:38:40.000Z</time>
      </trkpt>
      <trkpt lat="48.75391" lon="1.76042">
        <ele>195</ele>
        <time>2011-08-02T12:38:45.000Z</time>
      </trkpt>
      <trkpt lat="48.7539" lon="1.76049">
        <ele>195</ele>
        <time>2011-08-02T12:38:47.000Z</time>
      </trkpt>
      <trkpt lat="48.75392" lon="1.76048">
        <ele>195</ele>
        <time>2011-08-02T12:38:50.000Z</time>
      </trkpt>
      <trkpt lat="48.75393" lon="1.7604">
        <ele>195</ele>
        <time>2011-08-02T12:38:54.000Z</time>
      </trkpt>
      <trkpt lat="48.75394" lon="1.76035">
        <ele>195</ele>
        <time>2011-08-02T12:38:56.000Z</time>
      </trkpt>
      <trkpt lat="48.75388" lon="1.76027">
        <ele>195.19999694824</ele>
        <time>2011-08-02T12:39:02.000Z</time>
      </trkpt>
      <trkpt lat="48.75382" lon="1.76022">
        <ele>195.19999694824</ele>
        <time>2011-08-02T12:39:07.000Z</time>
      </trkpt>
      <trkpt lat="48.75371" lon="1.76017">
        <ele>195.39999389648</ele>
        <time>2011-08-02T12:39:15.000Z</time>
      </trkpt>
      <trkpt lat="48.75364" lon="1.76012">
        <ele>195.39999389648</ele>
        <time>2011-08-02T12:39:22.000Z</time>
      </trkpt>
      <trkpt lat="48.7536" lon="1.7601">
        <ele>195.39999389648</ele>
        <time>2011-08-02T12:39:24.000Z</time>
      </trkpt>
      <trkpt lat="48.75352" lon="1.76002">
        <ele>195.60000610352</ele>
        <time>2011-08-02T12:39:31.000Z</time>
      </trkpt>
      <trkpt lat="48.75344" lon="1.75998">
        <ele>195.80000305176</ele>
        <time>2011-08-02T12:39:36.000Z</time>
      </trkpt>
      <trkpt lat="48.75336" lon="1.7599">
        <ele>195.60000610352</ele>
        <time>2011-08-02T12:39:42.000Z</time>
      </trkpt>
      <trkpt lat="48.75331" lon="1.75986">
        <ele>195.60000610352</ele>
        <time>2011-08-02T12:39:46.000Z</time>
      </trkpt>
      <trkpt lat="48.75323" lon="1.7598">
        <ele>195.39999389648</ele>
        <time>2011-08-02T12:39:53.000Z</time>
      </trkpt>
      <trkpt lat="48.75314" lon="1.75975">
        <ele>195</ele>
        <time>2011-08-02T12:39:59.000Z</time>
      </trkpt>
      <trkpt lat="48.75308" lon="1.7597">
        <ele>194.80000305176</ele>
        <time>2011-08-02T12:40:04.000Z</time>
      </trkpt>
      <trkpt lat="48.75302" lon="1.75965">
        <ele>194.60000610352</ele>
        <time>2011-08-02T12:40:10.000Z</time>
      </trkpt>
      <trkpt lat="48.75294" lon="1.7596">
        <ele>194.39999389648</ele>
        <time>2011-08-02T12:40:15.000Z</time>
      </trkpt>
      <trkpt lat="48.75292" lon="1.75958">
        <ele>194.39999389648</ele>
        <time>2011-08-02T12:40:17.000Z</time>
      </trkpt>
      <trkpt lat="48.7529" lon="1.75956">
        <ele>194.39999389648</ele>
        <time>2011-08-02T12:40:19.000Z</time>
      </trkpt>
      <trkpt lat="48.75282" lon="1.75947">
        <ele>194</ele>
        <time>2011-08-02T12:40:25.000Z</time>
      </trkpt>
      <trkpt lat="48.75273" lon="1.75941">
        <ele>193.80000305176</ele>
        <time>2011-08-02T12:40:31.000Z</time>
      </trkpt>
      <trkpt lat="48.75265" lon="1.75937">
        <ele>193.60000610352</ele>
        <time>2011-08-02T12:40:36.000Z</time>
      </trkpt>
      <trkpt lat="48.75255" lon="1.7593">
        <ele>193.19999694824</ele>
        <time>2011-08-02T12:40:43.000Z</time>
      </trkpt>
      <trkpt lat="48.75247" lon="1.75924">
        <ele>193</ele>
        <time>2011-08-02T12:40:50.000Z</time>
      </trkpt>
      <trkpt lat="48.75235" lon="1.75921">
        <ele>193</ele>
        <time>2011-08-02T12:40:58.000Z</time>
      </trkpt>
      <trkpt lat="48.75228" lon="1.75914">
        <ele>193</ele>
        <time>2011-08-02T12:41:04.000Z</time>
      </trkpt>
      <trkpt lat="48.75225" lon="1.75911">
        <ele>193</ele>
        <time>2011-08-02T12:41:06.000Z</time>
      </trkpt>
      <trkpt lat="48.75218" lon="1.75901">
        <ele>193</ele>
        <time>2011-08-02T12:41:13.000Z</time>
      </trkpt>
      <trkpt lat="48.75211" lon="1.75899">
        <ele>193</ele>
        <time>2011-08-02T12:41:18.000Z</time>
      </trkpt>
      <trkpt lat="48.75204" lon="1.75891">
        <ele>192.80000305176</ele>
        <time>2011-08-02T12:41:24.000Z</time>
      </trkpt>
      <trkpt lat="48.75203" lon="1.7589">
        <ele>192.80000305176</ele>
        <time>2011-08-02T12:41:25.000Z</time>
      </trkpt>
      <trkpt lat="48.75194" lon="1.75885">
        <ele>192.80000305176</ele>
        <time>2011-08-02T12:41:31.000Z</time>
      </trkpt>
      <trkpt lat="48.75188" lon="1.75881">
        <ele>192.60000610352</ele>
        <time>2011-08-02T12:41:35.000Z</time>
      </trkpt>
      <trkpt lat="48.75183" lon="1.75875">
        <ele>192.60000610352</ele>
        <time>2011-08-02T12:41:39.000Z</time>
      </trkpt>
      <trkpt lat="48.75178" lon="1.75871">
        <ele>192.60000610352</ele>
        <time>2011-08-02T12:41:44.000Z</time>
      </trkpt>
      <trkpt lat="48.7517" lon="1.75866">
        <ele>192.39999389648</ele>
        <time>2011-08-02T12:41:51.000Z</time>
      </trkpt>
      <trkpt lat="48.75164" lon="1.75861">
        <ele>192.19999694824</ele>
        <time>2011-08-02T12:41:56.000Z</time>
      </trkpt>
      <trkpt lat="48.7516" lon="1.75857">
        <ele>192.19999694824</ele>
        <time>2011-08-02T12:41:59.000Z</time>
      </trkpt>
      <trkpt lat="48.75155" lon="1.75853">
        <ele>192.19999694824</ele>
        <time>2011-08-02T12:42:04.000Z</time>
      </trkpt>
      <trkpt lat="48.75148" lon="1.7585">
        <ele>192.19999694824</ele>
        <time>2011-08-02T12:42:08.000Z</time>
      </trkpt>
      <trkpt lat="48.75137" lon="1.75848">
        <ele>192</ele>
        <time>2011-08-02T12:42:15.000Z</time>
      </trkpt>
      <trkpt lat="48.75136" lon="1.75846">
        <ele>192</ele>
        <time>2011-08-02T12:42:17.000Z</time>
      </trkpt>
      <trkpt lat="48.75134" lon="1.75837">
        <ele>192</ele>
        <time>2011-08-02T12:42:23.000Z</time>
      </trkpt>
      <trkpt lat="48.75128" lon="1.75831">
        <ele>192</ele>
        <time>2011-08-02T12:42:28.000Z</time>
      </trkpt>
      <trkpt lat="48.75124" lon="1.75829">
        <ele>192</ele>
        <time>2011-08-02T12:42:32.000Z</time>
      </trkpt>
      <trkpt lat="48.75122" lon="1.75828">
        <ele>192</ele>
        <time>2011-08-02T12:42:35.000Z</time>
      </trkpt>
      <trkpt lat="48.75114" lon="1.75828">
        <ele>192</ele>
        <time>2011-08-02T12:42:41.000Z</time>
      </trkpt>
      <trkpt lat="48.75108" lon="1.75824">
        <ele>192</ele>
        <time>2011-08-02T12:42:46.000Z</time>
      </trkpt>
      <trkpt lat="48.75108" lon="1.75822">
        <ele>192</ele>
        <time>2011-08-02T12:42:47.000Z</time>
      </trkpt>
      <trkpt lat="48.75102" lon="1.75812">
        <ele>192</ele>
        <time>2011-08-02T12:42:54.000Z</time>
      </trkpt>
      <trkpt lat="48.751" lon="1.75806">
        <ele>192</ele>
        <time>2011-08-02T12:42:58.000Z</time>
      </trkpt>
      <trkpt lat="48.75098" lon="1.75804">
        <ele>192</ele>
        <time>2011-08-02T12:43:01.000Z</time>
      </trkpt>
      <trkpt lat="48.75084" lon="1.75796">
        <ele>192</ele>
        <time>2011-08-02T12:43:10.000Z</time>
      </trkpt>
      <trkpt lat="48.75076" lon="1.75792">
        <ele>191.60000610352</ele>
        <time>2011-08-02T12:43:16.000Z</time>
      </trkpt>
      <trkpt lat="48.7507" lon="1.75788">
        <ele>191.60000610352</ele>
        <time>2011-08-02T12:43:20.000Z</time>
      </trkpt>
      <trkpt lat="48.75066" lon="1.75785">
        <ele>191.39999389648</ele>
        <time>2011-08-02T12:43:24.000Z</time>
      </trkpt>
      <trkpt lat="48.75061" lon="1.75782">
        <ele>191.19999694824</ele>
        <time>2011-08-02T12:43:29.000Z</time>
      </trkpt>
      <trkpt lat="48.7506" lon="1.75782">
        <ele>191.19999694824</ele>
        <time>2011-08-02T12:43:30.000Z</time>
      </trkpt>
      <trkpt lat="48.75053" lon="1.75782">
        <ele>191</ele>
        <time>2011-08-02T12:43:37.000Z</time>
      </trkpt>
      <trkpt lat="48.75046" lon="1.75812">
        <ele>190.60000610352</ele>
        <time>2011-08-02T12:44:10.000Z</time>
      </trkpt>
      <trkpt lat="48.75048" lon="1.75823">
        <ele>190.60000610352</ele>
        <time>2011-08-02T12:44:15.000Z</time>
      </trkpt>
      <trkpt lat="48.75047" lon="1.75825">
        <ele>190.60000610352</ele>
        <time>2011-08-02T12:44:16.000Z</time>
      </trkpt>
      <trkpt lat="48.75044" lon="1.75835">
        <ele>190.60000610352</ele>
        <time>2011-08-02T12:44:20.000Z</time>
      </trkpt>
      <trkpt lat="48.75042" lon="1.7585">
        <ele>190.60000610352</ele>
        <time>2011-08-02T12:44:27.000Z</time>
      </trkpt>
      <trkpt lat="48.75041" lon="1.75861">
        <ele>190.80000305176</ele>
        <time>2011-08-02T12:44:33.000Z</time>
      </trkpt>
      <trkpt lat="48.75041" lon="1.75863">
        <ele>190.80000305176</ele>
        <time>2011-08-02T12:44:34.000Z</time>
      </trkpt>
      <trkpt lat="48.75039" lon="1.75878">
        <ele>191.19999694824</ele>
        <time>2011-08-02T12:44:42.000Z</time>
      </trkpt>
      <trkpt lat="48.75038" lon="1.75888">
        <ele>191.19999694824</ele>
        <time>2011-08-02T12:44:47.000Z</time>
      </trkpt>
      <trkpt lat="48.75036" lon="1.75891">
        <ele>191.19999694824</ele>
        <time>2011-08-02T12:44:49.000Z</time>
      </trkpt>
      <trkpt lat="48.75029" lon="1.75906">
        <ele>191.39999389648</ele>
        <time>2011-08-02T12:44:57.000Z</time>
      </trkpt>
      <trkpt lat="48.75023" lon="1.75923">
        <ele>191.60000610352</ele>
        <time>2011-08-02T12:45:06.000Z</time>
      </trkpt>
      <trkpt lat="48.75018" lon="1.75938">
        <ele>191.60000610352</ele>
        <time>2011-08-02T12:45:14.000Z</time>
      </trkpt>
      <trkpt lat="48.75016" lon="1.75946">
        <ele>191.60000610352</ele>
        <time>2011-08-02T12:45:18.000Z</time>
      </trkpt>
      <trkpt lat="48.75015" lon="1.75952">
        <ele>191.60000610352</ele>
        <time>2011-08-02T12:45:23.000Z</time>
      </trkpt>
      <trkpt lat="48.75016" lon="1.75954">
        <ele>191.60000610352</ele>
        <time>2011-08-02T12:45:25.000Z</time>
      </trkpt>
      <trkpt lat="48.75019" lon="1.75963">
        <ele>191.80000305176</ele>
        <time>2011-08-02T12:45:32.000Z</time>
      </trkpt>
      <trkpt lat="48.75019" lon="1.75967">
        <ele>191.80000305176</ele>
        <time>2011-08-02T12:45:35.000Z</time>
      </trkpt>
      <trkpt lat="48.75015" lon="1.75984">
        <ele>192</ele>
        <time>2011-08-02T12:45:41.000Z</time>
      </trkpt>
      <trkpt lat="48.75008" lon="1.75998">
        <ele>192</ele>
        <time>2011-08-02T12:45:47.000Z</time>
      </trkpt>
      <trkpt lat="48.75" lon="1.76014">
        <ele>192</ele>
        <time>2011-08-02T12:45:53.000Z</time>
      </trkpt>
      <trkpt lat="48.74998" lon="1.76022">
        <ele>191.60000610352</ele>
        <time>2011-08-02T12:45:57.000Z</time>
      </trkpt>
      <trkpt lat="48.74994" lon="1.76038">
        <ele>191.19999694824</ele>
        <time>2011-08-02T12:46:05.000Z</time>
      </trkpt>
      <trkpt lat="48.7499" lon="1.76051">
        <ele>190.80000305176</ele>
        <time>2011-08-02T12:46:11.000Z</time>
      </trkpt>
      <trkpt lat="48.74985" lon="1.76067">
        <ele>190.60000610352</ele>
        <time>2011-08-02T12:46:18.000Z</time>
      </trkpt>
      <trkpt lat="48.74982" lon="1.76081">
        <ele>190.80000305176</ele>
        <time>2011-08-02T12:46:24.000Z</time>
      </trkpt>
      <trkpt lat="48.74982" lon="1.76087">
        <ele>191</ele>
        <time>2011-08-02T12:46:27.000Z</time>
      </trkpt>
      <trkpt lat="48.7498" lon="1.76099">
        <ele>191.19999694824</ele>
        <time>2011-08-02T12:46:34.000Z</time>
      </trkpt>
      <trkpt lat="48.74981" lon="1.76108">
        <ele>191.60000610352</ele>
        <time>2011-08-02T12:46:38.000Z</time>
      </trkpt>
      <trkpt lat="48.74973" lon="1.76122">
        <ele>191.60000610352</ele>
        <time>2011-08-02T12:46:47.000Z</time>
      </trkpt>
      <trkpt lat="48.74968" lon="1.76127">
        <ele>191.60000610352</ele>
        <time>2011-08-02T12:46:52.000Z</time>
      </trkpt>
      <trkpt lat="48.7496" lon="1.76134">
        <ele>191.60000610352</ele>
        <time>2011-08-02T12:46:58.000Z</time>
      </trkpt>
      <trkpt lat="48.74953" lon="1.76139">
        <ele>191.60000610352</ele>
        <time>2011-08-02T12:47:05.000Z</time>
      </trkpt>
      <trkpt lat="48.74943" lon="1.76144">
        <ele>191.39999389648</ele>
        <time>2011-08-02T12:47:13.000Z</time>
      </trkpt>
      <trkpt lat="48.74933" lon="1.76147">
        <ele>191.19999694824</ele>
        <time>2011-08-02T12:47:20.000Z</time>
      </trkpt>
      <trkpt lat="48.74922" lon="1.7615">
        <ele>191</ele>
        <time>2011-08-02T12:47:29.000Z</time>
      </trkpt>
      <trkpt lat="48.74916" lon="1.76152">
        <ele>191</ele>
        <time>2011-08-02T12:47:36.000Z</time>
      </trkpt>
      <trkpt lat="48.74907" lon="1.76155">
        <ele>190.80000305176</ele>
        <time>2011-08-02T12:47:44.000Z</time>
      </trkpt>
      <trkpt lat="48.74903" lon="1.76154">
        <ele>190.39999389648</ele>
        <time>2011-08-02T12:47:48.000Z</time>
      </trkpt>
      <trkpt lat="48.74896" lon="1.76155">
        <ele>190.19999694824</ele>
        <time>2011-08-02T12:47:53.000Z</time>
      </trkpt>
      <trkpt lat="48.7489" lon="1.76157">
        <ele>190.19999694824</ele>
        <time>2011-08-02T12:47:57.000Z</time>
      </trkpt>
      <trkpt lat="48.74888" lon="1.76158">
        <ele>190.19999694824</ele>
        <time>2011-08-02T12:47:59.000Z</time>
      </trkpt>
      <trkpt lat="48.7488" lon="1.76164">
        <ele>190.39999389648</ele>
        <time>2011-08-02T12:48:05.000Z</time>
      </trkpt>
      <trkpt lat="48.74877" lon="1.76166">
        <ele>190.39999389648</ele>
        <time>2011-08-02T12:48:07.000Z</time>
      </trkpt>
      <trkpt lat="48.74872" lon="1.76168">
        <ele>190.39999389648</ele>
        <time>2011-08-02T12:48:11.000Z</time>
      </trkpt>
      <trkpt lat="48.74869" lon="1.76171">
        <ele>190.39999389648</ele>
        <time>2011-08-02T12:48:15.000Z</time>
      </trkpt>
      <trkpt lat="48.74863" lon="1.76175">
        <ele>190.19999694824</ele>
        <time>2011-08-02T12:48:21.000Z</time>
      </trkpt>
      <trkpt lat="48.7486" lon="1.76177">
        <ele>190.19999694824</ele>
        <time>2011-08-02T12:48:23.000Z</time>
      </trkpt>
      <trkpt lat="48.7485" lon="1.76188">
        <ele>190.19999694824</ele>
        <time>2011-08-02T12:48:33.000Z</time>
      </trkpt>
      <trkpt lat="48.74839" lon="1.76197">
        <ele>190.19999694824</ele>
        <time>2011-08-02T12:48:40.000Z</time>
      </trkpt>
      <trkpt lat="48.7483" lon="1.76205">
        <ele>189.80000305176</ele>
        <time>2011-08-02T12:48:48.000Z</time>
      </trkpt>
      <trkpt lat="48.74818" lon="1.76217">
        <ele>189.19999694824</ele>
        <time>2011-08-02T12:48:58.000Z</time>
      </trkpt>
      <trkpt lat="48.7481" lon="1.76225">
        <ele>188.80000305176</ele>
        <time>2011-08-02T12:49:05.000Z</time>
      </trkpt>
      <trkpt lat="48.74802" lon="1.76234">
        <ele>188.80000305176</ele>
        <time>2011-08-02T12:49:12.000Z</time>
      </trkpt>
      <trkpt lat="48.74792" lon="1.76246">
        <ele>189</ele>
        <time>2011-08-02T12:49:20.000Z</time>
      </trkpt>
      <trkpt lat="48.74782" lon="1.76257">
        <ele>189</ele>
        <time>2011-08-02T12:49:29.000Z</time>
      </trkpt>
      <trkpt lat="48.74773" lon="1.76269">
        <ele>189</ele>
        <time>2011-08-02T12:49:36.000Z</time>
      </trkpt>
      <trkpt lat="48.7477" lon="1.76274">
        <ele>189</ele>
        <time>2011-08-02T12:49:40.000Z</time>
      </trkpt>
      <trkpt lat="48.74764" lon="1.76284">
        <ele>189.19999694824</ele>
        <time>2011-08-02T12:49:47.000Z</time>
      </trkpt>
      <trkpt lat="48.74761" lon="1.76287">
        <ele>189.19999694824</ele>
        <time>2011-08-02T12:49:50.000Z</time>
      </trkpt>
      <trkpt lat="48.74758" lon="1.76294">
        <ele>189.39999389648</ele>
        <time>2011-08-02T12:49:54.000Z</time>
      </trkpt>
      <trkpt lat="48.74756" lon="1.76298">
        <ele>189.39999389648</ele>
        <time>2011-08-02T12:49:57.000Z</time>
      </trkpt>
      <trkpt lat="48.74747" lon="1.76313">
        <ele>189.60000610352</ele>
        <time>2011-08-02T12:50:05.000Z</time>
      </trkpt>
      <trkpt lat="48.74745" lon="1.76315">
        <ele>189.60000610352</ele>
        <time>2011-08-02T12:50:06.000Z</time>
      </trkpt>
      <trkpt lat="48.74741" lon="1.76321">
        <ele>189.60000610352</ele>
        <time>2011-08-02T12:50:10.000Z</time>
      </trkpt>
      <trkpt lat="48.74736" lon="1.76326">
        <ele>189.60000610352</ele>
        <time>2011-08-02T12:50:15.000Z</time>
      </trkpt>
      <trkpt lat="48.74729" lon="1.76338">
        <ele>189.39999389648</ele>
        <time>2011-08-02T12:50:22.000Z</time>
      </trkpt>
      <trkpt lat="48.74722" lon="1.76347">
        <ele>189.19999694824</ele>
        <time>2011-08-02T12:50:28.000Z</time>
      </trkpt>
      <trkpt lat="48.74713" lon="1.76356">
        <ele>188.80000305176</ele>
        <time>2011-08-02T12:50:36.000Z</time>
      </trkpt>
      <trkpt lat="48.74712" lon="1.76357">
        <ele>188.80000305176</ele>
        <time>2011-08-02T12:50:37.000Z</time>
      </trkpt>
      <trkpt lat="48.74707" lon="1.76362">
        <ele>188.60000610352</ele>
        <time>2011-08-02T12:50:42.000Z</time>
      </trkpt>
      <trkpt lat="48.74697" lon="1.76371">
        <ele>188.39999389648</ele>
        <time>2011-08-02T12:50:53.000Z</time>
      </trkpt>
      <trkpt lat="48.74692" lon="1.76382">
        <ele>188.60000610352</ele>
        <time>2011-08-02T12:51:00.000Z</time>
      </trkpt>
      <trkpt lat="48.74685" lon="1.76393">
        <ele>188.60000610352</ele>
        <time>2011-08-02T12:51:08.000Z</time>
      </trkpt>
      <trkpt lat="48.74679" lon="1.76403">
        <ele>188.80000305176</ele>
        <time>2011-08-02T12:51:15.000Z</time>
      </trkpt>
      <trkpt lat="48.74678" lon="1.76405">
        <ele>188.80000305176</ele>
        <time>2011-08-02T12:51:18.000Z</time>
      </trkpt>
      <trkpt lat="48.74672" lon="1.76414">
        <ele>189</ele>
        <time>2011-08-02T12:51:24.000Z</time>
      </trkpt>
      <trkpt lat="48.74666" lon="1.76425">
        <ele>188.80000305176</ele>
        <time>2011-08-02T12:51:31.000Z</time>
      </trkpt>
      <trkpt lat="48.74658" lon="1.76437">
        <ele>188</ele>
        <time>2011-08-02T12:51:40.000Z</time>
      </trkpt>
      <trkpt lat="48.7465" lon="1.7645">
        <ele>187.19999694824</ele>
        <time>2011-08-02T12:51:48.000Z</time>
      </trkpt>
      <trkpt lat="48.74643" lon="1.76462">
        <ele>186.80000305176</ele>
        <time>2011-08-02T12:51:56.000Z</time>
      </trkpt>
      <trkpt lat="48.74631" lon="1.7648">
        <ele>186.39999389648</ele>
        <time>2011-08-02T12:52:07.000Z</time>
      </trkpt>
      <trkpt lat="48.74626" lon="1.76489">
        <ele>186.39999389648</ele>
        <time>2011-08-02T12:52:14.000Z</time>
      </trkpt>
      <trkpt lat="48.74615" lon="1.76503">
        <ele>186.39999389648</ele>
        <time>2011-08-02T12:52:53.000Z</time>
      </trkpt>
      <trkpt lat="48.74609" lon="1.76516">
        <ele>186.39999389648</ele>
        <time>2011-08-02T12:53:00.000Z</time>
      </trkpt>
      <trkpt lat="48.74606" lon="1.76522">
        <ele>186.60000610352</ele>
        <time>2011-08-02T12:53:06.000Z</time>
      </trkpt>
      <trkpt lat="48.74603" lon="1.7653">
        <ele>186.60000610352</ele>
        <time>2011-08-02T12:53:13.000Z</time>
      </trkpt>
      <trkpt lat="48.74597" lon="1.76539">
        <ele>186.39999389648</ele>
        <time>2011-08-02T12:53:19.000Z</time>
      </trkpt>
      <trkpt lat="48.74592" lon="1.76547">
        <ele>186.39999389648</ele>
        <time>2011-08-02T12:53:24.000Z</time>
      </trkpt>
      <trkpt lat="48.74587" lon="1.7656">
        <ele>186.60000610352</ele>
        <time>2011-08-02T12:53:31.000Z</time>
      </trkpt>
      <trkpt lat="48.74581" lon="1.76572">
        <ele>186.39999389648</ele>
        <time>2011-08-02T12:53:38.000Z</time>
      </trkpt>
      <trkpt lat="48.74575" lon="1.76581">
        <ele>186</ele>
        <time>2011-08-02T12:53:44.000Z</time>
      </trkpt>
      <trkpt lat="48.74569" lon="1.76592">
        <ele>185.60000610352</ele>
        <time>2011-08-02T12:53:52.000Z</time>
      </trkpt>
      <trkpt lat="48.74562" lon="1.76599">
        <ele>185.19999694824</ele>
        <time>2011-08-02T12:53:57.000Z</time>
      </trkpt>
      <trkpt lat="48.74556" lon="1.76608">
        <ele>184.80000305176</ele>
        <time>2011-08-02T12:54:03.000Z</time>
      </trkpt>
      <trkpt lat="48.74551" lon="1.76619">
        <ele>184.60000610352</ele>
        <time>2011-08-02T12:54:09.000Z</time>
      </trkpt>
      <trkpt lat="48.74545" lon="1.7663">
        <ele>184.39999389648</ele>
        <time>2011-08-02T12:54:15.000Z</time>
      </trkpt>
      <trkpt lat="48.74539" lon="1.7664">
        <ele>184</ele>
        <time>2011-08-02T12:54:22.000Z</time>
      </trkpt>
      <trkpt lat="48.74534" lon="1.76645">
        <ele>183.80000305176</ele>
        <time>2011-08-02T12:54:26.000Z</time>
      </trkpt>
      <trkpt lat="48.74528" lon="1.76654">
        <ele>183.60000610352</ele>
        <time>2011-08-02T12:54:32.000Z</time>
      </trkpt>
      <trkpt lat="48.74522" lon="1.76662">
        <ele>183.39999389648</ele>
        <time>2011-08-02T12:54:37.000Z</time>
      </trkpt>
      <trkpt lat="48.74521" lon="1.76665">
        <ele>183.39999389648</ele>
        <time>2011-08-02T12:54:39.000Z</time>
      </trkpt>
      <trkpt lat="48.74514" lon="1.76673">
        <ele>183.19999694824</ele>
        <time>2011-08-02T12:54:45.000Z</time>
      </trkpt>
      <trkpt lat="48.74506" lon="1.76683">
        <ele>183.19999694824</ele>
        <time>2011-08-02T12:54:53.000Z</time>
      </trkpt>
      <trkpt lat="48.74499" lon="1.76691">
        <ele>183.19999694824</ele>
        <time>2011-08-02T12:54:59.000Z</time>
      </trkpt>
      <trkpt lat="48.74493" lon="1.76701">
        <ele>182.80000305176</ele>
        <time>2011-08-02T12:55:05.000Z</time>
      </trkpt>
      <trkpt lat="48.7449" lon="1.76708">
        <ele>182.80000305176</ele>
        <time>2011-08-02T12:55:09.000Z</time>
      </trkpt>
      <trkpt lat="48.74484" lon="1.76714">
        <ele>182.39999389648</ele>
        <time>2011-08-02T12:55:14.000Z</time>
      </trkpt>
      <trkpt lat="48.74478" lon="1.76723">
        <ele>182</ele>
        <time>2011-08-02T12:55:20.000Z</time>
      </trkpt>
      <trkpt lat="48.7447" lon="1.76733">
        <ele>181.80000305176</ele>
        <time>2011-08-02T12:55:27.000Z</time>
      </trkpt>
      <trkpt lat="48.74464" lon="1.76741">
        <ele>181.39999389648</ele>
        <time>2011-08-02T12:55:33.000Z</time>
      </trkpt>
      <trkpt lat="48.74457" lon="1.7675">
        <ele>181.19999694824</ele>
        <time>2011-08-02T12:55:39.000Z</time>
      </trkpt>
      <trkpt lat="48.74453" lon="1.76759">
        <ele>181</ele>
        <time>2011-08-02T12:55:44.000Z</time>
      </trkpt>
      <trkpt lat="48.74447" lon="1.76767">
        <ele>180.80000305176</ele>
        <time>2011-08-02T12:55:50.000Z</time>
      </trkpt>
      <trkpt lat="48.74439" lon="1.76781">
        <ele>180.60000610352</ele>
        <time>2011-08-02T12:55:59.000Z</time>
      </trkpt>
      <trkpt lat="48.74429" lon="1.76794">
        <ele>180.19999694824</ele>
        <time>2011-08-02T12:56:09.000Z</time>
      </trkpt>
      <trkpt lat="48.74424" lon="1.76801">
        <ele>180.19999694824</ele>
        <time>2011-08-02T12:56:14.000Z</time>
      </trkpt>
      <trkpt lat="48.74411" lon="1.76818">
        <ele>179.39999389648</ele>
        <time>2011-08-02T12:56:26.000Z</time>
      </trkpt>
      <trkpt lat="48.74403" lon="1.76831">
        <ele>178.60000610352</ele>
        <time>2011-08-02T12:56:34.000Z</time>
      </trkpt>
      <trkpt lat="48.74397" lon="1.76845">
        <ele>178.19999694824</ele>
        <time>2011-08-02T12:56:42.000Z</time>
      </trkpt>
      <trkpt lat="48.74392" lon="1.76862">
        <ele>178</ele>
        <time>2011-08-02T12:56:50.000Z</time>
      </trkpt>
      <trkpt lat="48.74386" lon="1.76875">
        <ele>177.60000610352</ele>
        <time>2011-08-02T12:56:58.000Z</time>
      </trkpt>
      <trkpt lat="48.74379" lon="1.76887">
        <ele>177.19999694824</ele>
        <time>2011-08-02T12:57:05.000Z</time>
      </trkpt>
      <trkpt lat="48.74373" lon="1.76897">
        <ele>176.80000305176</ele>
        <time>2011-08-02T12:57:11.000Z</time>
      </trkpt>
      <trkpt lat="48.74363" lon="1.7691">
        <ele>176.19999694824</ele>
        <time>2011-08-02T12:57:21.000Z</time>
      </trkpt>
      <trkpt lat="48.74357" lon="1.76919">
        <ele>176</ele>
        <time>2011-08-02T12:57:27.000Z</time>
      </trkpt>
      <trkpt lat="48.74351" lon="1.76927">
        <ele>175.60000610352</ele>
        <time>2011-08-02T12:57:34.000Z</time>
      </trkpt>
      <trkpt lat="48.74349" lon="1.76931">
        <ele>175.60000610352</ele>
        <time>2011-08-02T12:57:37.000Z</time>
      </trkpt>
      <trkpt lat="48.74345" lon="1.76945">
        <ele>175.60000610352</ele>
        <time>2011-08-02T12:57:44.000Z</time>
      </trkpt>
      <trkpt lat="48.74339" lon="1.7696">
        <ele>175.60000610352</ele>
        <time>2011-08-02T12:57:52.000Z</time>
      </trkpt>
      <trkpt lat="48.74335" lon="1.76973">
        <ele>175.80000305176</ele>
        <time>2011-08-02T12:57:59.000Z</time>
      </trkpt>
      <trkpt lat="48.74331" lon="1.76992">
        <ele>176</ele>
        <time>2011-08-02T12:58:07.000Z</time>
      </trkpt>
      <trkpt lat="48.74332" lon="1.77003">
        <ele>176.60000610352</ele>
        <time>2011-08-02T12:58:12.000Z</time>
      </trkpt>
      <trkpt lat="48.74333" lon="1.77015">
        <ele>177.19999694824</ele>
        <time>2011-08-02T12:58:18.000Z</time>
      </trkpt>
      <trkpt lat="48.74331" lon="1.77031">
        <ele>177.39999389648</ele>
        <time>2011-08-02T12:58:26.000Z</time>
      </trkpt>
      <trkpt lat="48.74331" lon="1.7704">
        <ele>177.80000305176</ele>
        <time>2011-08-02T12:58:31.000Z</time>
      </trkpt>
      <trkpt lat="48.74327" lon="1.77051">
        <ele>177.39999389648</ele>
        <time>2011-08-02T12:58:36.000Z</time>
      </trkpt>
      <trkpt lat="48.74327" lon="1.77055">
        <ele>177.39999389648</ele>
        <time>2011-08-02T12:58:38.000Z</time>
      </trkpt>
      <trkpt lat="48.74326" lon="1.77061">
        <ele>177.39999389648</ele>
        <time>2011-08-02T12:58:42.000Z</time>
      </trkpt>
      <trkpt lat="48.74324" lon="1.77077">
        <ele>177.39999389648</ele>
        <time>2011-08-02T12:58:49.000Z</time>
      </trkpt>
      <trkpt lat="48.74323" lon="1.77094">
        <ele>177.39999389648</ele>
        <time>2011-08-02T12:58:57.000Z</time>
      </trkpt>
      <trkpt lat="48.74324" lon="1.77105">
        <ele>177.60000610352</ele>
        <time>2011-08-02T12:59:02.000Z</time>
      </trkpt>
      <trkpt lat="48.74321" lon="1.77117">
        <ele>177.19999694824</ele>
        <time>2011-08-02T12:59:08.000Z</time>
      </trkpt>
      <trkpt lat="48.74321" lon="1.77128">
        <ele>177</ele>
        <time>2011-08-02T12:59:15.000Z</time>
      </trkpt>
      <trkpt lat="48.74321" lon="1.7713">
        <ele>177.19999694824</ele>
        <time>2011-08-02T12:59:16.000Z</time>
      </trkpt>
      <trkpt lat="48.74318" lon="1.77142">
        <ele>176.80000305176</ele>
        <time>2011-08-02T12:59:23.000Z</time>
      </trkpt>
      <trkpt lat="48.74313" lon="1.77156">
        <ele>176.19999694824</ele>
        <time>2011-08-02T12:59:31.000Z</time>
      </trkpt>
      <trkpt lat="48.74306" lon="1.77172">
        <ele>175.60000610352</ele>
        <time>2011-08-02T12:59:39.000Z</time>
      </trkpt>
      <trkpt lat="48.743" lon="1.77185">
        <ele>175.39999389648</ele>
        <time>2011-08-02T12:59:46.000Z</time>
      </trkpt>
      <trkpt lat="48.74294" lon="1.77202">
        <ele>175.80000305176</ele>
        <time>2011-08-02T12:59:55.000Z</time>
      </trkpt>
      <trkpt lat="48.74292" lon="1.77214">
        <ele>176.39999389648</ele>
        <time>2011-08-02T13:00:02.000Z</time>
      </trkpt>
      <trkpt lat="48.74291" lon="1.77227">
        <ele>177</ele>
        <time>2011-08-02T13:00:09.000Z</time>
      </trkpt>
      <trkpt lat="48.74288" lon="1.77239">
        <ele>177.60000610352</ele>
        <time>2011-08-02T13:00:16.000Z</time>
      </trkpt>
      <trkpt lat="48.74283" lon="1.77251">
        <ele>177.80000305176</ele>
        <time>2011-08-02T13:00:23.000Z</time>
      </trkpt>
      <trkpt lat="48.74277" lon="1.77256">
        <ele>177.80000305176</ele>
        <time>2011-08-02T13:00:29.000Z</time>
      </trkpt>
      <trkpt lat="48.74269" lon="1.77265">
        <ele>178</ele>
        <time>2011-08-02T13:00:36.000Z</time>
      </trkpt>
      <trkpt lat="48.74269" lon="1.77266">
        <ele>178.19999694824</ele>
        <time>2011-08-02T13:00:37.000Z</time>
      </trkpt>
      <trkpt lat="48.74262" lon="1.77272">
        <ele>178.19999694824</ele>
        <time>2011-08-02T13:00:43.000Z</time>
      </trkpt>
      <trkpt lat="48.74261" lon="1.77274">
        <ele>178.39999389648</ele>
        <time>2011-08-02T13:00:45.000Z</time>
      </trkpt>
      <trkpt lat="48.74253" lon="1.77282">
        <ele>178.60000610352</ele>
        <time>2011-08-02T13:00:51.000Z</time>
      </trkpt>
      <trkpt lat="48.74244" lon="1.77289">
        <ele>178.60000610352</ele>
        <time>2011-08-02T13:00:58.000Z</time>
      </trkpt>
      <trkpt lat="48.74243" lon="1.7729">
        <ele>178.60000610352</ele>
        <time>2011-08-02T13:00:59.000Z</time>
      </trkpt>
      <trkpt lat="48.74232" lon="1.773">
        <ele>178.60000610352</ele>
        <time>2011-08-02T13:01:07.000Z</time>
      </trkpt>
      <trkpt lat="48.74224" lon="1.77304">
        <ele>178.19999694824</ele>
        <time>2011-08-02T13:01:13.000Z</time>
      </trkpt>
      <trkpt lat="48.74213" lon="1.77308">
        <ele>177.80000305176</ele>
        <time>2011-08-02T13:01:21.000Z</time>
      </trkpt>
      <trkpt lat="48.74203" lon="1.77308">
        <ele>176.80000305176</ele>
        <time>2011-08-02T13:01:29.000Z</time>
      </trkpt>
      <trkpt lat="48.74192" lon="1.77303">
        <ele>175.39999389648</ele>
        <time>2011-08-02T13:01:36.000Z</time>
      </trkpt>
      <trkpt lat="48.74181" lon="1.77296">
        <ele>173.60000610352</ele>
        <time>2011-08-02T13:01:45.000Z</time>
      </trkpt>
      <trkpt lat="48.74171" lon="1.77293">
        <ele>172.39999389648</ele>
        <time>2011-08-02T13:01:52.000Z</time>
      </trkpt>
      <trkpt lat="48.74162" lon="1.77296">
        <ele>172</ele>
        <time>2011-08-02T13:01:59.000Z</time>
      </trkpt>
      <trkpt lat="48.74156" lon="1.77307">
        <ele>172.60000610352</ele>
        <time>2011-08-02T13:02:06.000Z</time>
      </trkpt>
      <trkpt lat="48.74147" lon="1.7732">
        <ele>173.19999694824</ele>
        <time>2011-08-02T13:02:14.000Z</time>
      </trkpt>
      <trkpt lat="48.74139" lon="1.77331">
        <ele>173.39999389648</ele>
        <time>2011-08-02T13:02:21.000Z</time>
      </trkpt>
      <trkpt lat="48.74132" lon="1.77338">
        <ele>172.60000610352</ele>
        <time>2011-08-02T13:02:27.000Z</time>
      </trkpt>
      <trkpt lat="48.74126" lon="1.77348">
        <ele>171.80000305176</ele>
        <time>2011-08-02T13:02:33.000Z</time>
      </trkpt>
      <trkpt lat="48.74117" lon="1.77362">
        <ele>170.60000610352</ele>
        <time>2011-08-02T13:02:41.000Z</time>
      </trkpt>
      <trkpt lat="48.74112" lon="1.7738">
        <ele>169.80000305176</ele>
        <time>2011-08-02T13:02:50.000Z</time>
      </trkpt>
      <trkpt lat="48.74109" lon="1.77393">
        <ele>169.19999694824</ele>
        <time>2011-08-02T13:02:57.000Z</time>
      </trkpt>
      <trkpt lat="48.74105" lon="1.77408">
        <ele>168.60000610352</ele>
        <time>2011-08-02T13:03:05.000Z</time>
      </trkpt>
      <trkpt lat="48.74099" lon="1.77429">
        <ele>167.39999389648</ele>
        <time>2011-08-02T13:03:15.000Z</time>
      </trkpt>
      <trkpt lat="48.74096" lon="1.77442">
        <ele>166.80000305176</ele>
        <time>2011-08-02T13:03:22.000Z</time>
      </trkpt>
      <trkpt lat="48.74089" lon="1.77458">
        <ele>165.60000610352</ele>
        <time>2011-08-02T13:03:30.000Z</time>
      </trkpt>
      <trkpt lat="48.74083" lon="1.77469">
        <ele>164.60000610352</ele>
        <time>2011-08-02T13:03:36.000Z</time>
      </trkpt>
      <trkpt lat="48.74077" lon="1.7748">
        <ele>164.80000305176</ele>
        <time>2011-08-02T13:03:42.000Z</time>
      </trkpt>
      <trkpt lat="48.74072" lon="1.77492">
        <ele>165</ele>
        <time>2011-08-02T13:03:49.000Z</time>
      </trkpt>
      <trkpt lat="48.74064" lon="1.77505">
        <ele>165.19999694824</ele>
        <time>2011-08-02T13:03:57.000Z</time>
      </trkpt>
      <trkpt lat="48.7406" lon="1.77509">
        <ele>165.39999389648</ele>
        <time>2011-08-02T13:04:01.000Z</time>
      </trkpt>
      <trkpt lat="48.74051" lon="1.77514">
        <ele>166</ele>
        <time>2011-08-02T13:04:08.000Z</time>
      </trkpt>
      <trkpt lat="48.74045" lon="1.77519">
        <ele>166.39999389648</ele>
        <time>2011-08-02T13:04:14.000Z</time>
      </trkpt>
      <trkpt lat="48.74034" lon="1.77521">
        <ele>167</ele>
        <time>2011-08-02T13:04:22.000Z</time>
      </trkpt>
      <trkpt lat="48.74025" lon="1.77525">
        <ele>167.80000305176</ele>
        <time>2011-08-02T13:04:29.000Z</time>
      </trkpt>
      <trkpt lat="48.74015" lon="1.77525">
        <ele>168.39999389648</ele>
        <time>2011-08-02T13:04:35.000Z</time>
      </trkpt>
      <trkpt lat="48.7401" lon="1.77525">
        <ele>168.80000305176</ele>
        <time>2011-08-02T13:04:39.000Z</time>
      </trkpt>
      <trkpt lat="48.73997" lon="1.77524">
        <ele>169.60000610352</ele>
        <time>2011-08-02T13:04:48.000Z</time>
      </trkpt>
      <trkpt lat="48.73992" lon="1.77523">
        <ele>169.39999389648</ele>
        <time>2011-08-02T13:04:51.000Z</time>
      </trkpt>
      <trkpt lat="48.73982" lon="1.77522">
        <ele>169.39999389648</ele>
        <time>2011-08-02T13:04:58.000Z</time>
      </trkpt>
      <trkpt lat="48.73971" lon="1.77522">
        <ele>169.19999694824</ele>
        <time>2011-08-02T13:05:05.000Z</time>
      </trkpt>
      <trkpt lat="48.73959" lon="1.77518">
        <ele>168.80000305176</ele>
        <time>2011-08-02T13:05:14.000Z</time>
      </trkpt>
      <trkpt lat="48.73956" lon="1.77517">
        <ele>168.80000305176</ele>
        <time>2011-08-02T13:05:16.000Z</time>
      </trkpt>
      <trkpt lat="48.7395" lon="1.77514">
        <ele>168.60000610352</ele>
        <time>2011-08-02T13:05:21.000Z</time>
      </trkpt>
      <trkpt lat="48.73947" lon="1.77514">
        <ele>168.39999389648</ele>
        <time>2011-08-02T13:05:24.000Z</time>
      </trkpt>
      <trkpt lat="48.73937" lon="1.77516">
        <ele>168.39999389648</ele>
        <time>2011-08-02T13:05:32.000Z</time>
      </trkpt>
      <trkpt lat="48.73925" lon="1.77516">
        <ele>168</ele>
        <time>2011-08-02T13:05:39.000Z</time>
      </trkpt>
      <trkpt lat="48.73912" lon="1.77509">
        <ele>167.19999694824</ele>
        <time>2011-08-02T13:05:47.000Z</time>
      </trkpt>
      <trkpt lat="48.73899" lon="1.77503">
        <ele>166</ele>
        <time>2011-08-02T13:05:54.000Z</time>
      </trkpt>
      <trkpt lat="48.73891" lon="1.77495">
        <ele>165.39999389648</ele>
        <time>2011-08-02T13:06:00.000Z</time>
      </trkpt>
      <trkpt lat="48.73885" lon="1.77485">
        <ele>165.39999389648</ele>
        <time>2011-08-02T13:06:06.000Z</time>
      </trkpt>
      <trkpt lat="48.73876" lon="1.77467">
        <ele>165.19999694824</ele>
        <time>2011-08-02T13:06:16.000Z</time>
      </trkpt>
      <trkpt lat="48.7387" lon="1.77454">
        <ele>165.19999694824</ele>
        <time>2011-08-02T13:06:24.000Z</time>
      </trkpt>
      <trkpt lat="48.73864" lon="1.77446">
        <ele>165.19999694824</ele>
        <time>2011-08-02T13:06:30.000Z</time>
      </trkpt>
      <trkpt lat="48.73864" lon="1.77446">
        <ele>165.19999694824</ele>
        <time>2011-08-02T13:06:32.000Z</time>
      </trkpt>
      <trkpt lat="48.73857" lon="1.77438">
        <ele>165.19999694824</ele>
        <time>2011-08-02T13:07:15.000Z</time>
      </trkpt>
      <trkpt lat="48.73849" lon="1.77426">
        <ele>165.19999694824</ele>
        <time>2011-08-02T13:07:21.000Z</time>
      </trkpt>
      <trkpt lat="48.7384" lon="1.77415">
        <ele>165.19999694824</ele>
        <time>2011-08-02T13:07:29.000Z</time>
      </trkpt>
      <trkpt lat="48.73834" lon="1.77406">
        <ele>165.39999389648</ele>
        <time>2011-08-02T13:07:35.000Z</time>
      </trkpt>
      <trkpt lat="48.73831" lon="1.774">
        <ele>165.60000610352</ele>
        <time>2011-08-02T13:07:38.000Z</time>
      </trkpt>
      <trkpt lat="48.7383" lon="1.77392">
        <ele>166</ele>
        <time>2011-08-02T13:07:43.000Z</time>
      </trkpt>
      <trkpt lat="48.7383" lon="1.77384">
        <ele>166.39999389648</ele>
        <time>2011-08-02T13:07:48.000Z</time>
      </trkpt>
      <trkpt lat="48.7383" lon="1.7737">
        <ele>166.80000305176</ele>
        <time>2011-08-02T13:07:55.000Z</time>
      </trkpt>
      <trkpt lat="48.73831" lon="1.77362">
        <ele>167</ele>
        <time>2011-08-02T13:07:59.000Z</time>
      </trkpt>
      <trkpt lat="48.73835" lon="1.77351">
        <ele>167.19999694824</ele>
        <time>2011-08-02T13:08:08.000Z</time>
      </trkpt>
      <trkpt lat="48.73841" lon="1.77339">
        <ele>167.39999389648</ele>
        <time>2011-08-02T13:08:15.000Z</time>
      </trkpt>
      <trkpt lat="48.73844" lon="1.77333">
        <ele>167.39999389648</ele>
        <time>2011-08-02T13:08:18.000Z</time>
      </trkpt>
      <trkpt lat="48.73849" lon="1.7732">
        <ele>167.19999694824</ele>
        <time>2011-08-02T13:08:26.000Z</time>
      </trkpt>
      <trkpt lat="48.73854" lon="1.7731">
        <ele>166.80000305176</ele>
        <time>2011-08-02T13:08:33.000Z</time>
      </trkpt>
      <trkpt lat="48.73856" lon="1.77308">
        <ele>166.60000610352</ele>
        <time>2011-08-02T13:08:35.000Z</time>
      </trkpt>
      <trkpt lat="48.73858" lon="1.77305">
        <ele>166.60000610352</ele>
        <time>2011-08-02T13:08:37.000Z</time>
      </trkpt>
      <trkpt lat="48.73861" lon="1.77297">
        <ele>166.19999694824</ele>
        <time>2011-08-02T13:08:42.000Z</time>
      </trkpt>
      <trkpt lat="48.73864" lon="1.77294">
        <ele>166</ele>
        <time>2011-08-02T13:08:45.000Z</time>
      </trkpt>
      <trkpt lat="48.73872" lon="1.77282">
        <ele>165.60000610352</ele>
        <time>2011-08-02T13:08:52.000Z</time>
      </trkpt>
      <trkpt lat="48.73876" lon="1.77269">
        <ele>165</ele>
        <time>2011-08-02T13:08:59.000Z</time>
      </trkpt>
      <trkpt lat="48.73876" lon="1.77267">
        <ele>165</ele>
        <time>2011-08-02T13:09:00.000Z</time>
      </trkpt>
      <trkpt lat="48.73879" lon="1.77259">
        <ele>164.80000305176</ele>
        <time>2011-08-02T13:09:04.000Z</time>
      </trkpt>
      <trkpt lat="48.73884" lon="1.77253">
        <ele>164.19999694824</ele>
        <time>2011-08-02T13:09:09.000Z</time>
      </trkpt>
      <trkpt lat="48.73891" lon="1.77241">
        <ele>163.80000305176</ele>
        <time>2011-08-02T13:09:16.000Z</time>
      </trkpt>
      <trkpt lat="48.73892" lon="1.77239">
        <ele>163.80000305176</ele>
        <time>2011-08-02T13:09:17.000Z</time>
      </trkpt>
      <trkpt lat="48.739" lon="1.77234">
        <ele>163.19999694824</ele>
        <time>2011-08-02T13:09:25.000Z</time>
      </trkpt>
      <trkpt lat="48.73905" lon="1.77232">
        <ele>163</ele>
        <time>2011-08-02T13:09:28.000Z</time>
      </trkpt>
      <trkpt lat="48.73914" lon="1.77225">
        <ele>162.39999389648</ele>
        <time>2011-08-02T13:09:35.000Z</time>
      </trkpt>
      <trkpt lat="48.73915" lon="1.77224">
        <ele>162.39999389648</ele>
        <time>2011-08-02T13:09:36.000Z</time>
      </trkpt>
      <trkpt lat="48.73923" lon="1.77219">
        <ele>162.19999694824</ele>
        <time>2011-08-02T13:09:41.000Z</time>
      </trkpt>
      <trkpt lat="48.73933" lon="1.77215">
        <ele>161.80000305176</ele>
        <time>2011-08-02T13:09:48.000Z</time>
      </trkpt>
      <trkpt lat="48.73945" lon="1.77211">
        <ele>161.39999389648</ele>
        <time>2011-08-02T13:09:56.000Z</time>
      </trkpt>
      <trkpt lat="48.73955" lon="1.77206">
        <ele>161</ele>
        <time>2011-08-02T13:10:02.000Z</time>
      </trkpt>
      <trkpt lat="48.73965" lon="1.77201">
        <ele>160.39999389648</ele>
        <time>2011-08-02T13:10:09.000Z</time>
      </trkpt>
      <trkpt lat="48.73974" lon="1.77194">
        <ele>159.80000305176</ele>
        <time>2011-08-02T13:10:16.000Z</time>
      </trkpt>
      <trkpt lat="48.73984" lon="1.77186">
        <ele>159</ele>
        <time>2011-08-02T13:10:25.000Z</time>
      </trkpt>
      <trkpt lat="48.7399" lon="1.77179">
        <ele>158.19999694824</ele>
        <time>2011-08-02T13:10:31.000Z</time>
      </trkpt>
      <trkpt lat="48.73996" lon="1.77169">
        <ele>157.39999389648</ele>
        <time>2011-08-02T13:10:37.000Z</time>
      </trkpt>
      <trkpt lat="48.74006" lon="1.77157">
        <ele>156.80000305176</ele>
        <time>2011-08-02T13:10:46.000Z</time>
      </trkpt>
      <trkpt lat="48.74012" lon="1.77149">
        <ele>156.80000305176</ele>
        <time>2011-08-02T13:10:51.000Z</time>
      </trkpt>
      <trkpt lat="48.74022" lon="1.77134">
        <ele>156.60000610352</ele>
        <time>2011-08-02T13:11:00.000Z</time>
      </trkpt>
      <trkpt lat="48.74029" lon="1.77124">
        <ele>156.39999389648</ele>
        <time>2011-08-02T13:11:07.000Z</time>
      </trkpt>
      <trkpt lat="48.74038" lon="1.77111">
        <ele>156</ele>
        <time>2011-08-02T13:11:15.000Z</time>
      </trkpt>
      <trkpt lat="48.74045" lon="1.77099">
        <ele>155.80000305176</ele>
        <time>2011-08-02T13:11:22.000Z</time>
      </trkpt>
      <trkpt lat="48.74052" lon="1.77088">
        <ele>155.39999389648</ele>
        <time>2011-08-02T13:11:29.000Z</time>
      </trkpt>
      <trkpt lat="48.74057" lon="1.77079">
        <ele>155.19999694824</ele>
        <time>2011-08-02T13:11:35.000Z</time>
      </trkpt>
      <trkpt lat="48.74064" lon="1.77067">
        <ele>154.80000305176</ele>
        <time>2011-08-02T13:11:43.000Z</time>
      </trkpt>
      <trkpt lat="48.74071" lon="1.77054">
        <ele>154.60000610352</ele>
        <time>2011-08-02T13:11:51.000Z</time>
      </trkpt>
      <trkpt lat="48.74076" lon="1.7704">
        <ele>154.39999389648</ele>
        <time>2011-08-02T13:11:59.000Z</time>
      </trkpt>
      <trkpt lat="48.74085" lon="1.77024">
        <ele>153.80000305176</ele>
        <time>2011-08-02T13:12:08.000Z</time>
      </trkpt>
      <trkpt lat="48.74091" lon="1.7701">
        <ele>153.80000305176</ele>
        <time>2011-08-02T13:12:15.000Z</time>
      </trkpt>
      <trkpt lat="48.74097" lon="1.76998">
        <ele>153.60000610352</ele>
        <time>2011-08-02T13:12:23.000Z</time>
      </trkpt>
      <trkpt lat="48.74102" lon="1.7699">
        <ele>153.39999389648</ele>
        <time>2011-08-02T13:12:28.000Z</time>
      </trkpt>
      <trkpt lat="48.74106" lon="1.76987">
        <ele>153.39999389648</ele>
        <time>2011-08-02T13:12:34.000Z</time>
      </trkpt>
      <trkpt lat="48.7411" lon="1.76978">
        <ele>153.19999694824</ele>
        <time>2011-08-02T13:12:40.000Z</time>
      </trkpt>
      <trkpt lat="48.74111" lon="1.76975">
        <ele>153.19999694824</ele>
        <time>2011-08-02T13:12:42.000Z</time>
      </trkpt>
      <trkpt lat="48.7412" lon="1.7696">
        <ele>153</ele>
        <time>2011-08-02T13:12:51.000Z</time>
      </trkpt>
      <trkpt lat="48.74125" lon="1.7695">
        <ele>152.80000305176</ele>
        <time>2011-08-02T13:12:58.000Z</time>
      </trkpt>
      <trkpt lat="48.7413" lon="1.76936">
        <ele>152.80000305176</ele>
        <time>2011-08-02T13:13:05.000Z</time>
      </trkpt>
      <trkpt lat="48.74135" lon="1.76921">
        <ele>152.60000610352</ele>
        <time>2011-08-02T13:13:13.000Z</time>
      </trkpt>
      <trkpt lat="48.74139" lon="1.76908">
        <ele>152.60000610352</ele>
        <time>2011-08-02T13:13:20.000Z</time>
      </trkpt>
      <trkpt lat="48.74144" lon="1.76899">
        <ele>152.39999389648</ele>
        <time>2011-08-02T13:13:28.000Z</time>
      </trkpt>
      <trkpt lat="48.74151" lon="1.76885">
        <ele>152.19999694824</ele>
        <time>2011-08-02T13:13:35.000Z</time>
      </trkpt>
      <trkpt lat="48.74152" lon="1.76883">
        <ele>152.19999694824</ele>
        <time>2011-08-02T13:13:36.000Z</time>
      </trkpt>
      <trkpt lat="48.74158" lon="1.76869">
        <ele>151.80000305176</ele>
        <time>2011-08-02T13:13:44.000Z</time>
      </trkpt>
      <trkpt lat="48.74164" lon="1.76857">
        <ele>151.39999389648</ele>
        <time>2011-08-02T13:13:51.000Z</time>
      </trkpt>
      <trkpt lat="48.74173" lon="1.76839">
        <ele>151</ele>
        <time>2011-08-02T13:13:59.000Z</time>
      </trkpt>
      <trkpt lat="48.74179" lon="1.76825">
        <ele>151.19999694824</ele>
        <time>2011-08-02T13:14:06.000Z</time>
      </trkpt>
      <trkpt lat="48.74188" lon="1.76804">
        <ele>151.39999389648</ele>
        <time>2011-08-02T13:14:17.000Z</time>
      </trkpt>
      <trkpt lat="48.74196" lon="1.76788">
        <ele>151.39999389648</ele>
        <time>2011-08-02T13:14:26.000Z</time>
      </trkpt>
      <trkpt lat="48.74199" lon="1.76782">
        <ele>151.39999389648</ele>
        <time>2011-08-02T13:14:30.000Z</time>
      </trkpt>
      <trkpt lat="48.74199" lon="1.76774">
        <ele>151.39999389648</ele>
        <time>2011-08-02T13:14:35.000Z</time>
      </trkpt>
      <trkpt lat="48.74199" lon="1.76774">
        <ele>151.39999389648</ele>
        <time>2011-08-02T13:14:36.000Z</time>
      </trkpt>
      <trkpt lat="48.74204" lon="1.76747">
        <ele>151.19999694824</ele>
        <time>2011-08-02T13:15:11.000Z</time>
      </trkpt>
      <trkpt lat="48.74206" lon="1.76734">
        <ele>151</ele>
        <time>2011-08-02T13:15:16.000Z</time>
      </trkpt>
      <trkpt lat="48.74209" lon="1.76716">
        <ele>150.60000610352</ele>
        <time>2011-08-02T13:15:24.000Z</time>
      </trkpt>
      <trkpt lat="48.74216" lon="1.76686">
        <ele>150.19999694824</ele>
        <time>2011-08-02T13:15:30.000Z</time>
      </trkpt>
      <trkpt lat="48.74225" lon="1.76649">
        <ele>150</ele>
        <time>2011-08-02T13:15:36.000Z</time>
      </trkpt>
      <trkpt lat="48.74229" lon="1.76636">
        <ele>150</ele>
        <time>2011-08-02T13:15:38.000Z</time>
      </trkpt>
      <trkpt lat="48.74242" lon="1.7661">
        <ele>149.80000305176</ele>
        <time>2011-08-02T13:15:43.000Z</time>
      </trkpt>
      <trkpt lat="48.74247" lon="1.76583">
        <ele>150</ele>
        <time>2011-08-02T13:15:48.000Z</time>
      </trkpt>
      <trkpt lat="48.74248" lon="1.76546">
        <ele>150.80000305176</ele>
        <time>2011-08-02T13:15:54.000Z</time>
      </trkpt>
      <trkpt lat="48.74235" lon="1.76502">
        <ele>152.19999694824</ele>
        <time>2011-08-02T13:16:00.000Z</time>
      </trkpt>
      <trkpt lat="48.74233" lon="1.76496">
        <ele>152.39999389648</ele>
        <time>2011-08-02T13:16:01.000Z</time>
      </trkpt>
      <trkpt lat="48.74224" lon="1.76475">
        <ele>153.19999694824</ele>
        <time>2011-08-02T13:16:04.000Z</time>
      </trkpt>
      <trkpt lat="48.74218" lon="1.76455">
        <ele>154</ele>
        <time>2011-08-02T13:16:07.000Z</time>
      </trkpt>
      <trkpt lat="48.74216" lon="1.76422">
        <ele>155.19999694824</ele>
        <time>2011-08-02T13:16:12.000Z</time>
      </trkpt>
      <trkpt lat="48.7422" lon="1.76409">
        <ele>155.39999389648</ele>
        <time>2011-08-02T13:16:14.000Z</time>
      </trkpt>
      <trkpt lat="48.74226" lon="1.76386">
        <ele>155.60000610352</ele>
        <time>2011-08-02T13:16:18.000Z</time>
      </trkpt>
      <trkpt lat="48.74218" lon="1.76374">
        <ele>157</ele>
        <time>2011-08-02T13:16:22.000Z</time>
      </trkpt>
      <trkpt lat="48.74199" lon="1.76363">
        <ele>159.60000610352</ele>
        <time>2011-08-02T13:16:28.000Z</time>
      </trkpt>
      <trkpt lat="48.74186" lon="1.7636">
        <ele>161.19999694824</ele>
        <time>2011-08-02T13:16:33.000Z</time>
      </trkpt>
      <trkpt lat="48.74178" lon="1.76358">
        <ele>162.39999389648</ele>
        <time>2011-08-02T13:16:39.000Z</time>
      </trkpt>
      <trkpt lat="48.74169" lon="1.76357">
        <ele>163.60000610352</ele>
        <time>2011-08-02T13:16:46.000Z</time>
      </trkpt>
      <trkpt lat="48.74162" lon="1.76354">
        <ele>164.80000305176</ele>
        <time>2011-08-02T13:16:52.000Z</time>
      </trkpt>
      <trkpt lat="48.74156" lon="1.76354">
        <ele>165.60000610352</ele>
        <time>2011-08-02T13:16:57.000Z</time>
      </trkpt>
      <trkpt lat="48.74148" lon="1.76353">
        <ele>166.60000610352</ele>
        <time>2011-08-02T13:17:03.000Z</time>
      </trkpt>
      <trkpt lat="48.7414" lon="1.76353">
        <ele>167.80000305176</ele>
        <time>2011-08-02T13:17:09.000Z</time>
      </trkpt>
      <trkpt lat="48.74133" lon="1.76348">
        <ele>169</ele>
        <time>2011-08-02T13:17:16.000Z</time>
      </trkpt>
      <trkpt lat="48.74128" lon="1.7635">
        <ele>169.60000610352</ele>
        <time>2011-08-02T13:17:21.000Z</time>
      </trkpt>
      <trkpt lat="48.74118" lon="1.76351">
        <ele>170.80000305176</ele>
        <time>2011-08-02T13:17:29.000Z</time>
      </trkpt>
      <trkpt lat="48.74108" lon="1.76351">
        <ele>172</ele>
        <time>2011-08-02T13:17:36.000Z</time>
      </trkpt>
      <trkpt lat="48.74098" lon="1.76348">
        <ele>173.39999389648</ele>
        <time>2011-08-02T13:17:44.000Z</time>
      </trkpt>
      <trkpt lat="48.74094" lon="1.7635">
        <ele>173.80000305176</ele>
        <time>2011-08-02T13:17:47.000Z</time>
      </trkpt>
      <trkpt lat="48.74088" lon="1.7635">
        <ele>174.60000610352</ele>
        <time>2011-08-02T13:17:51.000Z</time>
      </trkpt>
      <trkpt lat="48.74077" lon="1.76351">
        <ele>175.60000610352</ele>
        <time>2011-08-02T13:17:59.000Z</time>
      </trkpt>
      <trkpt lat="48.74069" lon="1.76349">
        <ele>176.19999694824</ele>
        <time>2011-08-02T13:18:06.000Z</time>
      </trkpt>
      <trkpt lat="48.74061" lon="1.76348">
        <ele>176.80000305176</ele>
        <time>2011-08-02T13:18:13.000Z</time>
      </trkpt>
      <trkpt lat="48.74058" lon="1.76348">
        <ele>177</ele>
        <time>2011-08-02T13:18:15.000Z</time>
      </trkpt>
      <trkpt lat="48.74051" lon="1.7635">
        <ele>177.39999389648</ele>
        <time>2011-08-02T13:18:22.000Z</time>
      </trkpt>
      <trkpt lat="48.74043" lon="1.76352">
        <ele>177.80000305176</ele>
        <time>2011-08-02T13:18:29.000Z</time>
      </trkpt>
      <trkpt lat="48.74032" lon="1.76354">
        <ele>178.39999389648</ele>
        <time>2011-08-02T13:18:37.000Z</time>
      </trkpt>
      <trkpt lat="48.74022" lon="1.76361">
        <ele>178.80000305176</ele>
        <time>2011-08-02T13:18:45.000Z</time>
      </trkpt>
      <trkpt lat="48.74013" lon="1.76364">
        <ele>179.39999389648</ele>
        <time>2011-08-02T13:18:51.000Z</time>
      </trkpt>
      <trkpt lat="48.74002" lon="1.7637">
        <ele>180</ele>
        <time>2011-08-02T13:18:58.000Z</time>
      </trkpt>
      <trkpt lat="48.73992" lon="1.76374">
        <ele>180</ele>
        <time>2011-08-02T13:19:05.000Z</time>
      </trkpt>
      <trkpt lat="48.73982" lon="1.76376">
        <ele>180.19999694824</ele>
        <time>2011-08-02T13:19:12.000Z</time>
      </trkpt>
      <trkpt lat="48.73977" lon="1.76373">
        <ele>180.39999389648</ele>
        <time>2011-08-02T13:19:16.000Z</time>
      </trkpt>
      <trkpt lat="48.73969" lon="1.76366">
        <ele>180.60000610352</ele>
        <time>2011-08-02T13:19:22.000Z</time>
      </trkpt>
      <trkpt lat="48.7396" lon="1.76367">
        <ele>180.60000610352</ele>
        <time>2011-08-02T13:19:28.000Z</time>
      </trkpt>
      <trkpt lat="48.73949" lon="1.76373">
        <ele>180.80000305176</ele>
        <time>2011-08-02T13:19:37.000Z</time>
      </trkpt>
      <trkpt lat="48.73947" lon="1.76375">
        <ele>180.80000305176</ele>
        <time>2011-08-02T13:19:38.000Z</time>
      </trkpt>
      <trkpt lat="48.73937" lon="1.76375">
        <ele>181</ele>
        <time>2011-08-02T13:19:46.000Z</time>
      </trkpt>
      <trkpt lat="48.73937" lon="1.76375">
        <ele>181</ele>
        <time>2011-08-02T13:19:47.000Z</time>
      </trkpt>
      <trkpt lat="48.73932" lon="1.76376">
        <ele>181.19999694824</ele>
        <time>2011-08-02T13:19:51.000Z</time>
      </trkpt>
      <trkpt lat="48.73921" lon="1.76377">
        <ele>181.39999389648</ele>
        <time>2011-08-02T13:19:59.000Z</time>
      </trkpt>
      <trkpt lat="48.73909" lon="1.76377">
        <ele>181.60000610352</ele>
        <time>2011-08-02T13:20:08.000Z</time>
      </trkpt>
      <trkpt lat="48.73893" lon="1.76381">
        <ele>182</ele>
        <time>2011-08-02T13:20:19.000Z</time>
      </trkpt>
      <trkpt lat="48.73891" lon="1.76381">
        <ele>182</ele>
        <time>2011-08-02T13:20:21.000Z</time>
      </trkpt>
      <trkpt lat="48.73883" lon="1.76381">
        <ele>182.19999694824</ele>
        <time>2011-08-02T13:20:28.000Z</time>
      </trkpt>
      <trkpt lat="48.73882" lon="1.76381">
        <ele>182.19999694824</ele>
        <time>2011-08-02T13:20:29.000Z</time>
      </trkpt>
      <trkpt lat="48.73869" lon="1.76382">
        <ele>182.39999389648</ele>
        <time>2011-08-02T13:20:39.000Z</time>
      </trkpt>
      <trkpt lat="48.73858" lon="1.76383">
        <ele>182.60000610352</ele>
        <time>2011-08-02T13:20:47.000Z</time>
      </trkpt>
      <trkpt lat="48.73849" lon="1.76385">
        <ele>182.80000305176</ele>
        <time>2011-08-02T13:20:52.000Z</time>
      </trkpt>
      <trkpt lat="48.73835" lon="1.76392">
        <ele>183.19999694824</ele>
        <time>2011-08-02T13:21:00.000Z</time>
      </trkpt>
      <trkpt lat="48.73826" lon="1.76394">
        <ele>183.60000610352</ele>
        <time>2011-08-02T13:21:06.000Z</time>
      </trkpt>
      <trkpt lat="48.73817" lon="1.76394">
        <ele>184</ele>
        <time>2011-08-02T13:21:12.000Z</time>
      </trkpt>
      <trkpt lat="48.73807" lon="1.76399">
        <ele>184.39999389648</ele>
        <time>2011-08-02T13:21:20.000Z</time>
      </trkpt>
      <trkpt lat="48.73803" lon="1.764">
        <ele>184.39999389648</ele>
        <time>2011-08-02T13:21:23.000Z</time>
      </trkpt>
      <trkpt lat="48.73801" lon="1.76398">
        <ele>184.39999389648</ele>
        <time>2011-08-02T13:21:25.000Z</time>
      </trkpt>
      <trkpt lat="48.73806" lon="1.7639">
        <ele>184.19999694824</ele>
        <time>2011-08-02T13:21:31.000Z</time>
      </trkpt>
      <trkpt lat="48.73809" lon="1.76376">
        <ele>184</ele>
        <time>2011-08-02T13:21:38.000Z</time>
      </trkpt>
      <trkpt lat="48.73811" lon="1.76362">
        <ele>183.60000610352</ele>
        <time>2011-08-02T13:21:45.000Z</time>
      </trkpt>
      <trkpt lat="48.73814" lon="1.7635">
        <ele>183.39999389648</ele>
        <time>2011-08-02T13:21:51.000Z</time>
      </trkpt>
      <trkpt lat="48.73817" lon="1.76341">
        <ele>183</ele>
        <time>2011-08-02T13:21:56.000Z</time>
      </trkpt>
      <trkpt lat="48.73819" lon="1.76328">
        <ele>182.80000305176</ele>
        <time>2011-08-02T13:22:02.000Z</time>
      </trkpt>
      <trkpt lat="48.7382" lon="1.76321">
        <ele>182.80000305176</ele>
        <time>2011-08-02T13:22:05.000Z</time>
      </trkpt>
      <trkpt lat="48.73823" lon="1.76304">
        <ele>182.80000305176</ele>
        <time>2011-08-02T13:22:11.000Z</time>
      </trkpt>
      <trkpt lat="48.73823" lon="1.76291">
        <ele>183</ele>
        <time>2011-08-02T13:22:17.000Z</time>
      </trkpt>
      <trkpt lat="48.73825" lon="1.76277">
        <ele>183</ele>
        <time>2011-08-02T13:22:24.000Z</time>
      </trkpt>
      <trkpt lat="48.73827" lon="1.76266">
        <ele>183</ele>
        <time>2011-08-02T13:22:30.000Z</time>
      </trkpt>
      <trkpt lat="48.73829" lon="1.7626">
        <ele>183</ele>
        <time>2011-08-02T13:22:33.000Z</time>
      </trkpt>
      <trkpt lat="48.7383" lon="1.76248">
        <ele>183.19999694824</ele>
        <time>2011-08-02T13:22:39.000Z</time>
      </trkpt>
      <trkpt lat="48.73833" lon="1.7624">
        <ele>183.19999694824</ele>
        <time>2011-08-02T13:22:45.000Z</time>
      </trkpt>
      <trkpt lat="48.73834" lon="1.76237">
        <ele>183.19999694824</ele>
        <time>2011-08-02T13:22:47.000Z</time>
      </trkpt>
      <trkpt lat="48.73837" lon="1.76227">
        <ele>183.39999389648</ele>
        <time>2011-08-02T13:22:53.000Z</time>
      </trkpt>
      <trkpt lat="48.7384" lon="1.76214">
        <ele>183.60000610352</ele>
        <time>2011-08-02T13:23:00.000Z</time>
      </trkpt>
      <trkpt lat="48.73842" lon="1.76202">
        <ele>183.60000610352</ele>
        <time>2011-08-02T13:23:06.000Z</time>
      </trkpt>
      <trkpt lat="48.73844" lon="1.76184">
        <ele>184</ele>
        <time>2011-08-02T13:23:13.000Z</time>
      </trkpt>
      <trkpt lat="48.73847" lon="1.76175">
        <ele>184</ele>
        <time>2011-08-02T13:23:19.000Z</time>
      </trkpt>
      <trkpt lat="48.73849" lon="1.76162">
        <ele>184.19999694824</ele>
        <time>2011-08-02T13:23:25.000Z</time>
      </trkpt>
      <trkpt lat="48.73852" lon="1.76146">
        <ele>184.60000610352</ele>
        <time>2011-08-02T13:23:33.000Z</time>
      </trkpt>
      <trkpt lat="48.73855" lon="1.76134">
        <ele>184.80000305176</ele>
        <time>2011-08-02T13:23:39.000Z</time>
      </trkpt>
      <trkpt lat="48.73859" lon="1.76122">
        <ele>185</ele>
        <time>2011-08-02T13:23:47.000Z</time>
      </trkpt>
      <trkpt lat="48.7386" lon="1.76109">
        <ele>185.19999694824</ele>
        <time>2011-08-02T13:23:54.000Z</time>
      </trkpt>
      <trkpt lat="48.73861" lon="1.76107">
        <ele>185.19999694824</ele>
        <time>2011-08-02T13:23:55.000Z</time>
      </trkpt>
      <trkpt lat="48.73864" lon="1.76094">
        <ele>185.39999389648</ele>
        <time>2011-08-02T13:24:02.000Z</time>
      </trkpt>
      <trkpt lat="48.73867" lon="1.7608">
        <ele>185.80000305176</ele>
        <time>2011-08-02T13:24:09.000Z</time>
      </trkpt>
      <trkpt lat="48.7387" lon="1.76067">
        <ele>185.80000305176</ele>
        <time>2011-08-02T13:24:16.000Z</time>
      </trkpt>
      <trkpt lat="48.73871" lon="1.76054">
        <ele>185.80000305176</ele>
        <time>2011-08-02T13:24:23.000Z</time>
      </trkpt>
      <trkpt lat="48.73875" lon="1.76038">
        <ele>186</ele>
        <time>2011-08-02T13:24:31.000Z</time>
      </trkpt>
      <trkpt lat="48.73876" lon="1.76036">
        <ele>186</ele>
        <time>2011-08-02T13:24:32.000Z</time>
      </trkpt>
      <trkpt lat="48.73877" lon="1.76025">
        <ele>186</ele>
        <time>2011-08-02T13:24:38.000Z</time>
      </trkpt>
      <trkpt lat="48.73877" lon="1.76016">
        <ele>186.19999694824</ele>
        <time>2011-08-02T13:24:43.000Z</time>
      </trkpt>
      <trkpt lat="48.7388" lon="1.76">
        <ele>186.19999694824</ele>
        <time>2011-08-02T13:24:52.000Z</time>
      </trkpt>
      <trkpt lat="48.73885" lon="1.75986">
        <ele>185.80000305176</ele>
        <time>2011-08-02T13:24:59.000Z</time>
      </trkpt>
      <trkpt lat="48.73889" lon="1.75969">
        <ele>185.19999694824</ele>
        <time>2011-08-02T13:25:08.000Z</time>
      </trkpt>
      <trkpt lat="48.73891" lon="1.75961">
        <ele>185</ele>
        <time>2011-08-02T13:25:14.000Z</time>
      </trkpt>
      <trkpt lat="48.73894" lon="1.7595">
        <ele>184.80000305176</ele>
        <time>2011-08-02T13:25:21.000Z</time>
      </trkpt>
      <trkpt lat="48.73897" lon="1.75932">
        <ele>184.39999389648</ele>
        <time>2011-08-02T13:25:31.000Z</time>
      </trkpt>
      <trkpt lat="48.73899" lon="1.75919">
        <ele>184.19999694824</ele>
        <time>2011-08-02T13:25:38.000Z</time>
      </trkpt>
      <trkpt lat="48.73903" lon="1.75905">
        <ele>184</ele>
        <time>2011-08-02T13:25:45.000Z</time>
      </trkpt>
      <trkpt lat="48.73908" lon="1.75892">
        <ele>184</ele>
        <time>2011-08-02T13:25:53.000Z</time>
      </trkpt>
      <trkpt lat="48.73909" lon="1.75881">
        <ele>184</ele>
        <time>2011-08-02T13:26:00.000Z</time>
      </trkpt>
      <trkpt lat="48.73914" lon="1.75866">
        <ele>183.80000305176</ele>
        <time>2011-08-02T13:26:09.000Z</time>
      </trkpt>
      <trkpt lat="48.73916" lon="1.75854">
        <ele>183.80000305176</ele>
        <time>2011-08-02T13:26:16.000Z</time>
      </trkpt>
      <trkpt lat="48.73917" lon="1.75844">
        <ele>183.80000305176</ele>
        <time>2011-08-02T13:26:21.000Z</time>
      </trkpt>
      <trkpt lat="48.73919" lon="1.75823">
        <ele>183.60000610352</ele>
        <time>2011-08-02T13:26:29.000Z</time>
      </trkpt>
      <trkpt lat="48.73922" lon="1.75805">
        <ele>183</ele>
        <time>2011-08-02T13:26:37.000Z</time>
      </trkpt>
      <trkpt lat="48.73926" lon="1.75788">
        <ele>182.60000610352</ele>
        <time>2011-08-02T13:26:45.000Z</time>
      </trkpt>
      <trkpt lat="48.73931" lon="1.7577">
        <ele>181.80000305176</ele>
        <time>2011-08-02T13:26:54.000Z</time>
      </trkpt>
      <trkpt lat="48.73934" lon="1.75752">
        <ele>181.39999389648</ele>
        <time>2011-08-02T13:27:02.000Z</time>
      </trkpt>
      <trkpt lat="48.73935" lon="1.7575">
        <ele>181.19999694824</ele>
        <time>2011-08-02T13:27:03.000Z</time>
      </trkpt>
      <trkpt lat="48.73938" lon="1.75731">
        <ele>181.19999694824</ele>
        <time>2011-08-02T13:27:12.000Z</time>
      </trkpt>
      <trkpt lat="48.73939" lon="1.75729">
        <ele>181.19999694824</ele>
        <time>2011-08-02T13:27:13.000Z</time>
      </trkpt>
      <trkpt lat="48.73943" lon="1.75712">
        <ele>181.19999694824</ele>
        <time>2011-08-02T13:27:21.000Z</time>
      </trkpt>
      <trkpt lat="48.73945" lon="1.75696">
        <ele>181</ele>
        <time>2011-08-02T13:27:28.000Z</time>
      </trkpt>
      <trkpt lat="48.73946" lon="1.75691">
        <ele>181</ele>
        <time>2011-08-02T13:27:30.000Z</time>
      </trkpt>
      <trkpt lat="48.73949" lon="1.75682">
        <ele>181</ele>
        <time>2011-08-02T13:27:35.000Z</time>
      </trkpt>
      <trkpt lat="48.7395" lon="1.75679">
        <ele>180.80000305176</ele>
        <time>2011-08-02T13:27:37.000Z</time>
      </trkpt>
      <trkpt lat="48.73951" lon="1.75675">
        <ele>180.80000305176</ele>
        <time>2011-08-02T13:27:39.000Z</time>
      </trkpt>
      <trkpt lat="48.73953" lon="1.75658">
        <ele>180.80000305176</ele>
        <time>2011-08-02T13:27:45.000Z</time>
      </trkpt>
      <trkpt lat="48.73953" lon="1.75653">
        <ele>180.80000305176</ele>
        <time>2011-08-02T13:27:47.000Z</time>
      </trkpt>
      <trkpt lat="48.73951" lon="1.75643">
        <ele>181</ele>
        <time>2011-08-02T13:27:52.000Z</time>
      </trkpt>
      <trkpt lat="48.73946" lon="1.7563">
        <ele>181.39999389648</ele>
        <time>2011-08-02T13:27:59.000Z</time>
      </trkpt>
      <trkpt lat="48.73938" lon="1.75622">
        <ele>181.80000305176</ele>
        <time>2011-08-02T13:28:06.000Z</time>
      </trkpt>
      <trkpt lat="48.73927" lon="1.75619">
        <ele>182.39999389648</ele>
        <time>2011-08-02T13:28:13.000Z</time>
      </trkpt>
      <trkpt lat="48.73918" lon="1.7562">
        <ele>182.80000305176</ele>
        <time>2011-08-02T13:28:19.000Z</time>
      </trkpt>
      <trkpt lat="48.73913" lon="1.75619">
        <ele>183</ele>
        <time>2011-08-02T13:28:22.000Z</time>
      </trkpt>
      <trkpt lat="48.73904" lon="1.75615">
        <ele>183</ele>
        <time>2011-08-02T13:28:29.000Z</time>
      </trkpt>
      <trkpt lat="48.73902" lon="1.75615">
        <ele>183</ele>
        <time>2011-08-02T13:28:30.000Z</time>
      </trkpt>
      <trkpt lat="48.7389" lon="1.75612">
        <ele>183.19999694824</ele>
        <time>2011-08-02T13:28:39.000Z</time>
      </trkpt>
      <trkpt lat="48.73875" lon="1.75609">
        <ele>183.39999389648</ele>
        <time>2011-08-02T13:28:49.000Z</time>
      </trkpt>
      <trkpt lat="48.73873" lon="1.75608">
        <ele>183.39999389648</ele>
        <time>2011-08-02T13:28:50.000Z</time>
      </trkpt>
      <trkpt lat="48.73873" lon="1.75608">
        <ele>183.39999389648</ele>
        <time>2011-08-02T13:28:53.000Z</time>
      </trkpt>
      <trkpt lat="48.73861" lon="1.75605">
        <ele>183.60000610352</ele>
        <time>2011-08-02T13:29:18.000Z</time>
      </trkpt>
      <trkpt lat="48.7385" lon="1.75597">
        <ele>183.80000305176</ele>
        <time>2011-08-02T13:29:27.000Z</time>
      </trkpt>
      <trkpt lat="48.73838" lon="1.75591">
        <ele>183.80000305176</ele>
        <time>2011-08-02T13:29:37.000Z</time>
      </trkpt>
      <trkpt lat="48.7383" lon="1.75589">
        <ele>183.80000305176</ele>
        <time>2011-08-02T13:29:44.000Z</time>
      </trkpt>
      <trkpt lat="48.73819" lon="1.75585">
        <ele>183.80000305176</ele>
        <time>2011-08-02T13:29:53.000Z</time>
      </trkpt>
      <trkpt lat="48.73815" lon="1.75584">
        <ele>183.60000610352</ele>
        <time>2011-08-02T13:29:57.000Z</time>
      </trkpt>
      <trkpt lat="48.73811" lon="1.75582">
        <ele>183.60000610352</ele>
        <time>2011-08-02T13:30:03.000Z</time>
      </trkpt>
      <trkpt lat="48.73811" lon="1.75582">
        <ele>183.60000610352</ele>
        <time>2011-08-02T13:30:04.000Z</time>
      </trkpt>
      <trkpt lat="48.73805" lon="1.75581">
        <ele>183.60000610352</ele>
        <time>2011-08-02T13:30:11.000Z</time>
      </trkpt>
      <trkpt lat="48.73796" lon="1.75578">
        <ele>183.39999389648</ele>
        <time>2011-08-02T13:30:17.000Z</time>
      </trkpt>
      <trkpt lat="48.73789" lon="1.75574">
        <ele>183.39999389648</ele>
        <time>2011-08-02T13:30:23.000Z</time>
      </trkpt>
      <trkpt lat="48.73779" lon="1.75573">
        <ele>183.19999694824</ele>
        <time>2011-08-02T13:30:30.000Z</time>
      </trkpt>
      <trkpt lat="48.73772" lon="1.7557">
        <ele>183.19999694824</ele>
        <time>2011-08-02T13:30:36.000Z</time>
      </trkpt>
      <trkpt lat="48.7376" lon="1.75568">
        <ele>183.19999694824</ele>
        <time>2011-08-02T13:30:44.000Z</time>
      </trkpt>
      <trkpt lat="48.73752" lon="1.75564">
        <ele>183.19999694824</ele>
        <time>2011-08-02T13:30:50.000Z</time>
      </trkpt>
      <trkpt lat="48.73741" lon="1.75559">
        <ele>183.39999389648</ele>
        <time>2011-08-02T13:30:58.000Z</time>
      </trkpt>
      <trkpt lat="48.73731" lon="1.75556">
        <ele>183.60000610352</ele>
        <time>2011-08-02T13:31:05.000Z</time>
      </trkpt>
      <trkpt lat="48.73726" lon="1.75552">
        <ele>183.60000610352</ele>
        <time>2011-08-02T13:31:11.000Z</time>
      </trkpt>
      <trkpt lat="48.73726" lon="1.75552">
        <ele>183.60000610352</ele>
        <time>2011-08-02T13:31:12.000Z</time>
      </trkpt>
      <trkpt lat="48.73722" lon="1.75547">
        <ele>183.80000305176</ele>
        <time>2011-08-02T13:31:42.000Z</time>
      </trkpt>
      <trkpt lat="48.7372" lon="1.75548">
        <ele>183.80000305176</ele>
        <time>2011-08-02T13:31:43.000Z</time>
      </trkpt>
      <trkpt lat="48.73714" lon="1.75547">
        <ele>184</ele>
        <time>2011-08-02T13:31:46.000Z</time>
      </trkpt>
      <trkpt lat="48.73708" lon="1.75549">
        <ele>184</ele>
        <time>2011-08-02T13:31:52.000Z</time>
      </trkpt>
      <trkpt lat="48.73696" lon="1.7555">
        <ele>184.19999694824</ele>
        <time>2011-08-02T13:32:01.000Z</time>
      </trkpt>
      <trkpt lat="48.73695" lon="1.7555">
        <ele>184.19999694824</ele>
        <time>2011-08-02T13:32:02.000Z</time>
      </trkpt>
      <trkpt lat="48.73688" lon="1.75546">
        <ele>184.39999389648</ele>
        <time>2011-08-02T13:32:07.000Z</time>
      </trkpt>
      <trkpt lat="48.73683" lon="1.75545">
        <ele>184.60000610352</ele>
        <time>2011-08-02T13:32:11.000Z</time>
      </trkpt>
      <trkpt lat="48.73682" lon="1.75544">
        <ele>184.60000610352</ele>
        <time>2011-08-02T13:32:12.000Z</time>
      </trkpt>
      <trkpt lat="48.73678" lon="1.75542">
        <ele>184.60000610352</ele>
        <time>2011-08-02T13:32:15.000Z</time>
      </trkpt>
      <trkpt lat="48.73667" lon="1.75542">
        <ele>184.80000305176</ele>
        <time>2011-08-02T13:32:22.000Z</time>
      </trkpt>
      <trkpt lat="48.73659" lon="1.75541">
        <ele>185</ele>
        <time>2011-08-02T13:32:29.000Z</time>
      </trkpt>
      <trkpt lat="48.73654" lon="1.75541">
        <ele>185.19999694824</ele>
        <time>2011-08-02T13:32:33.000Z</time>
      </trkpt>
      <trkpt lat="48.73642" lon="1.75544">
        <ele>185.60000610352</ele>
        <time>2011-08-02T13:32:42.000Z</time>
      </trkpt>
      <trkpt lat="48.7363" lon="1.75547">
        <ele>185.80000305176</ele>
        <time>2011-08-02T13:32:50.000Z</time>
      </trkpt>
      <trkpt lat="48.73624" lon="1.75548">
        <ele>186</ele>
        <time>2011-08-02T13:32:55.000Z</time>
      </trkpt>
      <trkpt lat="48.73622" lon="1.75548">
        <ele>186.19999694824</ele>
        <time>2011-08-02T13:33:02.000Z</time>
      </trkpt>
      <trkpt lat="48.73617" lon="1.75546">
        <ele>186.19999694824</ele>
        <time>2011-08-02T13:33:06.000Z</time>
      </trkpt>
      <trkpt lat="48.73612" lon="1.75545">
        <ele>186.39999389648</ele>
        <time>2011-08-02T13:33:12.000Z</time>
      </trkpt>
      <trkpt lat="48.73606" lon="1.7555">
        <ele>186.80000305176</ele>
        <time>2011-08-02T13:33:17.000Z</time>
      </trkpt>
      <trkpt lat="48.73599" lon="1.75555">
        <ele>187.19999694824</ele>
        <time>2011-08-02T13:33:23.000Z</time>
      </trkpt>
      <trkpt lat="48.73595" lon="1.75559">
        <ele>187.60000610352</ele>
        <time>2011-08-02T13:33:26.000Z</time>
      </trkpt>
      <trkpt lat="48.73584" lon="1.75564">
        <ele>188.39999389648</ele>
        <time>2011-08-02T13:33:33.000Z</time>
      </trkpt>
      <trkpt lat="48.73581" lon="1.75564">
        <ele>188.39999389648</ele>
        <time>2011-08-02T13:33:35.000Z</time>
      </trkpt>
      <trkpt lat="48.73575" lon="1.75565">
        <ele>188.39999389648</ele>
        <time>2011-08-02T13:33:42.000Z</time>
      </trkpt>
      <trkpt lat="48.73566" lon="1.7557">
        <ele>188.39999389648</ele>
        <time>2011-08-02T13:33:48.000Z</time>
      </trkpt>
      <trkpt lat="48.7356" lon="1.75576">
        <ele>188.60000610352</ele>
        <time>2011-08-02T13:33:53.000Z</time>
      </trkpt>
      <trkpt lat="48.73552" lon="1.7558">
        <ele>188.60000610352</ele>
        <time>2011-08-02T13:33:59.000Z</time>
      </trkpt>
      <trkpt lat="48.73545" lon="1.75583">
        <ele>188.60000610352</ele>
        <time>2011-08-02T13:34:05.000Z</time>
      </trkpt>
      <trkpt lat="48.73543" lon="1.75584">
        <ele>188.39999389648</ele>
        <time>2011-08-02T13:34:07.000Z</time>
      </trkpt>
      <trkpt lat="48.73536" lon="1.75589">
        <ele>188.19999694824</ele>
        <time>2011-08-02T13:34:14.000Z</time>
      </trkpt>
      <trkpt lat="48.73529" lon="1.75594">
        <ele>188</ele>
        <time>2011-08-02T13:34:20.000Z</time>
      </trkpt>
      <trkpt lat="48.73522" lon="1.75597">
        <ele>187.80000305176</ele>
        <time>2011-08-02T13:34:26.000Z</time>
      </trkpt>
      <trkpt lat="48.73516" lon="1.75601">
        <ele>187.60000610352</ele>
        <time>2011-08-02T13:34:31.000Z</time>
      </trkpt>
      <trkpt lat="48.73514" lon="1.75602">
        <ele>187.60000610352</ele>
        <time>2011-08-02T13:34:33.000Z</time>
      </trkpt>
      <trkpt lat="48.73508" lon="1.75607">
        <ele>187.39999389648</ele>
        <time>2011-08-02T13:34:38.000Z</time>
      </trkpt>
      <trkpt lat="48.73497" lon="1.75615">
        <ele>187.19999694824</ele>
        <time>2011-08-02T13:34:46.000Z</time>
      </trkpt>
      <trkpt lat="48.73493" lon="1.75618">
        <ele>187.19999694824</ele>
        <time>2011-08-02T13:34:50.000Z</time>
      </trkpt>
      <trkpt lat="48.73485" lon="1.75626">
        <ele>187.19999694824</ele>
        <time>2011-08-02T13:34:57.000Z</time>
      </trkpt>
      <trkpt lat="48.73475" lon="1.75634">
        <ele>187.19999694824</ele>
        <time>2011-08-02T13:35:06.000Z</time>
      </trkpt>
      <trkpt lat="48.73466" lon="1.75641">
        <ele>187.19999694824</ele>
        <time>2011-08-02T13:35:13.000Z</time>
      </trkpt>
      <trkpt lat="48.73459" lon="1.75646">
        <ele>187.19999694824</ele>
        <time>2011-08-02T13:35:20.000Z</time>
      </trkpt>
      <trkpt lat="48.73458" lon="1.75647">
        <ele>187.19999694824</ele>
        <time>2011-08-02T13:35:21.000Z</time>
      </trkpt>
      <trkpt lat="48.7345" lon="1.75656">
        <ele>187.19999694824</ele>
        <time>2011-08-02T13:35:29.000Z</time>
      </trkpt>
      <trkpt lat="48.73445" lon="1.75662">
        <ele>187.19999694824</ele>
        <time>2011-08-02T13:35:37.000Z</time>
      </trkpt>
      <trkpt lat="48.7344" lon="1.75666">
        <ele>187.19999694824</ele>
        <time>2011-08-02T13:35:43.000Z</time>
      </trkpt>
      <trkpt lat="48.73436" lon="1.75669">
        <ele>187.19999694824</ele>
        <time>2011-08-02T13:35:46.000Z</time>
      </trkpt>
      <trkpt lat="48.73423" lon="1.75679">
        <ele>186.80000305176</ele>
        <time>2011-08-02T13:35:53.000Z</time>
      </trkpt>
      <trkpt lat="48.73413" lon="1.75684">
        <ele>186.60000610352</ele>
        <time>2011-08-02T13:35:59.000Z</time>
      </trkpt>
      <trkpt lat="48.73411" lon="1.75685">
        <ele>186.60000610352</ele>
        <time>2011-08-02T13:36:01.000Z</time>
      </trkpt>
      <trkpt lat="48.73399" lon="1.75692">
        <ele>186.39999389648</ele>
        <time>2011-08-02T13:36:09.000Z</time>
      </trkpt>
      <trkpt lat="48.73389" lon="1.757">
        <ele>186.19999694824</ele>
        <time>2011-08-02T13:36:15.000Z</time>
      </trkpt>
      <trkpt lat="48.73382" lon="1.75709">
        <ele>186</ele>
        <time>2011-08-02T13:36:21.000Z</time>
      </trkpt>
      <trkpt lat="48.73373" lon="1.75715">
        <ele>185.80000305176</ele>
        <time>2011-08-02T13:36:29.000Z</time>
      </trkpt>
      <trkpt lat="48.73362" lon="1.75722">
        <ele>185.60000610352</ele>
        <time>2011-08-02T13:36:37.000Z</time>
      </trkpt>
      <trkpt lat="48.73351" lon="1.75726">
        <ele>185.39999389648</ele>
        <time>2011-08-02T13:36:46.000Z</time>
      </trkpt>
      <trkpt lat="48.73338" lon="1.75735">
        <ele>185.19999694824</ele>
        <time>2011-08-02T13:36:56.000Z</time>
      </trkpt>
      <trkpt lat="48.73328" lon="1.7574">
        <ele>185</ele>
        <time>2011-08-02T13:37:04.000Z</time>
      </trkpt>
      <trkpt lat="48.73319" lon="1.75747">
        <ele>184.80000305176</ele>
        <time>2011-08-02T13:37:12.000Z</time>
      </trkpt>
      <trkpt lat="48.73314" lon="1.75752">
        <ele>184.60000610352</ele>
        <time>2011-08-02T13:37:16.000Z</time>
      </trkpt>
      <trkpt lat="48.73309" lon="1.75752">
        <ele>184.60000610352</ele>
        <time>2011-08-02T13:37:21.000Z</time>
      </trkpt>
      <trkpt lat="48.73299" lon="1.75758">
        <ele>184.39999389648</ele>
        <time>2011-08-02T13:37:30.000Z</time>
      </trkpt>
      <trkpt lat="48.73291" lon="1.75761">
        <ele>184.19999694824</ele>
        <time>2011-08-02T13:37:37.000Z</time>
      </trkpt>
      <trkpt lat="48.73279" lon="1.7577">
        <ele>183.80000305176</ele>
        <time>2011-08-02T13:37:44.000Z</time>
      </trkpt>
      <trkpt lat="48.73273" lon="1.75777">
        <ele>183.60000610352</ele>
        <time>2011-08-02T13:37:51.000Z</time>
      </trkpt>
      <trkpt lat="48.7327" lon="1.7578">
        <ele>183.39999389648</ele>
        <time>2011-08-02T13:37:55.000Z</time>
      </trkpt>
      <trkpt lat="48.73262" lon="1.75787">
        <ele>183.19999694824</ele>
        <time>2011-08-02T13:38:00.000Z</time>
      </trkpt>
      <trkpt lat="48.73254" lon="1.75795">
        <ele>182.80000305176</ele>
        <time>2011-08-02T13:38:07.000Z</time>
      </trkpt>
      <trkpt lat="48.73249" lon="1.75799">
        <ele>182.80000305176</ele>
        <time>2011-08-02T13:38:12.000Z</time>
      </trkpt>
      <trkpt lat="48.73244" lon="1.75805">
        <ele>182.60000610352</ele>
        <time>2011-08-02T13:38:18.000Z</time>
      </trkpt>
      <trkpt lat="48.73236" lon="1.75813">
        <ele>182.39999389648</ele>
        <time>2011-08-02T13:38:25.000Z</time>
      </trkpt>
      <trkpt lat="48.73226" lon="1.75821">
        <ele>182.39999389648</ele>
        <time>2011-08-02T13:38:33.000Z</time>
      </trkpt>
      <trkpt lat="48.73217" lon="1.75829">
        <ele>182.39999389648</ele>
        <time>2011-08-02T13:38:40.000Z</time>
      </trkpt>
      <trkpt lat="48.73202" lon="1.75841">
        <ele>182.60000610352</ele>
        <time>2011-08-02T13:38:50.000Z</time>
      </trkpt>
      <trkpt lat="48.73193" lon="1.75847">
        <ele>182.80000305176</ele>
        <time>2011-08-02T13:38:56.000Z</time>
      </trkpt>
      <trkpt lat="48.73188" lon="1.75849">
        <ele>183</ele>
        <time>2011-08-02T13:39:01.000Z</time>
      </trkpt>
      <trkpt lat="48.73181" lon="1.75855">
        <ele>183.19999694824</ele>
        <time>2011-08-02T13:39:08.000Z</time>
      </trkpt>
      <trkpt lat="48.73174" lon="1.75857">
        <ele>183.39999389648</ele>
        <time>2011-08-02T13:39:14.000Z</time>
      </trkpt>
      <trkpt lat="48.73164" lon="1.75862">
        <ele>183.60000610352</ele>
        <time>2011-08-02T13:39:22.000Z</time>
      </trkpt>
      <trkpt lat="48.73161" lon="1.75863">
        <ele>183.39999389648</ele>
        <time>2011-08-02T13:39:25.000Z</time>
      </trkpt>
      <trkpt lat="48.73152" lon="1.75875">
        <ele>183.60000610352</ele>
        <time>2011-08-02T13:39:35.000Z</time>
      </trkpt>
      <trkpt lat="48.73145" lon="1.75879">
        <ele>183.39999389648</ele>
        <time>2011-08-02T13:39:40.000Z</time>
      </trkpt>
      <trkpt lat="48.73137" lon="1.75882">
        <ele>183.39999389648</ele>
        <time>2011-08-02T13:39:47.000Z</time>
      </trkpt>
      <trkpt lat="48.73132" lon="1.75886">
        <ele>183.39999389648</ele>
        <time>2011-08-02T13:39:51.000Z</time>
      </trkpt>
      <trkpt lat="48.7313" lon="1.75892">
        <ele>183.39999389648</ele>
        <time>2011-08-02T13:39:56.000Z</time>
      </trkpt>
      <trkpt lat="48.73118" lon="1.75902">
        <ele>183.39999389648</ele>
        <time>2011-08-02T13:40:05.000Z</time>
      </trkpt>
      <trkpt lat="48.73107" lon="1.75909">
        <ele>183.19999694824</ele>
        <time>2011-08-02T13:40:13.000Z</time>
      </trkpt>
      <trkpt lat="48.73096" lon="1.75917">
        <ele>183.19999694824</ele>
        <time>2011-08-02T13:40:22.000Z</time>
      </trkpt>
      <trkpt lat="48.73086" lon="1.75927">
        <ele>183</ele>
        <time>2011-08-02T13:40:31.000Z</time>
      </trkpt>
      <trkpt lat="48.73078" lon="1.75934">
        <ele>182.80000305176</ele>
        <time>2011-08-02T13:40:38.000Z</time>
      </trkpt>
      <trkpt lat="48.73077" lon="1.75935">
        <ele>182.60000610352</ele>
        <time>2011-08-02T13:40:39.000Z</time>
      </trkpt>
      <trkpt lat="48.73068" lon="1.75937">
        <ele>182.39999389648</ele>
        <time>2011-08-02T13:40:44.000Z</time>
      </trkpt>
      <trkpt lat="48.73067" lon="1.75937">
        <ele>182.39999389648</ele>
        <time>2011-08-02T13:40:47.000Z</time>
      </trkpt>
      <trkpt lat="48.7306" lon="1.75945">
        <ele>182</ele>
        <time>2011-08-02T13:40:57.000Z</time>
      </trkpt>
      <trkpt lat="48.73056" lon="1.75947">
        <ele>181.80000305176</ele>
        <time>2011-08-02T13:40:58.000Z</time>
      </trkpt>
      <trkpt lat="48.73048" lon="1.75952">
        <ele>181.60000610352</ele>
        <time>2011-08-02T13:41:03.000Z</time>
      </trkpt>
      <trkpt lat="48.73044" lon="1.75956">
        <ele>181.19999694824</ele>
        <time>2011-08-02T13:41:06.000Z</time>
      </trkpt>
      <trkpt lat="48.73041" lon="1.75958">
        <ele>181.19999694824</ele>
        <time>2011-08-02T13:41:09.000Z</time>
      </trkpt>
      <trkpt lat="48.73037" lon="1.75958">
        <ele>181</ele>
        <time>2011-08-02T13:41:12.000Z</time>
      </trkpt>
      <trkpt lat="48.73031" lon="1.75948">
        <ele>181</ele>
        <time>2011-08-02T13:41:19.000Z</time>
      </trkpt>
      <trkpt lat="48.73032" lon="1.75937">
        <ele>181.19999694824</ele>
        <time>2011-08-02T13:41:25.000Z</time>
      </trkpt>
      <trkpt lat="48.73032" lon="1.75934">
        <ele>181.39999389648</ele>
        <time>2011-08-02T13:41:27.000Z</time>
      </trkpt>
      <trkpt lat="48.73032" lon="1.75925">
        <ele>181.39999389648</ele>
        <time>2011-08-02T13:41:31.000Z</time>
      </trkpt>
      <trkpt lat="48.73033" lon="1.75915">
        <ele>181.80000305176</ele>
        <time>2011-08-02T13:41:36.000Z</time>
      </trkpt>
      <trkpt lat="48.73034" lon="1.759">
        <ele>181.80000305176</ele>
        <time>2011-08-02T13:41:43.000Z</time>
      </trkpt>
      <trkpt lat="48.73035" lon="1.75886">
        <ele>181.80000305176</ele>
        <time>2011-08-02T13:41:49.000Z</time>
      </trkpt>
      <trkpt lat="48.73035" lon="1.7588">
        <ele>181.80000305176</ele>
        <time>2011-08-02T13:41:53.000Z</time>
      </trkpt>
      <trkpt lat="48.73037" lon="1.75861">
        <ele>182</ele>
        <time>2011-08-02T13:42:02.000Z</time>
      </trkpt>
      <trkpt lat="48.73037" lon="1.75857">
        <ele>182</ele>
        <time>2011-08-02T13:42:04.000Z</time>
      </trkpt>
      <trkpt lat="48.73038" lon="1.75845">
        <ele>182</ele>
        <time>2011-08-02T13:42:10.000Z</time>
      </trkpt>
      <trkpt lat="48.7304" lon="1.75832">
        <ele>182</ele>
        <time>2011-08-02T13:42:17.000Z</time>
      </trkpt>
      <trkpt lat="48.73042" lon="1.75813">
        <ele>181.60000610352</ele>
        <time>2011-08-02T13:42:27.000Z</time>
      </trkpt>
      <trkpt lat="48.73044" lon="1.75801">
        <ele>181.39999389648</ele>
        <time>2011-08-02T13:42:34.000Z</time>
      </trkpt>
      <trkpt lat="48.73045" lon="1.75789">
        <ele>181.39999389648</ele>
        <time>2011-08-02T13:42:41.000Z</time>
      </trkpt>
      <trkpt lat="48.73046" lon="1.75784">
        <ele>181.19999694824</ele>
        <time>2011-08-02T13:42:44.000Z</time>
      </trkpt>
      <trkpt lat="48.73046" lon="1.75782">
        <ele>181.19999694824</ele>
        <time>2011-08-02T13:42:46.000Z</time>
      </trkpt>
      <trkpt lat="48.73047" lon="1.75769">
        <ele>181.19999694824</ele>
        <time>2011-08-02T13:42:54.000Z</time>
      </trkpt>
      <trkpt lat="48.73048" lon="1.75758">
        <ele>181</ele>
        <time>2011-08-02T13:42:59.000Z</time>
      </trkpt>
      <trkpt lat="48.73047" lon="1.75736">
        <ele>181</ele>
        <time>2011-08-02T13:43:05.000Z</time>
      </trkpt>
      <trkpt lat="48.73048" lon="1.7573">
        <ele>181</ele>
        <time>2011-08-02T13:43:08.000Z</time>
      </trkpt>
      <trkpt lat="48.73049" lon="1.7571">
        <ele>181</ele>
        <time>2011-08-02T13:43:16.000Z</time>
      </trkpt>
      <trkpt lat="48.7305" lon="1.75698">
        <ele>181</ele>
        <time>2011-08-02T13:43:22.000Z</time>
      </trkpt>
      <trkpt lat="48.73052" lon="1.75682">
        <ele>181.19999694824</ele>
        <time>2011-08-02T13:43:30.000Z</time>
      </trkpt>
      <trkpt lat="48.73053" lon="1.75673">
        <ele>181.19999694824</ele>
        <time>2011-08-02T13:43:34.000Z</time>
      </trkpt>
      <trkpt lat="48.73056" lon="1.75653">
        <ele>181.39999389648</ele>
        <time>2011-08-02T13:43:43.000Z</time>
      </trkpt>
      <trkpt lat="48.73057" lon="1.7565">
        <ele>181.60000610352</ele>
        <time>2011-08-02T13:43:45.000Z</time>
      </trkpt>
      <trkpt lat="48.73057" lon="1.75643">
        <ele>181.60000610352</ele>
        <time>2011-08-02T13:43:49.000Z</time>
      </trkpt>
      <trkpt lat="48.73058" lon="1.75634">
        <ele>181.80000305176</ele>
        <time>2011-08-02T13:43:54.000Z</time>
      </trkpt>
      <trkpt lat="48.73059" lon="1.75621">
        <ele>182</ele>
        <time>2011-08-02T13:44:02.000Z</time>
      </trkpt>
      <trkpt lat="48.73059" lon="1.7561">
        <ele>182.19999694824</ele>
        <time>2011-08-02T13:44:06.000Z</time>
      </trkpt>
      <trkpt lat="48.7306" lon="1.75587">
        <ele>182.80000305176</ele>
        <time>2011-08-02T13:44:16.000Z</time>
      </trkpt>
      <trkpt lat="48.73061" lon="1.75576">
        <ele>182.80000305176</ele>
        <time>2011-08-02T13:44:21.000Z</time>
      </trkpt>
      <trkpt lat="48.73062" lon="1.75556">
        <ele>182.80000305176</ele>
        <time>2011-08-02T13:44:30.000Z</time>
      </trkpt>
      <trkpt lat="48.73063" lon="1.75543">
        <ele>182.60000610352</ele>
        <time>2011-08-02T13:44:36.000Z</time>
      </trkpt>
      <trkpt lat="48.73064" lon="1.75535">
        <ele>182.60000610352</ele>
        <time>2011-08-02T13:44:40.000Z</time>
      </trkpt>
      <trkpt lat="48.73064" lon="1.75528">
        <ele>182.60000610352</ele>
        <time>2011-08-02T13:44:44.000Z</time>
      </trkpt>
      <trkpt lat="48.73065" lon="1.75522">
        <ele>182.80000305176</ele>
        <time>2011-08-02T13:44:47.000Z</time>
      </trkpt>
      <trkpt lat="48.73065" lon="1.75507">
        <ele>182.60000610352</ele>
        <time>2011-08-02T13:44:54.000Z</time>
      </trkpt>
      <trkpt lat="48.73061" lon="1.75489">
        <ele>181.80000305176</ele>
        <time>2011-08-02T13:45:03.000Z</time>
      </trkpt>
      <trkpt lat="48.73061" lon="1.75477">
        <ele>181.19999694824</ele>
        <time>2011-08-02T13:45:09.000Z</time>
      </trkpt>
      <trkpt lat="48.73062" lon="1.7546">
        <ele>180.39999389648</ele>
        <time>2011-08-02T13:45:18.000Z</time>
      </trkpt>
      <trkpt lat="48.73062" lon="1.75447">
        <ele>179.80000305176</ele>
        <time>2011-08-02T13:45:25.000Z</time>
      </trkpt>
      <trkpt lat="48.73063" lon="1.75431">
        <ele>179</ele>
        <time>2011-08-02T13:45:33.000Z</time>
      </trkpt>
      <trkpt lat="48.73063" lon="1.75428">
        <ele>178.80000305176</ele>
        <time>2011-08-02T13:45:34.000Z</time>
      </trkpt>
      <trkpt lat="48.73062" lon="1.75412">
        <ele>177.80000305176</ele>
        <time>2011-08-02T13:45:42.000Z</time>
      </trkpt>
      <trkpt lat="48.73061" lon="1.75398">
        <ele>177</ele>
        <time>2011-08-02T13:45:48.000Z</time>
      </trkpt>
      <trkpt lat="48.73064" lon="1.75385">
        <ele>176.60000610352</ele>
        <time>2011-08-02T13:45:55.000Z</time>
      </trkpt>
      <trkpt lat="48.73063" lon="1.75378">
        <ele>176.19999694824</ele>
        <time>2011-08-02T13:45:58.000Z</time>
      </trkpt>
      <trkpt lat="48.73063" lon="1.75372">
        <ele>175.80000305176</ele>
        <time>2011-08-02T13:46:00.000Z</time>
      </trkpt>
      <trkpt lat="48.73063" lon="1.75355">
        <ele>174.80000305176</ele>
        <time>2011-08-02T13:46:07.000Z</time>
      </trkpt>
      <trkpt lat="48.73062" lon="1.75353">
        <ele>174.80000305176</ele>
        <time>2011-08-02T13:46:08.000Z</time>
      </trkpt>
      <trkpt lat="48.73063" lon="1.75343">
        <ele>174.19999694824</ele>
        <time>2011-08-02T13:46:13.000Z</time>
      </trkpt>
      <trkpt lat="48.73063" lon="1.75321">
        <ele>172.80000305176</ele>
        <time>2011-08-02T13:46:22.000Z</time>
      </trkpt>
      <trkpt lat="48.73064" lon="1.75317">
        <ele>172.60000610352</ele>
        <time>2011-08-02T13:46:24.000Z</time>
      </trkpt>
      <trkpt lat="48.73063" lon="1.753">
        <ele>171.39999389648</ele>
        <time>2011-08-02T13:46:31.000Z</time>
      </trkpt>
      <trkpt lat="48.73062" lon="1.75291">
        <ele>170.60000610352</ele>
        <time>2011-08-02T13:46:35.000Z</time>
      </trkpt>
      <trkpt lat="48.73061" lon="1.75284">
        <ele>170</ele>
        <time>2011-08-02T13:46:39.000Z</time>
      </trkpt>
      <trkpt lat="48.7306" lon="1.75278">
        <ele>169.60000610352</ele>
        <time>2011-08-02T13:46:43.000Z</time>
      </trkpt>
      <trkpt lat="48.73059" lon="1.75264">
        <ele>168.39999389648</ele>
        <time>2011-08-02T13:46:51.000Z</time>
      </trkpt>
      <trkpt lat="48.73062" lon="1.75246">
        <ele>167.60000610352</ele>
        <time>2011-08-02T13:47:00.000Z</time>
      </trkpt>
      <trkpt lat="48.73064" lon="1.75224">
        <ele>166.19999694824</ele>
        <time>2011-08-02T13:47:10.000Z</time>
      </trkpt>
      <trkpt lat="48.73065" lon="1.7521">
        <ele>165.19999694824</ele>
        <time>2011-08-02T13:47:16.000Z</time>
      </trkpt>
      <trkpt lat="48.73068" lon="1.75193">
        <ele>164.39999389648</ele>
        <time>2011-08-02T13:47:23.000Z</time>
      </trkpt>
      <trkpt lat="48.73069" lon="1.75187">
        <ele>164</ele>
        <time>2011-08-02T13:47:26.000Z</time>
      </trkpt>
      <trkpt lat="48.73072" lon="1.75171">
        <ele>163.19999694824</ele>
        <time>2011-08-02T13:47:33.000Z</time>
      </trkpt>
      <trkpt lat="48.7307" lon="1.7516">
        <ele>162.19999694824</ele>
        <time>2011-08-02T13:47:39.000Z</time>
      </trkpt>
      <trkpt lat="48.7307" lon="1.75153">
        <ele>161.60000610352</ele>
        <time>2011-08-02T13:47:42.000Z</time>
      </trkpt>
      <trkpt lat="48.73065" lon="1.7514">
        <ele>160.19999694824</ele>
        <time>2011-08-02T13:47:51.000Z</time>
      </trkpt>
      <trkpt lat="48.73067" lon="1.75127">
        <ele>159.19999694824</ele>
        <time>2011-08-02T13:47:57.000Z</time>
      </trkpt>
      <trkpt lat="48.73068" lon="1.75114">
        <ele>158.39999389648</ele>
        <time>2011-08-02T13:48:03.000Z</time>
      </trkpt>
      <trkpt lat="48.73068" lon="1.75102">
        <ele>157.39999389648</ele>
        <time>2011-08-02T13:48:08.000Z</time>
      </trkpt>
      <trkpt lat="48.73067" lon="1.75093">
        <ele>156.60000610352</ele>
        <time>2011-08-02T13:48:12.000Z</time>
      </trkpt>
      <trkpt lat="48.73066" lon="1.75079">
        <ele>155.80000305176</ele>
        <time>2011-08-02T13:48:18.000Z</time>
      </trkpt>
      <trkpt lat="48.73065" lon="1.75066">
        <ele>155.19999694824</ele>
        <time>2011-08-02T13:48:23.000Z</time>
      </trkpt>
      <trkpt lat="48.73066" lon="1.7505">
        <ele>154.60000610352</ele>
        <time>2011-08-02T13:48:30.000Z</time>
      </trkpt>
      <trkpt lat="48.73067" lon="1.7504">
        <ele>154.19999694824</ele>
        <time>2011-08-02T13:48:35.000Z</time>
      </trkpt>
      <trkpt lat="48.73066" lon="1.75033">
        <ele>154</ele>
        <time>2011-08-02T13:48:38.000Z</time>
      </trkpt>
      <trkpt lat="48.73067" lon="1.75022">
        <ele>153.60000610352</ele>
        <time>2011-08-02T13:48:44.000Z</time>
      </trkpt>
      <trkpt lat="48.73068" lon="1.75005">
        <ele>153</ele>
        <time>2011-08-02T13:48:52.000Z</time>
      </trkpt>
      <trkpt lat="48.7307" lon="1.74989">
        <ele>152.60000610352</ele>
        <time>2011-08-02T13:49:00.000Z</time>
      </trkpt>
      <trkpt lat="48.73072" lon="1.74972">
        <ele>152.19999694824</ele>
        <time>2011-08-02T13:49:09.000Z</time>
      </trkpt>
      <trkpt lat="48.7307" lon="1.74955">
        <ele>151.39999389648</ele>
        <time>2011-08-02T13:49:17.000Z</time>
      </trkpt>
      <trkpt lat="48.73067" lon="1.74949">
        <ele>151.19999694824</ele>
        <time>2011-08-02T13:49:20.000Z</time>
      </trkpt>
      <trkpt lat="48.73064" lon="1.74936">
        <ele>150.60000610352</ele>
        <time>2011-08-02T13:49:26.000Z</time>
      </trkpt>
      <trkpt lat="48.73062" lon="1.74923">
        <ele>150</ele>
        <time>2011-08-02T13:49:32.000Z</time>
      </trkpt>
      <trkpt lat="48.73057" lon="1.74915">
        <ele>149.60000610352</ele>
        <time>2011-08-02T13:49:37.000Z</time>
      </trkpt>
      <trkpt lat="48.73056" lon="1.74911">
        <ele>149.39999389648</ele>
        <time>2011-08-02T13:49:39.000Z</time>
      </trkpt>
      <trkpt lat="48.73055" lon="1.74901">
        <ele>149.19999694824</ele>
        <time>2011-08-02T13:49:44.000Z</time>
      </trkpt>
      <trkpt lat="48.73056" lon="1.74892">
        <ele>148.80000305176</ele>
        <time>2011-08-02T13:49:49.000Z</time>
      </trkpt>
      <trkpt lat="48.73058" lon="1.74887">
        <ele>148.80000305176</ele>
        <time>2011-08-02T13:49:52.000Z</time>
      </trkpt>
      <trkpt lat="48.73062" lon="1.74877">
        <ele>148.60000610352</ele>
        <time>2011-08-02T13:49:57.000Z</time>
      </trkpt>
      <trkpt lat="48.73063" lon="1.74864">
        <ele>148.19999694824</ele>
        <time>2011-08-02T13:50:03.000Z</time>
      </trkpt>
      <trkpt lat="48.73061" lon="1.74849">
        <ele>147.60000610352</ele>
        <time>2011-08-02T13:50:10.000Z</time>
      </trkpt>
      <trkpt lat="48.73057" lon="1.74828">
        <ele>147.19999694824</ele>
        <time>2011-08-02T13:50:19.000Z</time>
      </trkpt>
      <trkpt lat="48.73054" lon="1.74812">
        <ele>147.19999694824</ele>
        <time>2011-08-02T13:50:26.000Z</time>
      </trkpt>
      <trkpt lat="48.73051" lon="1.74795">
        <ele>147.19999694824</ele>
        <time>2011-08-02T13:50:34.000Z</time>
      </trkpt>
      <trkpt lat="48.73049" lon="1.74779">
        <ele>147.39999389648</ele>
        <time>2011-08-02T13:50:42.000Z</time>
      </trkpt>
      <trkpt lat="48.73046" lon="1.74759">
        <ele>147.39999389648</ele>
        <time>2011-08-02T13:50:51.000Z</time>
      </trkpt>
      <trkpt lat="48.73045" lon="1.74746">
        <ele>147.19999694824</ele>
        <time>2011-08-02T13:50:58.000Z</time>
      </trkpt>
      <trkpt lat="48.73044" lon="1.74738">
        <ele>147.19999694824</ele>
        <time>2011-08-02T13:51:02.000Z</time>
      </trkpt>
      <trkpt lat="48.73042" lon="1.7473">
        <ele>147</ele>
        <time>2011-08-02T13:51:06.000Z</time>
      </trkpt>
      <trkpt lat="48.7304" lon="1.74719">
        <ele>146.80000305176</ele>
        <time>2011-08-02T13:51:13.000Z</time>
      </trkpt>
      <trkpt lat="48.73038" lon="1.747">
        <ele>146.60000610352</ele>
        <time>2011-08-02T13:51:21.000Z</time>
      </trkpt>
      <trkpt lat="48.73035" lon="1.74687">
        <ele>146.39999389648</ele>
        <time>2011-08-02T13:51:27.000Z</time>
      </trkpt>
      <trkpt lat="48.73029" lon="1.74673">
        <ele>146.39999389648</ele>
        <time>2011-08-02T13:51:34.000Z</time>
      </trkpt>
      <trkpt lat="48.73021" lon="1.74662">
        <ele>146.19999694824</ele>
        <time>2011-08-02T13:51:41.000Z</time>
      </trkpt>
      <trkpt lat="48.73019" lon="1.74659">
        <ele>146.19999694824</ele>
        <time>2011-08-02T13:51:43.000Z</time>
      </trkpt>
      <trkpt lat="48.73018" lon="1.74658">
        <ele>146.19999694824</ele>
        <time>2011-08-02T13:51:46.000Z</time>
      </trkpt>
      <trkpt lat="48.7301" lon="1.74653">
        <ele>146.19999694824</ele>
        <time>2011-08-02T13:51:56.000Z</time>
      </trkpt>
      <trkpt lat="48.73008" lon="1.74642">
        <ele>145.80000305176</ele>
        <time>2011-08-02T13:51:59.000Z</time>
      </trkpt>
      <trkpt lat="48.73006" lon="1.74639">
        <ele>145.80000305176</ele>
        <time>2011-08-02T13:52:01.000Z</time>
      </trkpt>
      <trkpt lat="48.73" lon="1.74628">
        <ele>145.39999389648</ele>
        <time>2011-08-02T13:52:08.000Z</time>
      </trkpt>
      <trkpt lat="48.72999" lon="1.74626">
        <ele>145.39999389648</ele>
        <time>2011-08-02T13:52:09.000Z</time>
      </trkpt>
      <trkpt lat="48.72993" lon="1.74617">
        <ele>145</ele>
        <time>2011-08-02T13:52:15.000Z</time>
      </trkpt>
      <trkpt lat="48.72989" lon="1.74614">
        <ele>144.60000610352</ele>
        <time>2011-08-02T13:52:18.000Z</time>
      </trkpt>
      <trkpt lat="48.72982" lon="1.74607">
        <ele>144.19999694824</ele>
        <time>2011-08-02T13:52:23.000Z</time>
      </trkpt>
      <trkpt lat="48.72974" lon="1.74591">
        <ele>143.80000305176</ele>
        <time>2011-08-02T13:52:32.000Z</time>
      </trkpt>
      <trkpt lat="48.72973" lon="1.74579">
        <ele>143.60000610352</ele>
        <time>2011-08-02T13:52:38.000Z</time>
      </trkpt>
      <trkpt lat="48.72968" lon="1.74562">
        <ele>143.19999694824</ele>
        <time>2011-08-02T13:52:45.000Z</time>
      </trkpt>
      <trkpt lat="48.72963" lon="1.74545">
        <ele>143.19999694824</ele>
        <time>2011-08-02T13:52:53.000Z</time>
      </trkpt>
      <trkpt lat="48.72963" lon="1.74538">
        <ele>143</ele>
        <time>2011-08-02T13:52:56.000Z</time>
      </trkpt>
      <trkpt lat="48.72974" lon="1.74521">
        <ele>142.80000305176</ele>
        <time>2011-08-02T13:53:06.000Z</time>
      </trkpt>
      <trkpt lat="48.72981" lon="1.7451">
        <ele>142.60000610352</ele>
        <time>2011-08-02T13:53:12.000Z</time>
      </trkpt>
      <trkpt lat="48.72982" lon="1.74508">
        <ele>142.39999389648</ele>
        <time>2011-08-02T13:53:13.000Z</time>
      </trkpt>
      <trkpt lat="48.72983" lon="1.74498">
        <ele>142.19999694824</ele>
        <time>2011-08-02T13:53:19.000Z</time>
      </trkpt>
      <trkpt lat="48.7299" lon="1.74489">
        <ele>142</ele>
        <time>2011-08-02T13:53:24.000Z</time>
      </trkpt>
      <trkpt lat="48.72993" lon="1.74487">
        <ele>142</ele>
        <time>2011-08-02T13:53:26.000Z</time>
      </trkpt>
      <trkpt lat="48.73003" lon="1.7448">
        <ele>141.60000610352</ele>
        <time>2011-08-02T13:53:33.000Z</time>
      </trkpt>
      <trkpt lat="48.7301" lon="1.74476">
        <ele>141.39999389648</ele>
        <time>2011-08-02T13:53:38.000Z</time>
      </trkpt>
      <trkpt lat="48.7302" lon="1.7447">
        <ele>141.19999694824</ele>
        <time>2011-08-02T13:53:44.000Z</time>
      </trkpt>
      <trkpt lat="48.73028" lon="1.74466">
        <ele>141</ele>
        <time>2011-08-02T13:53:49.000Z</time>
      </trkpt>
      <trkpt lat="48.73038" lon="1.74457">
        <ele>140.80000305176</ele>
        <time>2011-08-02T13:53:56.000Z</time>
      </trkpt>
      <trkpt lat="48.73042" lon="1.74445">
        <ele>140.60000610352</ele>
        <time>2011-08-02T13:54:03.000Z</time>
      </trkpt>
      <trkpt lat="48.7304" lon="1.74436">
        <ele>140.60000610352</ele>
        <time>2011-08-02T13:54:09.000Z</time>
      </trkpt>
      <trkpt lat="48.73038" lon="1.74426">
        <ele>140.39999389648</ele>
        <time>2011-08-02T13:54:15.000Z</time>
      </trkpt>
      <trkpt lat="48.73036" lon="1.74412">
        <ele>140.39999389648</ele>
        <time>2011-08-02T13:54:22.000Z</time>
      </trkpt>
      <trkpt lat="48.73034" lon="1.74396">
        <ele>140.60000610352</ele>
        <time>2011-08-02T13:54:30.000Z</time>
      </trkpt>
      <trkpt lat="48.73034" lon="1.74377">
        <ele>140.80000305176</ele>
        <time>2011-08-02T13:54:38.000Z</time>
      </trkpt>
      <trkpt lat="48.73034" lon="1.7436">
        <ele>140.80000305176</ele>
        <time>2011-08-02T13:54:46.000Z</time>
      </trkpt>
      <trkpt lat="48.73032" lon="1.74352">
        <ele>141</ele>
        <time>2011-08-02T13:54:50.000Z</time>
      </trkpt>
      <trkpt lat="48.73032" lon="1.74341">
        <ele>141</ele>
        <time>2011-08-02T13:54:54.000Z</time>
      </trkpt>
      <trkpt lat="48.73028" lon="1.74336">
        <ele>141.19999694824</ele>
        <time>2011-08-02T13:54:58.000Z</time>
      </trkpt>
      <trkpt lat="48.7303" lon="1.74325">
        <ele>141.19999694824</ele>
        <time>2011-08-02T13:55:02.000Z</time>
      </trkpt>
      <trkpt lat="48.73029" lon="1.74319">
        <ele>141.19999694824</ele>
        <time>2011-08-02T13:55:05.000Z</time>
      </trkpt>
      <trkpt lat="48.73028" lon="1.74311">
        <ele>141.39999389648</ele>
        <time>2011-08-02T13:55:08.000Z</time>
      </trkpt>
      <trkpt lat="48.73025" lon="1.74297">
        <ele>141.39999389648</ele>
        <time>2011-08-02T13:55:14.000Z</time>
      </trkpt>
      <trkpt lat="48.73025" lon="1.74295">
        <ele>141.39999389648</ele>
        <time>2011-08-02T13:55:15.000Z</time>
      </trkpt>
      <trkpt lat="48.73025" lon="1.74289">
        <ele>141.39999389648</ele>
        <time>2011-08-02T13:55:18.000Z</time>
      </trkpt>
      <trkpt lat="48.73024" lon="1.74277">
        <ele>141.60000610352</ele>
        <time>2011-08-02T13:55:23.000Z</time>
      </trkpt>
      <trkpt lat="48.73026" lon="1.7427">
        <ele>141.60000610352</ele>
        <time>2011-08-02T13:55:26.000Z</time>
      </trkpt>
      <trkpt lat="48.73024" lon="1.74261">
        <ele>141.60000610352</ele>
        <time>2011-08-02T13:55:31.000Z</time>
      </trkpt>
      <trkpt lat="48.73023" lon="1.74258">
        <ele>141.60000610352</ele>
        <time>2011-08-02T13:55:33.000Z</time>
      </trkpt>
      <trkpt lat="48.73022" lon="1.74246">
        <ele>141.60000610352</ele>
        <time>2011-08-02T13:55:39.000Z</time>
      </trkpt>
      <trkpt lat="48.73021" lon="1.74235">
        <ele>141.39999389648</ele>
        <time>2011-08-02T13:55:44.000Z</time>
      </trkpt>
      <trkpt lat="48.73017" lon="1.74216">
        <ele>141.19999694824</ele>
        <time>2011-08-02T13:55:53.000Z</time>
      </trkpt>
      <trkpt lat="48.73014" lon="1.74201">
        <ele>141.19999694824</ele>
        <time>2011-08-02T13:56:00.000Z</time>
      </trkpt>
      <trkpt lat="48.73013" lon="1.74187">
        <ele>141</ele>
        <time>2011-08-02T13:56:06.000Z</time>
      </trkpt>
      <trkpt lat="48.73011" lon="1.74172">
        <ele>140.80000305176</ele>
        <time>2011-08-02T13:56:13.000Z</time>
      </trkpt>
      <trkpt lat="48.73006" lon="1.74157">
        <ele>140.60000610352</ele>
        <time>2011-08-02T13:56:20.000Z</time>
      </trkpt>
      <trkpt lat="48.73005" lon="1.74137">
        <ele>140.19999694824</ele>
        <time>2011-08-02T13:56:27.000Z</time>
      </trkpt>
      <trkpt lat="48.73005" lon="1.74122">
        <ele>139.80000305176</ele>
        <time>2011-08-02T13:56:34.000Z</time>
      </trkpt>
      <trkpt lat="48.73005" lon="1.7412">
        <ele>139.80000305176</ele>
        <time>2011-08-02T13:56:35.000Z</time>
      </trkpt>
      <trkpt lat="48.73005" lon="1.74108">
        <ele>139.39999389648</ele>
        <time>2011-08-02T13:56:40.000Z</time>
      </trkpt>
      <trkpt lat="48.73005" lon="1.741">
        <ele>139.19999694824</ele>
        <time>2011-08-02T13:56:45.000Z</time>
      </trkpt>
      <trkpt lat="48.73007" lon="1.74087">
        <ele>139</ele>
        <time>2011-08-02T13:56:52.000Z</time>
      </trkpt>
      <trkpt lat="48.73006" lon="1.74078">
        <ele>138.80000305176</ele>
        <time>2011-08-02T13:56:57.000Z</time>
      </trkpt>
      <trkpt lat="48.73005" lon="1.74071">
        <ele>138.60000610352</ele>
        <time>2011-08-02T13:57:00.000Z</time>
      </trkpt>
      <trkpt lat="48.73005" lon="1.74065">
        <ele>138.60000610352</ele>
        <time>2011-08-02T13:57:03.000Z</time>
      </trkpt>
      <trkpt lat="48.73002" lon="1.7405">
        <ele>138.39999389648</ele>
        <time>2011-08-02T13:57:10.000Z</time>
      </trkpt>
      <trkpt lat="48.73003" lon="1.74049">
        <ele>138.39999389648</ele>
        <time>2011-08-02T13:57:11.000Z</time>
      </trkpt>
      <trkpt lat="48.73004" lon="1.7404">
        <ele>138.39999389648</ele>
        <time>2011-08-02T13:57:16.000Z</time>
      </trkpt>
      <trkpt lat="48.73004" lon="1.74039">
        <ele>138.39999389648</ele>
        <time>2011-08-02T13:57:17.000Z</time>
      </trkpt>
      <trkpt lat="48.73004" lon="1.7403">
        <ele>138.19999694824</ele>
        <time>2011-08-02T13:57:21.000Z</time>
      </trkpt>
      <trkpt lat="48.73002" lon="1.74014">
        <ele>138</ele>
        <time>2011-08-02T13:57:29.000Z</time>
      </trkpt>
      <trkpt lat="48.73001" lon="1.73998">
        <ele>137.80000305176</ele>
        <time>2011-08-02T13:57:36.000Z</time>
      </trkpt>
      <trkpt lat="48.73" lon="1.73979">
        <ele>137.80000305176</ele>
        <time>2011-08-02T13:57:44.000Z</time>
      </trkpt>
      <trkpt lat="48.72997" lon="1.73971">
        <ele>137.80000305176</ele>
        <time>2011-08-02T13:57:49.000Z</time>
      </trkpt>
      <trkpt lat="48.72996" lon="1.73964">
        <ele>137.80000305176</ele>
        <time>2011-08-02T13:57:53.000Z</time>
      </trkpt>
      <trkpt lat="48.72997" lon="1.73961">
        <ele>137.80000305176</ele>
        <time>2011-08-02T13:57:55.000Z</time>
      </trkpt>
      <trkpt lat="48.72997" lon="1.73946">
        <ele>137.80000305176</ele>
        <time>2011-08-02T13:58:02.000Z</time>
      </trkpt>
      <trkpt lat="48.72991" lon="1.73936">
        <ele>137.80000305176</ele>
        <time>2011-08-02T13:58:08.000Z</time>
      </trkpt>
      <trkpt lat="48.72983" lon="1.73927">
        <ele>137.80000305176</ele>
        <time>2011-08-02T13:58:14.000Z</time>
      </trkpt>
      <trkpt lat="48.72978" lon="1.73921">
        <ele>137.60000610352</ele>
        <time>2011-08-02T13:58:19.000Z</time>
      </trkpt>
      <trkpt lat="48.72975" lon="1.73917">
        <ele>137.60000610352</ele>
        <time>2011-08-02T13:58:23.000Z</time>
      </trkpt>
      <trkpt lat="48.72967" lon="1.73907">
        <ele>137.19999694824</ele>
        <time>2011-08-02T13:58:27.000Z</time>
      </trkpt>
      <trkpt lat="48.72953" lon="1.73896">
        <ele>136.80000305176</ele>
        <time>2011-08-02T13:58:32.000Z</time>
      </trkpt>
      <trkpt lat="48.72938" lon="1.73881">
        <ele>136.19999694824</ele>
        <time>2011-08-02T13:58:37.000Z</time>
      </trkpt>
      <trkpt lat="48.7292" lon="1.7386">
        <ele>135.60000610352</ele>
        <time>2011-08-02T13:58:43.000Z</time>
      </trkpt>
      <trkpt lat="48.72905" lon="1.73841">
        <ele>135</ele>
        <time>2011-08-02T13:58:49.000Z</time>
      </trkpt>
      <trkpt lat="48.72893" lon="1.73827">
        <ele>134.80000305176</ele>
        <time>2011-08-02T13:58:54.000Z</time>
      </trkpt>
      <trkpt lat="48.72873" lon="1.73806">
        <ele>134.39999389648</ele>
        <time>2011-08-02T13:59:01.000Z</time>
      </trkpt>
      <trkpt lat="48.72851" lon="1.73783">
        <ele>133.80000305176</ele>
        <time>2011-08-02T13:59:08.000Z</time>
      </trkpt>
      <trkpt lat="48.72837" lon="1.73767">
        <ele>133.39999389648</ele>
        <time>2011-08-02T13:59:13.000Z</time>
      </trkpt>
      <trkpt lat="48.72824" lon="1.73755">
        <ele>133</ele>
        <time>2011-08-02T13:59:18.000Z</time>
      </trkpt>
      <trkpt lat="48.72819" lon="1.73748">
        <ele>132.60000610352</ele>
        <time>2011-08-02T13:59:22.000Z</time>
      </trkpt>
      <trkpt lat="48.72819" lon="1.73748">
        <ele>132.60000610352</ele>
        <time>2011-08-02T13:59:26.000Z</time>
      </trkpt>
      <trkpt lat="48.72813" lon="1.73742">
        <ele>132.39999389648</ele>
        <time>2011-08-02T13:59:52.000Z</time>
      </trkpt>
      <trkpt lat="48.72807" lon="1.73738">
        <ele>132.19999694824</ele>
        <time>2011-08-02T13:59:55.000Z</time>
      </trkpt>
      <trkpt lat="48.728" lon="1.73729">
        <ele>132</ele>
        <time>2011-08-02T14:00:01.000Z</time>
      </trkpt>
      <trkpt lat="48.72788" lon="1.73717">
        <ele>131.60000610352</ele>
        <time>2011-08-02T14:00:10.000Z</time>
      </trkpt>
      <trkpt lat="48.7278" lon="1.73709">
        <ele>131.39999389648</ele>
        <time>2011-08-02T14:00:17.000Z</time>
      </trkpt>
      <trkpt lat="48.72772" lon="1.737">
        <ele>131.19999694824</ele>
        <time>2011-08-02T14:00:24.000Z</time>
      </trkpt>
      <trkpt lat="48.72766" lon="1.73694">
        <ele>131.19999694824</ele>
        <time>2011-08-02T14:00:30.000Z</time>
      </trkpt>
      <trkpt lat="48.72758" lon="1.73686">
        <ele>131</ele>
        <time>2011-08-02T14:00:37.000Z</time>
      </trkpt>
      <trkpt lat="48.72746" lon="1.73681">
        <ele>131</ele>
        <time>2011-08-02T14:00:44.000Z</time>
      </trkpt>
      <trkpt lat="48.72739" lon="1.73674">
        <ele>130.80000305176</ele>
        <time>2011-08-02T14:00:50.000Z</time>
      </trkpt>
      <trkpt lat="48.72738" lon="1.73673">
        <ele>130.80000305176</ele>
        <time>2011-08-02T14:00:51.000Z</time>
      </trkpt>
      <trkpt lat="48.72731" lon="1.73664">
        <ele>130.60000610352</ele>
        <time>2011-08-02T14:00:57.000Z</time>
      </trkpt>
      <trkpt lat="48.72723" lon="1.73655">
        <ele>130.19999694824</ele>
        <time>2011-08-02T14:01:04.000Z</time>
      </trkpt>
      <trkpt lat="48.72713" lon="1.73643">
        <ele>129.80000305176</ele>
        <time>2011-08-02T14:01:13.000Z</time>
      </trkpt>
      <trkpt lat="48.72707" lon="1.73629">
        <ele>129.19999694824</ele>
        <time>2011-08-02T14:01:21.000Z</time>
      </trkpt>
      <trkpt lat="48.72699" lon="1.73622">
        <ele>129</ele>
        <time>2011-08-02T14:01:28.000Z</time>
      </trkpt>
      <trkpt lat="48.7269" lon="1.73618">
        <ele>128.80000305176</ele>
        <time>2011-08-02T14:01:33.000Z</time>
      </trkpt>
      <trkpt lat="48.72688" lon="1.73617">
        <ele>128.80000305176</ele>
        <time>2011-08-02T14:01:35.000Z</time>
      </trkpt>
      <trkpt lat="48.72686" lon="1.73618">
        <ele>128.80000305176</ele>
        <time>2011-08-02T14:01:42.000Z</time>
      </trkpt>
      <trkpt lat="48.72684" lon="1.73613">
        <ele>128.60000610352</ele>
        <time>2011-08-02T14:01:45.000Z</time>
      </trkpt>
      <trkpt lat="48.72677" lon="1.73606">
        <ele>128.39999389648</ele>
        <time>2011-08-02T14:01:51.000Z</time>
      </trkpt>
      <trkpt lat="48.72672" lon="1.73597">
        <ele>128.19999694824</ele>
        <time>2011-08-02T14:01:57.000Z</time>
      </trkpt>
      <trkpt lat="48.72669" lon="1.73594">
        <ele>128.19999694824</ele>
        <time>2011-08-02T14:02:00.000Z</time>
      </trkpt>
      <trkpt lat="48.72664" lon="1.7359">
        <ele>128</ele>
        <time>2011-08-02T14:02:04.000Z</time>
      </trkpt>
      <trkpt lat="48.72654" lon="1.73577">
        <ele>127.80000305176</ele>
        <time>2011-08-02T14:02:12.000Z</time>
      </trkpt>
      <trkpt lat="48.72647" lon="1.7357">
        <ele>127.80000305176</ele>
        <time>2011-08-02T14:02:18.000Z</time>
      </trkpt>
      <trkpt lat="48.72643" lon="1.73569">
        <ele>127.80000305176</ele>
        <time>2011-08-02T14:02:20.000Z</time>
      </trkpt>
      <trkpt lat="48.72639" lon="1.73565">
        <ele>127.80000305176</ele>
        <time>2011-08-02T14:02:24.000Z</time>
      </trkpt>
      <trkpt lat="48.72629" lon="1.73553">
        <ele>127.80000305176</ele>
        <time>2011-08-02T14:02:32.000Z</time>
      </trkpt>
      <trkpt lat="48.72617" lon="1.73541">
        <ele>127.59999847412</ele>
        <time>2011-08-02T14:02:43.000Z</time>
      </trkpt>
      <trkpt lat="48.72608" lon="1.73536">
        <ele>127.40000152588</ele>
        <time>2011-08-02T14:02:50.000Z</time>
      </trkpt>
      <trkpt lat="48.726" lon="1.73528">
        <ele>127.40000152588</ele>
        <time>2011-08-02T14:02:57.000Z</time>
      </trkpt>
      <trkpt lat="48.72593" lon="1.7352">
        <ele>127.19999694824</ele>
        <time>2011-08-02T14:03:03.000Z</time>
      </trkpt>
      <trkpt lat="48.72587" lon="1.73513">
        <ele>127.19999694824</ele>
        <time>2011-08-02T14:03:08.000Z</time>
      </trkpt>
      <trkpt lat="48.72577" lon="1.73507">
        <ele>127.19999694824</ele>
        <time>2011-08-02T14:03:14.000Z</time>
      </trkpt>
      <trkpt lat="48.7257" lon="1.735">
        <ele>127.19999694824</ele>
        <time>2011-08-02T14:03:20.000Z</time>
      </trkpt>
      <trkpt lat="48.72561" lon="1.73489">
        <ele>127.59999847412</ele>
        <time>2011-08-02T14:03:28.000Z</time>
      </trkpt>
      <trkpt lat="48.72557" lon="1.73482">
        <ele>127.80000305176</ele>
        <time>2011-08-02T14:03:32.000Z</time>
      </trkpt>
      <trkpt lat="48.72548" lon="1.73472">
        <ele>128.19999694824</ele>
        <time>2011-08-02T14:03:39.000Z</time>
      </trkpt>
      <trkpt lat="48.72539" lon="1.73463">
        <ele>128.39999389648</ele>
        <time>2011-08-02T14:03:47.000Z</time>
      </trkpt>
      <trkpt lat="48.7253" lon="1.73461">
        <ele>128.60000610352</ele>
        <time>2011-08-02T14:03:54.000Z</time>
      </trkpt>
      <trkpt lat="48.72522" lon="1.73455">
        <ele>128.60000610352</ele>
        <time>2011-08-02T14:04:00.000Z</time>
      </trkpt>
      <trkpt lat="48.72516" lon="1.73454">
        <ele>128.80000305176</ele>
        <time>2011-08-02T14:04:04.000Z</time>
      </trkpt>
      <trkpt lat="48.72511" lon="1.73455">
        <ele>128.80000305176</ele>
        <time>2011-08-02T14:04:08.000Z</time>
      </trkpt>
      <trkpt lat="48.72503" lon="1.73453">
        <ele>128.80000305176</ele>
        <time>2011-08-02T14:04:14.000Z</time>
      </trkpt>
      <trkpt lat="48.72501" lon="1.73453">
        <ele>128.80000305176</ele>
        <time>2011-08-02T14:04:15.000Z</time>
      </trkpt>
      <trkpt lat="48.72489" lon="1.7345">
        <ele>128.60000610352</ele>
        <time>2011-08-02T14:04:23.000Z</time>
      </trkpt>
      <trkpt lat="48.72484" lon="1.73451">
        <ele>128.39999389648</ele>
        <time>2011-08-02T14:04:25.000Z</time>
      </trkpt>
      <trkpt lat="48.72478" lon="1.73448">
        <ele>128.19999694824</ele>
        <time>2011-08-02T14:04:30.000Z</time>
      </trkpt>
      <trkpt lat="48.7247" lon="1.73447">
        <ele>127.80000305176</ele>
        <time>2011-08-02T14:04:35.000Z</time>
      </trkpt>
      <trkpt lat="48.72463" lon="1.73446">
        <ele>127.59999847412</ele>
        <time>2011-08-02T14:04:39.000Z</time>
      </trkpt>
      <trkpt lat="48.7246" lon="1.73447">
        <ele>127.40000152588</ele>
        <time>2011-08-02T14:04:42.000Z</time>
      </trkpt>
      <trkpt lat="48.72454" lon="1.73444">
        <ele>127.19999694824</ele>
        <time>2011-08-02T14:04:46.000Z</time>
      </trkpt>
      <trkpt lat="48.72448" lon="1.73442">
        <ele>127</ele>
        <time>2011-08-02T14:04:52.000Z</time>
      </trkpt>
      <trkpt lat="48.72442" lon="1.73441">
        <ele>126.80000305176</ele>
        <time>2011-08-02T14:04:58.000Z</time>
      </trkpt>
      <trkpt lat="48.72431" lon="1.73438">
        <ele>126.40000152588</ele>
        <time>2011-08-02T14:05:05.000Z</time>
      </trkpt>
      <trkpt lat="48.72427" lon="1.73436">
        <ele>126.19999694824</ele>
        <time>2011-08-02T14:05:12.000Z</time>
      </trkpt>
      <trkpt lat="48.72418" lon="1.73437">
        <ele>126</ele>
        <time>2011-08-02T14:05:17.000Z</time>
      </trkpt>
      <trkpt lat="48.72409" lon="1.73435">
        <ele>126</ele>
        <time>2011-08-02T14:05:22.000Z</time>
      </trkpt>
      <trkpt lat="48.72403" lon="1.73435">
        <ele>126.19999694824</ele>
        <time>2011-08-02T14:05:25.000Z</time>
      </trkpt>
      <trkpt lat="48.72387" lon="1.73433">
        <ele>126.59999847412</ele>
        <time>2011-08-02T14:05:32.000Z</time>
      </trkpt>
      <trkpt lat="48.72382" lon="1.7343">
        <ele>126.80000305176</ele>
        <time>2011-08-02T14:05:37.000Z</time>
      </trkpt>
      <trkpt lat="48.72379" lon="1.73429">
        <ele>126.80000305176</ele>
        <time>2011-08-02T14:05:40.000Z</time>
      </trkpt>
      <trkpt lat="48.7237" lon="1.73423">
        <ele>127</ele>
        <time>2011-08-02T14:05:47.000Z</time>
      </trkpt>
      <trkpt lat="48.72365" lon="1.73422">
        <ele>127.19999694824</ele>
        <time>2011-08-02T14:05:52.000Z</time>
      </trkpt>
      <trkpt lat="48.72359" lon="1.7342">
        <ele>127.19999694824</ele>
        <time>2011-08-02T14:05:59.000Z</time>
      </trkpt>
      <trkpt lat="48.72355" lon="1.73417">
        <ele>127.40000152588</ele>
        <time>2011-08-02T14:06:03.000Z</time>
      </trkpt>
      <trkpt lat="48.72345" lon="1.73416">
        <ele>127.59999847412</ele>
        <time>2011-08-02T14:06:08.000Z</time>
      </trkpt>
      <trkpt lat="48.72339" lon="1.73416">
        <ele>127.80000305176</ele>
        <time>2011-08-02T14:06:11.000Z</time>
      </trkpt>
      <trkpt lat="48.72328" lon="1.73421">
        <ele>128</ele>
        <time>2011-08-02T14:06:16.000Z</time>
      </trkpt>
      <trkpt lat="48.72319" lon="1.7342">
        <ele>128</ele>
        <time>2011-08-02T14:06:22.000Z</time>
      </trkpt>
      <trkpt lat="48.72314" lon="1.73413">
        <ele>127.80000305176</ele>
        <time>2011-08-02T14:06:27.000Z</time>
      </trkpt>
      <trkpt lat="48.72312" lon="1.73412">
        <ele>127.80000305176</ele>
        <time>2011-08-02T14:06:31.000Z</time>
      </trkpt>
      <trkpt lat="48.72306" lon="1.73415">
        <ele>127.80000305176</ele>
        <time>2011-08-02T14:06:37.000Z</time>
      </trkpt>
      <trkpt lat="48.72297" lon="1.73411">
        <ele>127.80000305176</ele>
        <time>2011-08-02T14:06:41.000Z</time>
      </trkpt>
      <trkpt lat="48.72287" lon="1.7341">
        <ele>127.80000305176</ele>
        <time>2011-08-02T14:06:47.000Z</time>
      </trkpt>
      <trkpt lat="48.72285" lon="1.73408">
        <ele>127.80000305176</ele>
        <time>2011-08-02T14:06:51.000Z</time>
      </trkpt>
      <trkpt lat="48.72275" lon="1.73411">
        <ele>127.80000305176</ele>
        <time>2011-08-02T14:06:57.000Z</time>
      </trkpt>
      <trkpt lat="48.72269" lon="1.73408">
        <ele>127.80000305176</ele>
        <time>2011-08-02T14:07:01.000Z</time>
      </trkpt>
      <trkpt lat="48.72263" lon="1.73404">
        <ele>127.80000305176</ele>
        <time>2011-08-02T14:07:06.000Z</time>
      </trkpt>
      <trkpt lat="48.72262" lon="1.73402">
        <ele>127.80000305176</ele>
        <time>2011-08-02T14:07:08.000Z</time>
      </trkpt>
      <trkpt lat="48.72253" lon="1.734">
        <ele>127.80000305176</ele>
        <time>2011-08-02T14:07:16.000Z</time>
      </trkpt>
      <trkpt lat="48.72247" lon="1.73396">
        <ele>127.80000305176</ele>
        <time>2011-08-02T14:07:21.000Z</time>
      </trkpt>
      <trkpt lat="48.72236" lon="1.73394">
        <ele>127.59999847412</ele>
        <time>2011-08-02T14:07:28.000Z</time>
      </trkpt>
      <trkpt lat="48.72235" lon="1.73395">
        <ele>127.59999847412</ele>
        <time>2011-08-02T14:07:29.000Z</time>
      </trkpt>
      <trkpt lat="48.72224" lon="1.73397">
        <ele>127.40000152588</ele>
        <time>2011-08-02T14:07:36.000Z</time>
      </trkpt>
      <trkpt lat="48.72222" lon="1.73398">
        <ele>127.40000152588</ele>
        <time>2011-08-02T14:07:37.000Z</time>
      </trkpt>
      <trkpt lat="48.72217" lon="1.73402">
        <ele>127.40000152588</ele>
        <time>2011-08-02T14:07:43.000Z</time>
      </trkpt>
      <trkpt lat="48.72213" lon="1.73401">
        <ele>127.19999694824</ele>
        <time>2011-08-02T14:07:47.000Z</time>
      </trkpt>
      <trkpt lat="48.72208" lon="1.73398">
        <ele>127.19999694824</ele>
        <time>2011-08-02T14:07:52.000Z</time>
      </trkpt>
      <trkpt lat="48.72206" lon="1.73397">
        <ele>127.19999694824</ele>
        <time>2011-08-02T14:07:54.000Z</time>
      </trkpt>
      <trkpt lat="48.72198" lon="1.73401">
        <ele>127</ele>
        <time>2011-08-02T14:08:00.000Z</time>
      </trkpt>
      <trkpt lat="48.72194" lon="1.73403">
        <ele>127</ele>
        <time>2011-08-02T14:08:04.000Z</time>
      </trkpt>
      <trkpt lat="48.72186" lon="1.73405">
        <ele>127</ele>
        <time>2011-08-02T14:08:09.000Z</time>
      </trkpt>
      <trkpt lat="48.7218" lon="1.73405">
        <ele>126.80000305176</ele>
        <time>2011-08-02T14:08:13.000Z</time>
      </trkpt>
      <trkpt lat="48.72175" lon="1.73407">
        <ele>126.80000305176</ele>
        <time>2011-08-02T14:08:19.000Z</time>
      </trkpt>
      <trkpt lat="48.72169" lon="1.73409">
        <ele>126.80000305176</ele>
        <time>2011-08-02T14:08:29.000Z</time>
      </trkpt>
      <trkpt lat="48.72161" lon="1.73413">
        <ele>127</ele>
        <time>2011-08-02T14:08:33.000Z</time>
      </trkpt>
      <trkpt lat="48.72155" lon="1.73414">
        <ele>127.19999694824</ele>
        <time>2011-08-02T14:08:39.000Z</time>
      </trkpt>
      <trkpt lat="48.72156" lon="1.73412">
        <ele>127.19999694824</ele>
        <time>2011-08-02T14:08:43.000Z</time>
      </trkpt>
      <trkpt lat="48.72149" lon="1.73414">
        <ele>127.40000152588</ele>
        <time>2011-08-02T14:08:55.000Z</time>
      </trkpt>
      <trkpt lat="48.72145" lon="1.73412">
        <ele>127.59999847412</ele>
        <time>2011-08-02T14:08:58.000Z</time>
      </trkpt>
      <trkpt lat="48.72141" lon="1.73411">
        <ele>127.80000305176</ele>
        <time>2011-08-02T14:09:02.000Z</time>
      </trkpt>
      <trkpt lat="48.72132" lon="1.73411">
        <ele>128</ele>
        <time>2011-08-02T14:09:07.000Z</time>
      </trkpt>
      <trkpt lat="48.7212" lon="1.73411">
        <ele>128.39999389648</ele>
        <time>2011-08-02T14:09:14.000Z</time>
      </trkpt>
      <trkpt lat="48.72113" lon="1.73414">
        <ele>128.80000305176</ele>
        <time>2011-08-02T14:09:20.000Z</time>
      </trkpt>
      <trkpt lat="48.72106" lon="1.73417">
        <ele>129</ele>
        <time>2011-08-02T14:09:26.000Z</time>
      </trkpt>
      <trkpt lat="48.72098" lon="1.73419">
        <ele>129.39999389648</ele>
        <time>2011-08-02T14:09:32.000Z</time>
      </trkpt>
      <trkpt lat="48.7209" lon="1.73419">
        <ele>129.60000610352</ele>
        <time>2011-08-02T14:09:37.000Z</time>
      </trkpt>
      <trkpt lat="48.72087" lon="1.73419">
        <ele>129.80000305176</ele>
        <time>2011-08-02T14:09:39.000Z</time>
      </trkpt>
      <trkpt lat="48.72081" lon="1.73422">
        <ele>129.80000305176</ele>
        <time>2011-08-02T14:09:43.000Z</time>
      </trkpt>
      <trkpt lat="48.72072" lon="1.73425">
        <ele>129.80000305176</ele>
        <time>2011-08-02T14:09:49.000Z</time>
      </trkpt>
      <trkpt lat="48.72064" lon="1.73428">
        <ele>129.80000305176</ele>
        <time>2011-08-02T14:09:55.000Z</time>
      </trkpt>
      <trkpt lat="48.72054" lon="1.73429">
        <ele>130</ele>
        <time>2011-08-02T14:10:02.000Z</time>
      </trkpt>
      <trkpt lat="48.72048" lon="1.7343">
        <ele>130</ele>
        <time>2011-08-02T14:10:08.000Z</time>
      </trkpt>
      <trkpt lat="48.72042" lon="1.73432">
        <ele>130</ele>
        <time>2011-08-02T14:10:13.000Z</time>
      </trkpt>
      <trkpt lat="48.72034" lon="1.73436">
        <ele>130</ele>
        <time>2011-08-02T14:10:20.000Z</time>
      </trkpt>
      <trkpt lat="48.72025" lon="1.73438">
        <ele>130.19999694824</ele>
        <time>2011-08-02T14:10:26.000Z</time>
      </trkpt>
      <trkpt lat="48.72021" lon="1.73438">
        <ele>130.19999694824</ele>
        <time>2011-08-02T14:10:28.000Z</time>
      </trkpt>
      <trkpt lat="48.7201" lon="1.73438">
        <ele>130.39999389648</ele>
        <time>2011-08-02T14:10:36.000Z</time>
      </trkpt>
      <trkpt lat="48.71997" lon="1.73441">
        <ele>130.39999389648</ele>
        <time>2011-08-02T14:10:44.000Z</time>
      </trkpt>
      <trkpt lat="48.71989" lon="1.7344">
        <ele>130.39999389648</ele>
        <time>2011-08-02T14:10:50.000Z</time>
      </trkpt>
      <trkpt lat="48.71985" lon="1.73441">
        <ele>130.39999389648</ele>
        <time>2011-08-02T14:10:53.000Z</time>
      </trkpt>
      <trkpt lat="48.71979" lon="1.73444">
        <ele>130.60000610352</ele>
        <time>2011-08-02T14:10:57.000Z</time>
      </trkpt>
      <trkpt lat="48.71971" lon="1.73444">
        <ele>130.60000610352</ele>
        <time>2011-08-02T14:11:04.000Z</time>
      </trkpt>
      <trkpt lat="48.71961" lon="1.73448">
        <ele>130.60000610352</ele>
        <time>2011-08-02T14:11:10.000Z</time>
      </trkpt>
      <trkpt lat="48.71957" lon="1.73448">
        <ele>130.60000610352</ele>
        <time>2011-08-02T14:11:13.000Z</time>
      </trkpt>
      <trkpt lat="48.71951" lon="1.73453">
        <ele>130.80000305176</ele>
        <time>2011-08-02T14:11:20.000Z</time>
      </trkpt>
      <trkpt lat="48.71935" lon="1.73461">
        <ele>131</ele>
        <time>2011-08-02T14:11:30.000Z</time>
      </trkpt>
      <trkpt lat="48.71928" lon="1.73462">
        <ele>131</ele>
        <time>2011-08-02T14:11:35.000Z</time>
      </trkpt>
      <trkpt lat="48.71918" lon="1.73463">
        <ele>131</ele>
        <time>2011-08-02T14:11:42.000Z</time>
      </trkpt>
      <trkpt lat="48.71914" lon="1.73463">
        <ele>131</ele>
        <time>2011-08-02T14:11:45.000Z</time>
      </trkpt>
      <trkpt lat="48.71908" lon="1.73465">
        <ele>131.19999694824</ele>
        <time>2011-08-02T14:11:51.000Z</time>
      </trkpt>
      <trkpt lat="48.71904" lon="1.73467">
        <ele>131.39999389648</ele>
        <time>2011-08-02T14:11:53.000Z</time>
      </trkpt>
      <trkpt lat="48.71896" lon="1.73473">
        <ele>131.80000305176</ele>
        <time>2011-08-02T14:12:00.000Z</time>
      </trkpt>
      <trkpt lat="48.71887" lon="1.73475">
        <ele>132</ele>
        <time>2011-08-02T14:12:08.000Z</time>
      </trkpt>
      <trkpt lat="48.71875" lon="1.73481">
        <ele>132.39999389648</ele>
        <time>2011-08-02T14:12:16.000Z</time>
      </trkpt>
      <trkpt lat="48.71868" lon="1.7348">
        <ele>132.60000610352</ele>
        <time>2011-08-02T14:12:20.000Z</time>
      </trkpt>
      <trkpt lat="48.71866" lon="1.73479">
        <ele>132.60000610352</ele>
        <time>2011-08-02T14:12:22.000Z</time>
      </trkpt>
      <trkpt lat="48.71858" lon="1.73475">
        <ele>132.80000305176</ele>
        <time>2011-08-02T14:12:28.000Z</time>
      </trkpt>
      <trkpt lat="48.71848" lon="1.73477">
        <ele>133</ele>
        <time>2011-08-02T14:12:33.000Z</time>
      </trkpt>
      <trkpt lat="48.71844" lon="1.73476">
        <ele>133</ele>
        <time>2011-08-02T14:12:36.000Z</time>
      </trkpt>
      <trkpt lat="48.71836" lon="1.73477">
        <ele>133.19999694824</ele>
        <time>2011-08-02T14:12:42.000Z</time>
      </trkpt>
      <trkpt lat="48.71828" lon="1.73481">
        <ele>133.60000610352</ele>
        <time>2011-08-02T14:12:46.000Z</time>
      </trkpt>
      <trkpt lat="48.7182" lon="1.73481">
        <ele>134</ele>
        <time>2011-08-02T14:12:52.000Z</time>
      </trkpt>
      <trkpt lat="48.71818" lon="1.73481">
        <ele>134</ele>
        <time>2011-08-02T14:12:54.000Z</time>
      </trkpt>
      <trkpt lat="48.71805" lon="1.73484">
        <ele>134.60000610352</ele>
        <time>2011-08-02T14:12:59.000Z</time>
      </trkpt>
      <trkpt lat="48.71793" lon="1.73491">
        <ele>135.19999694824</ele>
        <time>2011-08-02T14:13:03.000Z</time>
      </trkpt>
      <trkpt lat="48.71788" lon="1.73493">
        <ele>135.39999389648</ele>
        <time>2011-08-02T14:13:08.000Z</time>
      </trkpt>
      <trkpt lat="48.71782" lon="1.73498">
        <ele>135.80000305176</ele>
        <time>2011-08-02T14:13:14.000Z</time>
      </trkpt>
      <trkpt lat="48.71775" lon="1.73501">
        <ele>136</ele>
        <time>2011-08-02T14:13:19.000Z</time>
      </trkpt>
      <trkpt lat="48.71765" lon="1.73504">
        <ele>136.39999389648</ele>
        <time>2011-08-02T14:13:25.000Z</time>
      </trkpt>
      <trkpt lat="48.71757" lon="1.73502">
        <ele>136.80000305176</ele>
        <time>2011-08-02T14:13:30.000Z</time>
      </trkpt>
      <trkpt lat="48.71744" lon="1.73504">
        <ele>137.19999694824</ele>
        <time>2011-08-02T14:13:38.000Z</time>
      </trkpt>
      <trkpt lat="48.71731" lon="1.73506">
        <ele>137.80000305176</ele>
        <time>2011-08-02T14:13:43.000Z</time>
      </trkpt>
      <trkpt lat="48.71714" lon="1.73509">
        <ele>138.39999389648</ele>
        <time>2011-08-02T14:13:50.000Z</time>
      </trkpt>
      <trkpt lat="48.71705" lon="1.7351">
        <ele>138.60000610352</ele>
        <time>2011-08-02T14:13:56.000Z</time>
      </trkpt>
      <trkpt lat="48.7169" lon="1.73511">
        <ele>139.19999694824</ele>
        <time>2011-08-02T14:14:05.000Z</time>
      </trkpt>
      <trkpt lat="48.71678" lon="1.73515">
        <ele>139.60000610352</ele>
        <time>2011-08-02T14:14:11.000Z</time>
      </trkpt>
      <trkpt lat="48.71672" lon="1.73518">
        <ele>139.80000305176</ele>
        <time>2011-08-02T14:14:14.000Z</time>
      </trkpt>
      <trkpt lat="48.71666" lon="1.7352">
        <ele>140</ele>
        <time>2011-08-02T14:14:19.000Z</time>
      </trkpt>
      <trkpt lat="48.71664" lon="1.73521">
        <ele>140</ele>
        <time>2011-08-02T14:14:20.000Z</time>
      </trkpt>
      <trkpt lat="48.71654" lon="1.73523">
        <ele>140.60000610352</ele>
        <time>2011-08-02T14:14:27.000Z</time>
      </trkpt>
      <trkpt lat="48.71648" lon="1.73523">
        <ele>140.80000305176</ele>
        <time>2011-08-02T14:14:33.000Z</time>
      </trkpt>
      <trkpt lat="48.71636" lon="1.73527">
        <ele>141.39999389648</ele>
        <time>2011-08-02T14:14:40.000Z</time>
      </trkpt>
      <trkpt lat="48.71628" lon="1.7353">
        <ele>142</ele>
        <time>2011-08-02T14:14:47.000Z</time>
      </trkpt>
      <trkpt lat="48.71625" lon="1.7353">
        <ele>142</ele>
        <time>2011-08-02T14:14:51.000Z</time>
      </trkpt>
      <trkpt lat="48.71615" lon="1.73532">
        <ele>142.60000610352</ele>
        <time>2011-08-02T14:14:58.000Z</time>
      </trkpt>
      <trkpt lat="48.71609" lon="1.73534">
        <ele>143</ele>
        <time>2011-08-02T14:15:03.000Z</time>
      </trkpt>
      <trkpt lat="48.71599" lon="1.73536">
        <ele>143.39999389648</ele>
        <time>2011-08-02T14:15:10.000Z</time>
      </trkpt>
      <trkpt lat="48.71588" lon="1.73539">
        <ele>144</ele>
        <time>2011-08-02T14:15:18.000Z</time>
      </trkpt>
      <trkpt lat="48.71582" lon="1.7354">
        <ele>144.39999389648</ele>
        <time>2011-08-02T14:15:22.000Z</time>
      </trkpt>
      <trkpt lat="48.71573" lon="1.73544">
        <ele>145.60000610352</ele>
        <time>2011-08-02T14:15:29.000Z</time>
      </trkpt>
      <trkpt lat="48.71566" lon="1.73547">
        <ele>146.39999389648</ele>
        <time>2011-08-02T14:15:34.000Z</time>
      </trkpt>
      <trkpt lat="48.71556" lon="1.73548">
        <ele>147.39999389648</ele>
        <time>2011-08-02T14:15:39.000Z</time>
      </trkpt>
      <trkpt lat="48.71549" lon="1.73549">
        <ele>148.39999389648</ele>
        <time>2011-08-02T14:15:44.000Z</time>
      </trkpt>
      <trkpt lat="48.71539" lon="1.73553">
        <ele>149.39999389648</ele>
        <time>2011-08-02T14:15:51.000Z</time>
      </trkpt>
      <trkpt lat="48.71532" lon="1.73554">
        <ele>150.19999694824</ele>
        <time>2011-08-02T14:15:56.000Z</time>
      </trkpt>
      <trkpt lat="48.71526" lon="1.73554">
        <ele>151</ele>
        <time>2011-08-02T14:16:02.000Z</time>
      </trkpt>
      <trkpt lat="48.71517" lon="1.73556">
        <ele>152</ele>
        <time>2011-08-02T14:16:09.000Z</time>
      </trkpt>
      <trkpt lat="48.71516" lon="1.73556">
        <ele>152.19999694824</ele>
        <time>2011-08-02T14:16:11.000Z</time>
      </trkpt>
      <trkpt lat="48.71508" lon="1.73556">
        <ele>153</ele>
        <time>2011-08-02T14:16:17.000Z</time>
      </trkpt>
      <trkpt lat="48.715" lon="1.73558">
        <ele>154</ele>
        <time>2011-08-02T14:16:23.000Z</time>
      </trkpt>
      <trkpt lat="48.71496" lon="1.7356">
        <ele>154.39999389648</ele>
        <time>2011-08-02T14:16:27.000Z</time>
      </trkpt>
      <trkpt lat="48.71491" lon="1.73558">
        <ele>155</ele>
        <time>2011-08-02T14:16:31.000Z</time>
      </trkpt>
      <trkpt lat="48.7148" lon="1.73562">
        <ele>156.19999694824</ele>
        <time>2011-08-02T14:16:37.000Z</time>
      </trkpt>
      <trkpt lat="48.71474" lon="1.73563">
        <ele>157</ele>
        <time>2011-08-02T14:16:43.000Z</time>
      </trkpt>
      <trkpt lat="48.71469" lon="1.73564">
        <ele>157.39999389648</ele>
        <time>2011-08-02T14:16:47.000Z</time>
      </trkpt>
      <trkpt lat="48.71459" lon="1.73561">
        <ele>158.39999389648</ele>
        <time>2011-08-02T14:16:52.000Z</time>
      </trkpt>
      <trkpt lat="48.71455" lon="1.73562">
        <ele>158.80000305176</ele>
        <time>2011-08-02T14:16:56.000Z</time>
      </trkpt>
      <trkpt lat="48.71441" lon="1.73567">
        <ele>160.19999694824</ele>
        <time>2011-08-02T14:17:04.000Z</time>
      </trkpt>
      <trkpt lat="48.71433" lon="1.73572">
        <ele>160.80000305176</ele>
        <time>2011-08-02T14:17:09.000Z</time>
      </trkpt>
      <trkpt lat="48.71428" lon="1.73575">
        <ele>161.19999694824</ele>
        <time>2011-08-02T14:17:16.000Z</time>
      </trkpt>
      <trkpt lat="48.71428" lon="1.73575">
        <ele>161.19999694824</ele>
        <time>2011-08-02T14:17:17.000Z</time>
      </trkpt>
      <trkpt lat="48.71415" lon="1.73577">
        <ele>162.39999389648</ele>
        <time>2011-08-02T14:17:31.000Z</time>
      </trkpt>
      <trkpt lat="48.71413" lon="1.73577">
        <ele>162.60000610352</ele>
        <time>2011-08-02T14:17:32.000Z</time>
      </trkpt>
      <trkpt lat="48.71405" lon="1.73581">
        <ele>163.19999694824</ele>
        <time>2011-08-02T14:17:36.000Z</time>
      </trkpt>
      <trkpt lat="48.71395" lon="1.73584">
        <ele>164.19999694824</ele>
        <time>2011-08-02T14:17:41.000Z</time>
      </trkpt>
      <trkpt lat="48.71388" lon="1.73581">
        <ele>165.19999694824</ele>
        <time>2011-08-02T14:17:46.000Z</time>
      </trkpt>
      <trkpt lat="48.71381" lon="1.73573">
        <ele>166.39999389648</ele>
        <time>2011-08-02T14:17:52.000Z</time>
      </trkpt>
      <trkpt lat="48.71376" lon="1.73568">
        <ele>167.19999694824</ele>
        <time>2011-08-02T14:17:56.000Z</time>
      </trkpt>
      <trkpt lat="48.71372" lon="1.73565">
        <ele>167.80000305176</ele>
        <time>2011-08-02T14:17:59.000Z</time>
      </trkpt>
      <trkpt lat="48.71358" lon="1.73557">
        <ele>170</ele>
        <time>2011-08-02T14:18:07.000Z</time>
      </trkpt>
      <trkpt lat="48.71353" lon="1.73549">
        <ele>171.19999694824</ele>
        <time>2011-08-02T14:18:12.000Z</time>
      </trkpt>
      <trkpt lat="48.71342" lon="1.73537">
        <ele>173.19999694824</ele>
        <time>2011-08-02T14:18:21.000Z</time>
      </trkpt>
      <trkpt lat="48.71335" lon="1.73533">
        <ele>174.19999694824</ele>
        <time>2011-08-02T14:18:25.000Z</time>
      </trkpt>
      <trkpt lat="48.7133" lon="1.73533">
        <ele>174.80000305176</ele>
        <time>2011-08-02T14:18:28.000Z</time>
      </trkpt>
      <trkpt lat="48.71326" lon="1.73535">
        <ele>175.19999694824</ele>
        <time>2011-08-02T14:18:32.000Z</time>
      </trkpt>
      <trkpt lat="48.71318" lon="1.7354">
        <ele>175.80000305176</ele>
        <time>2011-08-02T14:18:38.000Z</time>
      </trkpt>
      <trkpt lat="48.71316" lon="1.73548">
        <ele>175.60000610352</ele>
        <time>2011-08-02T14:18:44.000Z</time>
      </trkpt>
      <trkpt lat="48.71312" lon="1.73551">
        <ele>175.80000305176</ele>
        <time>2011-08-02T14:18:50.000Z</time>
      </trkpt>
      <trkpt lat="48.71311" lon="1.73555">
        <ele>176</ele>
        <time>2011-08-02T14:18:53.000Z</time>
      </trkpt>
      <trkpt lat="48.7131" lon="1.73559">
        <ele>175.80000305176</ele>
        <time>2011-08-02T14:18:56.000Z</time>
      </trkpt>
      <trkpt lat="48.71309" lon="1.7357">
        <ele>175.60000610352</ele>
        <time>2011-08-02T14:19:03.000Z</time>
      </trkpt>
      <trkpt lat="48.71308" lon="1.73572">
        <ele>175.60000610352</ele>
        <time>2011-08-02T14:19:04.000Z</time>
      </trkpt>
      <trkpt lat="48.71306" lon="1.73576">
        <ele>175.80000305176</ele>
        <time>2011-08-02T14:19:07.000Z</time>
      </trkpt>
      <trkpt lat="48.71305" lon="1.73581">
        <ele>175.80000305176</ele>
        <time>2011-08-02T14:19:11.000Z</time>
      </trkpt>
      <trkpt lat="48.71296" lon="1.73591">
        <ele>177</ele>
        <time>2011-08-02T14:19:18.000Z</time>
      </trkpt>
      <trkpt lat="48.71286" lon="1.73605">
        <ele>178.19999694824</ele>
        <time>2011-08-02T14:19:27.000Z</time>
      </trkpt>
      <trkpt lat="48.71278" lon="1.73612">
        <ele>179.39999389648</ele>
        <time>2011-08-02T14:19:34.000Z</time>
      </trkpt>
      <trkpt lat="48.71274" lon="1.73615">
        <ele>180</ele>
        <time>2011-08-02T14:19:38.000Z</time>
      </trkpt>
      <trkpt lat="48.71264" lon="1.73619">
        <ele>181.60000610352</ele>
        <time>2011-08-02T14:19:45.000Z</time>
      </trkpt>
      <trkpt lat="48.71254" lon="1.7362">
        <ele>183.39999389648</ele>
        <time>2011-08-02T14:19:54.000Z</time>
      </trkpt>
      <trkpt lat="48.71245" lon="1.7362">
        <ele>183.80000305176</ele>
        <time>2011-08-02T14:20:01.000Z</time>
      </trkpt>
      <trkpt lat="48.71238" lon="1.73617">
        <ele>183.60000610352</ele>
        <time>2011-08-02T14:20:06.000Z</time>
      </trkpt>
      <trkpt lat="48.71237" lon="1.73616">
        <ele>183.60000610352</ele>
        <time>2011-08-02T14:20:07.000Z</time>
      </trkpt>
      <trkpt lat="48.71225" lon="1.73618">
        <ele>183.19999694824</ele>
        <time>2011-08-02T14:20:13.000Z</time>
      </trkpt>
      <trkpt lat="48.71213" lon="1.73621">
        <ele>182.80000305176</ele>
        <time>2011-08-02T14:20:19.000Z</time>
      </trkpt>
      <trkpt lat="48.71206" lon="1.73609">
        <ele>182.39999389648</ele>
        <time>2011-08-02T14:20:26.000Z</time>
      </trkpt>
      <trkpt lat="48.712" lon="1.73609">
        <ele>182.19999694824</ele>
        <time>2011-08-02T14:20:30.000Z</time>
      </trkpt>
      <trkpt lat="48.71194" lon="1.73616">
        <ele>182</ele>
        <time>2011-08-02T14:20:35.000Z</time>
      </trkpt>
      <trkpt lat="48.71188" lon="1.73626">
        <ele>182</ele>
        <time>2011-08-02T14:20:43.000Z</time>
      </trkpt>
      <trkpt lat="48.7118" lon="1.73634">
        <ele>182</ele>
        <time>2011-08-02T14:20:50.000Z</time>
      </trkpt>
      <trkpt lat="48.71174" lon="1.73639">
        <ele>182</ele>
        <time>2011-08-02T14:20:56.000Z</time>
      </trkpt>
      <trkpt lat="48.71165" lon="1.73647">
        <ele>182.19999694824</ele>
        <time>2011-08-02T14:21:04.000Z</time>
      </trkpt>
      <trkpt lat="48.71154" lon="1.73658">
        <ele>182</ele>
        <time>2011-08-02T14:21:12.000Z</time>
      </trkpt>
      <trkpt lat="48.71148" lon="1.73665">
        <ele>182</ele>
        <time>2011-08-02T14:21:17.000Z</time>
      </trkpt>
      <trkpt lat="48.71145" lon="1.73674">
        <ele>182</ele>
        <time>2011-08-02T14:21:23.000Z</time>
      </trkpt>
      <trkpt lat="48.71136" lon="1.73688">
        <ele>182</ele>
        <time>2011-08-02T14:21:32.000Z</time>
      </trkpt>
      <trkpt lat="48.71131" lon="1.73693">
        <ele>182</ele>
        <time>2011-08-02T14:21:37.000Z</time>
      </trkpt>
      <trkpt lat="48.71125" lon="1.73703">
        <ele>182</ele>
        <time>2011-08-02T14:21:44.000Z</time>
      </trkpt>
      <trkpt lat="48.71118" lon="1.7371">
        <ele>182</ele>
        <time>2011-08-02T14:21:49.000Z</time>
      </trkpt>
      <trkpt lat="48.71112" lon="1.73715">
        <ele>182</ele>
        <time>2011-08-02T14:21:54.000Z</time>
      </trkpt>
      <trkpt lat="48.71105" lon="1.73721">
        <ele>182</ele>
        <time>2011-08-02T14:21:59.000Z</time>
      </trkpt>
      <trkpt lat="48.71098" lon="1.73729">
        <ele>182.19999694824</ele>
        <time>2011-08-02T14:22:06.000Z</time>
      </trkpt>
      <trkpt lat="48.71089" lon="1.73735">
        <ele>182.19999694824</ele>
        <time>2011-08-02T14:22:12.000Z</time>
      </trkpt>
      <trkpt lat="48.71082" lon="1.7374">
        <ele>182.39999389648</ele>
        <time>2011-08-02T14:22:19.000Z</time>
      </trkpt>
      <trkpt lat="48.71078" lon="1.73744">
        <ele>182.39999389648</ele>
        <time>2011-08-02T14:22:23.000Z</time>
      </trkpt>
      <trkpt lat="48.71077" lon="1.73744">
        <ele>182.39999389648</ele>
        <time>2011-08-02T14:22:24.000Z</time>
      </trkpt>
      <trkpt lat="48.71072" lon="1.73749">
        <ele>182.60000610352</ele>
        <time>2011-08-02T14:22:28.000Z</time>
      </trkpt>
      <trkpt lat="48.71067" lon="1.73754">
        <ele>182.39999389648</ele>
        <time>2011-08-02T14:22:32.000Z</time>
      </trkpt>
      <trkpt lat="48.71058" lon="1.73762">
        <ele>182.19999694824</ele>
        <time>2011-08-02T14:22:37.000Z</time>
      </trkpt>
      <trkpt lat="48.71051" lon="1.73773">
        <ele>182.19999694824</ele>
        <time>2011-08-02T14:22:44.000Z</time>
      </trkpt>
      <trkpt lat="48.71045" lon="1.73784">
        <ele>182.19999694824</ele>
        <time>2011-08-02T14:22:52.000Z</time>
      </trkpt>
      <trkpt lat="48.71038" lon="1.73793">
        <ele>182.19999694824</ele>
        <time>2011-08-02T14:22:58.000Z</time>
      </trkpt>
      <trkpt lat="48.71034" lon="1.73799">
        <ele>182.19999694824</ele>
        <time>2011-08-02T14:23:03.000Z</time>
      </trkpt>
      <trkpt lat="48.71024" lon="1.73803">
        <ele>182.19999694824</ele>
        <time>2011-08-02T14:23:10.000Z</time>
      </trkpt>
      <trkpt lat="48.71016" lon="1.73809">
        <ele>182.19999694824</ele>
        <time>2011-08-02T14:23:16.000Z</time>
      </trkpt>
      <trkpt lat="48.71009" lon="1.73813">
        <ele>182.39999389648</ele>
        <time>2011-08-02T14:23:21.000Z</time>
      </trkpt>
      <trkpt lat="48.71009" lon="1.73818">
        <ele>182.39999389648</ele>
        <time>2011-08-02T14:23:24.000Z</time>
      </trkpt>
      <trkpt lat="48.71006" lon="1.73825">
        <ele>182.60000610352</ele>
        <time>2011-08-02T14:23:27.000Z</time>
      </trkpt>
      <trkpt lat="48.71004" lon="1.73843">
        <ele>183</ele>
        <time>2011-08-02T14:23:35.000Z</time>
      </trkpt>
      <trkpt lat="48.71002" lon="1.73859">
        <ele>183.39999389648</ele>
        <time>2011-08-02T14:23:42.000Z</time>
      </trkpt>
      <trkpt lat="48.71001" lon="1.73863">
        <ele>183.60000610352</ele>
        <time>2011-08-02T14:23:44.000Z</time>
      </trkpt>
      <trkpt lat="48.70996" lon="1.73877">
        <ele>183.80000305176</ele>
        <time>2011-08-02T14:23:51.000Z</time>
      </trkpt>
      <trkpt lat="48.70996" lon="1.73879">
        <ele>183.80000305176</ele>
        <time>2011-08-02T14:23:52.000Z</time>
      </trkpt>
      <trkpt lat="48.70992" lon="1.73892">
        <ele>184</ele>
        <time>2011-08-02T14:23:59.000Z</time>
      </trkpt>
      <trkpt lat="48.70986" lon="1.73906">
        <ele>184.19999694824</ele>
        <time>2011-08-02T14:24:07.000Z</time>
      </trkpt>
      <trkpt lat="48.70984" lon="1.73915">
        <ele>184.39999389648</ele>
        <time>2011-08-02T14:24:12.000Z</time>
      </trkpt>
      <trkpt lat="48.70979" lon="1.73931">
        <ele>184</ele>
        <time>2011-08-02T14:24:20.000Z</time>
      </trkpt>
      <trkpt lat="48.70976" lon="1.73941">
        <ele>183.80000305176</ele>
        <time>2011-08-02T14:24:25.000Z</time>
      </trkpt>
      <trkpt lat="48.70974" lon="1.73951">
        <ele>183.39999389648</ele>
        <time>2011-08-02T14:24:31.000Z</time>
      </trkpt>
      <trkpt lat="48.70974" lon="1.73957">
        <ele>183.19999694824</ele>
        <time>2011-08-02T14:24:34.000Z</time>
      </trkpt>
      <trkpt lat="48.70975" lon="1.73967">
        <ele>183</ele>
        <time>2011-08-02T14:24:39.000Z</time>
      </trkpt>
      <trkpt lat="48.70969" lon="1.73985">
        <ele>182.60000610352</ele>
        <time>2011-08-02T14:24:47.000Z</time>
      </trkpt>
      <trkpt lat="48.70967" lon="1.73991">
        <ele>182.39999389648</ele>
        <time>2011-08-02T14:24:52.000Z</time>
      </trkpt>
      <trkpt lat="48.70967" lon="1.73991">
        <ele>182.39999389648</ele>
        <time>2011-08-02T14:24:53.000Z</time>
      </trkpt>
      <trkpt lat="48.70967" lon="1.73999">
        <ele>182.39999389648</ele>
        <time>2011-08-02T14:25:01.000Z</time>
      </trkpt>
      <trkpt lat="48.70967" lon="1.74004">
        <ele>182.19999694824</ele>
        <time>2011-08-02T14:25:04.000Z</time>
      </trkpt>
      <trkpt lat="48.70967" lon="1.74006">
        <ele>182.19999694824</ele>
        <time>2011-08-02T14:25:05.000Z</time>
      </trkpt>
      <trkpt lat="48.70966" lon="1.74018">
        <ele>182.39999389648</ele>
        <time>2011-08-02T14:25:11.000Z</time>
      </trkpt>
      <trkpt lat="48.70964" lon="1.74024">
        <ele>182.39999389648</ele>
        <time>2011-08-02T14:25:14.000Z</time>
      </trkpt>
      <trkpt lat="48.70961" lon="1.7403">
        <ele>182.39999389648</ele>
        <time>2011-08-02T14:25:18.000Z</time>
      </trkpt>
      <trkpt lat="48.7096" lon="1.74036">
        <ele>182.39999389648</ele>
        <time>2011-08-02T14:25:21.000Z</time>
      </trkpt>
      <trkpt lat="48.70956" lon="1.7405">
        <ele>182.39999389648</ele>
        <time>2011-08-02T14:25:28.000Z</time>
      </trkpt>
      <trkpt lat="48.70956" lon="1.74054">
        <ele>182.39999389648</ele>
        <time>2011-08-02T14:25:30.000Z</time>
      </trkpt>
      <trkpt lat="48.70954" lon="1.74062">
        <ele>182.39999389648</ele>
        <time>2011-08-02T14:25:34.000Z</time>
      </trkpt>
      <trkpt lat="48.7095" lon="1.74075">
        <ele>182.39999389648</ele>
        <time>2011-08-02T14:25:40.000Z</time>
      </trkpt>
      <trkpt lat="48.70949" lon="1.74077">
        <ele>182.60000610352</ele>
        <time>2011-08-02T14:25:41.000Z</time>
      </trkpt>
      <trkpt lat="48.70943" lon="1.74092">
        <ele>182.60000610352</ele>
        <time>2011-08-02T14:25:49.000Z</time>
      </trkpt>
      <trkpt lat="48.7094" lon="1.741">
        <ele>182.60000610352</ele>
        <time>2011-08-02T14:25:53.000Z</time>
      </trkpt>
      <trkpt lat="48.70938" lon="1.74114">
        <ele>182.39999389648</ele>
        <time>2011-08-02T14:25:59.000Z</time>
      </trkpt>
      <trkpt lat="48.70937" lon="1.74116">
        <ele>182.39999389648</ele>
        <time>2011-08-02T14:26:00.000Z</time>
      </trkpt>
      <trkpt lat="48.70937" lon="1.74127">
        <ele>182.39999389648</ele>
        <time>2011-08-02T14:26:05.000Z</time>
      </trkpt>
      <trkpt lat="48.70937" lon="1.74132">
        <ele>182.39999389648</ele>
        <time>2011-08-02T14:26:07.000Z</time>
      </trkpt>
      <trkpt lat="48.70934" lon="1.74143">
        <ele>182.39999389648</ele>
        <time>2011-08-02T14:26:13.000Z</time>
      </trkpt>
      <trkpt lat="48.70932" lon="1.7415">
        <ele>182.39999389648</ele>
        <time>2011-08-02T14:26:16.000Z</time>
      </trkpt>
      <trkpt lat="48.70928" lon="1.74168">
        <ele>182.39999389648</ele>
        <time>2011-08-02T14:26:23.000Z</time>
      </trkpt>
      <trkpt lat="48.70928" lon="1.74177">
        <ele>182.19999694824</ele>
        <time>2011-08-02T14:26:27.000Z</time>
      </trkpt>
      <trkpt lat="48.70925" lon="1.74186">
        <ele>182.19999694824</ele>
        <time>2011-08-02T14:26:32.000Z</time>
      </trkpt>
      <trkpt lat="48.70923" lon="1.74193">
        <ele>182</ele>
        <time>2011-08-02T14:26:35.000Z</time>
      </trkpt>
      <trkpt lat="48.70921" lon="1.74205">
        <ele>181.80000305176</ele>
        <time>2011-08-02T14:26:41.000Z</time>
      </trkpt>
      <trkpt lat="48.70916" lon="1.74219">
        <ele>181.60000610352</ele>
        <time>2011-08-02T14:26:49.000Z</time>
      </trkpt>
      <trkpt lat="48.70916" lon="1.74219">
        <ele>181.60000610352</ele>
        <time>2011-08-02T14:26:51.000Z</time>
      </trkpt>
      <trkpt lat="48.70913" lon="1.74226">
        <ele>181.39999389648</ele>
        <time>2011-08-02T14:26:56.000Z</time>
      </trkpt>
      <trkpt lat="48.7091" lon="1.74234">
        <ele>181.19999694824</ele>
        <time>2011-08-02T14:26:59.000Z</time>
      </trkpt>
      <trkpt lat="48.709" lon="1.74248">
        <ele>180.80000305176</ele>
        <time>2011-08-02T14:27:06.000Z</time>
      </trkpt>
      <trkpt lat="48.70898" lon="1.74258">
        <ele>180.19999694824</ele>
        <time>2011-08-02T14:27:11.000Z</time>
      </trkpt>
      <trkpt lat="48.70898" lon="1.74271">
        <ele>179.60000610352</ele>
        <time>2011-08-02T14:27:17.000Z</time>
      </trkpt>
      <trkpt lat="48.70891" lon="1.74284">
        <ele>178.80000305176</ele>
        <time>2011-08-02T14:27:24.000Z</time>
      </trkpt>
      <trkpt lat="48.70886" lon="1.74295">
        <ele>178.19999694824</ele>
        <time>2011-08-02T14:27:31.000Z</time>
      </trkpt>
      <trkpt lat="48.70883" lon="1.74303">
        <ele>177.80000305176</ele>
        <time>2011-08-02T14:27:36.000Z</time>
      </trkpt>
      <trkpt lat="48.70882" lon="1.74304">
        <ele>177.80000305176</ele>
        <time>2011-08-02T14:27:37.000Z</time>
      </trkpt>
      <trkpt lat="48.70875" lon="1.74314">
        <ele>177.39999389648</ele>
        <time>2011-08-02T14:27:43.000Z</time>
      </trkpt>
      <trkpt lat="48.7087" lon="1.7432">
        <ele>177</ele>
        <time>2011-08-02T14:27:49.000Z</time>
      </trkpt>
      <trkpt lat="48.70867" lon="1.74323">
        <ele>177</ele>
        <time>2011-08-02T14:27:55.000Z</time>
      </trkpt>
      <trkpt lat="48.70867" lon="1.74323">
        <ele>177</ele>
        <time>2011-08-02T14:27:57.000Z</time>
      </trkpt>
      <trkpt lat="48.70864" lon="1.74339">
        <ele>176.39999389648</ele>
        <time>2011-08-02T14:29:39.000Z</time>
      </trkpt>
      <trkpt lat="48.70858" lon="1.74347">
        <ele>176.39999389648</ele>
        <time>2011-08-02T14:29:44.000Z</time>
      </trkpt>
      <trkpt lat="48.70853" lon="1.74356">
        <ele>176.39999389648</ele>
        <time>2011-08-02T14:29:51.000Z</time>
      </trkpt>
      <trkpt lat="48.7085" lon="1.74367">
        <ele>176.39999389648</ele>
        <time>2011-08-02T14:29:58.000Z</time>
      </trkpt>
      <trkpt lat="48.70842" lon="1.74377">
        <ele>176.19999694824</ele>
        <time>2011-08-02T14:30:06.000Z</time>
      </trkpt>
      <trkpt lat="48.70836" lon="1.7439">
        <ele>176.19999694824</ele>
        <time>2011-08-02T14:30:14.000Z</time>
      </trkpt>
      <trkpt lat="48.70832" lon="1.74397">
        <ele>176.19999694824</ele>
        <time>2011-08-02T14:30:19.000Z</time>
      </trkpt>
      <trkpt lat="48.70827" lon="1.74402">
        <ele>176.19999694824</ele>
        <time>2011-08-02T14:30:24.000Z</time>
      </trkpt>
      <trkpt lat="48.70812" lon="1.74412">
        <ele>176.39999389648</ele>
        <time>2011-08-02T14:30:36.000Z</time>
      </trkpt>
      <trkpt lat="48.70811" lon="1.74412">
        <ele>176.60000610352</ele>
        <time>2011-08-02T14:30:38.000Z</time>
      </trkpt>
      <trkpt lat="48.70795" lon="1.74418">
        <ele>176.80000305176</ele>
        <time>2011-08-02T14:31:09.000Z</time>
      </trkpt>
      <trkpt lat="48.7079" lon="1.74421">
        <ele>177</ele>
        <time>2011-08-02T14:31:12.000Z</time>
      </trkpt>
      <trkpt lat="48.70783" lon="1.74423">
        <ele>177</ele>
        <time>2011-08-02T14:31:17.000Z</time>
      </trkpt>
      <trkpt lat="48.70775" lon="1.74427">
        <ele>177.19999694824</ele>
        <time>2011-08-02T14:31:23.000Z</time>
      </trkpt>
      <trkpt lat="48.70768" lon="1.74432">
        <ele>177.39999389648</ele>
        <time>2011-08-02T14:31:29.000Z</time>
      </trkpt>
      <trkpt lat="48.70763" lon="1.74437">
        <ele>177.39999389648</ele>
        <time>2011-08-02T14:31:34.000Z</time>
      </trkpt>
      <trkpt lat="48.70759" lon="1.74445">
        <ele>177.39999389648</ele>
        <time>2011-08-02T14:31:40.000Z</time>
      </trkpt>
      <trkpt lat="48.70749" lon="1.74449">
        <ele>177.60000610352</ele>
        <time>2011-08-02T14:31:48.000Z</time>
      </trkpt>
      <trkpt lat="48.70737" lon="1.74456">
        <ele>178</ele>
        <time>2011-08-02T14:31:58.000Z</time>
      </trkpt>
      <trkpt lat="48.70733" lon="1.7446">
        <ele>178</ele>
        <time>2011-08-02T14:32:02.000Z</time>
      </trkpt>
      <trkpt lat="48.70731" lon="1.74468">
        <ele>178</ele>
        <time>2011-08-02T14:32:06.000Z</time>
      </trkpt>
      <trkpt lat="48.70736" lon="1.74477">
        <ele>177.60000610352</ele>
        <time>2011-08-02T14:32:12.000Z</time>
      </trkpt>
      <trkpt lat="48.7074" lon="1.74481">
        <ele>177.39999389648</ele>
        <time>2011-08-02T14:32:15.000Z</time>
      </trkpt>
      <trkpt lat="48.70749" lon="1.74488">
        <ele>177</ele>
        <time>2011-08-02T14:32:21.000Z</time>
      </trkpt>
      <trkpt lat="48.70754" lon="1.74493">
        <ele>177</ele>
        <time>2011-08-02T14:32:28.000Z</time>
      </trkpt>
      <trkpt lat="48.70758" lon="1.745">
        <ele>176.80000305176</ele>
        <time>2011-08-02T14:32:34.000Z</time>
      </trkpt>
      <trkpt lat="48.70764" lon="1.74508">
        <ele>176.80000305176</ele>
        <time>2011-08-02T14:32:41.000Z</time>
      </trkpt>
      <trkpt lat="48.70773" lon="1.74517">
        <ele>176.60000610352</ele>
        <time>2011-08-02T14:32:49.000Z</time>
      </trkpt>
      <trkpt lat="48.70778" lon="1.74523">
        <ele>176.60000610352</ele>
        <time>2011-08-02T14:32:54.000Z</time>
      </trkpt>
      <trkpt lat="48.70783" lon="1.74529">
        <ele>176.39999389648</ele>
        <time>2011-08-02T14:33:00.000Z</time>
      </trkpt>
      <trkpt lat="48.70789" lon="1.74535">
        <ele>176.39999389648</ele>
        <time>2011-08-02T14:33:05.000Z</time>
      </trkpt>
      <trkpt lat="48.70797" lon="1.74544">
        <ele>176.39999389648</ele>
        <time>2011-08-02T14:33:12.000Z</time>
      </trkpt>
      <trkpt lat="48.70804" lon="1.74555">
        <ele>176.19999694824</ele>
        <time>2011-08-02T14:33:20.000Z</time>
      </trkpt>
      <trkpt lat="48.70809" lon="1.7456">
        <ele>176.19999694824</ele>
        <time>2011-08-02T14:33:24.000Z</time>
      </trkpt>
      <trkpt lat="48.70815" lon="1.74566">
        <ele>176.19999694824</ele>
        <time>2011-08-02T14:33:29.000Z</time>
      </trkpt>
      <trkpt lat="48.70816" lon="1.74568">
        <ele>176.19999694824</ele>
        <time>2011-08-02T14:33:31.000Z</time>
      </trkpt>
      <trkpt lat="48.70819" lon="1.74573">
        <ele>176</ele>
        <time>2011-08-02T14:33:37.000Z</time>
      </trkpt>
      <trkpt lat="48.70821" lon="1.74581">
        <ele>176</ele>
        <time>2011-08-02T14:33:43.000Z</time>
      </trkpt>
      <trkpt lat="48.70823" lon="1.74583">
        <ele>176</ele>
        <time>2011-08-02T14:33:47.000Z</time>
      </trkpt>
      <trkpt lat="48.70829" lon="1.74591">
        <ele>176</ele>
        <time>2011-08-02T14:33:55.000Z</time>
      </trkpt>
      <trkpt lat="48.70832" lon="1.74595">
        <ele>176</ele>
        <time>2011-08-02T14:34:01.000Z</time>
      </trkpt>
      <trkpt lat="48.70841" lon="1.74604">
        <ele>175.80000305176</ele>
        <time>2011-08-02T14:34:15.000Z</time>
      </trkpt>
      <trkpt lat="48.70846" lon="1.74611">
        <ele>175.80000305176</ele>
        <time>2011-08-02T14:34:18.000Z</time>
      </trkpt>
      <trkpt lat="48.70853" lon="1.74618">
        <ele>175.80000305176</ele>
        <time>2011-08-02T14:34:23.000Z</time>
      </trkpt>
      <trkpt lat="48.70861" lon="1.74631">
        <ele>175.80000305176</ele>
        <time>2011-08-02T14:34:32.000Z</time>
      </trkpt>
      <trkpt lat="48.70865" lon="1.74636">
        <ele>175.80000305176</ele>
        <time>2011-08-02T14:34:36.000Z</time>
      </trkpt>
      <trkpt lat="48.70876" lon="1.74651">
        <ele>175.80000305176</ele>
        <time>2011-08-02T14:34:47.000Z</time>
      </trkpt>
      <trkpt lat="48.70879" lon="1.74655">
        <ele>175.80000305176</ele>
        <time>2011-08-02T14:34:50.000Z</time>
      </trkpt>
      <trkpt lat="48.70881" lon="1.74657">
        <ele>175.80000305176</ele>
        <time>2011-08-02T14:34:55.000Z</time>
      </trkpt>
      <trkpt lat="48.70887" lon="1.74662">
        <ele>175.80000305176</ele>
        <time>2011-08-02T14:35:11.000Z</time>
      </trkpt>
      <trkpt lat="48.7089" lon="1.74665">
        <ele>175.80000305176</ele>
        <time>2011-08-02T14:35:14.000Z</time>
      </trkpt>
      <trkpt lat="48.70891" lon="1.74667">
        <ele>176</ele>
        <time>2011-08-02T14:35:15.000Z</time>
      </trkpt>
      <trkpt lat="48.70894" lon="1.74672">
        <ele>176</ele>
        <time>2011-08-02T14:35:19.000Z</time>
      </trkpt>
      <trkpt lat="48.70901" lon="1.74679">
        <ele>176.19999694824</ele>
        <time>2011-08-02T14:35:24.000Z</time>
      </trkpt>
      <trkpt lat="48.70906" lon="1.74684">
        <ele>176.39999389648</ele>
        <time>2011-08-02T14:35:28.000Z</time>
      </trkpt>
      <trkpt lat="48.70912" lon="1.74695">
        <ele>176.60000610352</ele>
        <time>2011-08-02T14:35:35.000Z</time>
      </trkpt>
      <trkpt lat="48.70913" lon="1.74696">
        <ele>176.60000610352</ele>
        <time>2011-08-02T14:35:36.000Z</time>
      </trkpt>
      <trkpt lat="48.70918" lon="1.74703">
        <ele>176.80000305176</ele>
        <time>2011-08-02T14:35:42.000Z</time>
      </trkpt>
      <trkpt lat="48.70919" lon="1.74705">
        <ele>176.80000305176</ele>
        <time>2011-08-02T14:35:43.000Z</time>
      </trkpt>
      <trkpt lat="48.70929" lon="1.74719">
        <ele>177.39999389648</ele>
        <time>2011-08-02T14:35:53.000Z</time>
      </trkpt>
      <trkpt lat="48.70939" lon="1.74735">
        <ele>177.60000610352</ele>
        <time>2011-08-02T14:36:03.000Z</time>
      </trkpt>
      <trkpt lat="48.7095" lon="1.74751">
        <ele>178</ele>
        <time>2011-08-02T14:36:14.000Z</time>
      </trkpt>
      <trkpt lat="48.70954" lon="1.74755">
        <ele>178</ele>
        <time>2011-08-02T14:36:19.000Z</time>
      </trkpt>
      <trkpt lat="48.70962" lon="1.74767">
        <ele>178</ele>
        <time>2011-08-02T14:36:27.000Z</time>
      </trkpt>
      <trkpt lat="48.70971" lon="1.74779">
        <ele>178.19999694824</ele>
        <time>2011-08-02T14:36:35.000Z</time>
      </trkpt>
      <trkpt lat="48.70979" lon="1.74791">
        <ele>178.19999694824</ele>
        <time>2011-08-02T14:36:44.000Z</time>
      </trkpt>
      <trkpt lat="48.70986" lon="1.74801">
        <ele>178.39999389648</ele>
        <time>2011-08-02T14:36:51.000Z</time>
      </trkpt>
      <trkpt lat="48.70992" lon="1.74811">
        <ele>178.60000610352</ele>
        <time>2011-08-02T14:36:58.000Z</time>
      </trkpt>
      <trkpt lat="48.70993" lon="1.74812">
        <ele>178.60000610352</ele>
        <time>2011-08-02T14:36:59.000Z</time>
      </trkpt>
      <trkpt lat="48.71002" lon="1.74824">
        <ele>178.60000610352</ele>
        <time>2011-08-02T14:37:08.000Z</time>
      </trkpt>
      <trkpt lat="48.71005" lon="1.74827">
        <ele>178.60000610352</ele>
        <time>2011-08-02T14:37:10.000Z</time>
      </trkpt>
      <trkpt lat="48.71012" lon="1.74836">
        <ele>178.19999694824</ele>
        <time>2011-08-02T14:37:15.000Z</time>
      </trkpt>
      <trkpt lat="48.71013" lon="1.74845">
        <ele>178.19999694824</ele>
        <time>2011-08-02T14:37:20.000Z</time>
      </trkpt>
      <trkpt lat="48.71014" lon="1.74858">
        <ele>178.19999694824</ele>
        <time>2011-08-02T14:37:26.000Z</time>
      </trkpt>
      <trkpt lat="48.71013" lon="1.74859">
        <ele>178.19999694824</ele>
        <time>2011-08-02T14:37:27.000Z</time>
      </trkpt>
      <trkpt lat="48.71011" lon="1.74865">
        <ele>178.39999389648</ele>
        <time>2011-08-02T14:37:31.000Z</time>
      </trkpt>
      <trkpt lat="48.71003" lon="1.74875">
        <ele>178.80000305176</ele>
        <time>2011-08-02T14:37:39.000Z</time>
      </trkpt>
      <trkpt lat="48.70996" lon="1.74883">
        <ele>178.80000305176</ele>
        <time>2011-08-02T14:37:44.000Z</time>
      </trkpt>
      <trkpt lat="48.70992" lon="1.74888">
        <ele>178.60000610352</ele>
        <time>2011-08-02T14:37:47.000Z</time>
      </trkpt>
      <trkpt lat="48.70987" lon="1.74893">
        <ele>178.39999389648</ele>
        <time>2011-08-02T14:37:52.000Z</time>
      </trkpt>
      <trkpt lat="48.70979" lon="1.74905">
        <ele>178</ele>
        <time>2011-08-02T14:38:01.000Z</time>
      </trkpt>
      <trkpt lat="48.70969" lon="1.74916">
        <ele>177.39999389648</ele>
        <time>2011-08-02T14:38:09.000Z</time>
      </trkpt>
      <trkpt lat="48.70962" lon="1.74923">
        <ele>177</ele>
        <time>2011-08-02T14:38:15.000Z</time>
      </trkpt>
      <trkpt lat="48.70953" lon="1.74934">
        <ele>176.60000610352</ele>
        <time>2011-08-02T14:38:22.000Z</time>
      </trkpt>
      <trkpt lat="48.70945" lon="1.74943">
        <ele>176.19999694824</ele>
        <time>2011-08-02T14:38:28.000Z</time>
      </trkpt>
      <trkpt lat="48.70941" lon="1.74952">
        <ele>176</ele>
        <time>2011-08-02T14:38:34.000Z</time>
      </trkpt>
      <trkpt lat="48.70935" lon="1.74963">
        <ele>175.60000610352</ele>
        <time>2011-08-02T14:38:41.000Z</time>
      </trkpt>
      <trkpt lat="48.70925" lon="1.74976">
        <ele>175.19999694824</ele>
        <time>2011-08-02T14:38:50.000Z</time>
      </trkpt>
      <trkpt lat="48.7092" lon="1.74988">
        <ele>175</ele>
        <time>2011-08-02T14:38:57.000Z</time>
      </trkpt>
      <trkpt lat="48.70914" lon="1.74999">
        <ele>174.80000305176</ele>
        <time>2011-08-02T14:39:03.000Z</time>
      </trkpt>
      <trkpt lat="48.70908" lon="1.75011">
        <ele>174.80000305176</ele>
        <time>2011-08-02T14:39:10.000Z</time>
      </trkpt>
      <trkpt lat="48.70903" lon="1.75021">
        <ele>174.60000610352</ele>
        <time>2011-08-02T14:39:16.000Z</time>
      </trkpt>
      <trkpt lat="48.709" lon="1.7503">
        <ele>174.60000610352</ele>
        <time>2011-08-02T14:39:21.000Z</time>
      </trkpt>
      <trkpt lat="48.70895" lon="1.75041">
        <ele>174.39999389648</ele>
        <time>2011-08-02T14:39:28.000Z</time>
      </trkpt>
      <trkpt lat="48.70888" lon="1.75055">
        <ele>174.19999694824</ele>
        <time>2011-08-02T14:39:36.000Z</time>
      </trkpt>
      <trkpt lat="48.70886" lon="1.75058">
        <ele>174.19999694824</ele>
        <time>2011-08-02T14:39:38.000Z</time>
      </trkpt>
      <trkpt lat="48.70883" lon="1.75066">
        <ele>174.19999694824</ele>
        <time>2011-08-02T14:39:44.000Z</time>
      </trkpt>
      <trkpt lat="48.70882" lon="1.75065">
        <ele>174.19999694824</ele>
        <time>2011-08-02T14:39:46.000Z</time>
      </trkpt>
      <trkpt lat="48.70874" lon="1.75078">
        <ele>174</ele>
        <time>2011-08-02T14:40:31.000Z</time>
      </trkpt>
      <trkpt lat="48.70874" lon="1.7508">
        <ele>174</ele>
        <time>2011-08-02T14:40:32.000Z</time>
      </trkpt>
      <trkpt lat="48.70869" lon="1.7509">
        <ele>174</ele>
        <time>2011-08-02T14:40:38.000Z</time>
      </trkpt>
      <trkpt lat="48.70863" lon="1.75106">
        <ele>174</ele>
        <time>2011-08-02T14:40:47.000Z</time>
      </trkpt>
      <trkpt lat="48.70856" lon="1.75121">
        <ele>174</ele>
        <time>2011-08-02T14:40:56.000Z</time>
      </trkpt>
      <trkpt lat="48.7085" lon="1.75133">
        <ele>174</ele>
        <time>2011-08-02T14:41:05.000Z</time>
      </trkpt>
      <trkpt lat="48.7085" lon="1.75133">
        <ele>174</ele>
        <time>2011-08-02T14:41:06.000Z</time>
      </trkpt>
      <trkpt lat="48.70845" lon="1.75144">
        <ele>174</ele>
        <time>2011-08-02T14:41:17.000Z</time>
      </trkpt>
      <trkpt lat="48.7084" lon="1.75155">
        <ele>174</ele>
        <time>2011-08-02T14:41:24.000Z</time>
      </trkpt>
      <trkpt lat="48.70835" lon="1.75167">
        <ele>174</ele>
        <time>2011-08-02T14:41:33.000Z</time>
      </trkpt>
      <trkpt lat="48.70832" lon="1.75173">
        <ele>173.80000305176</ele>
        <time>2011-08-02T14:41:38.000Z</time>
      </trkpt>
      <trkpt lat="48.70828" lon="1.75182">
        <ele>173.80000305176</ele>
        <time>2011-08-02T14:41:45.000Z</time>
      </trkpt>
      <trkpt lat="48.70823" lon="1.75193">
        <ele>173.80000305176</ele>
        <time>2011-08-02T14:41:53.000Z</time>
      </trkpt>
      <trkpt lat="48.7082" lon="1.75201">
        <ele>173.80000305176</ele>
        <time>2011-08-02T14:41:58.000Z</time>
      </trkpt>
      <trkpt lat="48.70817" lon="1.75207">
        <ele>173.80000305176</ele>
        <time>2011-08-02T14:42:02.000Z</time>
      </trkpt>
      <trkpt lat="48.70812" lon="1.7522">
        <ele>173.60000610352</ele>
        <time>2011-08-02T14:42:10.000Z</time>
      </trkpt>
      <trkpt lat="48.70806" lon="1.75235">
        <ele>173.60000610352</ele>
        <time>2011-08-02T14:42:18.000Z</time>
      </trkpt>
      <trkpt lat="48.708" lon="1.75249">
        <ele>173.39999389648</ele>
        <time>2011-08-02T14:42:27.000Z</time>
      </trkpt>
      <trkpt lat="48.70794" lon="1.75263">
        <ele>173.39999389648</ele>
        <time>2011-08-02T14:42:35.000Z</time>
      </trkpt>
      <trkpt lat="48.70791" lon="1.75269">
        <ele>173.39999389648</ele>
        <time>2011-08-02T14:42:42.000Z</time>
      </trkpt>
      <trkpt lat="48.70784" lon="1.75287">
        <ele>173.39999389648</ele>
        <time>2011-08-02T14:43:01.000Z</time>
      </trkpt>
      <trkpt lat="48.70782" lon="1.7529">
        <ele>173.19999694824</ele>
        <time>2011-08-02T14:43:03.000Z</time>
      </trkpt>
      <trkpt lat="48.70776" lon="1.75307">
        <ele>173.19999694824</ele>
        <time>2011-08-02T14:43:13.000Z</time>
      </trkpt>
      <trkpt lat="48.7077" lon="1.75323">
        <ele>173.19999694824</ele>
        <time>2011-08-02T14:43:23.000Z</time>
      </trkpt>
      <trkpt lat="48.70765" lon="1.75338">
        <ele>173</ele>
        <time>2011-08-02T14:43:31.000Z</time>
      </trkpt>
      <trkpt lat="48.70758" lon="1.75354">
        <ele>172.80000305176</ele>
        <time>2011-08-02T14:43:40.000Z</time>
      </trkpt>
      <trkpt lat="48.70752" lon="1.7537">
        <ele>172.39999389648</ele>
        <time>2011-08-02T14:43:49.000Z</time>
      </trkpt>
      <trkpt lat="48.70748" lon="1.75379">
        <ele>172.39999389648</ele>
        <time>2011-08-02T14:43:54.000Z</time>
      </trkpt>
      <trkpt lat="48.70746" lon="1.75381">
        <ele>172.19999694824</ele>
        <time>2011-08-02T14:43:58.000Z</time>
      </trkpt>
      <trkpt lat="48.70744" lon="1.75387">
        <ele>172.19999694824</ele>
        <time>2011-08-02T14:44:02.000Z</time>
      </trkpt>
      <trkpt lat="48.70741" lon="1.75397">
        <ele>172</ele>
        <time>2011-08-02T14:44:08.000Z</time>
      </trkpt>
      <trkpt lat="48.70736" lon="1.75406">
        <ele>171.80000305176</ele>
        <time>2011-08-02T14:44:15.000Z</time>
      </trkpt>
      <trkpt lat="48.70731" lon="1.7542">
        <ele>171.60000610352</ele>
        <time>2011-08-02T14:44:24.000Z</time>
      </trkpt>
      <trkpt lat="48.70723" lon="1.75437">
        <ele>171.60000610352</ele>
        <time>2011-08-02T14:44:34.000Z</time>
      </trkpt>
      <trkpt lat="48.70719" lon="1.75452">
        <ele>171.60000610352</ele>
        <time>2011-08-02T14:44:43.000Z</time>
      </trkpt>
      <trkpt lat="48.70716" lon="1.7546">
        <ele>171.60000610352</ele>
        <time>2011-08-02T14:44:48.000Z</time>
      </trkpt>
      <trkpt lat="48.70712" lon="1.75469">
        <ele>171.60000610352</ele>
        <time>2011-08-02T14:44:54.000Z</time>
      </trkpt>
      <trkpt lat="48.70711" lon="1.75471">
        <ele>171.60000610352</ele>
        <time>2011-08-02T14:44:55.000Z</time>
      </trkpt>
      <trkpt lat="48.70704" lon="1.75486">
        <ele>172</ele>
        <time>2011-08-02T14:45:05.000Z</time>
      </trkpt>
      <trkpt lat="48.70699" lon="1.75488">
        <ele>172</ele>
        <time>2011-08-02T14:45:11.000Z</time>
      </trkpt>
      <trkpt lat="48.70701" lon="1.75494">
        <ele>172</ele>
        <time>2011-08-02T14:45:59.000Z</time>
      </trkpt>
      <trkpt lat="48.70697" lon="1.75503">
        <ele>172.19999694824</ele>
        <time>2011-08-02T14:46:04.000Z</time>
      </trkpt>
      <trkpt lat="48.70696" lon="1.75504">
        <ele>172.19999694824</ele>
        <time>2011-08-02T14:46:07.000Z</time>
      </trkpt>
      <trkpt lat="48.70688" lon="1.7552">
        <ele>172.80000305176</ele>
        <time>2011-08-02T14:46:23.000Z</time>
      </trkpt>
      <trkpt lat="48.70684" lon="1.75532">
        <ele>173.19999694824</ele>
        <time>2011-08-02T14:46:29.000Z</time>
      </trkpt>
      <trkpt lat="48.70683" lon="1.75536">
        <ele>173.39999389648</ele>
        <time>2011-08-02T14:46:31.000Z</time>
      </trkpt>
      <trkpt lat="48.70676" lon="1.75551">
        <ele>173.80000305176</ele>
        <time>2011-08-02T14:46:39.000Z</time>
      </trkpt>
      <trkpt lat="48.70674" lon="1.75559">
        <ele>174</ele>
        <time>2011-08-02T14:46:44.000Z</time>
      </trkpt>
      <trkpt lat="48.70667" lon="1.75574">
        <ele>174.60000610352</ele>
        <time>2011-08-02T14:46:54.000Z</time>
      </trkpt>
      <trkpt lat="48.70661" lon="1.75586">
        <ele>175.39999389648</ele>
        <time>2011-08-02T14:47:01.000Z</time>
      </trkpt>
      <trkpt lat="48.70656" lon="1.75597">
        <ele>176</ele>
        <time>2011-08-02T14:47:08.000Z</time>
      </trkpt>
      <trkpt lat="48.70652" lon="1.75605">
        <ele>176.39999389648</ele>
        <time>2011-08-02T14:47:13.000Z</time>
      </trkpt>
      <trkpt lat="48.7065" lon="1.75611">
        <ele>176.60000610352</ele>
        <time>2011-08-02T14:47:16.000Z</time>
      </trkpt>
      <trkpt lat="48.70647" lon="1.75618">
        <ele>177</ele>
        <time>2011-08-02T14:47:20.000Z</time>
      </trkpt>
      <trkpt lat="48.70644" lon="1.75631">
        <ele>177.39999389648</ele>
        <time>2011-08-02T14:47:27.000Z</time>
      </trkpt>
      <trkpt lat="48.70643" lon="1.75645">
        <ele>177.60000610352</ele>
        <time>2011-08-02T14:47:34.000Z</time>
      </trkpt>
      <trkpt lat="48.70646" lon="1.7566">
        <ele>177.39999389648</ele>
        <time>2011-08-02T14:47:42.000Z</time>
      </trkpt>
      <trkpt lat="48.70647" lon="1.75661">
        <ele>177.19999694824</ele>
        <time>2011-08-02T14:47:43.000Z</time>
      </trkpt>
      <trkpt lat="48.70659" lon="1.75673">
        <ele>175.80000305176</ele>
        <time>2011-08-02T14:47:51.000Z</time>
      </trkpt>
      <trkpt lat="48.70667" lon="1.75682">
        <ele>174.80000305176</ele>
        <time>2011-08-02T14:47:58.000Z</time>
      </trkpt>
      <trkpt lat="48.70676" lon="1.75692">
        <ele>174.39999389648</ele>
        <time>2011-08-02T14:48:06.000Z</time>
      </trkpt>
      <trkpt lat="48.70678" lon="1.75697">
        <ele>174.39999389648</ele>
        <time>2011-08-02T14:48:12.000Z</time>
      </trkpt>
      <trkpt lat="48.70682" lon="1.75702">
        <ele>174.19999694824</ele>
        <time>2011-08-02T14:48:16.000Z</time>
      </trkpt>
      <trkpt lat="48.70687" lon="1.75708">
        <ele>174.19999694824</ele>
        <time>2011-08-02T14:48:21.000Z</time>
      </trkpt>
      <trkpt lat="48.70695" lon="1.75717">
        <ele>174</ele>
        <time>2011-08-02T14:48:30.000Z</time>
      </trkpt>
      <trkpt lat="48.70704" lon="1.75728">
        <ele>174</ele>
        <time>2011-08-02T14:48:39.000Z</time>
      </trkpt>
      <trkpt lat="48.70712" lon="1.75739">
        <ele>173.80000305176</ele>
        <time>2011-08-02T14:48:46.000Z</time>
      </trkpt>
      <trkpt lat="48.70719" lon="1.75749">
        <ele>173.80000305176</ele>
        <time>2011-08-02T14:48:54.000Z</time>
      </trkpt>
      <trkpt lat="48.70726" lon="1.7576">
        <ele>173.80000305176</ele>
        <time>2011-08-02T14:49:03.000Z</time>
      </trkpt>
      <trkpt lat="48.70731" lon="1.75767">
        <ele>173.60000610352</ele>
        <time>2011-08-02T14:49:10.000Z</time>
      </trkpt>
      <trkpt lat="48.70736" lon="1.75776">
        <ele>173.60000610352</ele>
        <time>2011-08-02T14:49:18.000Z</time>
      </trkpt>
      <trkpt lat="48.7074" lon="1.75782">
        <ele>173.39999389648</ele>
        <time>2011-08-02T14:49:23.000Z</time>
      </trkpt>
      <trkpt lat="48.70745" lon="1.75788">
        <ele>173.39999389648</ele>
        <time>2011-08-02T14:49:29.000Z</time>
      </trkpt>
      <trkpt lat="48.70749" lon="1.75794">
        <ele>173.39999389648</ele>
        <time>2011-08-02T14:49:35.000Z</time>
      </trkpt>
      <trkpt lat="48.70755" lon="1.75804">
        <ele>173.19999694824</ele>
        <time>2011-08-02T14:49:43.000Z</time>
      </trkpt>
      <trkpt lat="48.7076" lon="1.75814">
        <ele>173</ele>
        <time>2011-08-02T14:49:51.000Z</time>
      </trkpt>
      <trkpt lat="48.70771" lon="1.75828">
        <ele>172.80000305176</ele>
        <time>2011-08-02T14:50:00.000Z</time>
      </trkpt>
      <trkpt lat="48.70779" lon="1.75839">
        <ele>172.60000610352</ele>
        <time>2011-08-02T14:50:09.000Z</time>
      </trkpt>
      <trkpt lat="48.70783" lon="1.75844">
        <ele>172.60000610352</ele>
        <time>2011-08-02T14:50:14.000Z</time>
      </trkpt>
      <trkpt lat="48.7079" lon="1.75853">
        <ele>172.60000610352</ele>
        <time>2011-08-02T14:50:22.000Z</time>
      </trkpt>
      <trkpt lat="48.70796" lon="1.75861">
        <ele>172.80000305176</ele>
        <time>2011-08-02T14:50:29.000Z</time>
      </trkpt>
      <trkpt lat="48.70797" lon="1.75862">
        <ele>172.80000305176</ele>
        <time>2011-08-02T14:50:30.000Z</time>
      </trkpt>
      <trkpt lat="48.70796" lon="1.75862">
        <ele>172.80000305176</ele>
        <time>2011-08-02T14:50:34.000Z</time>
      </trkpt>
      <trkpt lat="48.70831" lon="1.75891">
        <ele>173.19999694824</ele>
        <time>2011-08-02T14:51:19.000Z</time>
      </trkpt>
      <trkpt lat="48.70835" lon="1.75893">
        <ele>173.39999389648</ele>
        <time>2011-08-02T14:51:21.000Z</time>
      </trkpt>
    </trkseg>
  </trk>
</gpx>